<?xml version="1.0" encoding="UTF-8" standalone="no" ?>
<gpx xmlns="http://www.topografix.com/GPX/1/1" xmlns:xsi="http://www.w3.org/2001/XMLSchema-instance" xsi:schemaLocation="http://www.topografix.com/GPX/1/1 http://www.topografix.com/GPX/1/1/gpx.xsd" version="1.1" creator="VisuGPX - https://www.visugpx.com">
  <metadata>
    <name>Cyfac-J2-128-2500</name>
    <desc><![CDATA[Cyfac - J2 - 128 km - D+ 2500 m]]></desc>
  </metadata>
  <wpt lat="45.55177" lon="3.37495">
    <ele>461.7</ele>
    <name><![CDATA[Sauxillanges]]></name>
    <desc><![CDATA[]]></desc>
  </wpt>
  <wpt lat="45.51783" lon="3.43708">
    <ele>827.6</ele>
    <name><![CDATA[Côte du Besset]]></name>
    <desc><![CDATA[]]></desc>
  </wpt>
  <wpt lat="45.61654" lon="3.27008">
    <ele>653.8</ele>
    <name><![CDATA[Col de la Croix des Gardes]]></name>
    <desc><![CDATA[]]></desc>
  </wpt>
  <wpt lat="45.77087" lon="2.96326">
    <ele>1413.9</ele>
    <name><![CDATA[Puy de Dôme]]></name>
    <desc><![CDATA[]]></desc>
  </wpt>
  <wpt lat="45.53856" lon="3.56518">
    <ele>1078.8</ele>
    <name><![CDATA[Les Deux-Frères]]></name>
    <desc><![CDATA[]]></desc>
  </wpt>
  <wpt lat="45.77088" lon="2.96325">
    <ele>1414.3</ele>
    <name><![CDATA[]]></name>
    <desc><![CDATA[]]></desc>
  </wpt>
  <trk>
    <name><![CDATA[10547212-Objectif puy de Dôme 2021 / Étape 2 / 128 km]]></name>
    <trkseg>
      <trkpt lat="45.77036" lon="2.97983">
        <ele>935</ele>
        <time>2021-06-11T16:09:40Z</time>
      </trkpt>
      <trkpt lat="45.7704" lon="2.97968">
        <ele>937</ele>
        <time>2021-06-11T16:09:42Z</time>
      </trkpt>
      <trkpt lat="45.7704" lon="2.97968">
        <ele>937</ele>
        <time>2021-06-11T16:09:42Z</time>
      </trkpt>
      <trkpt lat="45.7708" lon="2.9787">
        <ele>950</ele>
        <time>2021-06-11T16:09:56Z</time>
      </trkpt>
      <trkpt lat="45.7708" lon="2.9787">
        <ele>950</ele>
        <time>2021-06-11T16:09:56Z</time>
      </trkpt>
      <trkpt lat="45.77085" lon="2.97843">
        <ele>953</ele>
        <time>2021-06-11T16:10:00Z</time>
      </trkpt>
      <trkpt lat="45.77085" lon="2.97843">
        <ele>953</ele>
        <time>2021-06-11T16:10:00Z</time>
      </trkpt>
      <trkpt lat="45.77084" lon="2.97801">
        <ele>959</ele>
        <time>2021-06-11T16:10:05Z</time>
      </trkpt>
      <trkpt lat="45.77084" lon="2.97801">
        <ele>959</ele>
        <time>2021-06-11T16:10:05Z</time>
      </trkpt>
      <trkpt lat="45.77078" lon="2.97781">
        <ele>961</ele>
        <time>2021-06-11T16:10:07Z</time>
      </trkpt>
      <trkpt lat="45.77078" lon="2.97781">
        <ele>961</ele>
        <time>2021-06-11T16:10:07Z</time>
      </trkpt>
      <trkpt lat="45.77069" lon="2.97754">
        <ele>964</ele>
        <time>2021-06-11T16:10:11Z</time>
      </trkpt>
      <trkpt lat="45.77069" lon="2.97754">
        <ele>964</ele>
        <time>2021-06-11T16:10:11Z</time>
      </trkpt>
      <trkpt lat="45.77039" lon="2.97711">
        <ele>967</ele>
        <time>2021-06-11T16:10:19Z</time>
      </trkpt>
      <trkpt lat="45.77039" lon="2.97711">
        <ele>967</ele>
        <time>2021-06-11T16:10:19Z</time>
      </trkpt>
      <trkpt lat="45.77024" lon="2.97687">
        <ele>969</ele>
        <time>2021-06-11T16:10:23Z</time>
      </trkpt>
      <trkpt lat="45.77024" lon="2.97687">
        <ele>969</ele>
        <time>2021-06-11T16:10:23Z</time>
      </trkpt>
      <trkpt lat="45.77" lon="2.97633">
        <ele>975</ele>
        <time>2021-06-11T16:10:31Z</time>
      </trkpt>
      <trkpt lat="45.77" lon="2.97633">
        <ele>975</ele>
        <time>2021-06-11T16:10:31Z</time>
      </trkpt>
      <trkpt lat="45.76971" lon="2.97559">
        <ele>985</ele>
        <time>2021-06-11T16:10:41Z</time>
      </trkpt>
      <trkpt lat="45.76971" lon="2.97559">
        <ele>985</ele>
        <time>2021-06-11T16:10:41Z</time>
      </trkpt>
      <trkpt lat="45.76934" lon="2.97485">
        <ele>992</ele>
        <time>2021-06-11T16:10:53Z</time>
      </trkpt>
      <trkpt lat="45.76934" lon="2.97485">
        <ele>992</ele>
        <time>2021-06-11T16:10:53Z</time>
      </trkpt>
      <trkpt lat="45.76917" lon="2.9744">
        <ele>997</ele>
        <time>2021-06-11T16:10:59Z</time>
      </trkpt>
      <trkpt lat="45.76917" lon="2.9744">
        <ele>997</ele>
        <time>2021-06-11T16:10:59Z</time>
      </trkpt>
      <trkpt lat="45.76886" lon="2.97388">
        <ele>1002</ele>
        <time>2021-06-11T16:11:07Z</time>
      </trkpt>
      <trkpt lat="45.76886" lon="2.97388">
        <ele>1002</ele>
        <time>2021-06-11T16:11:07Z</time>
      </trkpt>
      <trkpt lat="45.76864" lon="2.97353">
        <ele>1006</ele>
        <time>2021-06-11T16:11:13Z</time>
      </trkpt>
      <trkpt lat="45.76864" lon="2.97353">
        <ele>1006</ele>
        <time>2021-06-11T16:11:13Z</time>
      </trkpt>
      <trkpt lat="45.76849" lon="2.97313">
        <ele>1011</ele>
        <time>2021-06-11T16:11:19Z</time>
      </trkpt>
      <trkpt lat="45.76849" lon="2.97313">
        <ele>1011</ele>
        <time>2021-06-11T16:11:19Z</time>
      </trkpt>
      <trkpt lat="45.76818" lon="2.97246">
        <ele>1018</ele>
        <time>2021-06-11T16:11:29Z</time>
      </trkpt>
      <trkpt lat="45.76818" lon="2.97246">
        <ele>1018</ele>
        <time>2021-06-11T16:11:29Z</time>
      </trkpt>
      <trkpt lat="45.76791" lon="2.97178">
        <ele>1029</ele>
        <time>2021-06-11T16:11:39Z</time>
      </trkpt>
      <trkpt lat="45.76791" lon="2.97178">
        <ele>1029</ele>
        <time>2021-06-11T16:11:39Z</time>
      </trkpt>
      <trkpt lat="45.76754" lon="2.97098">
        <ele>1038</ele>
        <time>2021-06-11T16:11:50Z</time>
      </trkpt>
      <trkpt lat="45.76754" lon="2.97098">
        <ele>1038</ele>
        <time>2021-06-11T16:11:50Z</time>
      </trkpt>
      <trkpt lat="45.76728" lon="2.97034">
        <ele>1046</ele>
        <time>2021-06-11T16:12:00Z</time>
      </trkpt>
      <trkpt lat="45.76728" lon="2.97034">
        <ele>1046</ele>
        <time>2021-06-11T16:12:00Z</time>
      </trkpt>
      <trkpt lat="45.76687" lon="2.96922">
        <ele>1057</ele>
        <time>2021-06-11T16:12:15Z</time>
      </trkpt>
      <trkpt lat="45.76687" lon="2.96922">
        <ele>1057</ele>
        <time>2021-06-11T16:12:15Z</time>
      </trkpt>
      <trkpt lat="45.76679" lon="2.9689">
        <ele>1060</ele>
        <time>2021-06-11T16:12:20Z</time>
      </trkpt>
      <trkpt lat="45.76679" lon="2.9689">
        <ele>1060</ele>
        <time>2021-06-11T16:12:20Z</time>
      </trkpt>
      <trkpt lat="45.76662" lon="2.96799">
        <ele>1069</ele>
        <time>2021-06-11T16:12:31Z</time>
      </trkpt>
      <trkpt lat="45.76662" lon="2.96799">
        <ele>1069</ele>
        <time>2021-06-11T16:12:31Z</time>
      </trkpt>
      <trkpt lat="45.76658" lon="2.96766">
        <ele>1073</ele>
        <time>2021-06-11T16:12:35Z</time>
      </trkpt>
      <trkpt lat="45.76658" lon="2.96766">
        <ele>1073</ele>
        <time>2021-06-11T16:12:35Z</time>
      </trkpt>
      <trkpt lat="45.76656" lon="2.96723">
        <ele>1079</ele>
        <time>2021-06-11T16:12:41Z</time>
      </trkpt>
      <trkpt lat="45.76656" lon="2.96723">
        <ele>1079</ele>
        <time>2021-06-11T16:12:41Z</time>
      </trkpt>
      <trkpt lat="45.76645" lon="2.96676">
        <ele>1080</ele>
        <time>2021-06-11T16:12:47Z</time>
      </trkpt>
      <trkpt lat="45.76645" lon="2.96676">
        <ele>1080</ele>
        <time>2021-06-11T16:12:47Z</time>
      </trkpt>
      <trkpt lat="45.76625" lon="2.96583">
        <ele>1082</ele>
        <time>2021-06-11T16:12:59Z</time>
      </trkpt>
      <trkpt lat="45.76625" lon="2.96583">
        <ele>1082</ele>
        <time>2021-06-11T16:12:59Z</time>
      </trkpt>
      <trkpt lat="45.76627" lon="2.96565">
        <ele>1084</ele>
        <time>2021-06-11T16:13:01Z</time>
      </trkpt>
      <trkpt lat="45.76627" lon="2.96565">
        <ele>1084</ele>
        <time>2021-06-11T16:13:01Z</time>
      </trkpt>
      <trkpt lat="45.76643" lon="2.96502">
        <ele>1095</ele>
        <time>2021-06-11T16:13:10Z</time>
      </trkpt>
      <trkpt lat="45.76643" lon="2.96502">
        <ele>1095</ele>
        <time>2021-06-11T16:13:10Z</time>
      </trkpt>
      <trkpt lat="45.76645" lon="2.96469">
        <ele>1099</ele>
        <time>2021-06-11T16:13:14Z</time>
      </trkpt>
      <trkpt lat="45.76645" lon="2.96469">
        <ele>1099</ele>
        <time>2021-06-11T16:13:14Z</time>
      </trkpt>
      <trkpt lat="45.76645" lon="2.96403">
        <ele>1105</ele>
        <time>2021-06-11T16:13:22Z</time>
      </trkpt>
      <trkpt lat="45.76645" lon="2.96403">
        <ele>1105</ele>
        <time>2021-06-11T16:13:22Z</time>
      </trkpt>
      <trkpt lat="45.76641" lon="2.96363">
        <ele>1110</ele>
        <time>2021-06-11T16:13:27Z</time>
      </trkpt>
      <trkpt lat="45.76641" lon="2.96363">
        <ele>1110</ele>
        <time>2021-06-11T16:13:27Z</time>
      </trkpt>
      <trkpt lat="45.76628" lon="2.96309">
        <ele>1112</ele>
        <time>2021-06-11T16:13:34Z</time>
      </trkpt>
      <trkpt lat="45.76628" lon="2.96309">
        <ele>1112</ele>
        <time>2021-06-11T16:13:34Z</time>
      </trkpt>
      <trkpt lat="45.76624" lon="2.9627">
        <ele>1117</ele>
        <time>2021-06-11T16:13:39Z</time>
      </trkpt>
      <trkpt lat="45.76624" lon="2.9627">
        <ele>1117</ele>
        <time>2021-06-11T16:13:39Z</time>
      </trkpt>
      <trkpt lat="45.76619" lon="2.96232">
        <ele>1121</ele>
        <time>2021-06-11T16:13:44Z</time>
      </trkpt>
      <trkpt lat="45.76619" lon="2.96232">
        <ele>1121</ele>
        <time>2021-06-11T16:13:44Z</time>
      </trkpt>
      <trkpt lat="45.7661" lon="2.96181">
        <ele>1124</ele>
        <time>2021-06-11T16:13:50Z</time>
      </trkpt>
      <trkpt lat="45.7661" lon="2.96181">
        <ele>1124</ele>
        <time>2021-06-11T16:13:50Z</time>
      </trkpt>
      <trkpt lat="45.76608" lon="2.96128">
        <ele>1129</ele>
        <time>2021-06-11T16:13:57Z</time>
      </trkpt>
      <trkpt lat="45.76608" lon="2.96128">
        <ele>1129</ele>
        <time>2021-06-11T16:13:57Z</time>
      </trkpt>
      <trkpt lat="45.76607" lon="2.96083">
        <ele>1132</ele>
        <time>2021-06-11T16:14:02Z</time>
      </trkpt>
      <trkpt lat="45.76607" lon="2.96083">
        <ele>1132</ele>
        <time>2021-06-11T16:14:02Z</time>
      </trkpt>
      <trkpt lat="45.76614" lon="2.96052">
        <ele>1136</ele>
        <time>2021-06-11T16:14:06Z</time>
      </trkpt>
      <trkpt lat="45.76614" lon="2.96052">
        <ele>1136</ele>
        <time>2021-06-11T16:14:06Z</time>
      </trkpt>
      <trkpt lat="45.76642" lon="2.9598">
        <ele>1148</ele>
        <time>2021-06-11T16:14:17Z</time>
      </trkpt>
      <trkpt lat="45.76642" lon="2.9598">
        <ele>1148</ele>
        <time>2021-06-11T16:14:17Z</time>
      </trkpt>
      <trkpt lat="45.7665" lon="2.95944">
        <ele>1149</ele>
        <time>2021-06-11T16:14:21Z</time>
      </trkpt>
      <trkpt lat="45.7665" lon="2.95944">
        <ele>1149</ele>
        <time>2021-06-11T16:14:21Z</time>
      </trkpt>
      <trkpt lat="45.76658" lon="2.95913">
        <ele>1150</ele>
        <time>2021-06-11T16:14:25Z</time>
      </trkpt>
      <trkpt lat="45.76658" lon="2.95913">
        <ele>1150</ele>
        <time>2021-06-11T16:14:25Z</time>
      </trkpt>
      <trkpt lat="45.76674" lon="2.95863">
        <ele>1152</ele>
        <time>2021-06-11T16:14:32Z</time>
      </trkpt>
      <trkpt lat="45.76674" lon="2.95863">
        <ele>1152</ele>
        <time>2021-06-11T16:14:32Z</time>
      </trkpt>
      <trkpt lat="45.76693" lon="2.95826">
        <ele>1155</ele>
        <time>2021-06-11T16:14:38Z</time>
      </trkpt>
      <trkpt lat="45.76693" lon="2.95826">
        <ele>1155</ele>
        <time>2021-06-11T16:14:38Z</time>
      </trkpt>
      <trkpt lat="45.76719" lon="2.95799">
        <ele>1160</ele>
        <time>2021-06-11T16:14:44Z</time>
      </trkpt>
      <trkpt lat="45.76719" lon="2.95799">
        <ele>1160</ele>
        <time>2021-06-11T16:14:44Z</time>
      </trkpt>
      <trkpt lat="45.76738" lon="2.9578">
        <ele>1163</ele>
        <time>2021-06-11T16:14:48Z</time>
      </trkpt>
      <trkpt lat="45.76738" lon="2.9578">
        <ele>1163</ele>
        <time>2021-06-11T16:14:48Z</time>
      </trkpt>
      <trkpt lat="45.76755" lon="2.95748">
        <ele>1162</ele>
        <time>2021-06-11T16:14:53Z</time>
      </trkpt>
      <trkpt lat="45.76755" lon="2.95748">
        <ele>1162</ele>
        <time>2021-06-11T16:14:53Z</time>
      </trkpt>
      <trkpt lat="45.7677" lon="2.95732">
        <ele>1163</ele>
        <time>2021-06-11T16:14:56Z</time>
      </trkpt>
      <trkpt lat="45.7677" lon="2.95732">
        <ele>1163</ele>
        <time>2021-06-11T16:14:56Z</time>
      </trkpt>
      <trkpt lat="45.76791" lon="2.95727">
        <ele>1166</ele>
        <time>2021-06-11T16:15:00Z</time>
      </trkpt>
      <trkpt lat="45.76791" lon="2.95727">
        <ele>1166</ele>
        <time>2021-06-11T16:15:00Z</time>
      </trkpt>
      <trkpt lat="45.76811" lon="2.95731">
        <ele>1172</ele>
        <time>2021-06-11T16:15:04Z</time>
      </trkpt>
      <trkpt lat="45.76811" lon="2.95731">
        <ele>1172</ele>
        <time>2021-06-11T16:15:04Z</time>
      </trkpt>
      <trkpt lat="45.76832" lon="2.95732">
        <ele>1177</ele>
        <time>2021-06-11T16:15:07Z</time>
      </trkpt>
      <trkpt lat="45.76832" lon="2.95732">
        <ele>1177</ele>
        <time>2021-06-11T16:15:07Z</time>
      </trkpt>
      <trkpt lat="45.76868" lon="2.95719">
        <ele>1183</ele>
        <time>2021-06-11T16:15:14Z</time>
      </trkpt>
      <trkpt lat="45.76868" lon="2.95719">
        <ele>1183</ele>
        <time>2021-06-11T16:15:14Z</time>
      </trkpt>
      <trkpt lat="45.76922" lon="2.95702">
        <ele>1191</ele>
        <time>2021-06-11T16:15:24Z</time>
      </trkpt>
      <trkpt lat="45.76922" lon="2.95702">
        <ele>1191</ele>
        <time>2021-06-11T16:15:24Z</time>
      </trkpt>
      <trkpt lat="45.76975" lon="2.9568">
        <ele>1197</ele>
        <time>2021-06-11T16:15:34Z</time>
      </trkpt>
      <trkpt lat="45.76975" lon="2.9568">
        <ele>1197</ele>
        <time>2021-06-11T16:15:34Z</time>
      </trkpt>
      <trkpt lat="45.77008" lon="2.95666">
        <ele>1201</ele>
        <time>2021-06-11T16:15:40Z</time>
      </trkpt>
      <trkpt lat="45.77008" lon="2.95666">
        <ele>1201</ele>
        <time>2021-06-11T16:15:40Z</time>
      </trkpt>
      <trkpt lat="45.77047" lon="2.9566">
        <ele>1209</ele>
        <time>2021-06-11T16:15:47Z</time>
      </trkpt>
      <trkpt lat="45.77047" lon="2.9566">
        <ele>1209</ele>
        <time>2021-06-11T16:15:47Z</time>
      </trkpt>
      <trkpt lat="45.77081" lon="2.95649">
        <ele>1213</ele>
        <time>2021-06-11T16:15:53Z</time>
      </trkpt>
      <trkpt lat="45.77081" lon="2.95649">
        <ele>1213</ele>
        <time>2021-06-11T16:15:53Z</time>
      </trkpt>
      <trkpt lat="45.77109" lon="2.95642">
        <ele>1213</ele>
        <time>2021-06-11T16:15:58Z</time>
      </trkpt>
      <trkpt lat="45.77109" lon="2.95642">
        <ele>1213</ele>
        <time>2021-06-11T16:15:58Z</time>
      </trkpt>
      <trkpt lat="45.77159" lon="2.95643">
        <ele>1221</ele>
        <time>2021-06-11T16:16:07Z</time>
      </trkpt>
      <trkpt lat="45.77159" lon="2.95643">
        <ele>1221</ele>
        <time>2021-06-11T16:16:07Z</time>
      </trkpt>
      <trkpt lat="45.77197" lon="2.95656">
        <ele>1227</ele>
        <time>2021-06-11T16:16:14Z</time>
      </trkpt>
      <trkpt lat="45.77197" lon="2.95656">
        <ele>1227</ele>
        <time>2021-06-11T16:16:14Z</time>
      </trkpt>
      <trkpt lat="45.77225" lon="2.95662">
        <ele>1229</ele>
        <time>2021-06-11T16:16:19Z</time>
      </trkpt>
      <trkpt lat="45.77225" lon="2.95662">
        <ele>1229</ele>
        <time>2021-06-11T16:16:19Z</time>
      </trkpt>
      <trkpt lat="45.77259" lon="2.95673">
        <ele>1232</ele>
        <time>2021-06-11T16:16:25Z</time>
      </trkpt>
      <trkpt lat="45.77259" lon="2.95673">
        <ele>1232</ele>
        <time>2021-06-11T16:16:25Z</time>
      </trkpt>
      <trkpt lat="45.77282" lon="2.95688">
        <ele>1236</ele>
        <time>2021-06-11T16:16:30Z</time>
      </trkpt>
      <trkpt lat="45.77282" lon="2.95688">
        <ele>1236</ele>
        <time>2021-06-11T16:16:30Z</time>
      </trkpt>
      <trkpt lat="45.77322" lon="2.95718">
        <ele>1243</ele>
        <time>2021-06-11T16:16:38Z</time>
      </trkpt>
      <trkpt lat="45.77322" lon="2.95718">
        <ele>1243</ele>
        <time>2021-06-11T16:16:38Z</time>
      </trkpt>
      <trkpt lat="45.77349" lon="2.95749">
        <ele>1253</ele>
        <time>2021-06-11T16:16:44Z</time>
      </trkpt>
      <trkpt lat="45.77349" lon="2.95749">
        <ele>1253</ele>
        <time>2021-06-11T16:16:44Z</time>
      </trkpt>
      <trkpt lat="45.77363" lon="2.95758">
        <ele>1254</ele>
        <time>2021-06-11T16:16:46Z</time>
      </trkpt>
      <trkpt lat="45.77363" lon="2.95758">
        <ele>1254</ele>
        <time>2021-06-11T16:16:46Z</time>
      </trkpt>
      <trkpt lat="45.77396" lon="2.95765">
        <ele>1252</ele>
        <time>2021-06-11T16:16:52Z</time>
      </trkpt>
      <trkpt lat="45.77396" lon="2.95765">
        <ele>1252</ele>
        <time>2021-06-11T16:16:52Z</time>
      </trkpt>
      <trkpt lat="45.77408" lon="2.9577">
        <ele>1252</ele>
        <time>2021-06-11T16:16:55Z</time>
      </trkpt>
      <trkpt lat="45.77408" lon="2.9577">
        <ele>1252</ele>
        <time>2021-06-11T16:16:55Z</time>
      </trkpt>
      <trkpt lat="45.77433" lon="2.95795">
        <ele>1255</ele>
        <time>2021-06-11T16:17:00Z</time>
      </trkpt>
      <trkpt lat="45.77433" lon="2.95795">
        <ele>1255</ele>
        <time>2021-06-11T16:17:00Z</time>
      </trkpt>
      <trkpt lat="45.77451" lon="2.95824">
        <ele>1259</ele>
        <time>2021-06-11T16:17:05Z</time>
      </trkpt>
      <trkpt lat="45.77451" lon="2.95824">
        <ele>1259</ele>
        <time>2021-06-11T16:17:05Z</time>
      </trkpt>
      <trkpt lat="45.77463" lon="2.95846">
        <ele>1261</ele>
        <time>2021-06-11T16:17:08Z</time>
      </trkpt>
      <trkpt lat="45.77463" lon="2.95846">
        <ele>1261</ele>
        <time>2021-06-11T16:17:08Z</time>
      </trkpt>
      <trkpt lat="45.7747" lon="2.95871">
        <ele>1266</ele>
        <time>2021-06-11T16:17:12Z</time>
      </trkpt>
      <trkpt lat="45.7747" lon="2.95871">
        <ele>1266</ele>
        <time>2021-06-11T16:17:12Z</time>
      </trkpt>
      <trkpt lat="45.77476" lon="2.95914">
        <ele>1275</ele>
        <time>2021-06-11T16:17:17Z</time>
      </trkpt>
      <trkpt lat="45.77476" lon="2.95914">
        <ele>1275</ele>
        <time>2021-06-11T16:17:17Z</time>
      </trkpt>
      <trkpt lat="45.77482" lon="2.95955">
        <ele>1279</ele>
        <time>2021-06-11T16:17:22Z</time>
      </trkpt>
      <trkpt lat="45.77482" lon="2.95955">
        <ele>1279</ele>
        <time>2021-06-11T16:17:22Z</time>
      </trkpt>
      <trkpt lat="45.775" lon="2.96032">
        <ele>1280</ele>
        <time>2021-06-11T16:17:32Z</time>
      </trkpt>
      <trkpt lat="45.775" lon="2.96032">
        <ele>1280</ele>
        <time>2021-06-11T16:17:32Z</time>
      </trkpt>
      <trkpt lat="45.77506" lon="2.96174">
        <ele>1296</ele>
        <time>2021-06-11T16:17:50Z</time>
      </trkpt>
      <trkpt lat="45.77506" lon="2.96174">
        <ele>1296</ele>
        <time>2021-06-11T16:17:50Z</time>
      </trkpt>
      <trkpt lat="45.77505" lon="2.96198">
        <ele>1296</ele>
        <time>2021-06-11T16:17:53Z</time>
      </trkpt>
      <trkpt lat="45.77505" lon="2.96198">
        <ele>1296</ele>
        <time>2021-06-11T16:17:53Z</time>
      </trkpt>
      <trkpt lat="45.77493" lon="2.96255">
        <ele>1304</ele>
        <time>2021-06-11T16:18:00Z</time>
      </trkpt>
      <trkpt lat="45.77493" lon="2.96255">
        <ele>1304</ele>
        <time>2021-06-11T16:18:00Z</time>
      </trkpt>
      <trkpt lat="45.77482" lon="2.96301">
        <ele>1312</ele>
        <time>2021-06-11T16:18:06Z</time>
      </trkpt>
      <trkpt lat="45.77482" lon="2.96301">
        <ele>1312</ele>
        <time>2021-06-11T16:18:06Z</time>
      </trkpt>
      <trkpt lat="45.77474" lon="2.96341">
        <ele>1318</ele>
        <time>2021-06-11T16:18:12Z</time>
      </trkpt>
      <trkpt lat="45.77474" lon="2.96341">
        <ele>1318</ele>
        <time>2021-06-11T16:18:12Z</time>
      </trkpt>
      <trkpt lat="45.77469" lon="2.96389">
        <ele>1320</ele>
        <time>2021-06-11T16:18:18Z</time>
      </trkpt>
      <trkpt lat="45.77469" lon="2.96389">
        <ele>1320</ele>
        <time>2021-06-11T16:18:18Z</time>
      </trkpt>
      <trkpt lat="45.77465" lon="2.9642">
        <ele>1322</ele>
        <time>2021-06-11T16:18:22Z</time>
      </trkpt>
      <trkpt lat="45.77465" lon="2.9642">
        <ele>1322</ele>
        <time>2021-06-11T16:18:22Z</time>
      </trkpt>
      <trkpt lat="45.77431" lon="2.96527">
        <ele>1331</ele>
        <time>2021-06-11T16:18:36Z</time>
      </trkpt>
      <trkpt lat="45.77431" lon="2.96527">
        <ele>1331</ele>
        <time>2021-06-11T16:18:36Z</time>
      </trkpt>
      <trkpt lat="45.77421" lon="2.96553">
        <ele>1331</ele>
        <time>2021-06-11T16:18:40Z</time>
      </trkpt>
      <trkpt lat="45.77421" lon="2.96553">
        <ele>1331</ele>
        <time>2021-06-11T16:18:40Z</time>
      </trkpt>
      <trkpt lat="45.77371" lon="2.96611">
        <ele>1341</ele>
        <time>2021-06-11T16:18:51Z</time>
      </trkpt>
      <trkpt lat="45.77371" lon="2.96611">
        <ele>1341</ele>
        <time>2021-06-11T16:18:51Z</time>
      </trkpt>
      <trkpt lat="45.77345" lon="2.96626">
        <ele>1348</ele>
        <time>2021-06-11T16:18:56Z</time>
      </trkpt>
      <trkpt lat="45.77345" lon="2.96626">
        <ele>1348</ele>
        <time>2021-06-11T16:18:56Z</time>
      </trkpt>
      <trkpt lat="45.77321" lon="2.96627">
        <ele>1358</ele>
        <time>2021-06-11T16:19:01Z</time>
      </trkpt>
      <trkpt lat="45.77321" lon="2.96627">
        <ele>1358</ele>
        <time>2021-06-11T16:19:01Z</time>
      </trkpt>
      <trkpt lat="45.77297" lon="2.96636">
        <ele>1363</ele>
        <time>2021-06-11T16:19:05Z</time>
      </trkpt>
      <trkpt lat="45.77297" lon="2.96636">
        <ele>1363</ele>
        <time>2021-06-11T16:19:05Z</time>
      </trkpt>
      <trkpt lat="45.77268" lon="2.96665">
        <ele>1358</ele>
        <time>2021-06-11T16:19:11Z</time>
      </trkpt>
      <trkpt lat="45.77268" lon="2.96665">
        <ele>1358</ele>
        <time>2021-06-11T16:19:11Z</time>
      </trkpt>
      <trkpt lat="45.77254" lon="2.96678">
        <ele>1356</ele>
        <time>2021-06-11T16:19:14Z</time>
      </trkpt>
      <trkpt lat="45.77254" lon="2.96678">
        <ele>1356</ele>
        <time>2021-06-11T16:19:14Z</time>
      </trkpt>
      <trkpt lat="45.77229" lon="2.96684">
        <ele>1357</ele>
        <time>2021-06-11T16:19:19Z</time>
      </trkpt>
      <trkpt lat="45.77229" lon="2.96684">
        <ele>1357</ele>
        <time>2021-06-11T16:19:19Z</time>
      </trkpt>
      <trkpt lat="45.77187" lon="2.96676">
        <ele>1365</ele>
        <time>2021-06-11T16:19:26Z</time>
      </trkpt>
      <trkpt lat="45.77187" lon="2.96676">
        <ele>1365</ele>
        <time>2021-06-11T16:19:26Z</time>
      </trkpt>
      <trkpt lat="45.77162" lon="2.96666">
        <ele>1371</ele>
        <time>2021-06-11T16:19:31Z</time>
      </trkpt>
      <trkpt lat="45.77162" lon="2.96666">
        <ele>1371</ele>
        <time>2021-06-11T16:19:31Z</time>
      </trkpt>
      <trkpt lat="45.77144" lon="2.96646">
        <ele>1377</ele>
        <time>2021-06-11T16:19:35Z</time>
      </trkpt>
      <trkpt lat="45.77144" lon="2.96646">
        <ele>1377</ele>
        <time>2021-06-11T16:19:35Z</time>
      </trkpt>
      <trkpt lat="45.77117" lon="2.96624">
        <ele>1379</ele>
        <time>2021-06-11T16:19:40Z</time>
      </trkpt>
      <trkpt lat="45.77117" lon="2.96624">
        <ele>1379</ele>
        <time>2021-06-11T16:19:40Z</time>
      </trkpt>
      <trkpt lat="45.77096" lon="2.96598">
        <ele>1382</ele>
        <time>2021-06-11T16:19:45Z</time>
      </trkpt>
      <trkpt lat="45.77096" lon="2.96598">
        <ele>1382</ele>
        <time>2021-06-11T16:19:45Z</time>
      </trkpt>
      <trkpt lat="45.77085" lon="2.96573">
        <ele>1385</ele>
        <time>2021-06-11T16:19:49Z</time>
      </trkpt>
      <trkpt lat="45.77085" lon="2.96573">
        <ele>1385</ele>
        <time>2021-06-11T16:19:49Z</time>
      </trkpt>
      <trkpt lat="45.77073" lon="2.96536">
        <ele>1386</ele>
        <time>2021-06-11T16:19:54Z</time>
      </trkpt>
      <trkpt lat="45.77073" lon="2.96536">
        <ele>1386</ele>
        <time>2021-06-11T16:19:54Z</time>
      </trkpt>
      <trkpt lat="45.77068" lon="2.96505">
        <ele>1390</ele>
        <time>2021-06-11T16:19:58Z</time>
      </trkpt>
      <trkpt lat="45.77068" lon="2.96505">
        <ele>1390</ele>
        <time>2021-06-11T16:19:58Z</time>
      </trkpt>
      <trkpt lat="45.77067" lon="2.96461">
        <ele>1393</ele>
        <time>2021-06-11T16:20:04Z</time>
      </trkpt>
      <trkpt lat="45.77067" lon="2.96461">
        <ele>1393</ele>
        <time>2021-06-11T16:20:04Z</time>
      </trkpt>
      <trkpt lat="45.7707" lon="2.9643">
        <ele>1397</ele>
        <time>2021-06-11T16:20:07Z</time>
      </trkpt>
      <trkpt lat="45.7707" lon="2.9643">
        <ele>1397</ele>
        <time>2021-06-11T16:20:07Z</time>
      </trkpt>
      <trkpt lat="45.7708" lon="2.9637">
        <ele>1408</ele>
        <time>2021-06-11T16:20:15Z</time>
      </trkpt>
      <trkpt lat="45.7708" lon="2.9637">
        <ele>1408</ele>
        <time>2021-06-11T16:20:15Z</time>
      </trkpt>
      <trkpt lat="45.77085" lon="2.96325">
        <ele>1413</ele>
        <time>2021-06-11T16:20:21Z</time>
      </trkpt>
      <trkpt lat="45.77085" lon="2.96325">
        <ele>1413</ele>
        <time>2021-06-11T16:20:21Z</time>
      </trkpt>
      <trkpt lat="45.77073" lon="2.9638">
        <ele>1403</ele>
        <time>2021-06-11T16:20:28Z</time>
      </trkpt>
      <trkpt lat="45.77073" lon="2.9638">
        <ele>1403</ele>
        <time>2021-06-11T16:20:28Z</time>
      </trkpt>
      <trkpt lat="45.77064" lon="2.9644">
        <ele>1392</ele>
        <time>2021-06-11T16:20:36Z</time>
      </trkpt>
      <trkpt lat="45.77064" lon="2.9644">
        <ele>1392</ele>
        <time>2021-06-11T16:20:36Z</time>
      </trkpt>
      <trkpt lat="45.77062" lon="2.96479">
        <ele>1388</ele>
        <time>2021-06-11T16:20:40Z</time>
      </trkpt>
      <trkpt lat="45.77062" lon="2.96479">
        <ele>1388</ele>
        <time>2021-06-11T16:20:40Z</time>
      </trkpt>
      <trkpt lat="45.77065" lon="2.96518">
        <ele>1385</ele>
        <time>2021-06-11T16:20:45Z</time>
      </trkpt>
      <trkpt lat="45.77065" lon="2.96518">
        <ele>1385</ele>
        <time>2021-06-11T16:20:45Z</time>
      </trkpt>
      <trkpt lat="45.77074" lon="2.96556">
        <ele>1383</ele>
        <time>2021-06-11T16:20:50Z</time>
      </trkpt>
      <trkpt lat="45.77074" lon="2.96556">
        <ele>1383</ele>
        <time>2021-06-11T16:20:50Z</time>
      </trkpt>
      <trkpt lat="45.77085" lon="2.96586">
        <ele>1382</ele>
        <time>2021-06-11T16:20:54Z</time>
      </trkpt>
      <trkpt lat="45.77085" lon="2.96586">
        <ele>1382</ele>
        <time>2021-06-11T16:20:54Z</time>
      </trkpt>
      <trkpt lat="45.77096" lon="2.96609">
        <ele>1378</ele>
        <time>2021-06-11T16:20:58Z</time>
      </trkpt>
      <trkpt lat="45.77096" lon="2.96609">
        <ele>1378</ele>
        <time>2021-06-11T16:20:58Z</time>
      </trkpt>
      <trkpt lat="45.77119" lon="2.96637">
        <ele>1374</ele>
        <time>2021-06-11T16:21:03Z</time>
      </trkpt>
      <trkpt lat="45.77119" lon="2.96637">
        <ele>1374</ele>
        <time>2021-06-11T16:21:03Z</time>
      </trkpt>
      <trkpt lat="45.77143" lon="2.96653">
        <ele>1373</ele>
        <time>2021-06-11T16:21:08Z</time>
      </trkpt>
      <trkpt lat="45.77143" lon="2.96653">
        <ele>1373</ele>
        <time>2021-06-11T16:21:08Z</time>
      </trkpt>
      <trkpt lat="45.77155" lon="2.9667">
        <ele>1368</ele>
        <time>2021-06-11T16:21:11Z</time>
      </trkpt>
      <trkpt lat="45.77155" lon="2.9667">
        <ele>1368</ele>
        <time>2021-06-11T16:21:11Z</time>
      </trkpt>
      <trkpt lat="45.77183" lon="2.96683">
        <ele>1363</ele>
        <time>2021-06-11T16:21:16Z</time>
      </trkpt>
      <trkpt lat="45.77183" lon="2.96683">
        <ele>1363</ele>
        <time>2021-06-11T16:21:16Z</time>
      </trkpt>
      <trkpt lat="45.77228" lon="2.96693">
        <ele>1353</ele>
        <time>2021-06-11T16:21:24Z</time>
      </trkpt>
      <trkpt lat="45.77228" lon="2.96693">
        <ele>1353</ele>
        <time>2021-06-11T16:21:24Z</time>
      </trkpt>
      <trkpt lat="45.77249" lon="2.96688">
        <ele>1353</ele>
        <time>2021-06-11T16:21:28Z</time>
      </trkpt>
      <trkpt lat="45.77249" lon="2.96688">
        <ele>1353</ele>
        <time>2021-06-11T16:21:28Z</time>
      </trkpt>
      <trkpt lat="45.77262" lon="2.96681">
        <ele>1352</ele>
        <time>2021-06-11T16:21:31Z</time>
      </trkpt>
      <trkpt lat="45.77262" lon="2.96681">
        <ele>1352</ele>
        <time>2021-06-11T16:21:31Z</time>
      </trkpt>
      <trkpt lat="45.77305" lon="2.96641">
        <ele>1357</ele>
        <time>2021-06-11T16:21:40Z</time>
      </trkpt>
      <trkpt lat="45.77305" lon="2.96641">
        <ele>1357</ele>
        <time>2021-06-11T16:21:40Z</time>
      </trkpt>
      <trkpt lat="45.77323" lon="2.96636">
        <ele>1353</ele>
        <time>2021-06-11T16:21:43Z</time>
      </trkpt>
      <trkpt lat="45.77323" lon="2.96636">
        <ele>1353</ele>
        <time>2021-06-11T16:21:43Z</time>
      </trkpt>
      <trkpt lat="45.77345" lon="2.96635">
        <ele>1344</ele>
        <time>2021-06-11T16:21:47Z</time>
      </trkpt>
      <trkpt lat="45.77345" lon="2.96635">
        <ele>1344</ele>
        <time>2021-06-11T16:21:47Z</time>
      </trkpt>
      <trkpt lat="45.77362" lon="2.96627">
        <ele>1339</ele>
        <time>2021-06-11T16:21:50Z</time>
      </trkpt>
      <trkpt lat="45.77362" lon="2.96627">
        <ele>1339</ele>
        <time>2021-06-11T16:21:50Z</time>
      </trkpt>
      <trkpt lat="45.77379" lon="2.96613">
        <ele>1336</ele>
        <time>2021-06-11T16:21:54Z</time>
      </trkpt>
      <trkpt lat="45.77379" lon="2.96613">
        <ele>1336</ele>
        <time>2021-06-11T16:21:54Z</time>
      </trkpt>
      <trkpt lat="45.77424" lon="2.96558">
        <ele>1328</ele>
        <time>2021-06-11T16:22:04Z</time>
      </trkpt>
      <trkpt lat="45.77424" lon="2.96558">
        <ele>1328</ele>
        <time>2021-06-11T16:22:04Z</time>
      </trkpt>
      <trkpt lat="45.77433" lon="2.96535">
        <ele>1328</ele>
        <time>2021-06-11T16:22:07Z</time>
      </trkpt>
      <trkpt lat="45.77433" lon="2.96535">
        <ele>1328</ele>
        <time>2021-06-11T16:22:07Z</time>
      </trkpt>
      <trkpt lat="45.7747" lon="2.96428">
        <ele>1318</ele>
        <time>2021-06-11T16:22:22Z</time>
      </trkpt>
      <trkpt lat="45.7747" lon="2.96428">
        <ele>1318</ele>
        <time>2021-06-11T16:22:22Z</time>
      </trkpt>
      <trkpt lat="45.77471" lon="2.96416">
        <ele>1318</ele>
        <time>2021-06-11T16:22:24Z</time>
      </trkpt>
      <trkpt lat="45.77471" lon="2.96416">
        <ele>1318</ele>
        <time>2021-06-11T16:22:24Z</time>
      </trkpt>
      <trkpt lat="45.7748" lon="2.96345">
        <ele>1313</ele>
        <time>2021-06-11T16:22:33Z</time>
      </trkpt>
      <trkpt lat="45.7748" lon="2.96345">
        <ele>1313</ele>
        <time>2021-06-11T16:22:33Z</time>
      </trkpt>
      <trkpt lat="45.77485" lon="2.96319">
        <ele>1310</ele>
        <time>2021-06-11T16:22:36Z</time>
      </trkpt>
      <trkpt lat="45.77485" lon="2.96319">
        <ele>1310</ele>
        <time>2021-06-11T16:22:36Z</time>
      </trkpt>
      <trkpt lat="45.77501" lon="2.96246">
        <ele>1298</ele>
        <time>2021-06-11T16:22:46Z</time>
      </trkpt>
      <trkpt lat="45.77501" lon="2.96246">
        <ele>1298</ele>
        <time>2021-06-11T16:22:46Z</time>
      </trkpt>
      <trkpt lat="45.7751" lon="2.962">
        <ele>1294</ele>
        <time>2021-06-11T16:22:52Z</time>
      </trkpt>
      <trkpt lat="45.7751" lon="2.962">
        <ele>1294</ele>
        <time>2021-06-11T16:22:52Z</time>
      </trkpt>
      <trkpt lat="45.77511" lon="2.96165">
        <ele>1292</ele>
        <time>2021-06-11T16:22:56Z</time>
      </trkpt>
      <trkpt lat="45.77511" lon="2.96165">
        <ele>1292</ele>
        <time>2021-06-11T16:22:56Z</time>
      </trkpt>
      <trkpt lat="45.77508" lon="2.96052">
        <ele>1279</ele>
        <time>2021-06-11T16:23:10Z</time>
      </trkpt>
      <trkpt lat="45.77508" lon="2.96052">
        <ele>1279</ele>
        <time>2021-06-11T16:23:10Z</time>
      </trkpt>
      <trkpt lat="45.77504" lon="2.9602">
        <ele>1276</ele>
        <time>2021-06-11T16:23:14Z</time>
      </trkpt>
      <trkpt lat="45.77504" lon="2.9602">
        <ele>1276</ele>
        <time>2021-06-11T16:23:14Z</time>
      </trkpt>
      <trkpt lat="45.7749" lon="2.95966">
        <ele>1276</ele>
        <time>2021-06-11T16:23:21Z</time>
      </trkpt>
      <trkpt lat="45.7749" lon="2.95966">
        <ele>1276</ele>
        <time>2021-06-11T16:23:21Z</time>
      </trkpt>
      <trkpt lat="45.77483" lon="2.95928">
        <ele>1274</ele>
        <time>2021-06-11T16:23:26Z</time>
      </trkpt>
      <trkpt lat="45.77483" lon="2.95928">
        <ele>1274</ele>
        <time>2021-06-11T16:23:26Z</time>
      </trkpt>
      <trkpt lat="45.77474" lon="2.95866">
        <ele>1263</ele>
        <time>2021-06-11T16:23:34Z</time>
      </trkpt>
      <trkpt lat="45.77474" lon="2.95866">
        <ele>1263</ele>
        <time>2021-06-11T16:23:34Z</time>
      </trkpt>
      <trkpt lat="45.77466" lon="2.95841">
        <ele>1259</ele>
        <time>2021-06-11T16:23:37Z</time>
      </trkpt>
      <trkpt lat="45.77466" lon="2.95841">
        <ele>1259</ele>
        <time>2021-06-11T16:23:37Z</time>
      </trkpt>
      <trkpt lat="45.77448" lon="2.95804">
        <ele>1254</ele>
        <time>2021-06-11T16:23:43Z</time>
      </trkpt>
      <trkpt lat="45.77448" lon="2.95804">
        <ele>1254</ele>
        <time>2021-06-11T16:23:43Z</time>
      </trkpt>
      <trkpt lat="45.77427" lon="2.95778">
        <ele>1251</ele>
        <time>2021-06-11T16:23:48Z</time>
      </trkpt>
      <trkpt lat="45.77427" lon="2.95778">
        <ele>1251</ele>
        <time>2021-06-11T16:23:48Z</time>
      </trkpt>
      <trkpt lat="45.774" lon="2.95757">
        <ele>1249</ele>
        <time>2021-06-11T16:23:53Z</time>
      </trkpt>
      <trkpt lat="45.774" lon="2.95757">
        <ele>1249</ele>
        <time>2021-06-11T16:23:53Z</time>
      </trkpt>
      <trkpt lat="45.77362" lon="2.95746">
        <ele>1250</ele>
        <time>2021-06-11T16:24:00Z</time>
      </trkpt>
      <trkpt lat="45.77362" lon="2.95746">
        <ele>1250</ele>
        <time>2021-06-11T16:24:00Z</time>
      </trkpt>
      <trkpt lat="45.77349" lon="2.95738">
        <ele>1248</ele>
        <time>2021-06-11T16:24:03Z</time>
      </trkpt>
      <trkpt lat="45.77349" lon="2.95738">
        <ele>1248</ele>
        <time>2021-06-11T16:24:03Z</time>
      </trkpt>
      <trkpt lat="45.77326" lon="2.95717">
        <ele>1242</ele>
        <time>2021-06-11T16:24:08Z</time>
      </trkpt>
      <trkpt lat="45.77326" lon="2.95717">
        <ele>1242</ele>
        <time>2021-06-11T16:24:08Z</time>
      </trkpt>
      <trkpt lat="45.77306" lon="2.95698">
        <ele>1237</ele>
        <time>2021-06-11T16:24:12Z</time>
      </trkpt>
      <trkpt lat="45.77306" lon="2.95698">
        <ele>1237</ele>
        <time>2021-06-11T16:24:12Z</time>
      </trkpt>
      <trkpt lat="45.77265" lon="2.95667">
        <ele>1228</ele>
        <time>2021-06-11T16:24:20Z</time>
      </trkpt>
      <trkpt lat="45.77265" lon="2.95667">
        <ele>1228</ele>
        <time>2021-06-11T16:24:20Z</time>
      </trkpt>
      <trkpt lat="45.77232" lon="2.95653">
        <ele>1224</ele>
        <time>2021-06-11T16:24:26Z</time>
      </trkpt>
      <trkpt lat="45.77232" lon="2.95653">
        <ele>1224</ele>
        <time>2021-06-11T16:24:26Z</time>
      </trkpt>
      <trkpt lat="45.77198" lon="2.95649">
        <ele>1223</ele>
        <time>2021-06-11T16:24:32Z</time>
      </trkpt>
      <trkpt lat="45.77198" lon="2.95649">
        <ele>1223</ele>
        <time>2021-06-11T16:24:32Z</time>
      </trkpt>
      <trkpt lat="45.77154" lon="2.95635">
        <ele>1216</ele>
        <time>2021-06-11T16:24:40Z</time>
      </trkpt>
      <trkpt lat="45.77154" lon="2.95635">
        <ele>1216</ele>
        <time>2021-06-11T16:24:40Z</time>
      </trkpt>
      <trkpt lat="45.77099" lon="2.95633">
        <ele>1208</ele>
        <time>2021-06-11T16:24:50Z</time>
      </trkpt>
      <trkpt lat="45.77099" lon="2.95633">
        <ele>1208</ele>
        <time>2021-06-11T16:24:50Z</time>
      </trkpt>
      <trkpt lat="45.77043" lon="2.95653">
        <ele>1205</ele>
        <time>2021-06-11T16:25:00Z</time>
      </trkpt>
      <trkpt lat="45.77043" lon="2.95653">
        <ele>1205</ele>
        <time>2021-06-11T16:25:00Z</time>
      </trkpt>
      <trkpt lat="45.76996" lon="2.95662">
        <ele>1196</ele>
        <time>2021-06-11T16:25:09Z</time>
      </trkpt>
      <trkpt lat="45.76996" lon="2.95662">
        <ele>1196</ele>
        <time>2021-06-11T16:25:09Z</time>
      </trkpt>
      <trkpt lat="45.76874" lon="2.9571">
        <ele>1181</ele>
        <time>2021-06-11T16:25:31Z</time>
      </trkpt>
      <trkpt lat="45.76874" lon="2.9571">
        <ele>1181</ele>
        <time>2021-06-11T16:25:31Z</time>
      </trkpt>
      <trkpt lat="45.7683" lon="2.95725">
        <ele>1174</ele>
        <time>2021-06-11T16:25:39Z</time>
      </trkpt>
      <trkpt lat="45.7683" lon="2.95725">
        <ele>1174</ele>
        <time>2021-06-11T16:25:39Z</time>
      </trkpt>
      <trkpt lat="45.76803" lon="2.95722">
        <ele>1168</ele>
        <time>2021-06-11T16:25:44Z</time>
      </trkpt>
      <trkpt lat="45.76803" lon="2.95722">
        <ele>1168</ele>
        <time>2021-06-11T16:25:44Z</time>
      </trkpt>
      <trkpt lat="45.76788" lon="2.95722">
        <ele>1165</ele>
        <time>2021-06-11T16:25:47Z</time>
      </trkpt>
      <trkpt lat="45.76788" lon="2.95722">
        <ele>1165</ele>
        <time>2021-06-11T16:25:47Z</time>
      </trkpt>
      <trkpt lat="45.7676" lon="2.95732">
        <ele>1160</ele>
        <time>2021-06-11T16:25:52Z</time>
      </trkpt>
      <trkpt lat="45.7676" lon="2.95732">
        <ele>1160</ele>
        <time>2021-06-11T16:25:52Z</time>
      </trkpt>
      <trkpt lat="45.76731" lon="2.95778">
        <ele>1161</ele>
        <time>2021-06-11T16:26:00Z</time>
      </trkpt>
      <trkpt lat="45.76731" lon="2.95778">
        <ele>1161</ele>
        <time>2021-06-11T16:26:00Z</time>
      </trkpt>
      <trkpt lat="45.76693" lon="2.95815">
        <ele>1154</ele>
        <time>2021-06-11T16:26:08Z</time>
      </trkpt>
      <trkpt lat="45.76693" lon="2.95815">
        <ele>1154</ele>
        <time>2021-06-11T16:26:08Z</time>
      </trkpt>
      <trkpt lat="45.76668" lon="2.95861">
        <ele>1150</ele>
        <time>2021-06-11T16:26:15Z</time>
      </trkpt>
      <trkpt lat="45.76668" lon="2.95861">
        <ele>1150</ele>
        <time>2021-06-11T16:26:15Z</time>
      </trkpt>
      <trkpt lat="45.76653" lon="2.95901">
        <ele>1148</ele>
        <time>2021-06-11T16:26:21Z</time>
      </trkpt>
      <trkpt lat="45.76653" lon="2.95901">
        <ele>1148</ele>
        <time>2021-06-11T16:26:21Z</time>
      </trkpt>
      <trkpt lat="45.76637" lon="2.95973">
        <ele>1145</ele>
        <time>2021-06-11T16:26:30Z</time>
      </trkpt>
      <trkpt lat="45.76637" lon="2.95973">
        <ele>1145</ele>
        <time>2021-06-11T16:26:30Z</time>
      </trkpt>
      <trkpt lat="45.76603" lon="2.96068">
        <ele>1129</ele>
        <time>2021-06-11T16:26:43Z</time>
      </trkpt>
      <trkpt lat="45.76603" lon="2.96068">
        <ele>1129</ele>
        <time>2021-06-11T16:26:43Z</time>
      </trkpt>
      <trkpt lat="45.766" lon="2.9613">
        <ele>1123</ele>
        <time>2021-06-11T16:26:51Z</time>
      </trkpt>
      <trkpt lat="45.766" lon="2.9613">
        <ele>1123</ele>
        <time>2021-06-11T16:26:51Z</time>
      </trkpt>
      <trkpt lat="45.76607" lon="2.96193">
        <ele>1120</ele>
        <time>2021-06-11T16:26:59Z</time>
      </trkpt>
      <trkpt lat="45.76607" lon="2.96193">
        <ele>1120</ele>
        <time>2021-06-11T16:26:59Z</time>
      </trkpt>
      <trkpt lat="45.76612" lon="2.96227">
        <ele>1117</ele>
        <time>2021-06-11T16:27:03Z</time>
      </trkpt>
      <trkpt lat="45.76612" lon="2.96227">
        <ele>1117</ele>
        <time>2021-06-11T16:27:03Z</time>
      </trkpt>
      <trkpt lat="45.76624" lon="2.96316">
        <ele>1109</ele>
        <time>2021-06-11T16:27:15Z</time>
      </trkpt>
      <trkpt lat="45.76624" lon="2.96316">
        <ele>1109</ele>
        <time>2021-06-11T16:27:15Z</time>
      </trkpt>
      <trkpt lat="45.76629" lon="2.96335">
        <ele>1108</ele>
        <time>2021-06-11T16:27:17Z</time>
      </trkpt>
      <trkpt lat="45.76629" lon="2.96335">
        <ele>1108</ele>
        <time>2021-06-11T16:27:17Z</time>
      </trkpt>
      <trkpt lat="45.76635" lon="2.96364">
        <ele>1107</ele>
        <time>2021-06-11T16:27:21Z</time>
      </trkpt>
      <trkpt lat="45.76635" lon="2.96364">
        <ele>1107</ele>
        <time>2021-06-11T16:27:21Z</time>
      </trkpt>
      <trkpt lat="45.76639" lon="2.96398">
        <ele>1103</ele>
        <time>2021-06-11T16:27:25Z</time>
      </trkpt>
      <trkpt lat="45.76639" lon="2.96398">
        <ele>1103</ele>
        <time>2021-06-11T16:27:25Z</time>
      </trkpt>
      <trkpt lat="45.7664" lon="2.96489">
        <ele>1095</ele>
        <time>2021-06-11T16:27:36Z</time>
      </trkpt>
      <trkpt lat="45.7664" lon="2.96489">
        <ele>1095</ele>
        <time>2021-06-11T16:27:36Z</time>
      </trkpt>
      <trkpt lat="45.76621" lon="2.96555">
        <ele>1082</ele>
        <time>2021-06-11T16:27:45Z</time>
      </trkpt>
      <trkpt lat="45.76621" lon="2.96555">
        <ele>1082</ele>
        <time>2021-06-11T16:27:45Z</time>
      </trkpt>
      <trkpt lat="45.7662" lon="2.96585">
        <ele>1080</ele>
        <time>2021-06-11T16:27:49Z</time>
      </trkpt>
      <trkpt lat="45.7662" lon="2.96585">
        <ele>1080</ele>
        <time>2021-06-11T16:27:49Z</time>
      </trkpt>
      <trkpt lat="45.76649" lon="2.96708">
        <ele>1078</ele>
        <time>2021-06-11T16:28:05Z</time>
      </trkpt>
      <trkpt lat="45.76649" lon="2.96708">
        <ele>1078</ele>
        <time>2021-06-11T16:28:05Z</time>
      </trkpt>
      <trkpt lat="45.76653" lon="2.96733">
        <ele>1076</ele>
        <time>2021-06-11T16:28:08Z</time>
      </trkpt>
      <trkpt lat="45.76653" lon="2.96733">
        <ele>1076</ele>
        <time>2021-06-11T16:28:08Z</time>
      </trkpt>
      <trkpt lat="45.76654" lon="2.96778">
        <ele>1069</ele>
        <time>2021-06-11T16:28:14Z</time>
      </trkpt>
      <trkpt lat="45.76654" lon="2.96778">
        <ele>1069</ele>
        <time>2021-06-11T16:28:14Z</time>
      </trkpt>
      <trkpt lat="45.76671" lon="2.96872">
        <ele>1059</ele>
        <time>2021-06-11T16:28:26Z</time>
      </trkpt>
      <trkpt lat="45.76671" lon="2.96872">
        <ele>1059</ele>
        <time>2021-06-11T16:28:26Z</time>
      </trkpt>
      <trkpt lat="45.76684" lon="2.96937">
        <ele>1052</ele>
        <time>2021-06-11T16:28:34Z</time>
      </trkpt>
      <trkpt lat="45.76684" lon="2.96937">
        <ele>1052</ele>
        <time>2021-06-11T16:28:34Z</time>
      </trkpt>
      <trkpt lat="45.76695" lon="2.96963">
        <ele>1050</ele>
        <time>2021-06-11T16:28:38Z</time>
      </trkpt>
      <trkpt lat="45.76695" lon="2.96963">
        <ele>1050</ele>
        <time>2021-06-11T16:28:38Z</time>
      </trkpt>
      <trkpt lat="45.76726" lon="2.97049">
        <ele>1041</ele>
        <time>2021-06-11T16:28:50Z</time>
      </trkpt>
      <trkpt lat="45.76726" lon="2.97049">
        <ele>1041</ele>
        <time>2021-06-11T16:28:50Z</time>
      </trkpt>
      <trkpt lat="45.76771" lon="2.97146">
        <ele>1031</ele>
        <time>2021-06-11T16:29:05Z</time>
      </trkpt>
      <trkpt lat="45.76771" lon="2.97146">
        <ele>1031</ele>
        <time>2021-06-11T16:29:05Z</time>
      </trkpt>
      <trkpt lat="45.76804" lon="2.9722">
        <ele>1022</ele>
        <time>2021-06-11T16:29:15Z</time>
      </trkpt>
      <trkpt lat="45.76804" lon="2.9722">
        <ele>1022</ele>
        <time>2021-06-11T16:29:15Z</time>
      </trkpt>
      <trkpt lat="45.76853" lon="2.97337">
        <ele>1007</ele>
        <time>2021-06-11T16:29:32Z</time>
      </trkpt>
      <trkpt lat="45.76853" lon="2.97337">
        <ele>1007</ele>
        <time>2021-06-11T16:29:32Z</time>
      </trkpt>
      <trkpt lat="45.7688" lon="2.9739">
        <ele>1001</ele>
        <time>2021-06-11T16:29:41Z</time>
      </trkpt>
      <trkpt lat="45.7688" lon="2.9739">
        <ele>1001</ele>
        <time>2021-06-11T16:29:41Z</time>
      </trkpt>
      <trkpt lat="45.76917" lon="2.97453">
        <ele>995</ele>
        <time>2021-06-11T16:29:51Z</time>
      </trkpt>
      <trkpt lat="45.76917" lon="2.97453">
        <ele>995</ele>
        <time>2021-06-11T16:29:51Z</time>
      </trkpt>
      <trkpt lat="45.76934" lon="2.97496">
        <ele>990</ele>
        <time>2021-06-11T16:29:57Z</time>
      </trkpt>
      <trkpt lat="45.76934" lon="2.97496">
        <ele>990</ele>
        <time>2021-06-11T16:29:57Z</time>
      </trkpt>
      <trkpt lat="45.77022" lon="2.97695">
        <ele>968</ele>
        <time>2021-06-11T16:30:26Z</time>
      </trkpt>
      <trkpt lat="45.77022" lon="2.97695">
        <ele>968</ele>
        <time>2021-06-11T16:30:26Z</time>
      </trkpt>
      <trkpt lat="45.77047" lon="2.97735">
        <ele>964</ele>
        <time>2021-06-11T16:30:33Z</time>
      </trkpt>
      <trkpt lat="45.77047" lon="2.97735">
        <ele>964</ele>
        <time>2021-06-11T16:30:33Z</time>
      </trkpt>
      <trkpt lat="45.77067" lon="2.97761">
        <ele>962</ele>
        <time>2021-06-11T16:30:38Z</time>
      </trkpt>
      <trkpt lat="45.77067" lon="2.97761">
        <ele>962</ele>
        <time>2021-06-11T16:30:38Z</time>
      </trkpt>
      <trkpt lat="45.77074" lon="2.97785">
        <ele>960</ele>
        <time>2021-06-11T16:30:41Z</time>
      </trkpt>
      <trkpt lat="45.77074" lon="2.97785">
        <ele>960</ele>
        <time>2021-06-11T16:30:41Z</time>
      </trkpt>
      <trkpt lat="45.77079" lon="2.97806">
        <ele>957</ele>
        <time>2021-06-11T16:30:44Z</time>
      </trkpt>
      <trkpt lat="45.77079" lon="2.97806">
        <ele>957</ele>
        <time>2021-06-11T16:30:44Z</time>
      </trkpt>
      <trkpt lat="45.7708" lon="2.97841">
        <ele>953</ele>
        <time>2021-06-11T16:30:48Z</time>
      </trkpt>
      <trkpt lat="45.7708" lon="2.97841">
        <ele>953</ele>
        <time>2021-06-11T16:30:48Z</time>
      </trkpt>
      <trkpt lat="45.77075" lon="2.97863">
        <ele>950</ele>
        <time>2021-06-11T16:30:51Z</time>
      </trkpt>
      <trkpt lat="45.77075" lon="2.97863">
        <ele>950</ele>
        <time>2021-06-11T16:30:51Z</time>
      </trkpt>
      <trkpt lat="45.77033" lon="2.97975">
        <ele>936</ele>
        <time>2021-06-11T16:31:07Z</time>
      </trkpt>
      <trkpt lat="45.77033" lon="2.97975">
        <ele>936</ele>
        <time>2021-06-11T16:31:07Z</time>
      </trkpt>
      <trkpt lat="45.77016" lon="2.98048">
        <ele>930</ele>
        <time>2021-06-11T16:31:16Z</time>
      </trkpt>
      <trkpt lat="45.77016" lon="2.98048">
        <ele>930</ele>
        <time>2021-06-11T16:31:16Z</time>
      </trkpt>
      <trkpt lat="45.77009" lon="2.98105">
        <ele>926</ele>
        <time>2021-06-11T16:31:23Z</time>
      </trkpt>
      <trkpt lat="45.77009" lon="2.98105">
        <ele>926</ele>
        <time>2021-06-11T16:31:23Z</time>
      </trkpt>
      <trkpt lat="45.77006" lon="2.98144">
        <ele>924</ele>
        <time>2021-06-11T16:31:28Z</time>
      </trkpt>
      <trkpt lat="45.77006" lon="2.98144">
        <ele>924</ele>
        <time>2021-06-11T16:31:28Z</time>
      </trkpt>
      <trkpt lat="45.77012" lon="2.98233">
        <ele>918</ele>
        <time>2021-06-11T16:31:39Z</time>
      </trkpt>
      <trkpt lat="45.77012" lon="2.98233">
        <ele>918</ele>
        <time>2021-06-11T16:31:39Z</time>
      </trkpt>
      <trkpt lat="45.77009" lon="2.98264">
        <ele>916</ele>
        <time>2021-06-11T16:31:43Z</time>
      </trkpt>
      <trkpt lat="45.77009" lon="2.98264">
        <ele>916</ele>
        <time>2021-06-11T16:31:43Z</time>
      </trkpt>
      <trkpt lat="45.76997" lon="2.98357">
        <ele>912</ele>
        <time>2021-06-11T16:31:55Z</time>
      </trkpt>
      <trkpt lat="45.76999" lon="2.9836">
        <ele>912</ele>
        <time>2021-06-11T16:31:55Z</time>
      </trkpt>
      <trkpt lat="45.76959" lon="2.98601">
        <ele>896</ele>
        <time>2021-06-11T16:32:26Z</time>
      </trkpt>
      <trkpt lat="45.76955" lon="2.98613">
        <ele>896</ele>
        <time>2021-06-11T16:32:28Z</time>
      </trkpt>
      <trkpt lat="45.76948" lon="2.98626">
        <ele>895</ele>
        <time>2021-06-11T16:32:30Z</time>
      </trkpt>
      <trkpt lat="45.76938" lon="2.98632">
        <ele>894</ele>
        <time>2021-06-11T16:32:32Z</time>
      </trkpt>
      <trkpt lat="45.76932" lon="2.98632">
        <ele>894</ele>
        <time>2021-06-11T16:32:33Z</time>
      </trkpt>
      <trkpt lat="45.76919" lon="2.98629">
        <ele>894</ele>
        <time>2021-06-11T16:32:35Z</time>
      </trkpt>
      <trkpt lat="45.76861" lon="2.98616">
        <ele>893</ele>
        <time>2021-06-11T16:32:46Z</time>
      </trkpt>
      <trkpt lat="45.76852" lon="2.98618">
        <ele>893</ele>
        <time>2021-06-11T16:32:47Z</time>
      </trkpt>
      <trkpt lat="45.76844" lon="2.98623">
        <ele>892</ele>
        <time>2021-06-11T16:32:49Z</time>
      </trkpt>
      <trkpt lat="45.76835" lon="2.98637">
        <ele>890</ele>
        <time>2021-06-11T16:32:51Z</time>
      </trkpt>
      <trkpt lat="45.76832" lon="2.98649">
        <ele>889</ele>
        <time>2021-06-11T16:32:53Z</time>
      </trkpt>
      <trkpt lat="45.76832" lon="2.98669">
        <ele>887</ele>
        <time>2021-06-11T16:32:55Z</time>
      </trkpt>
      <trkpt lat="45.76833" lon="2.98674">
        <ele>886</ele>
        <time>2021-06-11T16:32:56Z</time>
      </trkpt>
      <trkpt lat="45.76875" lon="2.98751">
        <ele>878</ele>
        <time>2021-06-11T16:33:08Z</time>
      </trkpt>
      <trkpt lat="45.76889" lon="2.98776">
        <ele>877</ele>
        <time>2021-06-11T16:33:12Z</time>
      </trkpt>
      <trkpt lat="45.76902" lon="2.98797">
        <ele>876</ele>
        <time>2021-06-11T16:33:16Z</time>
      </trkpt>
      <trkpt lat="45.76911" lon="2.98818">
        <ele>874</ele>
        <time>2021-06-11T16:33:19Z</time>
      </trkpt>
      <trkpt lat="45.76916" lon="2.98838">
        <ele>873</ele>
        <time>2021-06-11T16:33:21Z</time>
      </trkpt>
      <trkpt lat="45.76921" lon="2.98866">
        <ele>871</ele>
        <time>2021-06-11T16:33:25Z</time>
      </trkpt>
      <trkpt lat="45.76923" lon="2.98901">
        <ele>868</ele>
        <time>2021-06-11T16:33:29Z</time>
      </trkpt>
      <trkpt lat="45.76923" lon="2.98919">
        <ele>867</ele>
        <time>2021-06-11T16:33:31Z</time>
      </trkpt>
      <trkpt lat="45.76921" lon="2.98964">
        <ele>865</ele>
        <time>2021-06-11T16:33:37Z</time>
      </trkpt>
      <trkpt lat="45.76918" lon="2.98985">
        <ele>865</ele>
        <time>2021-06-11T16:33:40Z</time>
      </trkpt>
      <trkpt lat="45.76909" lon="2.99033">
        <ele>862</ele>
        <time>2021-06-11T16:33:46Z</time>
      </trkpt>
      <trkpt lat="45.76898" lon="2.99071">
        <ele>861</ele>
        <time>2021-06-11T16:33:51Z</time>
      </trkpt>
      <trkpt lat="45.76897" lon="2.99081">
        <ele>861</ele>
        <time>2021-06-11T16:33:52Z</time>
      </trkpt>
      <trkpt lat="45.76896" lon="2.99104">
        <ele>861</ele>
        <time>2021-06-11T16:33:55Z</time>
      </trkpt>
      <trkpt lat="45.76898" lon="2.99172">
        <ele>862</ele>
        <time>2021-06-11T16:34:03Z</time>
      </trkpt>
      <trkpt lat="45.76898" lon="2.99187">
        <ele>861</ele>
        <time>2021-06-11T16:34:05Z</time>
      </trkpt>
      <trkpt lat="45.76895" lon="2.99205">
        <ele>860</ele>
        <time>2021-06-11T16:34:08Z</time>
      </trkpt>
      <trkpt lat="45.76891" lon="2.99222">
        <ele>860</ele>
        <time>2021-06-11T16:34:10Z</time>
      </trkpt>
      <trkpt lat="45.76881" lon="2.9925">
        <ele>859</ele>
        <time>2021-06-11T16:34:14Z</time>
      </trkpt>
      <trkpt lat="45.76848" lon="2.99334">
        <ele>850</ele>
        <time>2021-06-11T16:34:26Z</time>
      </trkpt>
      <trkpt lat="45.76843" lon="2.99353">
        <ele>848</ele>
        <time>2021-06-11T16:34:28Z</time>
      </trkpt>
      <trkpt lat="45.76837" lon="2.99394">
        <ele>845</ele>
        <time>2021-06-11T16:34:33Z</time>
      </trkpt>
      <trkpt lat="45.76836" lon="2.99417">
        <ele>843</ele>
        <time>2021-06-11T16:34:36Z</time>
      </trkpt>
      <trkpt lat="45.7684" lon="2.99581">
        <ele>836</ele>
        <time>2021-06-11T16:34:57Z</time>
      </trkpt>
      <trkpt lat="45.76838" lon="2.99762">
        <ele>829</ele>
        <time>2021-06-11T16:35:19Z</time>
      </trkpt>
      <trkpt lat="45.76842" lon="2.99874">
        <ele>828</ele>
        <time>2021-06-11T16:35:33Z</time>
      </trkpt>
      <trkpt lat="45.76847" lon="2.99926">
        <ele>827</ele>
        <time>2021-06-11T16:35:40Z</time>
      </trkpt>
      <trkpt lat="45.76855" lon="2.99985">
        <ele>825</ele>
        <time>2021-06-11T16:35:47Z</time>
      </trkpt>
      <trkpt lat="45.76857" lon="2.99999">
        <ele>825</ele>
        <time>2021-06-11T16:35:49Z</time>
      </trkpt>
      <trkpt lat="45.76857" lon="3.00022">
        <ele>824</ele>
        <time>2021-06-11T16:35:52Z</time>
      </trkpt>
      <trkpt lat="45.76856" lon="3.00033">
        <ele>824</ele>
        <time>2021-06-11T16:35:53Z</time>
      </trkpt>
      <trkpt lat="45.7685" lon="3.00057">
        <ele>823</ele>
        <time>2021-06-11T16:35:56Z</time>
      </trkpt>
      <trkpt lat="45.76846" lon="3.00069">
        <ele>822</ele>
        <time>2021-06-11T16:35:58Z</time>
      </trkpt>
      <trkpt lat="45.76839" lon="3.0008">
        <ele>821</ele>
        <time>2021-06-11T16:36:00Z</time>
      </trkpt>
      <trkpt lat="45.76832" lon="3.00083">
        <ele>821</ele>
        <time>2021-06-11T16:36:01Z</time>
      </trkpt>
      <trkpt lat="45.76827" lon="3.00089">
        <ele>821</ele>
        <time>2021-06-11T16:36:02Z</time>
      </trkpt>
      <trkpt lat="45.76824" lon="3.00097">
        <ele>821</ele>
        <time>2021-06-11T16:36:03Z</time>
      </trkpt>
      <trkpt lat="45.76823" lon="3.00106">
        <ele>821</ele>
        <time>2021-06-11T16:36:04Z</time>
      </trkpt>
      <trkpt lat="45.76826" lon="3.00119">
        <ele>821</ele>
        <time>2021-06-11T16:36:06Z</time>
      </trkpt>
      <trkpt lat="45.76813" lon="3.00148">
        <ele>821</ele>
        <time>2021-06-11T16:36:10Z</time>
      </trkpt>
      <trkpt lat="45.7681" lon="3.00165">
        <ele>821</ele>
        <time>2021-06-11T16:36:13Z</time>
      </trkpt>
      <trkpt lat="45.76815" lon="3.00184">
        <ele>821</ele>
        <time>2021-06-11T16:36:15Z</time>
      </trkpt>
      <trkpt lat="45.76831" lon="3.00209">
        <ele>821</ele>
        <time>2021-06-11T16:36:19Z</time>
      </trkpt>
      <trkpt lat="45.76823" lon="3.00219">
        <ele>821</ele>
        <time>2021-06-11T16:36:21Z</time>
      </trkpt>
      <trkpt lat="45.7674" lon="3.00093">
        <ele>821</ele>
        <time>2021-06-11T16:36:43Z</time>
      </trkpt>
      <trkpt lat="45.76708" lon="3.00099">
        <ele>822</ele>
        <time>2021-06-11T16:36:48Z</time>
      </trkpt>
      <trkpt lat="45.76678" lon="3.00114">
        <ele>822</ele>
        <time>2021-06-11T16:36:54Z</time>
      </trkpt>
      <trkpt lat="45.7662" lon="3.0015">
        <ele>823</ele>
        <time>2021-06-11T16:37:05Z</time>
      </trkpt>
      <trkpt lat="45.76577" lon="3.00174">
        <ele>826</ele>
        <time>2021-06-11T16:37:14Z</time>
      </trkpt>
      <trkpt lat="45.7655" lon="3.00203">
        <ele>829</ele>
        <time>2021-06-11T16:37:20Z</time>
      </trkpt>
      <trkpt lat="45.76542" lon="3.00216">
        <ele>830</ele>
        <time>2021-06-11T16:37:22Z</time>
      </trkpt>
      <trkpt lat="45.76525" lon="3.00258">
        <ele>832</ele>
        <time>2021-06-11T16:37:28Z</time>
      </trkpt>
      <trkpt lat="45.7651" lon="3.00298">
        <ele>834</ele>
        <time>2021-06-11T16:37:33Z</time>
      </trkpt>
      <trkpt lat="45.7651" lon="3.00309">
        <ele>834</ele>
        <time>2021-06-11T16:37:35Z</time>
      </trkpt>
      <trkpt lat="45.76503" lon="3.0031">
        <ele>835</ele>
        <time>2021-06-11T16:37:36Z</time>
      </trkpt>
      <trkpt lat="45.76498" lon="3.00314">
        <ele>836</ele>
        <time>2021-06-11T16:37:37Z</time>
      </trkpt>
      <trkpt lat="45.7649" lon="3.00323">
        <ele>837</ele>
        <time>2021-06-11T16:37:39Z</time>
      </trkpt>
      <trkpt lat="45.76487" lon="3.00334">
        <ele>838</ele>
        <time>2021-06-11T16:37:40Z</time>
      </trkpt>
      <trkpt lat="45.76486" lon="3.00352">
        <ele>838</ele>
        <time>2021-06-11T16:37:43Z</time>
      </trkpt>
      <trkpt lat="45.7649" lon="3.00386">
        <ele>838</ele>
        <time>2021-06-11T16:37:47Z</time>
      </trkpt>
      <trkpt lat="45.7649" lon="3.00397">
        <ele>839</ele>
        <time>2021-06-11T16:37:48Z</time>
      </trkpt>
      <trkpt lat="45.76487" lon="3.00406">
        <ele>839</ele>
        <time>2021-06-11T16:37:49Z</time>
      </trkpt>
      <trkpt lat="45.76478" lon="3.00417">
        <ele>840</ele>
        <time>2021-06-11T16:37:52Z</time>
      </trkpt>
      <trkpt lat="45.7645" lon="3.00442">
        <ele>842</ele>
        <time>2021-06-11T16:37:57Z</time>
      </trkpt>
      <trkpt lat="45.76432" lon="3.00472">
        <ele>842</ele>
        <time>2021-06-11T16:38:02Z</time>
      </trkpt>
      <trkpt lat="45.76425" lon="3.00489">
        <ele>842</ele>
        <time>2021-06-11T16:38:05Z</time>
      </trkpt>
      <trkpt lat="45.76406" lon="3.00556">
        <ele>840</ele>
        <time>2021-06-11T16:38:14Z</time>
      </trkpt>
      <trkpt lat="45.76398" lon="3.00572">
        <ele>839</ele>
        <time>2021-06-11T16:38:16Z</time>
      </trkpt>
      <trkpt lat="45.76387" lon="3.00586">
        <ele>838</ele>
        <time>2021-06-11T16:38:19Z</time>
      </trkpt>
      <trkpt lat="45.76379" lon="3.00593">
        <ele>837</ele>
        <time>2021-06-11T16:38:20Z</time>
      </trkpt>
      <trkpt lat="45.76332" lon="3.0063">
        <ele>833</ele>
        <time>2021-06-11T16:38:30Z</time>
      </trkpt>
      <trkpt lat="45.7631" lon="3.00629">
        <ele>833</ele>
        <time>2021-06-11T16:38:34Z</time>
      </trkpt>
      <trkpt lat="45.76301" lon="3.00624">
        <ele>833</ele>
        <time>2021-06-11T16:38:36Z</time>
      </trkpt>
      <trkpt lat="45.76238" lon="3.0057">
        <ele>835</ele>
        <time>2021-06-11T16:38:49Z</time>
      </trkpt>
      <trkpt lat="45.76229" lon="3.00563">
        <ele>835</ele>
        <time>2021-06-11T16:38:51Z</time>
      </trkpt>
      <trkpt lat="45.76207" lon="3.00555">
        <ele>836</ele>
        <time>2021-06-11T16:38:55Z</time>
      </trkpt>
      <trkpt lat="45.76147" lon="3.0054">
        <ele>840</ele>
        <time>2021-06-11T16:39:05Z</time>
      </trkpt>
      <trkpt lat="45.76103" lon="3.00525">
        <ele>843</ele>
        <time>2021-06-11T16:39:13Z</time>
      </trkpt>
      <trkpt lat="45.76081" lon="3.00522">
        <ele>844</ele>
        <time>2021-06-11T16:39:17Z</time>
      </trkpt>
      <trkpt lat="45.76021" lon="3.00526">
        <ele>846</ele>
        <time>2021-06-11T16:39:28Z</time>
      </trkpt>
      <trkpt lat="45.76007" lon="3.00529">
        <ele>847</ele>
        <time>2021-06-11T16:39:31Z</time>
      </trkpt>
      <trkpt lat="45.75999" lon="3.00534">
        <ele>848</ele>
        <time>2021-06-11T16:39:32Z</time>
      </trkpt>
      <trkpt lat="45.75987" lon="3.0055">
        <ele>849</ele>
        <time>2021-06-11T16:39:35Z</time>
      </trkpt>
      <trkpt lat="45.75984" lon="3.00562">
        <ele>850</ele>
        <time>2021-06-11T16:39:37Z</time>
      </trkpt>
      <trkpt lat="45.75984" lon="3.00574">
        <ele>851</ele>
        <time>2021-06-11T16:39:38Z</time>
      </trkpt>
      <trkpt lat="45.75985" lon="3.00588">
        <ele>852</ele>
        <time>2021-06-11T16:39:40Z</time>
      </trkpt>
      <trkpt lat="45.75994" lon="3.00615">
        <ele>853</ele>
        <time>2021-06-11T16:39:44Z</time>
      </trkpt>
      <trkpt lat="45.7604" lon="3.00772">
        <ele>857</ele>
        <time>2021-06-11T16:40:05Z</time>
      </trkpt>
      <trkpt lat="45.76048" lon="3.00812">
        <ele>859</ele>
        <time>2021-06-11T16:40:10Z</time>
      </trkpt>
      <trkpt lat="45.76052" lon="3.00846">
        <ele>860</ele>
        <time>2021-06-11T16:40:14Z</time>
      </trkpt>
      <trkpt lat="45.76057" lon="3.00861">
        <ele>860</ele>
        <time>2021-06-11T16:40:16Z</time>
      </trkpt>
      <trkpt lat="45.76064" lon="3.00877">
        <ele>860</ele>
        <time>2021-06-11T16:40:19Z</time>
      </trkpt>
      <trkpt lat="45.76082" lon="3.00906">
        <ele>860</ele>
        <time>2021-06-11T16:40:23Z</time>
      </trkpt>
      <trkpt lat="45.76085" lon="3.0092">
        <ele>861</ele>
        <time>2021-06-11T16:40:25Z</time>
      </trkpt>
      <trkpt lat="45.76085" lon="3.00933">
        <ele>862</ele>
        <time>2021-06-11T16:40:27Z</time>
      </trkpt>
      <trkpt lat="45.76082" lon="3.00946">
        <ele>864</ele>
        <time>2021-06-11T16:40:29Z</time>
      </trkpt>
      <trkpt lat="45.76075" lon="3.00957">
        <ele>866</ele>
        <time>2021-06-11T16:40:30Z</time>
      </trkpt>
      <trkpt lat="45.76066" lon="3.00962">
        <ele>867</ele>
        <time>2021-06-11T16:40:32Z</time>
      </trkpt>
      <trkpt lat="45.76053" lon="3.0096">
        <ele>868</ele>
        <time>2021-06-11T16:40:34Z</time>
      </trkpt>
      <trkpt lat="45.76036" lon="3.00949">
        <ele>868</ele>
        <time>2021-06-11T16:40:38Z</time>
      </trkpt>
      <trkpt lat="45.76012" lon="3.00942">
        <ele>869</ele>
        <time>2021-06-11T16:40:42Z</time>
      </trkpt>
      <trkpt lat="45.76003" lon="3.00944">
        <ele>870</ele>
        <time>2021-06-11T16:40:44Z</time>
      </trkpt>
      <trkpt lat="45.75994" lon="3.0095">
        <ele>872</ele>
        <time>2021-06-11T16:40:45Z</time>
      </trkpt>
      <trkpt lat="45.75987" lon="3.00958">
        <ele>873</ele>
        <time>2021-06-11T16:40:47Z</time>
      </trkpt>
      <trkpt lat="45.75959" lon="3.01023">
        <ele>875</ele>
        <time>2021-06-11T16:40:57Z</time>
      </trkpt>
      <trkpt lat="45.75875" lon="3.01174">
        <ele>868</ele>
        <time>2021-06-11T16:41:21Z</time>
      </trkpt>
      <trkpt lat="45.75813" lon="3.01146">
        <ele>874</ele>
        <time>2021-06-11T16:41:32Z</time>
      </trkpt>
      <trkpt lat="45.75696" lon="3.01132">
        <ele>878</ele>
        <time>2021-06-11T16:41:53Z</time>
      </trkpt>
      <trkpt lat="45.75632" lon="3.01107">
        <ele>884</ele>
        <time>2021-06-11T16:42:05Z</time>
      </trkpt>
      <trkpt lat="45.75613" lon="3.01103">
        <ele>886</ele>
        <time>2021-06-11T16:42:08Z</time>
      </trkpt>
      <trkpt lat="45.75485" lon="3.0111">
        <ele>888</ele>
        <time>2021-06-11T16:42:31Z</time>
      </trkpt>
      <trkpt lat="45.7547" lon="3.01109">
        <ele>888</ele>
        <time>2021-06-11T16:42:34Z</time>
      </trkpt>
      <trkpt lat="45.75458" lon="3.01105">
        <ele>888</ele>
        <time>2021-06-11T16:42:36Z</time>
      </trkpt>
      <trkpt lat="45.75409" lon="3.01079">
        <ele>889</ele>
        <time>2021-06-11T16:42:45Z</time>
      </trkpt>
      <trkpt lat="45.7539" lon="3.01074">
        <ele>890</ele>
        <time>2021-06-11T16:42:49Z</time>
      </trkpt>
      <trkpt lat="45.75375" lon="3.01072">
        <ele>891</ele>
        <time>2021-06-11T16:42:51Z</time>
      </trkpt>
      <trkpt lat="45.7531" lon="3.01082">
        <ele>894</ele>
        <time>2021-06-11T16:43:03Z</time>
      </trkpt>
      <trkpt lat="45.75299" lon="3.01088">
        <ele>895</ele>
        <time>2021-06-11T16:43:05Z</time>
      </trkpt>
      <trkpt lat="45.7529" lon="3.01095">
        <ele>896</ele>
        <time>2021-06-11T16:43:07Z</time>
      </trkpt>
      <trkpt lat="45.75282" lon="3.01108">
        <ele>897</ele>
        <time>2021-06-11T16:43:09Z</time>
      </trkpt>
      <trkpt lat="45.75273" lon="3.01125">
        <ele>897</ele>
        <time>2021-06-11T16:43:12Z</time>
      </trkpt>
      <trkpt lat="45.75213" lon="3.01259">
        <ele>893</ele>
        <time>2021-06-11T16:43:31Z</time>
      </trkpt>
      <trkpt lat="45.75201" lon="3.0128">
        <ele>893</ele>
        <time>2021-06-11T16:43:35Z</time>
      </trkpt>
      <trkpt lat="45.75191" lon="3.01293">
        <ele>892</ele>
        <time>2021-06-11T16:43:37Z</time>
      </trkpt>
      <trkpt lat="45.75178" lon="3.01304">
        <ele>892</ele>
        <time>2021-06-11T16:43:40Z</time>
      </trkpt>
      <trkpt lat="45.75112" lon="3.01343">
        <ele>889</ele>
        <time>2021-06-11T16:43:53Z</time>
      </trkpt>
      <trkpt lat="45.75046" lon="3.01372">
        <ele>888</ele>
        <time>2021-06-11T16:44:05Z</time>
      </trkpt>
      <trkpt lat="45.75031" lon="3.01383">
        <ele>887</ele>
        <time>2021-06-11T16:44:08Z</time>
      </trkpt>
      <trkpt lat="45.74986" lon="3.01433">
        <ele>886</ele>
        <time>2021-06-11T16:44:18Z</time>
      </trkpt>
      <trkpt lat="45.74917" lon="3.01536">
        <ele>884</ele>
        <time>2021-06-11T16:44:36Z</time>
      </trkpt>
      <trkpt lat="45.74896" lon="3.01557">
        <ele>884</ele>
        <time>2021-06-11T16:44:40Z</time>
      </trkpt>
      <trkpt lat="45.74815" lon="3.016">
        <ele>888</ele>
        <time>2021-06-11T16:44:56Z</time>
      </trkpt>
      <trkpt lat="45.74792" lon="3.01609">
        <ele>889</ele>
        <time>2021-06-11T16:45:00Z</time>
      </trkpt>
      <trkpt lat="45.7477" lon="3.01616">
        <ele>891</ele>
        <time>2021-06-11T16:45:04Z</time>
      </trkpt>
      <trkpt lat="45.74679" lon="3.01627">
        <ele>888</ele>
        <time>2021-06-11T16:45:20Z</time>
      </trkpt>
      <trkpt lat="45.74668" lon="3.01622">
        <ele>888</ele>
        <time>2021-06-11T16:45:22Z</time>
      </trkpt>
      <trkpt lat="45.74654" lon="3.01605">
        <ele>889</ele>
        <time>2021-06-11T16:45:25Z</time>
      </trkpt>
      <trkpt lat="45.74636" lon="3.01565">
        <ele>891</ele>
        <time>2021-06-11T16:45:31Z</time>
      </trkpt>
      <trkpt lat="45.74615" lon="3.01532">
        <ele>891</ele>
        <time>2021-06-11T16:45:37Z</time>
      </trkpt>
      <trkpt lat="45.7457" lon="3.01482">
        <ele>889</ele>
        <time>2021-06-11T16:45:47Z</time>
      </trkpt>
      <trkpt lat="45.74539" lon="3.0145">
        <ele>889</ele>
        <time>2021-06-11T16:45:54Z</time>
      </trkpt>
      <trkpt lat="45.74532" lon="3.01446">
        <ele>888</ele>
        <time>2021-06-11T16:45:55Z</time>
      </trkpt>
      <trkpt lat="45.74488" lon="3.01435">
        <ele>885</ele>
        <time>2021-06-11T16:46:03Z</time>
      </trkpt>
      <trkpt lat="45.74469" lon="3.01411">
        <ele>885</ele>
        <time>2021-06-11T16:46:08Z</time>
      </trkpt>
      <trkpt lat="45.74438" lon="3.01357">
        <ele>884</ele>
        <time>2021-06-11T16:46:16Z</time>
      </trkpt>
      <trkpt lat="45.74434" lon="3.01344">
        <ele>884</ele>
        <time>2021-06-11T16:46:18Z</time>
      </trkpt>
      <trkpt lat="45.74428" lon="3.0129">
        <ele>885</ele>
        <time>2021-06-11T16:46:25Z</time>
      </trkpt>
      <trkpt lat="45.74404" lon="3.012">
        <ele>886</ele>
        <time>2021-06-11T16:46:37Z</time>
      </trkpt>
      <trkpt lat="45.7438" lon="3.01141">
        <ele>887</ele>
        <time>2021-06-11T16:46:45Z</time>
      </trkpt>
      <trkpt lat="45.74346" lon="3.01086">
        <ele>886</ele>
        <time>2021-06-11T16:46:54Z</time>
      </trkpt>
      <trkpt lat="45.74323" lon="3.01056">
        <ele>887</ele>
        <time>2021-06-11T16:47:00Z</time>
      </trkpt>
      <trkpt lat="45.74304" lon="3.01041">
        <ele>888</ele>
        <time>2021-06-11T16:47:04Z</time>
      </trkpt>
      <trkpt lat="45.74294" lon="3.01037">
        <ele>888</ele>
        <time>2021-06-11T16:47:06Z</time>
      </trkpt>
      <trkpt lat="45.74284" lon="3.01038">
        <ele>888</ele>
        <time>2021-06-11T16:47:07Z</time>
      </trkpt>
      <trkpt lat="45.74272" lon="3.01053">
        <ele>886</ele>
        <time>2021-06-11T16:47:10Z</time>
      </trkpt>
      <trkpt lat="45.74265" lon="3.01073">
        <ele>885</ele>
        <time>2021-06-11T16:47:13Z</time>
      </trkpt>
      <trkpt lat="45.74262" lon="3.011">
        <ele>885</ele>
        <time>2021-06-11T16:47:16Z</time>
      </trkpt>
      <trkpt lat="45.74266" lon="3.01182">
        <ele>883</ele>
        <time>2021-06-11T16:47:27Z</time>
      </trkpt>
      <trkpt lat="45.74274" lon="3.0126">
        <ele>880</ele>
        <time>2021-06-11T16:47:36Z</time>
      </trkpt>
      <trkpt lat="45.74274" lon="3.01291">
        <ele>879</ele>
        <time>2021-06-11T16:47:40Z</time>
      </trkpt>
      <trkpt lat="45.74268" lon="3.0134">
        <ele>878</ele>
        <time>2021-06-11T16:47:46Z</time>
      </trkpt>
      <trkpt lat="45.74255" lon="3.01385">
        <ele>876</ele>
        <time>2021-06-11T16:47:53Z</time>
      </trkpt>
      <trkpt lat="45.74234" lon="3.01431">
        <ele>876</ele>
        <time>2021-06-11T16:47:59Z</time>
      </trkpt>
      <trkpt lat="45.74142" lon="3.01607">
        <ele>873</ele>
        <time>2021-06-11T16:48:27Z</time>
      </trkpt>
      <trkpt lat="45.74133" lon="3.01631">
        <ele>872</ele>
        <time>2021-06-11T16:48:30Z</time>
      </trkpt>
      <trkpt lat="45.74122" lon="3.01676">
        <ele>869</ele>
        <time>2021-06-11T16:48:36Z</time>
      </trkpt>
      <trkpt lat="45.741" lon="3.01674">
        <ele>870</ele>
        <time>2021-06-11T16:48:40Z</time>
      </trkpt>
      <trkpt lat="45.74076" lon="3.01676">
        <ele>871</ele>
        <time>2021-06-11T16:48:44Z</time>
      </trkpt>
      <trkpt lat="45.74054" lon="3.0168">
        <ele>870</ele>
        <time>2021-06-11T16:48:48Z</time>
      </trkpt>
      <trkpt lat="45.73996" lon="3.01701">
        <ele>866</ele>
        <time>2021-06-11T16:48:59Z</time>
      </trkpt>
      <trkpt lat="45.73983" lon="3.0171">
        <ele>865</ele>
        <time>2021-06-11T16:49:01Z</time>
      </trkpt>
      <trkpt lat="45.73972" lon="3.01723">
        <ele>865</ele>
        <time>2021-06-11T16:49:04Z</time>
      </trkpt>
      <trkpt lat="45.73956" lon="3.01759">
        <ele>863</ele>
        <time>2021-06-11T16:49:09Z</time>
      </trkpt>
      <trkpt lat="45.73945" lon="3.01813">
        <ele>861</ele>
        <time>2021-06-11T16:49:16Z</time>
      </trkpt>
      <trkpt lat="45.7394" lon="3.0183">
        <ele>861</ele>
        <time>2021-06-11T16:49:18Z</time>
      </trkpt>
      <trkpt lat="45.73931" lon="3.01849">
        <ele>860</ele>
        <time>2021-06-11T16:49:21Z</time>
      </trkpt>
      <trkpt lat="45.73914" lon="3.01868">
        <ele>859</ele>
        <time>2021-06-11T16:49:25Z</time>
      </trkpt>
      <trkpt lat="45.73901" lon="3.01875">
        <ele>858</ele>
        <time>2021-06-11T16:49:28Z</time>
      </trkpt>
      <trkpt lat="45.73888" lon="3.01878">
        <ele>857</ele>
        <time>2021-06-11T16:49:30Z</time>
      </trkpt>
      <trkpt lat="45.73869" lon="3.01876">
        <ele>857</ele>
        <time>2021-06-11T16:49:33Z</time>
      </trkpt>
      <trkpt lat="45.73834" lon="3.01865">
        <ele>856</ele>
        <time>2021-06-11T16:49:40Z</time>
      </trkpt>
      <trkpt lat="45.7382" lon="3.01865">
        <ele>857</ele>
        <time>2021-06-11T16:49:42Z</time>
      </trkpt>
      <trkpt lat="45.73807" lon="3.0187">
        <ele>857</ele>
        <time>2021-06-11T16:49:45Z</time>
      </trkpt>
      <trkpt lat="45.73799" lon="3.01878">
        <ele>858</ele>
        <time>2021-06-11T16:49:46Z</time>
      </trkpt>
      <trkpt lat="45.73789" lon="3.0189">
        <ele>858</ele>
        <time>2021-06-11T16:49:49Z</time>
      </trkpt>
      <trkpt lat="45.73784" lon="3.01905">
        <ele>858</ele>
        <time>2021-06-11T16:49:51Z</time>
      </trkpt>
      <trkpt lat="45.73781" lon="3.01925">
        <ele>858</ele>
        <time>2021-06-11T16:49:53Z</time>
      </trkpt>
      <trkpt lat="45.73782" lon="3.01999">
        <ele>853</ele>
        <time>2021-06-11T16:50:02Z</time>
      </trkpt>
      <trkpt lat="45.73781" lon="3.02021">
        <ele>852</ele>
        <time>2021-06-11T16:50:05Z</time>
      </trkpt>
      <trkpt lat="45.73778" lon="3.02038">
        <ele>850</ele>
        <time>2021-06-11T16:50:07Z</time>
      </trkpt>
      <trkpt lat="45.73772" lon="3.02052">
        <ele>850</ele>
        <time>2021-06-11T16:50:09Z</time>
      </trkpt>
      <trkpt lat="45.73763" lon="3.02064">
        <ele>850</ele>
        <time>2021-06-11T16:50:12Z</time>
      </trkpt>
      <trkpt lat="45.73753" lon="3.02071">
        <ele>850</ele>
        <time>2021-06-11T16:50:14Z</time>
      </trkpt>
      <trkpt lat="45.7374" lon="3.02074">
        <ele>850</ele>
        <time>2021-06-11T16:50:16Z</time>
      </trkpt>
      <trkpt lat="45.73728" lon="3.02074">
        <ele>851</ele>
        <time>2021-06-11T16:50:18Z</time>
      </trkpt>
      <trkpt lat="45.73686" lon="3.02067">
        <ele>854</ele>
        <time>2021-06-11T16:50:26Z</time>
      </trkpt>
      <trkpt lat="45.73662" lon="3.0207">
        <ele>855</ele>
        <time>2021-06-11T16:50:30Z</time>
      </trkpt>
      <trkpt lat="45.73651" lon="3.02076">
        <ele>855</ele>
        <time>2021-06-11T16:50:32Z</time>
      </trkpt>
      <trkpt lat="45.73641" lon="3.02087">
        <ele>854</ele>
        <time>2021-06-11T16:50:34Z</time>
      </trkpt>
      <trkpt lat="45.73634" lon="3.02098">
        <ele>854</ele>
        <time>2021-06-11T16:50:36Z</time>
      </trkpt>
      <trkpt lat="45.73628" lon="3.02118">
        <ele>853</ele>
        <time>2021-06-11T16:50:39Z</time>
      </trkpt>
      <trkpt lat="45.73624" lon="3.02176">
        <ele>850</ele>
        <time>2021-06-11T16:50:46Z</time>
      </trkpt>
      <trkpt lat="45.73621" lon="3.02204">
        <ele>849</ele>
        <time>2021-06-11T16:50:49Z</time>
      </trkpt>
      <trkpt lat="45.73616" lon="3.02222">
        <ele>849</ele>
        <time>2021-06-11T16:50:52Z</time>
      </trkpt>
      <trkpt lat="45.73609" lon="3.02238">
        <ele>850</ele>
        <time>2021-06-11T16:50:54Z</time>
      </trkpt>
      <trkpt lat="45.73585" lon="3.02277">
        <ele>850</ele>
        <time>2021-06-11T16:51:01Z</time>
      </trkpt>
      <trkpt lat="45.73572" lon="3.02295">
        <ele>849</ele>
        <time>2021-06-11T16:51:04Z</time>
      </trkpt>
      <trkpt lat="45.73567" lon="3.023">
        <ele>849</ele>
        <time>2021-06-11T16:51:05Z</time>
      </trkpt>
      <trkpt lat="45.73563" lon="3.02293">
        <ele>849</ele>
        <time>2021-06-11T16:51:06Z</time>
      </trkpt>
      <trkpt lat="45.73557" lon="3.02292">
        <ele>849</ele>
        <time>2021-06-11T16:51:07Z</time>
      </trkpt>
      <trkpt lat="45.73554" lon="3.02293">
        <ele>849</ele>
        <time>2021-06-11T16:51:08Z</time>
      </trkpt>
      <trkpt lat="45.73551" lon="3.02295">
        <ele>849</ele>
        <time>2021-06-11T16:51:08Z</time>
      </trkpt>
      <trkpt lat="45.73548" lon="3.02304">
        <ele>848</ele>
        <time>2021-06-11T16:51:10Z</time>
      </trkpt>
      <trkpt lat="45.73548" lon="3.02309">
        <ele>848</ele>
        <time>2021-06-11T16:51:10Z</time>
      </trkpt>
      <trkpt lat="45.7354" lon="3.02312">
        <ele>848</ele>
        <time>2021-06-11T16:51:12Z</time>
      </trkpt>
      <trkpt lat="45.73528" lon="3.02308">
        <ele>848</ele>
        <time>2021-06-11T16:51:14Z</time>
      </trkpt>
      <trkpt lat="45.73515" lon="3.02295">
        <ele>849</ele>
        <time>2021-06-11T16:51:17Z</time>
      </trkpt>
      <trkpt lat="45.73409" lon="3.02235">
        <ele>852</ele>
        <time>2021-06-11T16:51:37Z</time>
      </trkpt>
      <trkpt lat="45.73359" lon="3.02198">
        <ele>856</ele>
        <time>2021-06-11T16:51:47Z</time>
      </trkpt>
      <trkpt lat="45.73323" lon="3.02176">
        <ele>858</ele>
        <time>2021-06-11T16:51:54Z</time>
      </trkpt>
      <trkpt lat="45.73241" lon="3.02131">
        <ele>861</ele>
        <time>2021-06-11T16:52:10Z</time>
      </trkpt>
      <trkpt lat="45.73205" lon="3.02116">
        <ele>862</ele>
        <time>2021-06-11T16:52:16Z</time>
      </trkpt>
      <trkpt lat="45.73184" lon="3.02112">
        <ele>862</ele>
        <time>2021-06-11T16:52:20Z</time>
      </trkpt>
      <trkpt lat="45.73163" lon="3.02113">
        <ele>862</ele>
        <time>2021-06-11T16:52:24Z</time>
      </trkpt>
      <trkpt lat="45.73093" lon="3.02126">
        <ele>866</ele>
        <time>2021-06-11T16:52:36Z</time>
      </trkpt>
      <trkpt lat="45.73065" lon="3.02127">
        <ele>868</ele>
        <time>2021-06-11T16:52:41Z</time>
      </trkpt>
      <trkpt lat="45.7304" lon="3.02126">
        <ele>870</ele>
        <time>2021-06-11T16:52:46Z</time>
      </trkpt>
      <trkpt lat="45.7302" lon="3.02118">
        <ele>872</ele>
        <time>2021-06-11T16:52:49Z</time>
      </trkpt>
      <trkpt lat="45.73002" lon="3.02105">
        <ele>874</ele>
        <time>2021-06-11T16:52:53Z</time>
      </trkpt>
      <trkpt lat="45.72883" lon="3.01989">
        <ele>883</ele>
        <time>2021-06-11T16:53:19Z</time>
      </trkpt>
      <trkpt lat="45.72852" lon="3.0197">
        <ele>884</ele>
        <time>2021-06-11T16:53:25Z</time>
      </trkpt>
      <trkpt lat="45.72829" lon="3.0196">
        <ele>885</ele>
        <time>2021-06-11T16:53:29Z</time>
      </trkpt>
      <trkpt lat="45.7281" lon="3.01957">
        <ele>886</ele>
        <time>2021-06-11T16:53:32Z</time>
      </trkpt>
      <trkpt lat="45.72704" lon="3.01963">
        <ele>889</ele>
        <time>2021-06-11T16:53:51Z</time>
      </trkpt>
      <trkpt lat="45.72685" lon="3.0196">
        <ele>889</ele>
        <time>2021-06-11T16:53:55Z</time>
      </trkpt>
      <trkpt lat="45.72659" lon="3.0195">
        <ele>888</ele>
        <time>2021-06-11T16:53:59Z</time>
      </trkpt>
      <trkpt lat="45.72556" lon="3.01895">
        <ele>885</ele>
        <time>2021-06-11T16:54:19Z</time>
      </trkpt>
      <trkpt lat="45.72528" lon="3.01886">
        <ele>884</ele>
        <time>2021-06-11T16:54:24Z</time>
      </trkpt>
      <trkpt lat="45.72131" lon="3.01825">
        <ele>871</ele>
        <time>2021-06-11T16:55:35Z</time>
      </trkpt>
      <trkpt lat="45.72109" lon="3.01824">
        <ele>872</ele>
        <time>2021-06-11T16:55:39Z</time>
      </trkpt>
      <trkpt lat="45.72099" lon="3.01827">
        <ele>873</ele>
        <time>2021-06-11T16:55:41Z</time>
      </trkpt>
      <trkpt lat="45.72093" lon="3.01832">
        <ele>873</ele>
        <time>2021-06-11T16:55:42Z</time>
      </trkpt>
      <trkpt lat="45.72089" lon="3.0184">
        <ele>873</ele>
        <time>2021-06-11T16:55:43Z</time>
      </trkpt>
      <trkpt lat="45.72069" lon="3.01935">
        <ele>871</ele>
        <time>2021-06-11T16:55:56Z</time>
      </trkpt>
      <trkpt lat="45.72065" lon="3.01945">
        <ele>871</ele>
        <time>2021-06-11T16:55:57Z</time>
      </trkpt>
      <trkpt lat="45.72054" lon="3.01959">
        <ele>871</ele>
        <time>2021-06-11T16:56:00Z</time>
      </trkpt>
      <trkpt lat="45.72044" lon="3.01967">
        <ele>872</ele>
        <time>2021-06-11T16:56:02Z</time>
      </trkpt>
      <trkpt lat="45.72015" lon="3.01974">
        <ele>874</ele>
        <time>2021-06-11T16:56:07Z</time>
      </trkpt>
      <trkpt lat="45.71978" lon="3.01964">
        <ele>874</ele>
        <time>2021-06-11T16:56:14Z</time>
      </trkpt>
      <trkpt lat="45.7189" lon="3.01912">
        <ele>874</ele>
        <time>2021-06-11T16:56:31Z</time>
      </trkpt>
      <trkpt lat="45.71879" lon="3.01898">
        <ele>875</ele>
        <time>2021-06-11T16:56:33Z</time>
      </trkpt>
      <trkpt lat="45.71866" lon="3.01901">
        <ele>875</ele>
        <time>2021-06-11T16:56:36Z</time>
      </trkpt>
      <trkpt lat="45.71857" lon="3.01901">
        <ele>874</ele>
        <time>2021-06-11T16:56:37Z</time>
      </trkpt>
      <trkpt lat="45.7163" lon="3.01843">
        <ele>870</ele>
        <time>2021-06-11T16:57:18Z</time>
      </trkpt>
      <trkpt lat="45.71428" lon="3.01797">
        <ele>860</ele>
        <time>2021-06-11T16:57:55Z</time>
      </trkpt>
      <trkpt lat="45.71365" lon="3.01778">
        <ele>855</ele>
        <time>2021-06-11T16:58:06Z</time>
      </trkpt>
      <trkpt lat="45.71344" lon="3.01767">
        <ele>853</ele>
        <time>2021-06-11T16:58:10Z</time>
      </trkpt>
      <trkpt lat="45.70997" lon="3.01526">
        <ele>833</ele>
        <time>2021-06-11T16:59:19Z</time>
      </trkpt>
      <trkpt lat="45.70982" lon="3.01509">
        <ele>832</ele>
        <time>2021-06-11T16:59:22Z</time>
      </trkpt>
      <trkpt lat="45.7097" lon="3.01489">
        <ele>830</ele>
        <time>2021-06-11T16:59:25Z</time>
      </trkpt>
      <trkpt lat="45.70892" lon="3.0132">
        <ele>827</ele>
        <time>2021-06-11T16:59:50Z</time>
      </trkpt>
      <trkpt lat="45.70884" lon="3.01309">
        <ele>826</ele>
        <time>2021-06-11T16:59:52Z</time>
      </trkpt>
      <trkpt lat="45.70866" lon="3.01293">
        <ele>824</ele>
        <time>2021-06-11T16:59:56Z</time>
      </trkpt>
      <trkpt lat="45.70856" lon="3.01287">
        <ele>823</ele>
        <time>2021-06-11T16:59:58Z</time>
      </trkpt>
      <trkpt lat="45.70832" lon="3.0128">
        <ele>821</ele>
        <time>2021-06-11T17:00:02Z</time>
      </trkpt>
      <trkpt lat="45.70815" lon="3.0128">
        <ele>822</ele>
        <time>2021-06-11T17:00:05Z</time>
      </trkpt>
      <trkpt lat="45.70621" lon="3.01321">
        <ele>822</ele>
        <time>2021-06-11T17:00:40Z</time>
      </trkpt>
      <trkpt lat="45.70602" lon="3.01328">
        <ele>822</ele>
        <time>2021-06-11T17:00:44Z</time>
      </trkpt>
      <trkpt lat="45.70587" lon="3.01335">
        <ele>822</ele>
        <time>2021-06-11T17:00:47Z</time>
      </trkpt>
      <trkpt lat="45.70561" lon="3.01358">
        <ele>822</ele>
        <time>2021-06-11T17:00:52Z</time>
      </trkpt>
      <trkpt lat="45.7055" lon="3.01374">
        <ele>822</ele>
        <time>2021-06-11T17:00:55Z</time>
      </trkpt>
      <trkpt lat="45.70541" lon="3.01392">
        <ele>821</ele>
        <time>2021-06-11T17:00:58Z</time>
      </trkpt>
      <trkpt lat="45.70533" lon="3.01416">
        <ele>821</ele>
        <time>2021-06-11T17:01:01Z</time>
      </trkpt>
      <trkpt lat="45.70525" lon="3.01447">
        <ele>821</ele>
        <time>2021-06-11T17:01:05Z</time>
      </trkpt>
      <trkpt lat="45.70513" lon="3.01525">
        <ele>820</ele>
        <time>2021-06-11T17:01:15Z</time>
      </trkpt>
      <trkpt lat="45.7051" lon="3.01567">
        <ele>820</ele>
        <time>2021-06-11T17:01:20Z</time>
      </trkpt>
      <trkpt lat="45.70516" lon="3.01666">
        <ele>822</ele>
        <time>2021-06-11T17:01:33Z</time>
      </trkpt>
      <trkpt lat="45.70514" lon="3.01691">
        <ele>822</ele>
        <time>2021-06-11T17:01:36Z</time>
      </trkpt>
      <trkpt lat="45.70496" lon="3.01764">
        <ele>821</ele>
        <time>2021-06-11T17:01:45Z</time>
      </trkpt>
      <trkpt lat="45.70477" lon="3.01799">
        <ele>819</ele>
        <time>2021-06-11T17:01:51Z</time>
      </trkpt>
      <trkpt lat="45.70466" lon="3.01808">
        <ele>818</ele>
        <time>2021-06-11T17:01:53Z</time>
      </trkpt>
      <trkpt lat="45.70459" lon="3.01807">
        <ele>818</ele>
        <time>2021-06-11T17:01:54Z</time>
      </trkpt>
      <trkpt lat="45.70454" lon="3.01809">
        <ele>818</ele>
        <time>2021-06-11T17:01:55Z</time>
      </trkpt>
      <trkpt lat="45.70446" lon="3.01818">
        <ele>817</ele>
        <time>2021-06-11T17:01:57Z</time>
      </trkpt>
      <trkpt lat="45.70443" lon="3.01831">
        <ele>816</ele>
        <time>2021-06-11T17:01:59Z</time>
      </trkpt>
      <trkpt lat="45.70444" lon="3.01839">
        <ele>816</ele>
        <time>2021-06-11T17:02:00Z</time>
      </trkpt>
      <trkpt lat="45.70433" lon="3.01877">
        <ele>814</ele>
        <time>2021-06-11T17:02:05Z</time>
      </trkpt>
      <trkpt lat="45.70379" lon="3.01999">
        <ele>814</ele>
        <time>2021-06-11T17:02:23Z</time>
      </trkpt>
      <trkpt lat="45.70374" lon="3.02016">
        <ele>815</ele>
        <time>2021-06-11T17:02:25Z</time>
      </trkpt>
      <trkpt lat="45.70372" lon="3.02036">
        <ele>815</ele>
        <time>2021-06-11T17:02:28Z</time>
      </trkpt>
      <trkpt lat="45.70372" lon="3.02076">
        <ele>815</ele>
        <time>2021-06-11T17:02:33Z</time>
      </trkpt>
      <trkpt lat="45.70385" lon="3.02172">
        <ele>810</ele>
        <time>2021-06-11T17:02:45Z</time>
      </trkpt>
      <trkpt lat="45.70387" lon="3.02192">
        <ele>809</ele>
        <time>2021-06-11T17:02:47Z</time>
      </trkpt>
      <trkpt lat="45.70385" lon="3.02208">
        <ele>809</ele>
        <time>2021-06-11T17:02:49Z</time>
      </trkpt>
      <trkpt lat="45.70378" lon="3.02225">
        <ele>810</ele>
        <time>2021-06-11T17:02:52Z</time>
      </trkpt>
      <trkpt lat="45.70342" lon="3.02253">
        <ele>814</ele>
        <time>2021-06-11T17:02:59Z</time>
      </trkpt>
      <trkpt lat="45.70331" lon="3.02267">
        <ele>816</ele>
        <time>2021-06-11T17:03:02Z</time>
      </trkpt>
      <trkpt lat="45.70324" lon="3.02288">
        <ele>818</ele>
        <time>2021-06-11T17:03:05Z</time>
      </trkpt>
      <trkpt lat="45.70323" lon="3.02317">
        <ele>820</ele>
        <time>2021-06-11T17:03:08Z</time>
      </trkpt>
      <trkpt lat="45.70344" lon="3.02387">
        <ele>821</ele>
        <time>2021-06-11T17:03:18Z</time>
      </trkpt>
      <trkpt lat="45.70345" lon="3.02428">
        <ele>824</ele>
        <time>2021-06-11T17:03:23Z</time>
      </trkpt>
      <trkpt lat="45.70335" lon="3.02484">
        <ele>828</ele>
        <time>2021-06-11T17:03:30Z</time>
      </trkpt>
      <trkpt lat="45.70322" lon="3.02548">
        <ele>830</ele>
        <time>2021-06-11T17:03:38Z</time>
      </trkpt>
      <trkpt lat="45.70316" lon="3.02593">
        <ele>830</ele>
        <time>2021-06-11T17:03:44Z</time>
      </trkpt>
      <trkpt lat="45.70301" lon="3.02646">
        <ele>833</ele>
        <time>2021-06-11T17:03:51Z</time>
      </trkpt>
      <trkpt lat="45.70285" lon="3.0269">
        <ele>837</ele>
        <time>2021-06-11T17:03:57Z</time>
      </trkpt>
      <trkpt lat="45.70266" lon="3.02724">
        <ele>840</ele>
        <time>2021-06-11T17:04:03Z</time>
      </trkpt>
      <trkpt lat="45.70247" lon="3.02743">
        <ele>843</ele>
        <time>2021-06-11T17:04:07Z</time>
      </trkpt>
      <trkpt lat="45.70222" lon="3.02763">
        <ele>845</ele>
        <time>2021-06-11T17:04:12Z</time>
      </trkpt>
      <trkpt lat="45.70203" lon="3.0279">
        <ele>845</ele>
        <time>2021-06-11T17:04:17Z</time>
      </trkpt>
      <trkpt lat="45.70157" lon="3.02882">
        <ele>845</ele>
        <time>2021-06-11T17:04:31Z</time>
      </trkpt>
      <trkpt lat="45.70059" lon="3.03087">
        <ele>843</ele>
        <time>2021-06-11T17:05:01Z</time>
      </trkpt>
      <trkpt lat="45.70037" lon="3.03126">
        <ele>843</ele>
        <time>2021-06-11T17:05:08Z</time>
      </trkpt>
      <trkpt lat="45.70009" lon="3.03148">
        <ele>845</ele>
        <time>2021-06-11T17:05:13Z</time>
      </trkpt>
      <trkpt lat="45.69981" lon="3.03158">
        <ele>845</ele>
        <time>2021-06-11T17:05:19Z</time>
      </trkpt>
      <trkpt lat="45.69874" lon="3.03167">
        <ele>847</ele>
        <time>2021-06-11T17:05:38Z</time>
      </trkpt>
      <trkpt lat="45.69777" lon="3.03178">
        <ele>852</ele>
        <time>2021-06-11T17:05:55Z</time>
      </trkpt>
      <trkpt lat="45.69747" lon="3.03184">
        <ele>853</ele>
        <time>2021-06-11T17:06:00Z</time>
      </trkpt>
      <trkpt lat="45.69481" lon="3.03271">
        <ele>868</ele>
        <time>2021-06-11T17:06:49Z</time>
      </trkpt>
      <trkpt lat="45.6945" lon="3.03287">
        <ele>869</ele>
        <time>2021-06-11T17:06:55Z</time>
      </trkpt>
      <trkpt lat="45.69354" lon="3.03356">
        <ele>872</ele>
        <time>2021-06-11T17:07:14Z</time>
      </trkpt>
      <trkpt lat="45.69269" lon="3.03385">
        <ele>877</ele>
        <time>2021-06-11T17:07:29Z</time>
      </trkpt>
      <trkpt lat="45.69208" lon="3.03399">
        <ele>880</ele>
        <time>2021-06-11T17:07:40Z</time>
      </trkpt>
      <trkpt lat="45.69201" lon="3.0341">
        <ele>879</ele>
        <time>2021-06-11T17:07:42Z</time>
      </trkpt>
      <trkpt lat="45.69129" lon="3.03479">
        <ele>872</ele>
        <time>2021-06-11T17:07:58Z</time>
      </trkpt>
      <trkpt lat="45.69113" lon="3.03489">
        <ele>871</ele>
        <time>2021-06-11T17:08:01Z</time>
      </trkpt>
      <trkpt lat="45.69073" lon="3.03502">
        <ele>868</ele>
        <time>2021-06-11T17:08:08Z</time>
      </trkpt>
      <trkpt lat="45.69058" lon="3.03504">
        <ele>866</ele>
        <time>2021-06-11T17:08:11Z</time>
      </trkpt>
      <trkpt lat="45.69041" lon="3.03501">
        <ele>865</ele>
        <time>2021-06-11T17:08:14Z</time>
      </trkpt>
      <trkpt lat="45.69026" lon="3.03494">
        <ele>865</ele>
        <time>2021-06-11T17:08:17Z</time>
      </trkpt>
      <trkpt lat="45.69008" lon="3.03482">
        <ele>867</ele>
        <time>2021-06-11T17:08:20Z</time>
      </trkpt>
      <trkpt lat="45.68982" lon="3.03452">
        <ele>869</ele>
        <time>2021-06-11T17:08:26Z</time>
      </trkpt>
      <trkpt lat="45.68933" lon="3.03383">
        <ele>871</ele>
        <time>2021-06-11T17:08:38Z</time>
      </trkpt>
      <trkpt lat="45.68874" lon="3.03328">
        <ele>873</ele>
        <time>2021-06-11T17:08:51Z</time>
      </trkpt>
      <trkpt lat="45.68861" lon="3.03321">
        <ele>872</ele>
        <time>2021-06-11T17:08:53Z</time>
      </trkpt>
      <trkpt lat="45.68849" lon="3.0332">
        <ele>871</ele>
        <time>2021-06-11T17:08:55Z</time>
      </trkpt>
      <trkpt lat="45.68836" lon="3.03328">
        <ele>869</ele>
        <time>2021-06-11T17:08:58Z</time>
      </trkpt>
      <trkpt lat="45.68828" lon="3.03335">
        <ele>869</ele>
        <time>2021-06-11T17:09:00Z</time>
      </trkpt>
      <trkpt lat="45.68822" lon="3.03348">
        <ele>869</ele>
        <time>2021-06-11T17:09:02Z</time>
      </trkpt>
      <trkpt lat="45.68819" lon="3.03368">
        <ele>867</ele>
        <time>2021-06-11T17:09:04Z</time>
      </trkpt>
      <trkpt lat="45.68817" lon="3.03414">
        <ele>861</ele>
        <time>2021-06-11T17:09:10Z</time>
      </trkpt>
      <trkpt lat="45.68815" lon="3.03433">
        <ele>859</ele>
        <time>2021-06-11T17:09:12Z</time>
      </trkpt>
      <trkpt lat="45.6881" lon="3.0345">
        <ele>857</ele>
        <time>2021-06-11T17:09:14Z</time>
      </trkpt>
      <trkpt lat="45.6879" lon="3.03483">
        <ele>856</ele>
        <time>2021-06-11T17:09:20Z</time>
      </trkpt>
      <trkpt lat="45.68774" lon="3.03514">
        <ele>853</ele>
        <time>2021-06-11T17:09:25Z</time>
      </trkpt>
      <trkpt lat="45.68764" lon="3.03528">
        <ele>852</ele>
        <time>2021-06-11T17:09:27Z</time>
      </trkpt>
      <trkpt lat="45.68756" lon="3.03535">
        <ele>852</ele>
        <time>2021-06-11T17:09:29Z</time>
      </trkpt>
      <trkpt lat="45.68747" lon="3.03538">
        <ele>853</ele>
        <time>2021-06-11T17:09:31Z</time>
      </trkpt>
      <trkpt lat="45.68728" lon="3.03536">
        <ele>857</ele>
        <time>2021-06-11T17:09:34Z</time>
      </trkpt>
      <trkpt lat="45.68716" lon="3.03541">
        <ele>858</ele>
        <time>2021-06-11T17:09:36Z</time>
      </trkpt>
      <trkpt lat="45.68709" lon="3.03548">
        <ele>858</ele>
        <time>2021-06-11T17:09:38Z</time>
      </trkpt>
      <trkpt lat="45.68702" lon="3.03561">
        <ele>857</ele>
        <time>2021-06-11T17:09:40Z</time>
      </trkpt>
      <trkpt lat="45.68699" lon="3.03573">
        <ele>856</ele>
        <time>2021-06-11T17:09:41Z</time>
      </trkpt>
      <trkpt lat="45.68695" lon="3.03737">
        <ele>845</ele>
        <time>2021-06-11T17:10:02Z</time>
      </trkpt>
      <trkpt lat="45.68702" lon="3.03853">
        <ele>836</ele>
        <time>2021-06-11T17:10:16Z</time>
      </trkpt>
      <trkpt lat="45.68691" lon="3.04012">
        <ele>829</ele>
        <time>2021-06-11T17:10:36Z</time>
      </trkpt>
      <trkpt lat="45.68684" lon="3.04057">
        <ele>825</ele>
        <time>2021-06-11T17:10:42Z</time>
      </trkpt>
      <trkpt lat="45.68655" lon="3.04155">
        <ele>821</ele>
        <time>2021-06-11T17:10:55Z</time>
      </trkpt>
      <trkpt lat="45.68648" lon="3.04195">
        <ele>819</ele>
        <time>2021-06-11T17:11:00Z</time>
      </trkpt>
      <trkpt lat="45.68641" lon="3.04308">
        <ele>812</ele>
        <time>2021-06-11T17:11:14Z</time>
      </trkpt>
      <trkpt lat="45.68633" lon="3.04429">
        <ele>806</ele>
        <time>2021-06-11T17:11:29Z</time>
      </trkpt>
      <trkpt lat="45.68632" lon="3.04582">
        <ele>797</ele>
        <time>2021-06-11T17:11:48Z</time>
      </trkpt>
      <trkpt lat="45.68635" lon="3.04695">
        <ele>793</ele>
        <time>2021-06-11T17:12:02Z</time>
      </trkpt>
      <trkpt lat="45.68632" lon="3.04722">
        <ele>792</ele>
        <time>2021-06-11T17:12:06Z</time>
      </trkpt>
      <trkpt lat="45.68583" lon="3.04889">
        <ele>798</ele>
        <time>2021-06-11T17:12:28Z</time>
      </trkpt>
      <trkpt lat="45.68575" lon="3.04923">
        <ele>799</ele>
        <time>2021-06-11T17:12:33Z</time>
      </trkpt>
      <trkpt lat="45.68564" lon="3.05105">
        <ele>795</ele>
        <time>2021-06-11T17:12:55Z</time>
      </trkpt>
      <trkpt lat="45.68559" lon="3.05145">
        <ele>794</ele>
        <time>2021-06-11T17:13:00Z</time>
      </trkpt>
      <trkpt lat="45.68544" lon="3.05223">
        <ele>791</ele>
        <time>2021-06-11T17:13:11Z</time>
      </trkpt>
      <trkpt lat="45.68508" lon="3.05371">
        <ele>788</ele>
        <time>2021-06-11T17:13:30Z</time>
      </trkpt>
      <trkpt lat="45.68484" lon="3.05429">
        <ele>791</ele>
        <time>2021-06-11T17:13:38Z</time>
      </trkpt>
      <trkpt lat="45.68475" lon="3.05456">
        <ele>792</ele>
        <time>2021-06-11T17:13:42Z</time>
      </trkpt>
      <trkpt lat="45.68471" lon="3.05486">
        <ele>792</ele>
        <time>2021-06-11T17:13:46Z</time>
      </trkpt>
      <trkpt lat="45.68468" lon="3.05531">
        <ele>792</ele>
        <time>2021-06-11T17:13:52Z</time>
      </trkpt>
      <trkpt lat="45.68468" lon="3.05575">
        <ele>791</ele>
        <time>2021-06-11T17:13:57Z</time>
      </trkpt>
      <trkpt lat="45.68472" lon="3.05665">
        <ele>789</ele>
        <time>2021-06-11T17:14:08Z</time>
      </trkpt>
      <trkpt lat="45.68469" lon="3.057">
        <ele>789</ele>
        <time>2021-06-11T17:14:13Z</time>
      </trkpt>
      <trkpt lat="45.68464" lon="3.05741">
        <ele>788</ele>
        <time>2021-06-11T17:14:18Z</time>
      </trkpt>
      <trkpt lat="45.68462" lon="3.05755">
        <ele>787</ele>
        <time>2021-06-11T17:14:20Z</time>
      </trkpt>
      <trkpt lat="45.68461" lon="3.05764">
        <ele>787</ele>
        <time>2021-06-11T17:14:21Z</time>
      </trkpt>
      <trkpt lat="45.68454" lon="3.05816">
        <ele>784</ele>
        <time>2021-06-11T17:14:27Z</time>
      </trkpt>
      <trkpt lat="45.6845" lon="3.05845">
        <ele>783</ele>
        <time>2021-06-11T17:14:31Z</time>
      </trkpt>
      <trkpt lat="45.68449" lon="3.05874">
        <ele>781</ele>
        <time>2021-06-11T17:14:35Z</time>
      </trkpt>
      <trkpt lat="45.68451" lon="3.05969">
        <ele>775</ele>
        <time>2021-06-11T17:14:46Z</time>
      </trkpt>
      <trkpt lat="45.68449" lon="3.06024">
        <ele>773</ele>
        <time>2021-06-11T17:14:53Z</time>
      </trkpt>
      <trkpt lat="45.68446" lon="3.06064">
        <ele>772</ele>
        <time>2021-06-11T17:14:58Z</time>
      </trkpt>
      <trkpt lat="45.68443" lon="3.06107">
        <ele>771</ele>
        <time>2021-06-11T17:15:04Z</time>
      </trkpt>
      <trkpt lat="45.68452" lon="3.06364">
        <ele>760</ele>
        <time>2021-06-11T17:15:36Z</time>
      </trkpt>
      <trkpt lat="45.68463" lon="3.06444">
        <ele>758</ele>
        <time>2021-06-11T17:15:46Z</time>
      </trkpt>
      <trkpt lat="45.68464" lon="3.06476">
        <ele>757</ele>
        <time>2021-06-11T17:15:50Z</time>
      </trkpt>
      <trkpt lat="45.68456" lon="3.06636">
        <ele>750</ele>
        <time>2021-06-11T17:16:10Z</time>
      </trkpt>
      <trkpt lat="45.68459" lon="3.06767">
        <ele>744</ele>
        <time>2021-06-11T17:16:26Z</time>
      </trkpt>
      <trkpt lat="45.68457" lon="3.06782">
        <ele>743</ele>
        <time>2021-06-11T17:16:28Z</time>
      </trkpt>
      <trkpt lat="45.68454" lon="3.06794">
        <ele>743</ele>
        <time>2021-06-11T17:16:29Z</time>
      </trkpt>
      <trkpt lat="45.68446" lon="3.06811">
        <ele>742</ele>
        <time>2021-06-11T17:16:32Z</time>
      </trkpt>
      <trkpt lat="45.68413" lon="3.06864">
        <ele>740</ele>
        <time>2021-06-11T17:16:41Z</time>
      </trkpt>
      <trkpt lat="45.68372" lon="3.06928">
        <ele>735</ele>
        <time>2021-06-11T17:16:52Z</time>
      </trkpt>
      <trkpt lat="45.6834" lon="3.06988">
        <ele>732</ele>
        <time>2021-06-11T17:17:01Z</time>
      </trkpt>
      <trkpt lat="45.68338" lon="3.06993">
        <ele>731</ele>
        <time>2021-06-11T17:17:02Z</time>
      </trkpt>
      <trkpt lat="45.68325" lon="3.07023">
        <ele>730</ele>
        <time>2021-06-11T17:17:06Z</time>
      </trkpt>
      <trkpt lat="45.68319" lon="3.07042">
        <ele>729</ele>
        <time>2021-06-11T17:17:09Z</time>
      </trkpt>
      <trkpt lat="45.68317" lon="3.07059">
        <ele>728</ele>
        <time>2021-06-11T17:17:11Z</time>
      </trkpt>
      <trkpt lat="45.68321" lon="3.07112">
        <ele>728</ele>
        <time>2021-06-11T17:17:17Z</time>
      </trkpt>
      <trkpt lat="45.6832" lon="3.07144">
        <ele>727</ele>
        <time>2021-06-11T17:17:21Z</time>
      </trkpt>
      <trkpt lat="45.68305" lon="3.07298">
        <ele>719</ele>
        <time>2021-06-11T17:17:41Z</time>
      </trkpt>
      <trkpt lat="45.683" lon="3.0733">
        <ele>717</ele>
        <time>2021-06-11T17:17:45Z</time>
      </trkpt>
      <trkpt lat="45.68275" lon="3.074">
        <ele>716</ele>
        <time>2021-06-11T17:17:55Z</time>
      </trkpt>
      <trkpt lat="45.68261" lon="3.07417">
        <ele>715</ele>
        <time>2021-06-11T17:17:58Z</time>
      </trkpt>
      <trkpt lat="45.68224" lon="3.07449">
        <ele>712</ele>
        <time>2021-06-11T17:18:06Z</time>
      </trkpt>
      <trkpt lat="45.68187" lon="3.07501">
        <ele>709</ele>
        <time>2021-06-11T17:18:15Z</time>
      </trkpt>
      <trkpt lat="45.68169" lon="3.07522">
        <ele>707</ele>
        <time>2021-06-11T17:18:19Z</time>
      </trkpt>
      <trkpt lat="45.68143" lon="3.07545">
        <ele>704</ele>
        <time>2021-06-11T17:18:24Z</time>
      </trkpt>
      <trkpt lat="45.68128" lon="3.07564">
        <ele>702</ele>
        <time>2021-06-11T17:18:28Z</time>
      </trkpt>
      <trkpt lat="45.68119" lon="3.07583">
        <ele>701</ele>
        <time>2021-06-11T17:18:31Z</time>
      </trkpt>
      <trkpt lat="45.68104" lon="3.07642">
        <ele>697</ele>
        <time>2021-06-11T17:18:39Z</time>
      </trkpt>
      <trkpt lat="45.68102" lon="3.07664">
        <ele>696</ele>
        <time>2021-06-11T17:18:41Z</time>
      </trkpt>
      <trkpt lat="45.68102" lon="3.07688">
        <ele>694</ele>
        <time>2021-06-11T17:18:44Z</time>
      </trkpt>
      <trkpt lat="45.68116" lon="3.07757">
        <ele>692</ele>
        <time>2021-06-11T17:18:53Z</time>
      </trkpt>
      <trkpt lat="45.68115" lon="3.07798">
        <ele>691</ele>
        <time>2021-06-11T17:18:58Z</time>
      </trkpt>
      <trkpt lat="45.68113" lon="3.07818">
        <ele>690</ele>
        <time>2021-06-11T17:19:01Z</time>
      </trkpt>
      <trkpt lat="45.6811" lon="3.07836">
        <ele>689</ele>
        <time>2021-06-11T17:19:03Z</time>
      </trkpt>
      <trkpt lat="45.68103" lon="3.07854">
        <ele>688</ele>
        <time>2021-06-11T17:19:06Z</time>
      </trkpt>
      <trkpt lat="45.68039" lon="3.07944">
        <ele>683</ele>
        <time>2021-06-11T17:19:22Z</time>
      </trkpt>
      <trkpt lat="45.67996" lon="3.07991">
        <ele>681</ele>
        <time>2021-06-11T17:19:31Z</time>
      </trkpt>
      <trkpt lat="45.67982" lon="3.08005">
        <ele>682</ele>
        <time>2021-06-11T17:19:34Z</time>
      </trkpt>
      <trkpt lat="45.67971" lon="3.0801">
        <ele>682</ele>
        <time>2021-06-11T17:19:36Z</time>
      </trkpt>
      <trkpt lat="45.67961" lon="3.0801">
        <ele>682</ele>
        <time>2021-06-11T17:19:38Z</time>
      </trkpt>
      <trkpt lat="45.67951" lon="3.08006">
        <ele>681</ele>
        <time>2021-06-11T17:19:40Z</time>
      </trkpt>
      <trkpt lat="45.67936" lon="3.0799">
        <ele>679</ele>
        <time>2021-06-11T17:19:43Z</time>
      </trkpt>
      <trkpt lat="45.67918" lon="3.07965">
        <ele>676</ele>
        <time>2021-06-11T17:19:48Z</time>
      </trkpt>
      <trkpt lat="45.67906" lon="3.07947">
        <ele>676</ele>
        <time>2021-06-11T17:19:51Z</time>
      </trkpt>
      <trkpt lat="45.67895" lon="3.07919">
        <ele>674</ele>
        <time>2021-06-11T17:19:55Z</time>
      </trkpt>
      <trkpt lat="45.67868" lon="3.07833">
        <ele>668</ele>
        <time>2021-06-11T17:20:07Z</time>
      </trkpt>
      <trkpt lat="45.67858" lon="3.07807">
        <ele>667</ele>
        <time>2021-06-11T17:20:10Z</time>
      </trkpt>
      <trkpt lat="45.67817" lon="3.07735">
        <ele>663</ele>
        <time>2021-06-11T17:20:22Z</time>
      </trkpt>
      <trkpt lat="45.67809" lon="3.07719">
        <ele>662</ele>
        <time>2021-06-11T17:20:24Z</time>
      </trkpt>
      <trkpt lat="45.67798" lon="3.07705">
        <ele>661</ele>
        <time>2021-06-11T17:20:27Z</time>
      </trkpt>
      <trkpt lat="45.67761" lon="3.07679">
        <ele>658</ele>
        <time>2021-06-11T17:20:34Z</time>
      </trkpt>
      <trkpt lat="45.67696" lon="3.07647">
        <ele>655</ele>
        <time>2021-06-11T17:20:46Z</time>
      </trkpt>
      <trkpt lat="45.67678" lon="3.07636">
        <ele>654</ele>
        <time>2021-06-11T17:20:50Z</time>
      </trkpt>
      <trkpt lat="45.67624" lon="3.07589">
        <ele>647</ele>
        <time>2021-06-11T17:21:01Z</time>
      </trkpt>
      <trkpt lat="45.67604" lon="3.07576">
        <ele>646</ele>
        <time>2021-06-11T17:21:05Z</time>
      </trkpt>
      <trkpt lat="45.676" lon="3.07573">
        <ele>646</ele>
        <time>2021-06-11T17:21:06Z</time>
      </trkpt>
      <trkpt lat="45.6758" lon="3.07564">
        <ele>645</ele>
        <time>2021-06-11T17:21:10Z</time>
      </trkpt>
      <trkpt lat="45.67572" lon="3.07563">
        <ele>645</ele>
        <time>2021-06-11T17:21:11Z</time>
      </trkpt>
      <trkpt lat="45.67561" lon="3.07562">
        <ele>644</ele>
        <time>2021-06-11T17:21:13Z</time>
      </trkpt>
      <trkpt lat="45.67554" lon="3.07565">
        <ele>644</ele>
        <time>2021-06-11T17:21:14Z</time>
      </trkpt>
      <trkpt lat="45.67542" lon="3.0757">
        <ele>644</ele>
        <time>2021-06-11T17:21:17Z</time>
      </trkpt>
      <trkpt lat="45.67527" lon="3.07585">
        <ele>643</ele>
        <time>2021-06-11T17:21:20Z</time>
      </trkpt>
      <trkpt lat="45.67484" lon="3.07641">
        <ele>643</ele>
        <time>2021-06-11T17:21:30Z</time>
      </trkpt>
      <trkpt lat="45.67458" lon="3.07703">
        <ele>643</ele>
        <time>2021-06-11T17:21:39Z</time>
      </trkpt>
      <trkpt lat="45.67447" lon="3.07739">
        <ele>642</ele>
        <time>2021-06-11T17:21:44Z</time>
      </trkpt>
      <trkpt lat="45.6744" lon="3.07792">
        <ele>640</ele>
        <time>2021-06-11T17:21:51Z</time>
      </trkpt>
      <trkpt lat="45.67434" lon="3.07807">
        <ele>639</ele>
        <time>2021-06-11T17:21:53Z</time>
      </trkpt>
      <trkpt lat="45.67432" lon="3.07813">
        <ele>638</ele>
        <time>2021-06-11T17:21:54Z</time>
      </trkpt>
      <trkpt lat="45.6742" lon="3.07837">
        <ele>635</ele>
        <time>2021-06-11T17:21:57Z</time>
      </trkpt>
      <trkpt lat="45.67411" lon="3.07868">
        <ele>634</ele>
        <time>2021-06-11T17:22:02Z</time>
      </trkpt>
      <trkpt lat="45.67397" lon="3.07966">
        <ele>630</ele>
        <time>2021-06-11T17:22:14Z</time>
      </trkpt>
      <trkpt lat="45.67396" lon="3.07989">
        <ele>629</ele>
        <time>2021-06-11T17:22:17Z</time>
      </trkpt>
      <trkpt lat="45.67402" lon="3.08027">
        <ele>625</ele>
        <time>2021-06-11T17:22:22Z</time>
      </trkpt>
      <trkpt lat="45.67413" lon="3.08082">
        <ele>619</ele>
        <time>2021-06-11T17:22:29Z</time>
      </trkpt>
      <trkpt lat="45.67417" lon="3.08107">
        <ele>617</ele>
        <time>2021-06-11T17:22:32Z</time>
      </trkpt>
      <trkpt lat="45.67419" lon="3.08116">
        <ele>617</ele>
        <time>2021-06-11T17:22:33Z</time>
      </trkpt>
      <trkpt lat="45.67421" lon="3.08124">
        <ele>617</ele>
        <time>2021-06-11T17:22:34Z</time>
      </trkpt>
      <trkpt lat="45.67426" lon="3.08133">
        <ele>617</ele>
        <time>2021-06-11T17:22:36Z</time>
      </trkpt>
      <trkpt lat="45.67429" lon="3.0814">
        <ele>617</ele>
        <time>2021-06-11T17:22:37Z</time>
      </trkpt>
      <trkpt lat="45.67442" lon="3.08164">
        <ele>616</ele>
        <time>2021-06-11T17:22:40Z</time>
      </trkpt>
      <trkpt lat="45.67448" lon="3.08178">
        <ele>616</ele>
        <time>2021-06-11T17:22:43Z</time>
      </trkpt>
      <trkpt lat="45.67451" lon="3.08188">
        <ele>616</ele>
        <time>2021-06-11T17:22:44Z</time>
      </trkpt>
      <trkpt lat="45.67454" lon="3.08197">
        <ele>615</ele>
        <time>2021-06-11T17:22:45Z</time>
      </trkpt>
      <trkpt lat="45.67459" lon="3.08221">
        <ele>614</ele>
        <time>2021-06-11T17:22:48Z</time>
      </trkpt>
      <trkpt lat="45.67463" lon="3.08242">
        <ele>613</ele>
        <time>2021-06-11T17:22:51Z</time>
      </trkpt>
      <trkpt lat="45.67463" lon="3.08253">
        <ele>612</ele>
        <time>2021-06-11T17:22:52Z</time>
      </trkpt>
      <trkpt lat="45.67463" lon="3.08259">
        <ele>612</ele>
        <time>2021-06-11T17:22:53Z</time>
      </trkpt>
      <trkpt lat="45.6746" lon="3.08286">
        <ele>609</ele>
        <time>2021-06-11T17:22:56Z</time>
      </trkpt>
      <trkpt lat="45.6746" lon="3.08311">
        <ele>607</ele>
        <time>2021-06-11T17:23:00Z</time>
      </trkpt>
      <trkpt lat="45.67464" lon="3.08356">
        <ele>604</ele>
        <time>2021-06-11T17:23:05Z</time>
      </trkpt>
      <trkpt lat="45.67465" lon="3.08367">
        <ele>603</ele>
        <time>2021-06-11T17:23:07Z</time>
      </trkpt>
      <trkpt lat="45.67465" lon="3.08378">
        <ele>603</ele>
        <time>2021-06-11T17:23:08Z</time>
      </trkpt>
      <trkpt lat="45.67463" lon="3.08401">
        <ele>601</ele>
        <time>2021-06-11T17:23:11Z</time>
      </trkpt>
      <trkpt lat="45.67441" lon="3.08507">
        <ele>591</ele>
        <time>2021-06-11T17:23:25Z</time>
      </trkpt>
      <trkpt lat="45.67436" lon="3.08533">
        <ele>588</ele>
        <time>2021-06-11T17:23:28Z</time>
      </trkpt>
      <trkpt lat="45.6743" lon="3.08562">
        <ele>584</ele>
        <time>2021-06-11T17:23:32Z</time>
      </trkpt>
      <trkpt lat="45.67426" lon="3.08581">
        <ele>582</ele>
        <time>2021-06-11T17:23:34Z</time>
      </trkpt>
      <trkpt lat="45.67423" lon="3.086">
        <ele>579</ele>
        <time>2021-06-11T17:23:37Z</time>
      </trkpt>
      <trkpt lat="45.67422" lon="3.08616">
        <ele>578</ele>
        <time>2021-06-11T17:23:39Z</time>
      </trkpt>
      <trkpt lat="45.67423" lon="3.08632">
        <ele>577</ele>
        <time>2021-06-11T17:23:41Z</time>
      </trkpt>
      <trkpt lat="45.67435" lon="3.08731">
        <ele>576</ele>
        <time>2021-06-11T17:23:53Z</time>
      </trkpt>
      <trkpt lat="45.67436" lon="3.08755">
        <ele>575</ele>
        <time>2021-06-11T17:23:56Z</time>
      </trkpt>
      <trkpt lat="45.67435" lon="3.08767">
        <ele>574</ele>
        <time>2021-06-11T17:23:58Z</time>
      </trkpt>
      <trkpt lat="45.67426" lon="3.08804">
        <ele>570</ele>
        <time>2021-06-11T17:24:02Z</time>
      </trkpt>
      <trkpt lat="45.67393" lon="3.08913">
        <ele>564</ele>
        <time>2021-06-11T17:24:17Z</time>
      </trkpt>
      <trkpt lat="45.67386" lon="3.08943">
        <ele>562</ele>
        <time>2021-06-11T17:24:21Z</time>
      </trkpt>
      <trkpt lat="45.67369" lon="3.09061">
        <ele>556</ele>
        <time>2021-06-11T17:24:36Z</time>
      </trkpt>
      <trkpt lat="45.67368" lon="3.09085">
        <ele>555</ele>
        <time>2021-06-11T17:24:39Z</time>
      </trkpt>
      <trkpt lat="45.67369" lon="3.09155">
        <ele>552</ele>
        <time>2021-06-11T17:24:48Z</time>
      </trkpt>
      <trkpt lat="45.67368" lon="3.09173">
        <ele>550</ele>
        <time>2021-06-11T17:24:50Z</time>
      </trkpt>
      <trkpt lat="45.67361" lon="3.09214">
        <ele>547</ele>
        <time>2021-06-11T17:24:55Z</time>
      </trkpt>
      <trkpt lat="45.67358" lon="3.09228">
        <ele>545</ele>
        <time>2021-06-11T17:24:57Z</time>
      </trkpt>
      <trkpt lat="45.67338" lon="3.09273">
        <ele>538</ele>
        <time>2021-06-11T17:25:04Z</time>
      </trkpt>
      <trkpt lat="45.67322" lon="3.09317">
        <ele>536</ele>
        <time>2021-06-11T17:25:10Z</time>
      </trkpt>
      <trkpt lat="45.67311" lon="3.09334">
        <ele>534</ele>
        <time>2021-06-11T17:25:13Z</time>
      </trkpt>
      <trkpt lat="45.673" lon="3.09348">
        <ele>534</ele>
        <time>2021-06-11T17:25:15Z</time>
      </trkpt>
      <trkpt lat="45.67288" lon="3.09358">
        <ele>533</ele>
        <time>2021-06-11T17:25:18Z</time>
      </trkpt>
      <trkpt lat="45.67251" lon="3.09381">
        <ele>528</ele>
        <time>2021-06-11T17:25:25Z</time>
      </trkpt>
      <trkpt lat="45.67244" lon="3.09385">
        <ele>527</ele>
        <time>2021-06-11T17:25:26Z</time>
      </trkpt>
      <trkpt lat="45.67203" lon="3.09408">
        <ele>523</ele>
        <time>2021-06-11T17:25:34Z</time>
      </trkpt>
      <trkpt lat="45.67193" lon="3.09413">
        <ele>522</ele>
        <time>2021-06-11T17:25:36Z</time>
      </trkpt>
      <trkpt lat="45.67175" lon="3.09419">
        <ele>520</ele>
        <time>2021-06-11T17:25:39Z</time>
      </trkpt>
      <trkpt lat="45.67121" lon="3.09428">
        <ele>515</ele>
        <time>2021-06-11T17:25:49Z</time>
      </trkpt>
      <trkpt lat="45.67069" lon="3.09442">
        <ele>510</ele>
        <time>2021-06-11T17:25:58Z</time>
      </trkpt>
      <trkpt lat="45.67024" lon="3.09447">
        <ele>506</ele>
        <time>2021-06-11T17:26:06Z</time>
      </trkpt>
      <trkpt lat="45.6696" lon="3.0945">
        <ele>499</ele>
        <time>2021-06-11T17:26:18Z</time>
      </trkpt>
      <trkpt lat="45.6689" lon="3.09454">
        <ele>491</ele>
        <time>2021-06-11T17:26:30Z</time>
      </trkpt>
      <trkpt lat="45.66779" lon="3.09459">
        <ele>480</ele>
        <time>2021-06-11T17:26:50Z</time>
      </trkpt>
      <trkpt lat="45.66744" lon="3.09447">
        <ele>477</ele>
        <time>2021-06-11T17:26:57Z</time>
      </trkpt>
      <trkpt lat="45.66707" lon="3.09413">
        <ele>478</ele>
        <time>2021-06-11T17:27:04Z</time>
      </trkpt>
      <trkpt lat="45.66698" lon="3.09404">
        <ele>479</ele>
        <time>2021-06-11T17:27:06Z</time>
      </trkpt>
      <trkpt lat="45.66685" lon="3.09396">
        <ele>480</ele>
        <time>2021-06-11T17:27:09Z</time>
      </trkpt>
      <trkpt lat="45.6667" lon="3.09392">
        <ele>481</ele>
        <time>2021-06-11T17:27:12Z</time>
      </trkpt>
      <trkpt lat="45.66656" lon="3.09394">
        <ele>483</ele>
        <time>2021-06-11T17:27:14Z</time>
      </trkpt>
      <trkpt lat="45.66644" lon="3.09402">
        <ele>484</ele>
        <time>2021-06-11T17:27:16Z</time>
      </trkpt>
      <trkpt lat="45.66613" lon="3.09434">
        <ele>488</ele>
        <time>2021-06-11T17:27:23Z</time>
      </trkpt>
      <trkpt lat="45.66588" lon="3.09465">
        <ele>490</ele>
        <time>2021-06-11T17:27:29Z</time>
      </trkpt>
      <trkpt lat="45.66566" lon="3.09498">
        <ele>490</ele>
        <time>2021-06-11T17:27:35Z</time>
      </trkpt>
      <trkpt lat="45.6655" lon="3.09533">
        <ele>489</ele>
        <time>2021-06-11T17:27:40Z</time>
      </trkpt>
      <trkpt lat="45.66539" lon="3.09557">
        <ele>489</ele>
        <time>2021-06-11T17:27:44Z</time>
      </trkpt>
      <trkpt lat="45.66521" lon="3.09584">
        <ele>489</ele>
        <time>2021-06-11T17:27:48Z</time>
      </trkpt>
      <trkpt lat="45.66511" lon="3.09591">
        <ele>490</ele>
        <time>2021-06-11T17:27:50Z</time>
      </trkpt>
      <trkpt lat="45.66482" lon="3.09605">
        <ele>490</ele>
        <time>2021-06-11T17:27:56Z</time>
      </trkpt>
      <trkpt lat="45.66465" lon="3.09617">
        <ele>490</ele>
        <time>2021-06-11T17:27:59Z</time>
      </trkpt>
      <trkpt lat="45.66449" lon="3.09634">
        <ele>490</ele>
        <time>2021-06-11T17:28:03Z</time>
      </trkpt>
      <trkpt lat="45.66409" lon="3.09698">
        <ele>489</ele>
        <time>2021-06-11T17:28:13Z</time>
      </trkpt>
      <trkpt lat="45.664" lon="3.0971">
        <ele>489</ele>
        <time>2021-06-11T17:28:15Z</time>
      </trkpt>
      <trkpt lat="45.66393" lon="3.09718">
        <ele>489</ele>
        <time>2021-06-11T17:28:17Z</time>
      </trkpt>
      <trkpt lat="45.66343" lon="3.09752">
        <ele>489</ele>
        <time>2021-06-11T17:28:27Z</time>
      </trkpt>
      <trkpt lat="45.66332" lon="3.09758">
        <ele>489</ele>
        <time>2021-06-11T17:28:29Z</time>
      </trkpt>
      <trkpt lat="45.6633" lon="3.09755">
        <ele>489</ele>
        <time>2021-06-11T17:28:29Z</time>
      </trkpt>
      <trkpt lat="45.66325" lon="3.09753">
        <ele>488</ele>
        <time>2021-06-11T17:28:30Z</time>
      </trkpt>
      <trkpt lat="45.66322" lon="3.09754">
        <ele>488</ele>
        <time>2021-06-11T17:28:31Z</time>
      </trkpt>
      <trkpt lat="45.6632" lon="3.09756">
        <ele>488</ele>
        <time>2021-06-11T17:28:31Z</time>
      </trkpt>
      <trkpt lat="45.66311" lon="3.09748">
        <ele>488</ele>
        <time>2021-06-11T17:28:33Z</time>
      </trkpt>
      <trkpt lat="45.66306" lon="3.09738">
        <ele>488</ele>
        <time>2021-06-11T17:28:35Z</time>
      </trkpt>
      <trkpt lat="45.66294" lon="3.09712">
        <ele>489</ele>
        <time>2021-06-11T17:28:39Z</time>
      </trkpt>
      <trkpt lat="45.66287" lon="3.09691">
        <ele>490</ele>
        <time>2021-06-11T17:28:42Z</time>
      </trkpt>
      <trkpt lat="45.66282" lon="3.09663">
        <ele>492</ele>
        <time>2021-06-11T17:28:45Z</time>
      </trkpt>
      <trkpt lat="45.66275" lon="3.09586">
        <ele>497</ele>
        <time>2021-06-11T17:28:55Z</time>
      </trkpt>
      <trkpt lat="45.66272" lon="3.09572">
        <ele>498</ele>
        <time>2021-06-11T17:28:57Z</time>
      </trkpt>
      <trkpt lat="45.66247" lon="3.09492">
        <ele>503</ele>
        <time>2021-06-11T17:29:07Z</time>
      </trkpt>
      <trkpt lat="45.66219" lon="3.09416">
        <ele>506</ele>
        <time>2021-06-11T17:29:18Z</time>
      </trkpt>
      <trkpt lat="45.66212" lon="3.09394">
        <ele>506</ele>
        <time>2021-06-11T17:29:21Z</time>
      </trkpt>
      <trkpt lat="45.66199" lon="3.09376">
        <ele>506</ele>
        <time>2021-06-11T17:29:24Z</time>
      </trkpt>
      <trkpt lat="45.66189" lon="3.09367">
        <ele>507</ele>
        <time>2021-06-11T17:29:26Z</time>
      </trkpt>
      <trkpt lat="45.66074" lon="3.09309">
        <ele>512</ele>
        <time>2021-06-11T17:29:48Z</time>
      </trkpt>
      <trkpt lat="45.66059" lon="3.09301">
        <ele>512</ele>
        <time>2021-06-11T17:29:51Z</time>
      </trkpt>
      <trkpt lat="45.66028" lon="3.09281">
        <ele>511</ele>
        <time>2021-06-11T17:29:57Z</time>
      </trkpt>
      <trkpt lat="45.65992" lon="3.0924">
        <ele>511</ele>
        <time>2021-06-11T17:30:05Z</time>
      </trkpt>
      <trkpt lat="45.65991" lon="3.09236">
        <ele>511</ele>
        <time>2021-06-11T17:30:06Z</time>
      </trkpt>
      <trkpt lat="45.65989" lon="3.09229">
        <ele>511</ele>
        <time>2021-06-11T17:30:07Z</time>
      </trkpt>
      <trkpt lat="45.6598" lon="3.09202">
        <ele>510</ele>
        <time>2021-06-11T17:30:10Z</time>
      </trkpt>
      <trkpt lat="45.65973" lon="3.0917">
        <ele>510</ele>
        <time>2021-06-11T17:30:15Z</time>
      </trkpt>
      <trkpt lat="45.65966" lon="3.09136">
        <ele>510</ele>
        <time>2021-06-11T17:30:19Z</time>
      </trkpt>
      <trkpt lat="45.65952" lon="3.09103">
        <ele>510</ele>
        <time>2021-06-11T17:30:24Z</time>
      </trkpt>
      <trkpt lat="45.65941" lon="3.09096">
        <ele>511</ele>
        <time>2021-06-11T17:30:26Z</time>
      </trkpt>
      <trkpt lat="45.65937" lon="3.09093">
        <ele>511</ele>
        <time>2021-06-11T17:30:27Z</time>
      </trkpt>
      <trkpt lat="45.6579" lon="3.08994">
        <ele>517</ele>
        <time>2021-06-11T17:30:56Z</time>
      </trkpt>
      <trkpt lat="45.65766" lon="3.08976">
        <ele>517</ele>
        <time>2021-06-11T17:31:01Z</time>
      </trkpt>
      <trkpt lat="45.65762" lon="3.0897">
        <ele>518</ele>
        <time>2021-06-11T17:31:02Z</time>
      </trkpt>
      <trkpt lat="45.65758" lon="3.08965">
        <ele>518</ele>
        <time>2021-06-11T17:31:02Z</time>
      </trkpt>
      <trkpt lat="45.65687" lon="3.08866">
        <ele>521</ele>
        <time>2021-06-11T17:31:20Z</time>
      </trkpt>
      <trkpt lat="45.65678" lon="3.08841">
        <ele>521</ele>
        <time>2021-06-11T17:31:24Z</time>
      </trkpt>
      <trkpt lat="45.65679" lon="3.08826">
        <ele>521</ele>
        <time>2021-06-11T17:31:25Z</time>
      </trkpt>
      <trkpt lat="45.65679" lon="3.0882">
        <ele>521</ele>
        <time>2021-06-11T17:31:26Z</time>
      </trkpt>
      <trkpt lat="45.65694" lon="3.08729">
        <ele>520</ele>
        <time>2021-06-11T17:31:38Z</time>
      </trkpt>
      <trkpt lat="45.6571" lon="3.08714">
        <ele>520</ele>
        <time>2021-06-11T17:31:41Z</time>
      </trkpt>
      <trkpt lat="45.65751" lon="3.08686">
        <ele>521</ele>
        <time>2021-06-11T17:31:49Z</time>
      </trkpt>
      <trkpt lat="45.65759" lon="3.0868">
        <ele>521</ele>
        <time>2021-06-11T17:31:51Z</time>
      </trkpt>
      <trkpt lat="45.65761" lon="3.08667">
        <ele>521</ele>
        <time>2021-06-11T17:31:53Z</time>
      </trkpt>
      <trkpt lat="45.65756" lon="3.08618">
        <ele>522</ele>
        <time>2021-06-11T17:31:59Z</time>
      </trkpt>
      <trkpt lat="45.65758" lon="3.08597">
        <ele>523</ele>
        <time>2021-06-11T17:32:01Z</time>
      </trkpt>
      <trkpt lat="45.65762" lon="3.08582">
        <ele>523</ele>
        <time>2021-06-11T17:32:03Z</time>
      </trkpt>
      <trkpt lat="45.65772" lon="3.08565">
        <ele>523</ele>
        <time>2021-06-11T17:32:06Z</time>
      </trkpt>
      <trkpt lat="45.65804" lon="3.08527">
        <ele>525</ele>
        <time>2021-06-11T17:32:14Z</time>
      </trkpt>
      <trkpt lat="45.65811" lon="3.08509">
        <ele>526</ele>
        <time>2021-06-11T17:32:16Z</time>
      </trkpt>
      <trkpt lat="45.65784" lon="3.08495">
        <ele>526</ele>
        <time>2021-06-11T17:32:21Z</time>
      </trkpt>
      <trkpt lat="45.65742" lon="3.08487">
        <ele>526</ele>
        <time>2021-06-11T17:32:29Z</time>
      </trkpt>
      <trkpt lat="45.65645" lon="3.08484">
        <ele>526</ele>
        <time>2021-06-11T17:32:46Z</time>
      </trkpt>
      <trkpt lat="45.65635" lon="3.08484">
        <ele>525</ele>
        <time>2021-06-11T17:32:48Z</time>
      </trkpt>
      <trkpt lat="45.65565" lon="3.08478">
        <ele>523</ele>
        <time>2021-06-11T17:33:00Z</time>
      </trkpt>
      <trkpt lat="45.65506" lon="3.08474">
        <ele>522</ele>
        <time>2021-06-11T17:33:11Z</time>
      </trkpt>
      <trkpt lat="45.65462" lon="3.08476">
        <ele>519</ele>
        <time>2021-06-11T17:33:19Z</time>
      </trkpt>
      <trkpt lat="45.65435" lon="3.08467">
        <ele>517</ele>
        <time>2021-06-11T17:33:24Z</time>
      </trkpt>
      <trkpt lat="45.65431" lon="3.08464">
        <ele>517</ele>
        <time>2021-06-11T17:33:24Z</time>
      </trkpt>
      <trkpt lat="45.65403" lon="3.0845">
        <ele>516</ele>
        <time>2021-06-11T17:33:30Z</time>
      </trkpt>
      <trkpt lat="45.6538" lon="3.08444">
        <ele>516</ele>
        <time>2021-06-11T17:33:34Z</time>
      </trkpt>
      <trkpt lat="45.65282" lon="3.08428">
        <ele>516</ele>
        <time>2021-06-11T17:33:51Z</time>
      </trkpt>
      <trkpt lat="45.65212" lon="3.08417">
        <ele>516</ele>
        <time>2021-06-11T17:34:04Z</time>
      </trkpt>
      <trkpt lat="45.6517" lon="3.08414">
        <ele>515</ele>
        <time>2021-06-11T17:34:11Z</time>
      </trkpt>
      <trkpt lat="45.65156" lon="3.08415">
        <ele>515</ele>
        <time>2021-06-11T17:34:14Z</time>
      </trkpt>
      <trkpt lat="45.65142" lon="3.08416">
        <ele>515</ele>
        <time>2021-06-11T17:34:16Z</time>
      </trkpt>
      <trkpt lat="45.6512" lon="3.08421">
        <ele>515</ele>
        <time>2021-06-11T17:34:20Z</time>
      </trkpt>
      <trkpt lat="45.651" lon="3.08427">
        <ele>515</ele>
        <time>2021-06-11T17:34:24Z</time>
      </trkpt>
      <trkpt lat="45.65068" lon="3.08437">
        <ele>515</ele>
        <time>2021-06-11T17:34:30Z</time>
      </trkpt>
      <trkpt lat="45.6502" lon="3.08462">
        <ele>516</ele>
        <time>2021-06-11T17:34:39Z</time>
      </trkpt>
      <trkpt lat="45.64991" lon="3.08467">
        <ele>517</ele>
        <time>2021-06-11T17:34:44Z</time>
      </trkpt>
      <trkpt lat="45.64948" lon="3.08465">
        <ele>516</ele>
        <time>2021-06-11T17:34:52Z</time>
      </trkpt>
      <trkpt lat="45.64915" lon="3.08474">
        <ele>516</ele>
        <time>2021-06-11T17:34:58Z</time>
      </trkpt>
      <trkpt lat="45.64863" lon="3.08498">
        <ele>516</ele>
        <time>2021-06-11T17:35:07Z</time>
      </trkpt>
      <trkpt lat="45.64788" lon="3.08581">
        <ele>521</ele>
        <time>2021-06-11T17:35:24Z</time>
      </trkpt>
      <trkpt lat="45.6476" lon="3.08607">
        <ele>520</ele>
        <time>2021-06-11T17:35:30Z</time>
      </trkpt>
      <trkpt lat="45.64745" lon="3.08626">
        <ele>520</ele>
        <time>2021-06-11T17:35:34Z</time>
      </trkpt>
      <trkpt lat="45.64731" lon="3.08649">
        <ele>519</ele>
        <time>2021-06-11T17:35:38Z</time>
      </trkpt>
      <trkpt lat="45.64716" lon="3.08681">
        <ele>520</ele>
        <time>2021-06-11T17:35:42Z</time>
      </trkpt>
      <trkpt lat="45.64703" lon="3.08704">
        <ele>520</ele>
        <time>2021-06-11T17:35:46Z</time>
      </trkpt>
      <trkpt lat="45.64685" lon="3.08723">
        <ele>520</ele>
        <time>2021-06-11T17:35:50Z</time>
      </trkpt>
      <trkpt lat="45.64667" lon="3.08734">
        <ele>518</ele>
        <time>2021-06-11T17:35:54Z</time>
      </trkpt>
      <trkpt lat="45.64623" lon="3.08749">
        <ele>517</ele>
        <time>2021-06-11T17:36:02Z</time>
      </trkpt>
      <trkpt lat="45.64602" lon="3.0876">
        <ele>517</ele>
        <time>2021-06-11T17:36:06Z</time>
      </trkpt>
      <trkpt lat="45.64532" lon="3.08802">
        <ele>518</ele>
        <time>2021-06-11T17:36:19Z</time>
      </trkpt>
      <trkpt lat="45.64441" lon="3.0884">
        <ele>518</ele>
        <time>2021-06-11T17:36:36Z</time>
      </trkpt>
      <trkpt lat="45.64417" lon="3.08854">
        <ele>519</ele>
        <time>2021-06-11T17:36:41Z</time>
      </trkpt>
      <trkpt lat="45.64365" lon="3.08891">
        <ele>522</ele>
        <time>2021-06-11T17:36:51Z</time>
      </trkpt>
      <trkpt lat="45.64334" lon="3.0892">
        <ele>523</ele>
        <time>2021-06-11T17:36:57Z</time>
      </trkpt>
      <trkpt lat="45.64312" lon="3.08951">
        <ele>526</ele>
        <time>2021-06-11T17:37:03Z</time>
      </trkpt>
      <trkpt lat="45.64291" lon="3.09">
        <ele>527</ele>
        <time>2021-06-11T17:37:10Z</time>
      </trkpt>
      <trkpt lat="45.64271" lon="3.09051">
        <ele>528</ele>
        <time>2021-06-11T17:37:17Z</time>
      </trkpt>
      <trkpt lat="45.64245" lon="3.09098">
        <ele>528</ele>
        <time>2021-06-11T17:37:25Z</time>
      </trkpt>
      <trkpt lat="45.64233" lon="3.09116">
        <ele>529</ele>
        <time>2021-06-11T17:37:28Z</time>
      </trkpt>
      <trkpt lat="45.64183" lon="3.09189">
        <ele>533</ele>
        <time>2021-06-11T17:37:41Z</time>
      </trkpt>
      <trkpt lat="45.64168" lon="3.09202">
        <ele>534</ele>
        <time>2021-06-11T17:37:44Z</time>
      </trkpt>
      <trkpt lat="45.64052" lon="3.09257">
        <ele>542</ele>
        <time>2021-06-11T17:38:06Z</time>
      </trkpt>
      <trkpt lat="45.64034" lon="3.09265">
        <ele>542</ele>
        <time>2021-06-11T17:38:09Z</time>
      </trkpt>
      <trkpt lat="45.64018" lon="3.09284">
        <ele>543</ele>
        <time>2021-06-11T17:38:13Z</time>
      </trkpt>
      <trkpt lat="45.63999" lon="3.09313">
        <ele>544</ele>
        <time>2021-06-11T17:38:18Z</time>
      </trkpt>
      <trkpt lat="45.63983" lon="3.09347">
        <ele>546</ele>
        <time>2021-06-11T17:38:23Z</time>
      </trkpt>
      <trkpt lat="45.63958" lon="3.09412">
        <ele>550</ele>
        <time>2021-06-11T17:38:32Z</time>
      </trkpt>
      <trkpt lat="45.63943" lon="3.0944">
        <ele>550</ele>
        <time>2021-06-11T17:38:36Z</time>
      </trkpt>
      <trkpt lat="45.63921" lon="3.09463">
        <ele>549</ele>
        <time>2021-06-11T17:38:41Z</time>
      </trkpt>
      <trkpt lat="45.63904" lon="3.09475">
        <ele>550</ele>
        <time>2021-06-11T17:38:44Z</time>
      </trkpt>
      <trkpt lat="45.63883" lon="3.09482">
        <ele>551</ele>
        <time>2021-06-11T17:38:48Z</time>
      </trkpt>
      <trkpt lat="45.63856" lon="3.09482">
        <ele>552</ele>
        <time>2021-06-11T17:38:53Z</time>
      </trkpt>
      <trkpt lat="45.63832" lon="3.09475">
        <ele>553</ele>
        <time>2021-06-11T17:38:57Z</time>
      </trkpt>
      <trkpt lat="45.63813" lon="3.09461">
        <ele>554</ele>
        <time>2021-06-11T17:39:01Z</time>
      </trkpt>
      <trkpt lat="45.63771" lon="3.09418">
        <ele>554</ele>
        <time>2021-06-11T17:39:10Z</time>
      </trkpt>
      <trkpt lat="45.63752" lon="3.09407">
        <ele>555</ele>
        <time>2021-06-11T17:39:14Z</time>
      </trkpt>
      <trkpt lat="45.63732" lon="3.09407">
        <ele>556</ele>
        <time>2021-06-11T17:39:18Z</time>
      </trkpt>
      <trkpt lat="45.63714" lon="3.09413">
        <ele>558</ele>
        <time>2021-06-11T17:39:21Z</time>
      </trkpt>
      <trkpt lat="45.63726" lon="3.09438">
        <ele>559</ele>
        <time>2021-06-11T17:39:25Z</time>
      </trkpt>
      <trkpt lat="45.63784" lon="3.09489">
        <ele>559</ele>
        <time>2021-06-11T17:39:37Z</time>
      </trkpt>
      <trkpt lat="45.63799" lon="3.09509">
        <ele>559</ele>
        <time>2021-06-11T17:39:40Z</time>
      </trkpt>
      <trkpt lat="45.63832" lon="3.09537">
        <ele>557</ele>
        <time>2021-06-11T17:39:47Z</time>
      </trkpt>
      <trkpt lat="45.63848" lon="3.09557">
        <ele>558</ele>
        <time>2021-06-11T17:39:51Z</time>
      </trkpt>
      <trkpt lat="45.63877" lon="3.09607">
        <ele>560</ele>
        <time>2021-06-11T17:39:59Z</time>
      </trkpt>
      <trkpt lat="45.63892" lon="3.09624">
        <ele>561</ele>
        <time>2021-06-11T17:40:03Z</time>
      </trkpt>
      <trkpt lat="45.63915" lon="3.09645">
        <ele>562</ele>
        <time>2021-06-11T17:40:07Z</time>
      </trkpt>
      <trkpt lat="45.64027" lon="3.09725">
        <ele>566</ele>
        <time>2021-06-11T17:40:30Z</time>
      </trkpt>
      <trkpt lat="45.6404" lon="3.09741">
        <ele>567</ele>
        <time>2021-06-11T17:40:33Z</time>
      </trkpt>
      <trkpt lat="45.64109" lon="3.09892">
        <ele>576</ele>
        <time>2021-06-11T17:40:55Z</time>
      </trkpt>
      <trkpt lat="45.64117" lon="3.09918">
        <ele>578</ele>
        <time>2021-06-11T17:40:59Z</time>
      </trkpt>
      <trkpt lat="45.64122" lon="3.09948">
        <ele>579</ele>
        <time>2021-06-11T17:41:03Z</time>
      </trkpt>
      <trkpt lat="45.64141" lon="3.10018">
        <ele>581</ele>
        <time>2021-06-11T17:41:12Z</time>
      </trkpt>
      <trkpt lat="45.64148" lon="3.10072">
        <ele>581</ele>
        <time>2021-06-11T17:41:19Z</time>
      </trkpt>
      <trkpt lat="45.64152" lon="3.10136">
        <ele>582</ele>
        <time>2021-06-11T17:41:27Z</time>
      </trkpt>
      <trkpt lat="45.64154" lon="3.10202">
        <ele>584</ele>
        <time>2021-06-11T17:41:35Z</time>
      </trkpt>
      <trkpt lat="45.64159" lon="3.10218">
        <ele>584</ele>
        <time>2021-06-11T17:41:37Z</time>
      </trkpt>
      <trkpt lat="45.64168" lon="3.10229">
        <ele>584</ele>
        <time>2021-06-11T17:41:39Z</time>
      </trkpt>
      <trkpt lat="45.64153" lon="3.10244">
        <ele>585</ele>
        <time>2021-06-11T17:41:43Z</time>
      </trkpt>
      <trkpt lat="45.6415" lon="3.10251">
        <ele>586</ele>
        <time>2021-06-11T17:41:44Z</time>
      </trkpt>
      <trkpt lat="45.64147" lon="3.10268">
        <ele>586</ele>
        <time>2021-06-11T17:41:46Z</time>
      </trkpt>
      <trkpt lat="45.64136" lon="3.10306">
        <ele>588</ele>
        <time>2021-06-11T17:41:51Z</time>
      </trkpt>
      <trkpt lat="45.64106" lon="3.10372">
        <ele>593</ele>
        <time>2021-06-11T17:42:01Z</time>
      </trkpt>
      <trkpt lat="45.64101" lon="3.10399">
        <ele>595</ele>
        <time>2021-06-11T17:42:04Z</time>
      </trkpt>
      <trkpt lat="45.64099" lon="3.10445">
        <ele>598</ele>
        <time>2021-06-11T17:42:10Z</time>
      </trkpt>
      <trkpt lat="45.64093" lon="3.10496">
        <ele>602</ele>
        <time>2021-06-11T17:42:16Z</time>
      </trkpt>
      <trkpt lat="45.64072" lon="3.10589">
        <ele>607</ele>
        <time>2021-06-11T17:42:28Z</time>
      </trkpt>
      <trkpt lat="45.64075" lon="3.10648">
        <ele>605</ele>
        <time>2021-06-11T17:42:36Z</time>
      </trkpt>
      <trkpt lat="45.64073" lon="3.10669">
        <ele>605</ele>
        <time>2021-06-11T17:42:38Z</time>
      </trkpt>
      <trkpt lat="45.6407" lon="3.10682">
        <ele>606</ele>
        <time>2021-06-11T17:42:40Z</time>
      </trkpt>
      <trkpt lat="45.64063" lon="3.10681">
        <ele>607</ele>
        <time>2021-06-11T17:42:41Z</time>
      </trkpt>
      <trkpt lat="45.64055" lon="3.10687">
        <ele>608</ele>
        <time>2021-06-11T17:42:43Z</time>
      </trkpt>
      <trkpt lat="45.6405" lon="3.107">
        <ele>608</ele>
        <time>2021-06-11T17:42:45Z</time>
      </trkpt>
      <trkpt lat="45.64041" lon="3.10753">
        <ele>610</ele>
        <time>2021-06-11T17:42:52Z</time>
      </trkpt>
      <trkpt lat="45.64041" lon="3.10775">
        <ele>609</ele>
        <time>2021-06-11T17:42:54Z</time>
      </trkpt>
      <trkpt lat="45.6404" lon="3.108">
        <ele>608</ele>
        <time>2021-06-11T17:42:57Z</time>
      </trkpt>
      <trkpt lat="45.6404" lon="3.10836">
        <ele>608</ele>
        <time>2021-06-11T17:43:02Z</time>
      </trkpt>
      <trkpt lat="45.6405" lon="3.10909">
        <ele>606</ele>
        <time>2021-06-11T17:43:11Z</time>
      </trkpt>
      <trkpt lat="45.64051" lon="3.1093">
        <ele>605</ele>
        <time>2021-06-11T17:43:14Z</time>
      </trkpt>
      <trkpt lat="45.64051" lon="3.10952">
        <ele>605</ele>
        <time>2021-06-11T17:43:17Z</time>
      </trkpt>
      <trkpt lat="45.64047" lon="3.10996">
        <ele>605</ele>
        <time>2021-06-11T17:43:22Z</time>
      </trkpt>
      <trkpt lat="45.64051" lon="3.11081">
        <ele>601</ele>
        <time>2021-06-11T17:43:33Z</time>
      </trkpt>
      <trkpt lat="45.64051" lon="3.11124">
        <ele>601</ele>
        <time>2021-06-11T17:43:38Z</time>
      </trkpt>
      <trkpt lat="45.64047" lon="3.1115">
        <ele>601</ele>
        <time>2021-06-11T17:43:41Z</time>
      </trkpt>
      <trkpt lat="45.64039" lon="3.11218">
        <ele>601</ele>
        <time>2021-06-11T17:43:50Z</time>
      </trkpt>
      <trkpt lat="45.64041" lon="3.11272">
        <ele>599</ele>
        <time>2021-06-11T17:43:57Z</time>
      </trkpt>
      <trkpt lat="45.6404" lon="3.1132">
        <ele>596</ele>
        <time>2021-06-11T17:44:03Z</time>
      </trkpt>
      <trkpt lat="45.64034" lon="3.11383">
        <ele>594</ele>
        <time>2021-06-11T17:44:11Z</time>
      </trkpt>
      <trkpt lat="45.64034" lon="3.11426">
        <ele>592</ele>
        <time>2021-06-11T17:44:16Z</time>
      </trkpt>
      <trkpt lat="45.64047" lon="3.11492">
        <ele>587</ele>
        <time>2021-06-11T17:44:24Z</time>
      </trkpt>
      <trkpt lat="45.64065" lon="3.11569">
        <ele>582</ele>
        <time>2021-06-11T17:44:34Z</time>
      </trkpt>
      <trkpt lat="45.64064" lon="3.11593">
        <ele>581</ele>
        <time>2021-06-11T17:44:37Z</time>
      </trkpt>
      <trkpt lat="45.64059" lon="3.11618">
        <ele>580</ele>
        <time>2021-06-11T17:44:41Z</time>
      </trkpt>
      <trkpt lat="45.64023" lon="3.11714">
        <ele>575</ele>
        <time>2021-06-11T17:44:54Z</time>
      </trkpt>
      <trkpt lat="45.64011" lon="3.11731">
        <ele>574</ele>
        <time>2021-06-11T17:44:57Z</time>
      </trkpt>
      <trkpt lat="45.63998" lon="3.11742">
        <ele>574</ele>
        <time>2021-06-11T17:45:00Z</time>
      </trkpt>
      <trkpt lat="45.63958" lon="3.1176">
        <ele>571</ele>
        <time>2021-06-11T17:45:07Z</time>
      </trkpt>
      <trkpt lat="45.63905" lon="3.11769">
        <ele>570</ele>
        <time>2021-06-11T17:45:17Z</time>
      </trkpt>
      <trkpt lat="45.63888" lon="3.11778">
        <ele>569</ele>
        <time>2021-06-11T17:45:20Z</time>
      </trkpt>
      <trkpt lat="45.63843" lon="3.11811">
        <ele>566</ele>
        <time>2021-06-11T17:45:29Z</time>
      </trkpt>
      <trkpt lat="45.63825" lon="3.11829">
        <ele>565</ele>
        <time>2021-06-11T17:45:33Z</time>
      </trkpt>
      <trkpt lat="45.63816" lon="3.11853">
        <ele>562</ele>
        <time>2021-06-11T17:45:36Z</time>
      </trkpt>
      <trkpt lat="45.6381" lon="3.11886">
        <ele>558</ele>
        <time>2021-06-11T17:45:41Z</time>
      </trkpt>
      <trkpt lat="45.63799" lon="3.11906">
        <ele>556</ele>
        <time>2021-06-11T17:45:44Z</time>
      </trkpt>
      <trkpt lat="45.63744" lon="3.11948">
        <ele>557</ele>
        <time>2021-06-11T17:45:55Z</time>
      </trkpt>
      <trkpt lat="45.63733" lon="3.11966">
        <ele>558</ele>
        <time>2021-06-11T17:45:58Z</time>
      </trkpt>
      <trkpt lat="45.63722" lon="3.12008">
        <ele>556</ele>
        <time>2021-06-11T17:46:03Z</time>
      </trkpt>
      <trkpt lat="45.6372" lon="3.12049">
        <ele>554</ele>
        <time>2021-06-11T17:46:09Z</time>
      </trkpt>
      <trkpt lat="45.63726" lon="3.12073">
        <ele>552</ele>
        <time>2021-06-11T17:46:12Z</time>
      </trkpt>
      <trkpt lat="45.63736" lon="3.12085">
        <ele>550</ele>
        <time>2021-06-11T17:46:14Z</time>
      </trkpt>
      <trkpt lat="45.63754" lon="3.12087">
        <ele>547</ele>
        <time>2021-06-11T17:46:17Z</time>
      </trkpt>
      <trkpt lat="45.63768" lon="3.12086">
        <ele>546</ele>
        <time>2021-06-11T17:46:20Z</time>
      </trkpt>
      <trkpt lat="45.6378" lon="3.12088">
        <ele>544</ele>
        <time>2021-06-11T17:46:22Z</time>
      </trkpt>
      <trkpt lat="45.63791" lon="3.12097">
        <ele>543</ele>
        <time>2021-06-11T17:46:24Z</time>
      </trkpt>
      <trkpt lat="45.63796" lon="3.1211">
        <ele>541</ele>
        <time>2021-06-11T17:46:26Z</time>
      </trkpt>
      <trkpt lat="45.63798" lon="3.12127">
        <ele>539</ele>
        <time>2021-06-11T17:46:28Z</time>
      </trkpt>
      <trkpt lat="45.63793" lon="3.12176">
        <ele>536</ele>
        <time>2021-06-11T17:46:34Z</time>
      </trkpt>
      <trkpt lat="45.63786" lon="3.12224">
        <ele>533</ele>
        <time>2021-06-11T17:46:40Z</time>
      </trkpt>
      <trkpt lat="45.63773" lon="3.1226">
        <ele>532</ele>
        <time>2021-06-11T17:46:45Z</time>
      </trkpt>
      <trkpt lat="45.63758" lon="3.12291">
        <ele>531</ele>
        <time>2021-06-11T17:46:50Z</time>
      </trkpt>
      <trkpt lat="45.63715" lon="3.12354">
        <ele>533</ele>
        <time>2021-06-11T17:47:01Z</time>
      </trkpt>
      <trkpt lat="45.63711" lon="3.1238">
        <ele>532</ele>
        <time>2021-06-11T17:47:04Z</time>
      </trkpt>
      <trkpt lat="45.63712" lon="3.12419">
        <ele>530</ele>
        <time>2021-06-11T17:47:09Z</time>
      </trkpt>
      <trkpt lat="45.63715" lon="3.12462">
        <ele>528</ele>
        <time>2021-06-11T17:47:15Z</time>
      </trkpt>
      <trkpt lat="45.63715" lon="3.12508">
        <ele>526</ele>
        <time>2021-06-11T17:47:20Z</time>
      </trkpt>
      <trkpt lat="45.63702" lon="3.12556">
        <ele>526</ele>
        <time>2021-06-11T17:47:27Z</time>
      </trkpt>
      <trkpt lat="45.63661" lon="3.12665">
        <ele>526</ele>
        <time>2021-06-11T17:47:42Z</time>
      </trkpt>
      <trkpt lat="45.63644" lon="3.127">
        <ele>525</ele>
        <time>2021-06-11T17:47:48Z</time>
      </trkpt>
      <trkpt lat="45.63625" lon="3.12731">
        <ele>524</ele>
        <time>2021-06-11T17:47:53Z</time>
      </trkpt>
      <trkpt lat="45.63601" lon="3.12758">
        <ele>525</ele>
        <time>2021-06-11T17:47:58Z</time>
      </trkpt>
      <trkpt lat="45.63583" lon="3.12774">
        <ele>525</ele>
        <time>2021-06-11T17:48:02Z</time>
      </trkpt>
      <trkpt lat="45.63508" lon="3.12839">
        <ele>522</ele>
        <time>2021-06-11T17:48:17Z</time>
      </trkpt>
      <trkpt lat="45.63457" lon="3.12915">
        <ele>517</ele>
        <time>2021-06-11T17:48:31Z</time>
      </trkpt>
      <trkpt lat="45.63404" lon="3.12974">
        <ele>515</ele>
        <time>2021-06-11T17:48:43Z</time>
      </trkpt>
      <trkpt lat="45.63393" lon="3.12995">
        <ele>513</ele>
        <time>2021-06-11T17:48:46Z</time>
      </trkpt>
      <trkpt lat="45.63367" lon="3.13059">
        <ele>511</ele>
        <time>2021-06-11T17:48:55Z</time>
      </trkpt>
      <trkpt lat="45.63339" lon="3.1314">
        <ele>508</ele>
        <time>2021-06-11T17:49:06Z</time>
      </trkpt>
      <trkpt lat="45.63326" lon="3.1317">
        <ele>508</ele>
        <time>2021-06-11T17:49:11Z</time>
      </trkpt>
      <trkpt lat="45.63307" lon="3.13205">
        <ele>506</ele>
        <time>2021-06-11T17:49:16Z</time>
      </trkpt>
      <trkpt lat="45.6328" lon="3.13247">
        <ele>505</ele>
        <time>2021-06-11T17:49:23Z</time>
      </trkpt>
      <trkpt lat="45.63273" lon="3.1326">
        <ele>505</ele>
        <time>2021-06-11T17:49:25Z</time>
      </trkpt>
      <trkpt lat="45.6325" lon="3.13313">
        <ele>504</ele>
        <time>2021-06-11T17:49:33Z</time>
      </trkpt>
      <trkpt lat="45.63234" lon="3.13361">
        <ele>501</ele>
        <time>2021-06-11T17:49:40Z</time>
      </trkpt>
      <trkpt lat="45.63222" lon="3.13391">
        <ele>500</ele>
        <time>2021-06-11T17:49:44Z</time>
      </trkpt>
      <trkpt lat="45.6322" lon="3.13425">
        <ele>497</ele>
        <time>2021-06-11T17:49:48Z</time>
      </trkpt>
      <trkpt lat="45.63228" lon="3.13454">
        <ele>494</ele>
        <time>2021-06-11T17:49:52Z</time>
      </trkpt>
      <trkpt lat="45.63239" lon="3.13476">
        <ele>492</ele>
        <time>2021-06-11T17:49:55Z</time>
      </trkpt>
      <trkpt lat="45.63257" lon="3.13492">
        <ele>491</ele>
        <time>2021-06-11T17:49:59Z</time>
      </trkpt>
      <trkpt lat="45.63312" lon="3.13514">
        <ele>489</ele>
        <time>2021-06-11T17:50:09Z</time>
      </trkpt>
      <trkpt lat="45.63328" lon="3.13525">
        <ele>488</ele>
        <time>2021-06-11T17:50:13Z</time>
      </trkpt>
      <trkpt lat="45.63337" lon="3.13539">
        <ele>487</ele>
        <time>2021-06-11T17:50:15Z</time>
      </trkpt>
      <trkpt lat="45.63343" lon="3.13564">
        <ele>485</ele>
        <time>2021-06-11T17:50:18Z</time>
      </trkpt>
      <trkpt lat="45.63337" lon="3.13589">
        <ele>484</ele>
        <time>2021-06-11T17:50:21Z</time>
      </trkpt>
      <trkpt lat="45.63306" lon="3.13649">
        <ele>480</ele>
        <time>2021-06-11T17:50:31Z</time>
      </trkpt>
      <trkpt lat="45.63271" lon="3.13699">
        <ele>475</ele>
        <time>2021-06-11T17:50:40Z</time>
      </trkpt>
      <trkpt lat="45.6325" lon="3.13704">
        <ele>474</ele>
        <time>2021-06-11T17:50:43Z</time>
      </trkpt>
      <trkpt lat="45.63178" lon="3.13686">
        <ele>470</ele>
        <time>2021-06-11T17:50:56Z</time>
      </trkpt>
      <trkpt lat="45.63152" lon="3.13684">
        <ele>468</ele>
        <time>2021-06-11T17:51:01Z</time>
      </trkpt>
      <trkpt lat="45.63124" lon="3.13694">
        <ele>465</ele>
        <time>2021-06-11T17:51:06Z</time>
      </trkpt>
      <trkpt lat="45.63092" lon="3.13709">
        <ele>462</ele>
        <time>2021-06-11T17:51:12Z</time>
      </trkpt>
      <trkpt lat="45.63058" lon="3.13717">
        <ele>459</ele>
        <time>2021-06-11T17:51:18Z</time>
      </trkpt>
      <trkpt lat="45.6303" lon="3.1372">
        <ele>458</ele>
        <time>2021-06-11T17:51:23Z</time>
      </trkpt>
      <trkpt lat="45.62992" lon="3.13719">
        <ele>455</ele>
        <time>2021-06-11T17:51:30Z</time>
      </trkpt>
      <trkpt lat="45.62958" lon="3.13722">
        <ele>453</ele>
        <time>2021-06-11T17:51:36Z</time>
      </trkpt>
      <trkpt lat="45.62918" lon="3.13727">
        <ele>450</ele>
        <time>2021-06-11T17:51:43Z</time>
      </trkpt>
      <trkpt lat="45.62892" lon="3.13745">
        <ele>448</ele>
        <time>2021-06-11T17:51:48Z</time>
      </trkpt>
      <trkpt lat="45.62849" lon="3.13808">
        <ele>444</ele>
        <time>2021-06-11T17:51:59Z</time>
      </trkpt>
      <trkpt lat="45.62723" lon="3.14015">
        <ele>439</ele>
        <time>2021-06-11T17:52:33Z</time>
      </trkpt>
      <trkpt lat="45.62696" lon="3.14049">
        <ele>440</ele>
        <time>2021-06-11T17:52:40Z</time>
      </trkpt>
      <trkpt lat="45.62645" lon="3.14104">
        <ele>441</ele>
        <time>2021-06-11T17:52:51Z</time>
      </trkpt>
      <trkpt lat="45.6262" lon="3.14134">
        <ele>440</ele>
        <time>2021-06-11T17:52:57Z</time>
      </trkpt>
      <trkpt lat="45.62553" lon="3.14221">
        <ele>439</ele>
        <time>2021-06-11T17:53:13Z</time>
      </trkpt>
      <trkpt lat="45.6254" lon="3.14234">
        <ele>439</ele>
        <time>2021-06-11T17:53:16Z</time>
      </trkpt>
      <trkpt lat="45.62453" lon="3.14309">
        <ele>433</ele>
        <time>2021-06-11T17:53:34Z</time>
      </trkpt>
      <trkpt lat="45.62347" lon="3.14388">
        <ele>428</ele>
        <time>2021-06-11T17:53:55Z</time>
      </trkpt>
      <trkpt lat="45.62278" lon="3.14429">
        <ele>428</ele>
        <time>2021-06-11T17:54:09Z</time>
      </trkpt>
      <trkpt lat="45.62219" lon="3.14461">
        <ele>429</ele>
        <time>2021-06-11T17:54:20Z</time>
      </trkpt>
      <trkpt lat="45.62176" lon="3.14469">
        <ele>430</ele>
        <time>2021-06-11T17:54:28Z</time>
      </trkpt>
      <trkpt lat="45.62161" lon="3.14475">
        <ele>430</ele>
        <time>2021-06-11T17:54:30Z</time>
      </trkpt>
      <trkpt lat="45.62146" lon="3.14512">
        <ele>430</ele>
        <time>2021-06-11T17:54:36Z</time>
      </trkpt>
      <trkpt lat="45.62143" lon="3.14514">
        <ele>431</ele>
        <time>2021-06-11T17:54:36Z</time>
      </trkpt>
      <trkpt lat="45.62141" lon="3.14557">
        <ele>432</ele>
        <time>2021-06-11T17:54:42Z</time>
      </trkpt>
      <trkpt lat="45.62133" lon="3.14596">
        <ele>432</ele>
        <time>2021-06-11T17:54:47Z</time>
      </trkpt>
      <trkpt lat="45.62122" lon="3.14625">
        <ele>432</ele>
        <time>2021-06-11T17:54:51Z</time>
      </trkpt>
      <trkpt lat="45.62118" lon="3.14631">
        <ele>432</ele>
        <time>2021-06-11T17:54:52Z</time>
      </trkpt>
      <trkpt lat="45.62118" lon="3.14643">
        <ele>431</ele>
        <time>2021-06-11T17:54:53Z</time>
      </trkpt>
      <trkpt lat="45.62136" lon="3.14693">
        <ele>431</ele>
        <time>2021-06-11T17:55:00Z</time>
      </trkpt>
      <trkpt lat="45.62196" lon="3.14829">
        <ele>425</ele>
        <time>2021-06-11T17:55:20Z</time>
      </trkpt>
      <trkpt lat="45.62207" lon="3.14836">
        <ele>424</ele>
        <time>2021-06-11T17:55:22Z</time>
      </trkpt>
      <trkpt lat="45.62219" lon="3.14849">
        <ele>424</ele>
        <time>2021-06-11T17:55:25Z</time>
      </trkpt>
      <trkpt lat="45.62227" lon="3.14862">
        <ele>423</ele>
        <time>2021-06-11T17:55:27Z</time>
      </trkpt>
      <trkpt lat="45.62256" lon="3.14933">
        <ele>421</ele>
        <time>2021-06-11T17:55:37Z</time>
      </trkpt>
      <trkpt lat="45.62295" lon="3.15056">
        <ele>415</ele>
        <time>2021-06-11T17:55:54Z</time>
      </trkpt>
      <trkpt lat="45.62308" lon="3.15073">
        <ele>414</ele>
        <time>2021-06-11T17:55:57Z</time>
      </trkpt>
      <trkpt lat="45.62329" lon="3.15091">
        <ele>413</ele>
        <time>2021-06-11T17:56:02Z</time>
      </trkpt>
      <trkpt lat="45.62328" lon="3.15096">
        <ele>413</ele>
        <time>2021-06-11T17:56:02Z</time>
      </trkpt>
      <trkpt lat="45.62331" lon="3.15105">
        <ele>412</ele>
        <time>2021-06-11T17:56:04Z</time>
      </trkpt>
      <trkpt lat="45.62337" lon="3.1511">
        <ele>412</ele>
        <time>2021-06-11T17:56:05Z</time>
      </trkpt>
      <trkpt lat="45.62341" lon="3.1511">
        <ele>412</ele>
        <time>2021-06-11T17:56:06Z</time>
      </trkpt>
      <trkpt lat="45.62521" lon="3.15452">
        <ele>400</ele>
        <time>2021-06-11T17:56:59Z</time>
      </trkpt>
      <trkpt lat="45.62513" lon="3.15465">
        <ele>400</ele>
        <time>2021-06-11T17:57:01Z</time>
      </trkpt>
      <trkpt lat="45.62514" lon="3.15512">
        <ele>399</ele>
        <time>2021-06-11T17:57:07Z</time>
      </trkpt>
      <trkpt lat="45.62535" lon="3.15734">
        <ele>396</ele>
        <time>2021-06-11T17:57:35Z</time>
      </trkpt>
      <trkpt lat="45.62556" lon="3.15835">
        <ele>394</ele>
        <time>2021-06-11T17:57:48Z</time>
      </trkpt>
      <trkpt lat="45.62567" lon="3.15872">
        <ele>394</ele>
        <time>2021-06-11T17:57:53Z</time>
      </trkpt>
      <trkpt lat="45.62588" lon="3.15932">
        <ele>393</ele>
        <time>2021-06-11T17:58:01Z</time>
      </trkpt>
      <trkpt lat="45.62597" lon="3.15963">
        <ele>392</ele>
        <time>2021-06-11T17:58:05Z</time>
      </trkpt>
      <trkpt lat="45.626" lon="3.15987">
        <ele>392</ele>
        <time>2021-06-11T17:58:08Z</time>
      </trkpt>
      <trkpt lat="45.62612" lon="3.16111">
        <ele>392</ele>
        <time>2021-06-11T17:58:24Z</time>
      </trkpt>
      <trkpt lat="45.62618" lon="3.16147">
        <ele>392</ele>
        <time>2021-06-11T17:58:29Z</time>
      </trkpt>
      <trkpt lat="45.62639" lon="3.16191">
        <ele>393</ele>
        <time>2021-06-11T17:58:35Z</time>
      </trkpt>
      <trkpt lat="45.62694" lon="3.16289">
        <ele>392</ele>
        <time>2021-06-11T17:58:51Z</time>
      </trkpt>
      <trkpt lat="45.627" lon="3.16304">
        <ele>392</ele>
        <time>2021-06-11T17:58:53Z</time>
      </trkpt>
      <trkpt lat="45.62707" lon="3.16329">
        <ele>392</ele>
        <time>2021-06-11T17:58:56Z</time>
      </trkpt>
      <trkpt lat="45.6273" lon="3.16456">
        <ele>392</ele>
        <time>2021-06-11T17:59:13Z</time>
      </trkpt>
      <trkpt lat="45.62737" lon="3.16483">
        <ele>393</ele>
        <time>2021-06-11T17:59:16Z</time>
      </trkpt>
      <trkpt lat="45.62775" lon="3.16593">
        <ele>394</ele>
        <time>2021-06-11T17:59:32Z</time>
      </trkpt>
      <trkpt lat="45.6283" lon="3.16745">
        <ele>396</ele>
        <time>2021-06-11T17:59:53Z</time>
      </trkpt>
      <trkpt lat="45.62841" lon="3.1678">
        <ele>396</ele>
        <time>2021-06-11T17:59:58Z</time>
      </trkpt>
      <trkpt lat="45.62863" lon="3.16892">
        <ele>395</ele>
        <time>2021-06-11T18:00:12Z</time>
      </trkpt>
      <trkpt lat="45.62871" lon="3.16945">
        <ele>395</ele>
        <time>2021-06-11T18:00:19Z</time>
      </trkpt>
      <trkpt lat="45.62918" lon="3.17348">
        <ele>389</ele>
        <time>2021-06-11T18:01:10Z</time>
      </trkpt>
      <trkpt lat="45.62925" lon="3.17381">
        <ele>389</ele>
        <time>2021-06-11T18:01:14Z</time>
      </trkpt>
      <trkpt lat="45.62942" lon="3.17449">
        <ele>387</ele>
        <time>2021-06-11T18:01:23Z</time>
      </trkpt>
      <trkpt lat="45.62963" lon="3.17508">
        <ele>385</ele>
        <time>2021-06-11T18:01:31Z</time>
      </trkpt>
      <trkpt lat="45.62973" lon="3.17547">
        <ele>384</ele>
        <time>2021-06-11T18:01:36Z</time>
      </trkpt>
      <trkpt lat="45.62996" lon="3.17672">
        <ele>385</ele>
        <time>2021-06-11T18:01:52Z</time>
      </trkpt>
      <trkpt lat="45.63025" lon="3.17836">
        <ele>384</ele>
        <time>2021-06-11T18:02:13Z</time>
      </trkpt>
      <trkpt lat="45.63038" lon="3.17928">
        <ele>384</ele>
        <time>2021-06-11T18:02:25Z</time>
      </trkpt>
      <trkpt lat="45.63067" lon="3.18089">
        <ele>384</ele>
        <time>2021-06-11T18:02:46Z</time>
      </trkpt>
      <trkpt lat="45.63073" lon="3.1816">
        <ele>385</ele>
        <time>2021-06-11T18:02:55Z</time>
      </trkpt>
      <trkpt lat="45.63074" lon="3.18235">
        <ele>385</ele>
        <time>2021-06-11T18:03:04Z</time>
      </trkpt>
      <trkpt lat="45.63079" lon="3.18264">
        <ele>385</ele>
        <time>2021-06-11T18:03:08Z</time>
      </trkpt>
      <trkpt lat="45.63088" lon="3.18281">
        <ele>386</ele>
        <time>2021-06-11T18:03:10Z</time>
      </trkpt>
      <trkpt lat="45.63084" lon="3.18293">
        <ele>386</ele>
        <time>2021-06-11T18:03:12Z</time>
      </trkpt>
      <trkpt lat="45.63079" lon="3.18322">
        <ele>387</ele>
        <time>2021-06-11T18:03:16Z</time>
      </trkpt>
      <trkpt lat="45.63084" lon="3.18391">
        <ele>388</ele>
        <time>2021-06-11T18:03:24Z</time>
      </trkpt>
      <trkpt lat="45.63089" lon="3.18417">
        <ele>388</ele>
        <time>2021-06-11T18:03:28Z</time>
      </trkpt>
      <trkpt lat="45.63097" lon="3.18431">
        <ele>388</ele>
        <time>2021-06-11T18:03:30Z</time>
      </trkpt>
      <trkpt lat="45.63097" lon="3.18432">
        <ele>388</ele>
        <time>2021-06-11T18:03:30Z</time>
      </trkpt>
      <trkpt lat="45.63112" lon="3.18455">
        <ele>388</ele>
        <time>2021-06-11T18:03:34Z</time>
      </trkpt>
      <trkpt lat="45.63134" lon="3.18482">
        <ele>388</ele>
        <time>2021-06-11T18:03:39Z</time>
      </trkpt>
      <trkpt lat="45.63152" lon="3.18502">
        <ele>387</ele>
        <time>2021-06-11T18:03:43Z</time>
      </trkpt>
      <trkpt lat="45.63191" lon="3.18531">
        <ele>387</ele>
        <time>2021-06-11T18:03:51Z</time>
      </trkpt>
      <trkpt lat="45.63243" lon="3.18559">
        <ele>387</ele>
        <time>2021-06-11T18:04:01Z</time>
      </trkpt>
      <trkpt lat="45.63267" lon="3.18577">
        <ele>388</ele>
        <time>2021-06-11T18:04:06Z</time>
      </trkpt>
      <trkpt lat="45.63304" lon="3.18609">
        <ele>389</ele>
        <time>2021-06-11T18:04:14Z</time>
      </trkpt>
      <trkpt lat="45.63321" lon="3.1863">
        <ele>389</ele>
        <time>2021-06-11T18:04:18Z</time>
      </trkpt>
      <trkpt lat="45.63333" lon="3.18652">
        <ele>389</ele>
        <time>2021-06-11T18:04:21Z</time>
      </trkpt>
      <trkpt lat="45.63349" lon="3.18688">
        <ele>389</ele>
        <time>2021-06-11T18:04:26Z</time>
      </trkpt>
      <trkpt lat="45.63293" lon="3.18739">
        <ele>391</ele>
        <time>2021-06-11T18:04:38Z</time>
      </trkpt>
      <trkpt lat="45.63259" lon="3.18768">
        <ele>392</ele>
        <time>2021-06-11T18:04:45Z</time>
      </trkpt>
      <trkpt lat="45.6324" lon="3.18785">
        <ele>393</ele>
        <time>2021-06-11T18:04:49Z</time>
      </trkpt>
      <trkpt lat="45.63233" lon="3.18792">
        <ele>394</ele>
        <time>2021-06-11T18:04:51Z</time>
      </trkpt>
      <trkpt lat="45.63214" lon="3.18809">
        <ele>395</ele>
        <time>2021-06-11T18:04:55Z</time>
      </trkpt>
      <trkpt lat="45.63063" lon="3.18941">
        <ele>403</ele>
        <time>2021-06-11T18:05:26Z</time>
      </trkpt>
      <trkpt lat="45.62916" lon="3.1907">
        <ele>421</ele>
        <time>2021-06-11T18:05:57Z</time>
      </trkpt>
      <trkpt lat="45.62835" lon="3.1914">
        <ele>422</ele>
        <time>2021-06-11T18:06:14Z</time>
      </trkpt>
      <trkpt lat="45.62829" lon="3.19146">
        <ele>422</ele>
        <time>2021-06-11T18:06:15Z</time>
      </trkpt>
      <trkpt lat="45.62741" lon="3.1922">
        <ele>424</ele>
        <time>2021-06-11T18:06:33Z</time>
      </trkpt>
      <trkpt lat="45.62616" lon="3.19305">
        <ele>426</ele>
        <time>2021-06-11T18:06:58Z</time>
      </trkpt>
      <trkpt lat="45.6249" lon="3.19394">
        <ele>431</ele>
        <time>2021-06-11T18:07:23Z</time>
      </trkpt>
      <trkpt lat="45.62421" lon="3.19436">
        <ele>433</ele>
        <time>2021-06-11T18:07:36Z</time>
      </trkpt>
      <trkpt lat="45.62287" lon="3.19502">
        <ele>437</ele>
        <time>2021-06-11T18:08:01Z</time>
      </trkpt>
      <trkpt lat="45.62256" lon="3.19528">
        <ele>439</ele>
        <time>2021-06-11T18:08:08Z</time>
      </trkpt>
      <trkpt lat="45.62124" lon="3.19678">
        <ele>443</ele>
        <time>2021-06-11T18:08:38Z</time>
      </trkpt>
      <trkpt lat="45.62059" lon="3.19746">
        <ele>442</ele>
        <time>2021-06-11T18:08:52Z</time>
      </trkpt>
      <trkpt lat="45.62027" lon="3.19762">
        <ele>442</ele>
        <time>2021-06-11T18:08:58Z</time>
      </trkpt>
      <trkpt lat="45.61878" lon="3.19813">
        <ele>442</ele>
        <time>2021-06-11T18:09:25Z</time>
      </trkpt>
      <trkpt lat="45.61809" lon="3.19833">
        <ele>442</ele>
        <time>2021-06-11T18:09:38Z</time>
      </trkpt>
      <trkpt lat="45.61702" lon="3.1987">
        <ele>437</ele>
        <time>2021-06-11T18:09:57Z</time>
      </trkpt>
      <trkpt lat="45.61676" lon="3.19882">
        <ele>435</ele>
        <time>2021-06-11T18:10:02Z</time>
      </trkpt>
      <trkpt lat="45.61656" lon="3.19896">
        <ele>433</ele>
        <time>2021-06-11T18:10:06Z</time>
      </trkpt>
      <trkpt lat="45.61639" lon="3.19914">
        <ele>431</ele>
        <time>2021-06-11T18:10:10Z</time>
      </trkpt>
      <trkpt lat="45.61626" lon="3.19936">
        <ele>430</ele>
        <time>2021-06-11T18:10:14Z</time>
      </trkpt>
      <trkpt lat="45.6161" lon="3.19974">
        <ele>428</ele>
        <time>2021-06-11T18:10:19Z</time>
      </trkpt>
      <trkpt lat="45.61592" lon="3.20051">
        <ele>424</ele>
        <time>2021-06-11T18:10:29Z</time>
      </trkpt>
      <trkpt lat="45.61578" lon="3.20101">
        <ele>420</ele>
        <time>2021-06-11T18:10:36Z</time>
      </trkpt>
      <trkpt lat="45.61562" lon="3.20128">
        <ele>418</ele>
        <time>2021-06-11T18:10:40Z</time>
      </trkpt>
      <trkpt lat="45.61515" lon="3.2017">
        <ele>415</ele>
        <time>2021-06-11T18:10:50Z</time>
      </trkpt>
      <trkpt lat="45.61472" lon="3.20214">
        <ele>410</ele>
        <time>2021-06-11T18:11:00Z</time>
      </trkpt>
      <trkpt lat="45.61393" lon="3.20323">
        <ele>400</ele>
        <time>2021-06-11T18:11:19Z</time>
      </trkpt>
      <trkpt lat="45.61359" lon="3.20364">
        <ele>396</ele>
        <time>2021-06-11T18:11:27Z</time>
      </trkpt>
      <trkpt lat="45.61283" lon="3.20463">
        <ele>385</ele>
        <time>2021-06-11T18:11:45Z</time>
      </trkpt>
      <trkpt lat="45.6127" lon="3.20491">
        <ele>383</ele>
        <time>2021-06-11T18:11:50Z</time>
      </trkpt>
      <trkpt lat="45.61266" lon="3.20514">
        <ele>381</ele>
        <time>2021-06-11T18:11:53Z</time>
      </trkpt>
      <trkpt lat="45.61268" lon="3.20539">
        <ele>378</ele>
        <time>2021-06-11T18:11:56Z</time>
      </trkpt>
      <trkpt lat="45.61278" lon="3.2057">
        <ele>375</ele>
        <time>2021-06-11T18:12:00Z</time>
      </trkpt>
      <trkpt lat="45.61286" lon="3.20583">
        <ele>375</ele>
        <time>2021-06-11T18:12:02Z</time>
      </trkpt>
      <trkpt lat="45.61383" lon="3.20718">
        <ele>367</ele>
        <time>2021-06-11T18:12:26Z</time>
      </trkpt>
      <trkpt lat="45.61387" lon="3.20727">
        <ele>366</ele>
        <time>2021-06-11T18:12:27Z</time>
      </trkpt>
      <trkpt lat="45.6139" lon="3.20734">
        <ele>365</ele>
        <time>2021-06-11T18:12:28Z</time>
      </trkpt>
      <trkpt lat="45.61392" lon="3.20739">
        <ele>365</ele>
        <time>2021-06-11T18:12:29Z</time>
      </trkpt>
      <trkpt lat="45.61423" lon="3.2082">
        <ele>359</ele>
        <time>2021-06-11T18:12:41Z</time>
      </trkpt>
      <trkpt lat="45.61431" lon="3.20843">
        <ele>358</ele>
        <time>2021-06-11T18:12:44Z</time>
      </trkpt>
      <trkpt lat="45.61443" lon="3.20873">
        <ele>358</ele>
        <time>2021-06-11T18:12:48Z</time>
      </trkpt>
      <trkpt lat="45.61448" lon="3.20888">
        <ele>358</ele>
        <time>2021-06-11T18:12:50Z</time>
      </trkpt>
      <trkpt lat="45.61456" lon="3.20917">
        <ele>357</ele>
        <time>2021-06-11T18:12:54Z</time>
      </trkpt>
      <trkpt lat="45.61454" lon="3.20926">
        <ele>356</ele>
        <time>2021-06-11T18:12:55Z</time>
      </trkpt>
      <trkpt lat="45.61453" lon="3.20931">
        <ele>356</ele>
        <time>2021-06-11T18:12:56Z</time>
      </trkpt>
      <trkpt lat="45.61444" lon="3.2094">
        <ele>355</ele>
        <time>2021-06-11T18:12:58Z</time>
      </trkpt>
      <trkpt lat="45.61434" lon="3.20946">
        <ele>355</ele>
        <time>2021-06-11T18:13:00Z</time>
      </trkpt>
      <trkpt lat="45.61427" lon="3.20951">
        <ele>355</ele>
        <time>2021-06-11T18:13:01Z</time>
      </trkpt>
      <trkpt lat="45.61387" lon="3.20976">
        <ele>353</ele>
        <time>2021-06-11T18:13:09Z</time>
      </trkpt>
      <trkpt lat="45.6137" lon="3.20995">
        <ele>352</ele>
        <time>2021-06-11T18:13:13Z</time>
      </trkpt>
      <trkpt lat="45.61354" lon="3.21024">
        <ele>352</ele>
        <time>2021-06-11T18:13:17Z</time>
      </trkpt>
      <trkpt lat="45.61346" lon="3.21041">
        <ele>352</ele>
        <time>2021-06-11T18:13:20Z</time>
      </trkpt>
      <trkpt lat="45.61338" lon="3.21056">
        <ele>353</ele>
        <time>2021-06-11T18:13:22Z</time>
      </trkpt>
      <trkpt lat="45.61336" lon="3.21054">
        <ele>353</ele>
        <time>2021-06-11T18:13:23Z</time>
      </trkpt>
      <trkpt lat="45.6133" lon="3.21056">
        <ele>353</ele>
        <time>2021-06-11T18:13:24Z</time>
      </trkpt>
      <trkpt lat="45.61328" lon="3.21061">
        <ele>353</ele>
        <time>2021-06-11T18:13:25Z</time>
      </trkpt>
      <trkpt lat="45.61329" lon="3.21069">
        <ele>354</ele>
        <time>2021-06-11T18:13:26Z</time>
      </trkpt>
      <trkpt lat="45.61332" lon="3.21072">
        <ele>354</ele>
        <time>2021-06-11T18:13:26Z</time>
      </trkpt>
      <trkpt lat="45.61336" lon="3.21072">
        <ele>354</ele>
        <time>2021-06-11T18:13:27Z</time>
      </trkpt>
      <trkpt lat="45.6134" lon="3.21066">
        <ele>353</ele>
        <time>2021-06-11T18:13:28Z</time>
      </trkpt>
      <trkpt lat="45.61351" lon="3.21079">
        <ele>353</ele>
        <time>2021-06-11T18:13:31Z</time>
      </trkpt>
      <trkpt lat="45.61362" lon="3.21107">
        <ele>353</ele>
        <time>2021-06-11T18:13:35Z</time>
      </trkpt>
      <trkpt lat="45.61436" lon="3.21285">
        <ele>353</ele>
        <time>2021-06-11T18:14:00Z</time>
      </trkpt>
      <trkpt lat="45.61473" lon="3.21372">
        <ele>353</ele>
        <time>2021-06-11T18:14:13Z</time>
      </trkpt>
      <trkpt lat="45.61508" lon="3.21426">
        <ele>356</ele>
        <time>2021-06-11T18:14:22Z</time>
      </trkpt>
      <trkpt lat="45.61517" lon="3.21438">
        <ele>358</ele>
        <time>2021-06-11T18:14:24Z</time>
      </trkpt>
      <trkpt lat="45.61519" lon="3.21441">
        <ele>358</ele>
        <time>2021-06-11T18:14:25Z</time>
      </trkpt>
      <trkpt lat="45.61524" lon="3.21459">
        <ele>359</ele>
        <time>2021-06-11T18:14:27Z</time>
      </trkpt>
      <trkpt lat="45.61522" lon="3.21477">
        <ele>360</ele>
        <time>2021-06-11T18:14:30Z</time>
      </trkpt>
      <trkpt lat="45.61509" lon="3.2152">
        <ele>359</ele>
        <time>2021-06-11T18:14:35Z</time>
      </trkpt>
      <trkpt lat="45.61507" lon="3.21526">
        <ele>359</ele>
        <time>2021-06-11T18:14:36Z</time>
      </trkpt>
      <trkpt lat="45.61494" lon="3.21572">
        <ele>359</ele>
        <time>2021-06-11T18:14:42Z</time>
      </trkpt>
      <trkpt lat="45.61487" lon="3.21595">
        <ele>359</ele>
        <time>2021-06-11T18:14:45Z</time>
      </trkpt>
      <trkpt lat="45.61484" lon="3.21605">
        <ele>359</ele>
        <time>2021-06-11T18:14:47Z</time>
      </trkpt>
      <trkpt lat="45.61464" lon="3.21661">
        <ele>360</ele>
        <time>2021-06-11T18:14:55Z</time>
      </trkpt>
      <trkpt lat="45.61461" lon="3.21669">
        <ele>360</ele>
        <time>2021-06-11T18:14:56Z</time>
      </trkpt>
      <trkpt lat="45.61453" lon="3.21687">
        <ele>360</ele>
        <time>2021-06-11T18:14:58Z</time>
      </trkpt>
      <trkpt lat="45.61445" lon="3.21705">
        <ele>360</ele>
        <time>2021-06-11T18:15:01Z</time>
      </trkpt>
      <trkpt lat="45.61444" lon="3.21711">
        <ele>360</ele>
        <time>2021-06-11T18:15:02Z</time>
      </trkpt>
      <trkpt lat="45.61445" lon="3.21725">
        <ele>361</ele>
        <time>2021-06-11T18:15:04Z</time>
      </trkpt>
      <trkpt lat="45.61447" lon="3.21731">
        <ele>361</ele>
        <time>2021-06-11T18:15:04Z</time>
      </trkpt>
      <trkpt lat="45.61452" lon="3.21738">
        <ele>362</ele>
        <time>2021-06-11T18:15:06Z</time>
      </trkpt>
      <trkpt lat="45.61464" lon="3.21752">
        <ele>364</ele>
        <time>2021-06-11T18:15:08Z</time>
      </trkpt>
      <trkpt lat="45.61471" lon="3.21757">
        <ele>365</ele>
        <time>2021-06-11T18:15:10Z</time>
      </trkpt>
      <trkpt lat="45.61483" lon="3.21758">
        <ele>366</ele>
        <time>2021-06-11T18:15:12Z</time>
      </trkpt>
      <trkpt lat="45.61488" lon="3.21756">
        <ele>366</ele>
        <time>2021-06-11T18:15:13Z</time>
      </trkpt>
      <trkpt lat="45.61488" lon="3.2176">
        <ele>367</ele>
        <time>2021-06-11T18:15:13Z</time>
      </trkpt>
      <trkpt lat="45.61497" lon="3.21802">
        <ele>372</ele>
        <time>2021-06-11T18:15:19Z</time>
      </trkpt>
      <trkpt lat="45.61492" lon="3.21829">
        <ele>374</ele>
        <time>2021-06-11T18:15:22Z</time>
      </trkpt>
      <trkpt lat="45.61484" lon="3.21849">
        <ele>375</ele>
        <time>2021-06-11T18:15:25Z</time>
      </trkpt>
      <trkpt lat="45.6148" lon="3.21872">
        <ele>376</ele>
        <time>2021-06-11T18:15:28Z</time>
      </trkpt>
      <trkpt lat="45.61479" lon="3.21906">
        <ele>379</ele>
        <time>2021-06-11T18:15:32Z</time>
      </trkpt>
      <trkpt lat="45.61472" lon="3.21944">
        <ele>379</ele>
        <time>2021-06-11T18:15:37Z</time>
      </trkpt>
      <trkpt lat="45.61469" lon="3.21971">
        <ele>379</ele>
        <time>2021-06-11T18:15:41Z</time>
      </trkpt>
      <trkpt lat="45.61477" lon="3.22001">
        <ele>382</ele>
        <time>2021-06-11T18:15:45Z</time>
      </trkpt>
      <trkpt lat="45.61477" lon="3.22017">
        <ele>384</ele>
        <time>2021-06-11T18:15:47Z</time>
      </trkpt>
      <trkpt lat="45.61471" lon="3.22038">
        <ele>384</ele>
        <time>2021-06-11T18:15:49Z</time>
      </trkpt>
      <trkpt lat="45.61449" lon="3.22074">
        <ele>381</ele>
        <time>2021-06-11T18:15:55Z</time>
      </trkpt>
      <trkpt lat="45.61445" lon="3.22088">
        <ele>382</ele>
        <time>2021-06-11T18:15:57Z</time>
      </trkpt>
      <trkpt lat="45.61443" lon="3.22108">
        <ele>384</ele>
        <time>2021-06-11T18:16:00Z</time>
      </trkpt>
      <trkpt lat="45.61457" lon="3.22161">
        <ele>393</ele>
        <time>2021-06-11T18:16:07Z</time>
      </trkpt>
      <trkpt lat="45.61455" lon="3.22183">
        <ele>396</ele>
        <time>2021-06-11T18:16:10Z</time>
      </trkpt>
      <trkpt lat="45.61437" lon="3.22249">
        <ele>401</ele>
        <time>2021-06-11T18:16:18Z</time>
      </trkpt>
      <trkpt lat="45.61423" lon="3.22265">
        <ele>401</ele>
        <time>2021-06-11T18:16:22Z</time>
      </trkpt>
      <trkpt lat="45.61405" lon="3.22274">
        <ele>400</ele>
        <time>2021-06-11T18:16:25Z</time>
      </trkpt>
      <trkpt lat="45.61372" lon="3.22285">
        <ele>399</ele>
        <time>2021-06-11T18:16:31Z</time>
      </trkpt>
      <trkpt lat="45.61351" lon="3.22298">
        <ele>400</ele>
        <time>2021-06-11T18:16:35Z</time>
      </trkpt>
      <trkpt lat="45.61327" lon="3.22327">
        <ele>402</ele>
        <time>2021-06-11T18:16:41Z</time>
      </trkpt>
      <trkpt lat="45.61303" lon="3.22365">
        <ele>400</ele>
        <time>2021-06-11T18:16:47Z</time>
      </trkpt>
      <trkpt lat="45.61288" lon="3.22405">
        <ele>404</ele>
        <time>2021-06-11T18:16:53Z</time>
      </trkpt>
      <trkpt lat="45.61277" lon="3.22441">
        <ele>408</ele>
        <time>2021-06-11T18:16:58Z</time>
      </trkpt>
      <trkpt lat="45.61216" lon="3.22593">
        <ele>412</ele>
        <time>2021-06-11T18:17:19Z</time>
      </trkpt>
      <trkpt lat="45.61215" lon="3.2261">
        <ele>413</ele>
        <time>2021-06-11T18:17:22Z</time>
      </trkpt>
      <trkpt lat="45.61219" lon="3.22629">
        <ele>415</ele>
        <time>2021-06-11T18:17:24Z</time>
      </trkpt>
      <trkpt lat="45.61257" lon="3.22722">
        <ele>429</ele>
        <time>2021-06-11T18:17:37Z</time>
      </trkpt>
      <trkpt lat="45.61262" lon="3.22761">
        <ele>430</ele>
        <time>2021-06-11T18:17:42Z</time>
      </trkpt>
      <trkpt lat="45.61264" lon="3.22844">
        <ele>434</ele>
        <time>2021-06-11T18:17:53Z</time>
      </trkpt>
      <trkpt lat="45.61266" lon="3.22876">
        <ele>435</ele>
        <time>2021-06-11T18:17:57Z</time>
      </trkpt>
      <trkpt lat="45.6127" lon="3.229">
        <ele>437</ele>
        <time>2021-06-11T18:18:00Z</time>
      </trkpt>
      <trkpt lat="45.61274" lon="3.2292">
        <ele>438</ele>
        <time>2021-06-11T18:18:02Z</time>
      </trkpt>
      <trkpt lat="45.61303" lon="3.23012">
        <ele>446</ele>
        <time>2021-06-11T18:18:15Z</time>
      </trkpt>
      <trkpt lat="45.6132" lon="3.23058">
        <ele>450</ele>
        <time>2021-06-11T18:18:21Z</time>
      </trkpt>
      <trkpt lat="45.61323" lon="3.23068">
        <ele>451</ele>
        <time>2021-06-11T18:18:23Z</time>
      </trkpt>
      <trkpt lat="45.61326" lon="3.23077">
        <ele>452</ele>
        <time>2021-06-11T18:18:24Z</time>
      </trkpt>
      <trkpt lat="45.61332" lon="3.23096">
        <ele>453</ele>
        <time>2021-06-11T18:18:27Z</time>
      </trkpt>
      <trkpt lat="45.61334" lon="3.2312">
        <ele>454</ele>
        <time>2021-06-11T18:18:30Z</time>
      </trkpt>
      <trkpt lat="45.6133" lon="3.23152">
        <ele>454</ele>
        <time>2021-06-11T18:18:34Z</time>
      </trkpt>
      <trkpt lat="45.61323" lon="3.23193">
        <ele>456</ele>
        <time>2021-06-11T18:18:39Z</time>
      </trkpt>
      <trkpt lat="45.61319" lon="3.23219">
        <ele>457</ele>
        <time>2021-06-11T18:18:42Z</time>
      </trkpt>
      <trkpt lat="45.61285" lon="3.23309">
        <ele>457</ele>
        <time>2021-06-11T18:18:55Z</time>
      </trkpt>
      <trkpt lat="45.61284" lon="3.23331">
        <ele>459</ele>
        <time>2021-06-11T18:18:58Z</time>
      </trkpt>
      <trkpt lat="45.61288" lon="3.23358">
        <ele>461</ele>
        <time>2021-06-11T18:19:01Z</time>
      </trkpt>
      <trkpt lat="45.61308" lon="3.2343">
        <ele>468</ele>
        <time>2021-06-11T18:19:11Z</time>
      </trkpt>
      <trkpt lat="45.61311" lon="3.23454">
        <ele>470</ele>
        <time>2021-06-11T18:19:14Z</time>
      </trkpt>
      <trkpt lat="45.61311" lon="3.23458">
        <ele>470</ele>
        <time>2021-06-11T18:19:14Z</time>
      </trkpt>
      <trkpt lat="45.61311" lon="3.23477">
        <ele>471</ele>
        <time>2021-06-11T18:19:17Z</time>
      </trkpt>
      <trkpt lat="45.61307" lon="3.23532">
        <ele>473</ele>
        <time>2021-06-11T18:19:24Z</time>
      </trkpt>
      <trkpt lat="45.61306" lon="3.23606">
        <ele>479</ele>
        <time>2021-06-11T18:19:33Z</time>
      </trkpt>
      <trkpt lat="45.61304" lon="3.23633">
        <ele>481</ele>
        <time>2021-06-11T18:19:36Z</time>
      </trkpt>
      <trkpt lat="45.613" lon="3.23717">
        <ele>486</ele>
        <time>2021-06-11T18:19:47Z</time>
      </trkpt>
      <trkpt lat="45.61305" lon="3.23772">
        <ele>490</ele>
        <time>2021-06-11T18:19:54Z</time>
      </trkpt>
      <trkpt lat="45.61307" lon="3.23818">
        <ele>492</ele>
        <time>2021-06-11T18:19:59Z</time>
      </trkpt>
      <trkpt lat="45.613" lon="3.2386">
        <ele>493</ele>
        <time>2021-06-11T18:20:05Z</time>
      </trkpt>
      <trkpt lat="45.613" lon="3.23881">
        <ele>494</ele>
        <time>2021-06-11T18:20:07Z</time>
      </trkpt>
      <trkpt lat="45.613" lon="3.23886">
        <ele>494</ele>
        <time>2021-06-11T18:20:08Z</time>
      </trkpt>
      <trkpt lat="45.61303" lon="3.23918">
        <ele>496</ele>
        <time>2021-06-11T18:20:12Z</time>
      </trkpt>
      <trkpt lat="45.61302" lon="3.23939">
        <ele>498</ele>
        <time>2021-06-11T18:20:15Z</time>
      </trkpt>
      <trkpt lat="45.61294" lon="3.23961">
        <ele>499</ele>
        <time>2021-06-11T18:20:18Z</time>
      </trkpt>
      <trkpt lat="45.61258" lon="3.23996">
        <ele>498</ele>
        <time>2021-06-11T18:20:25Z</time>
      </trkpt>
      <trkpt lat="45.61237" lon="3.24034">
        <ele>500</ele>
        <time>2021-06-11T18:20:31Z</time>
      </trkpt>
      <trkpt lat="45.61225" lon="3.24063">
        <ele>501</ele>
        <time>2021-06-11T18:20:36Z</time>
      </trkpt>
      <trkpt lat="45.6122" lon="3.2411">
        <ele>504</ele>
        <time>2021-06-11T18:20:41Z</time>
      </trkpt>
      <trkpt lat="45.61218" lon="3.24167">
        <ele>508</ele>
        <time>2021-06-11T18:20:49Z</time>
      </trkpt>
      <trkpt lat="45.6122" lon="3.24182">
        <ele>508</ele>
        <time>2021-06-11T18:20:50Z</time>
      </trkpt>
      <trkpt lat="45.61234" lon="3.2423">
        <ele>513</ele>
        <time>2021-06-11T18:20:57Z</time>
      </trkpt>
      <trkpt lat="45.61239" lon="3.2426">
        <ele>515</ele>
        <time>2021-06-11T18:21:01Z</time>
      </trkpt>
      <trkpt lat="45.61247" lon="3.24333">
        <ele>519</ele>
        <time>2021-06-11T18:21:10Z</time>
      </trkpt>
      <trkpt lat="45.61251" lon="3.24353">
        <ele>520</ele>
        <time>2021-06-11T18:21:13Z</time>
      </trkpt>
      <trkpt lat="45.61259" lon="3.24378">
        <ele>521</ele>
        <time>2021-06-11T18:21:16Z</time>
      </trkpt>
      <trkpt lat="45.61281" lon="3.24419">
        <ele>525</ele>
        <time>2021-06-11T18:21:22Z</time>
      </trkpt>
      <trkpt lat="45.61298" lon="3.24471">
        <ele>527</ele>
        <time>2021-06-11T18:21:30Z</time>
      </trkpt>
      <trkpt lat="45.61308" lon="3.24491">
        <ele>528</ele>
        <time>2021-06-11T18:21:33Z</time>
      </trkpt>
      <trkpt lat="45.61324" lon="3.24513">
        <ele>530</ele>
        <time>2021-06-11T18:21:37Z</time>
      </trkpt>
      <trkpt lat="45.61343" lon="3.24531">
        <ele>532</ele>
        <time>2021-06-11T18:21:41Z</time>
      </trkpt>
      <trkpt lat="45.61378" lon="3.24557">
        <ele>537</ele>
        <time>2021-06-11T18:21:48Z</time>
      </trkpt>
      <trkpt lat="45.6142" lon="3.24596">
        <ele>543</ele>
        <time>2021-06-11T18:21:57Z</time>
      </trkpt>
      <trkpt lat="45.61434" lon="3.24615">
        <ele>545</ele>
        <time>2021-06-11T18:22:00Z</time>
      </trkpt>
      <trkpt lat="45.61453" lon="3.24665">
        <ele>545</ele>
        <time>2021-06-11T18:22:07Z</time>
      </trkpt>
      <trkpt lat="45.61469" lon="3.24691">
        <ele>547</ele>
        <time>2021-06-11T18:22:11Z</time>
      </trkpt>
      <trkpt lat="45.6149" lon="3.24711">
        <ele>550</ele>
        <time>2021-06-11T18:22:16Z</time>
      </trkpt>
      <trkpt lat="45.61507" lon="3.2473">
        <ele>552</ele>
        <time>2021-06-11T18:22:20Z</time>
      </trkpt>
      <trkpt lat="45.61517" lon="3.24761">
        <ele>553</ele>
        <time>2021-06-11T18:22:24Z</time>
      </trkpt>
      <trkpt lat="45.6152" lon="3.24772">
        <ele>554</ele>
        <time>2021-06-11T18:22:25Z</time>
      </trkpt>
      <trkpt lat="45.61528" lon="3.24813">
        <ele>556</ele>
        <time>2021-06-11T18:22:31Z</time>
      </trkpt>
      <trkpt lat="45.61548" lon="3.24881">
        <ele>561</ele>
        <time>2021-06-11T18:22:40Z</time>
      </trkpt>
      <trkpt lat="45.61556" lon="3.24901">
        <ele>561</ele>
        <time>2021-06-11T18:22:43Z</time>
      </trkpt>
      <trkpt lat="45.61555" lon="3.24934">
        <ele>563</ele>
        <time>2021-06-11T18:22:47Z</time>
      </trkpt>
      <trkpt lat="45.61538" lon="3.24955">
        <ele>564</ele>
        <time>2021-06-11T18:22:51Z</time>
      </trkpt>
      <trkpt lat="45.6152" lon="3.2496">
        <ele>564</ele>
        <time>2021-06-11T18:22:54Z</time>
      </trkpt>
      <trkpt lat="45.61485" lon="3.24959">
        <ele>563</ele>
        <time>2021-06-11T18:23:00Z</time>
      </trkpt>
      <trkpt lat="45.61467" lon="3.24972">
        <ele>564</ele>
        <time>2021-06-11T18:23:04Z</time>
      </trkpt>
      <trkpt lat="45.61456" lon="3.24988">
        <ele>565</ele>
        <time>2021-06-11T18:23:07Z</time>
      </trkpt>
      <trkpt lat="45.61429" lon="3.25044">
        <ele>567</ele>
        <time>2021-06-11T18:23:15Z</time>
      </trkpt>
      <trkpt lat="45.61415" lon="3.25065">
        <ele>567</ele>
        <time>2021-06-11T18:23:19Z</time>
      </trkpt>
      <trkpt lat="45.61358" lon="3.25132">
        <ele>562</ele>
        <time>2021-06-11T18:23:32Z</time>
      </trkpt>
      <trkpt lat="45.61327" lon="3.25168">
        <ele>558</ele>
        <time>2021-06-11T18:23:39Z</time>
      </trkpt>
      <trkpt lat="45.61278" lon="3.25224">
        <ele>554</ele>
        <time>2021-06-11T18:23:50Z</time>
      </trkpt>
      <trkpt lat="45.61252" lon="3.25255">
        <ele>551</ele>
        <time>2021-06-11T18:23:56Z</time>
      </trkpt>
      <trkpt lat="45.61242" lon="3.25282">
        <ele>549</ele>
        <time>2021-06-11T18:24:00Z</time>
      </trkpt>
      <trkpt lat="45.61242" lon="3.25307">
        <ele>549</ele>
        <time>2021-06-11T18:24:03Z</time>
      </trkpt>
      <trkpt lat="45.61246" lon="3.25339">
        <ele>550</ele>
        <time>2021-06-11T18:24:07Z</time>
      </trkpt>
      <trkpt lat="45.61252" lon="3.25362">
        <ele>549</ele>
        <time>2021-06-11T18:24:10Z</time>
      </trkpt>
      <trkpt lat="45.61264" lon="3.25392">
        <ele>548</ele>
        <time>2021-06-11T18:24:15Z</time>
      </trkpt>
      <trkpt lat="45.61271" lon="3.25402">
        <ele>548</ele>
        <time>2021-06-11T18:24:16Z</time>
      </trkpt>
      <trkpt lat="45.61292" lon="3.2542">
        <ele>549</ele>
        <time>2021-06-11T18:24:21Z</time>
      </trkpt>
      <trkpt lat="45.61307" lon="3.25456">
        <ele>549</ele>
        <time>2021-06-11T18:24:26Z</time>
      </trkpt>
      <trkpt lat="45.61311" lon="3.25463">
        <ele>550</ele>
        <time>2021-06-11T18:24:27Z</time>
      </trkpt>
      <trkpt lat="45.61325" lon="3.25472">
        <ele>551</ele>
        <time>2021-06-11T18:24:30Z</time>
      </trkpt>
      <trkpt lat="45.61342" lon="3.25492">
        <ele>552</ele>
        <time>2021-06-11T18:24:34Z</time>
      </trkpt>
      <trkpt lat="45.6135" lon="3.25506">
        <ele>552</ele>
        <time>2021-06-11T18:24:36Z</time>
      </trkpt>
      <trkpt lat="45.61359" lon="3.2552">
        <ele>552</ele>
        <time>2021-06-11T18:24:38Z</time>
      </trkpt>
      <trkpt lat="45.61381" lon="3.25531">
        <ele>553</ele>
        <time>2021-06-11T18:24:42Z</time>
      </trkpt>
      <trkpt lat="45.61383" lon="3.25532">
        <ele>554</ele>
        <time>2021-06-11T18:24:43Z</time>
      </trkpt>
      <trkpt lat="45.61392" lon="3.25537">
        <ele>554</ele>
        <time>2021-06-11T18:24:45Z</time>
      </trkpt>
      <trkpt lat="45.61409" lon="3.25549">
        <ele>555</ele>
        <time>2021-06-11T18:24:48Z</time>
      </trkpt>
      <trkpt lat="45.61415" lon="3.25554">
        <ele>555</ele>
        <time>2021-06-11T18:24:49Z</time>
      </trkpt>
      <trkpt lat="45.61416" lon="3.25554">
        <ele>555</ele>
        <time>2021-06-11T18:24:49Z</time>
      </trkpt>
      <trkpt lat="45.61432" lon="3.25565">
        <ele>555</ele>
        <time>2021-06-11T18:24:52Z</time>
      </trkpt>
      <trkpt lat="45.61448" lon="3.25576">
        <ele>556</ele>
        <time>2021-06-11T18:24:56Z</time>
      </trkpt>
      <trkpt lat="45.61471" lon="3.25592">
        <ele>556</ele>
        <time>2021-06-11T18:25:00Z</time>
      </trkpt>
      <trkpt lat="45.61542" lon="3.25615">
        <ele>560</ele>
        <time>2021-06-11T18:25:13Z</time>
      </trkpt>
      <trkpt lat="45.61547" lon="3.25616">
        <ele>560</ele>
        <time>2021-06-11T18:25:14Z</time>
      </trkpt>
      <trkpt lat="45.61563" lon="3.25618">
        <ele>561</ele>
        <time>2021-06-11T18:25:17Z</time>
      </trkpt>
      <trkpt lat="45.61582" lon="3.25621">
        <ele>562</ele>
        <time>2021-06-11T18:25:20Z</time>
      </trkpt>
      <trkpt lat="45.61634" lon="3.25624">
        <ele>566</ele>
        <time>2021-06-11T18:25:30Z</time>
      </trkpt>
      <trkpt lat="45.61692" lon="3.25631">
        <ele>570</ele>
        <time>2021-06-11T18:25:40Z</time>
      </trkpt>
      <trkpt lat="45.61707" lon="3.25635">
        <ele>570</ele>
        <time>2021-06-11T18:25:43Z</time>
      </trkpt>
      <trkpt lat="45.61724" lon="3.2564">
        <ele>572</ele>
        <time>2021-06-11T18:25:46Z</time>
      </trkpt>
      <trkpt lat="45.61742" lon="3.2565">
        <ele>572</ele>
        <time>2021-06-11T18:25:49Z</time>
      </trkpt>
      <trkpt lat="45.61755" lon="3.25662">
        <ele>572</ele>
        <time>2021-06-11T18:25:52Z</time>
      </trkpt>
      <trkpt lat="45.61762" lon="3.25674">
        <ele>572</ele>
        <time>2021-06-11T18:25:54Z</time>
      </trkpt>
      <trkpt lat="45.61766" lon="3.25683">
        <ele>572</ele>
        <time>2021-06-11T18:25:55Z</time>
      </trkpt>
      <trkpt lat="45.61775" lon="3.25709">
        <ele>572</ele>
        <time>2021-06-11T18:25:59Z</time>
      </trkpt>
      <trkpt lat="45.61773" lon="3.25823">
        <ele>571</ele>
        <time>2021-06-11T18:26:13Z</time>
      </trkpt>
      <trkpt lat="45.61775" lon="3.25851">
        <ele>572</ele>
        <time>2021-06-11T18:26:17Z</time>
      </trkpt>
      <trkpt lat="45.61776" lon="3.25865">
        <ele>573</ele>
        <time>2021-06-11T18:26:18Z</time>
      </trkpt>
      <trkpt lat="45.61752" lon="3.25895">
        <ele>574</ele>
        <time>2021-06-11T18:26:24Z</time>
      </trkpt>
      <trkpt lat="45.61677" lon="3.25974">
        <ele>579</ele>
        <time>2021-06-11T18:26:41Z</time>
      </trkpt>
      <trkpt lat="45.61633" lon="3.26009">
        <ele>582</ele>
        <time>2021-06-11T18:26:49Z</time>
      </trkpt>
      <trkpt lat="45.61613" lon="3.26027">
        <ele>583</ele>
        <time>2021-06-11T18:26:54Z</time>
      </trkpt>
      <trkpt lat="45.616" lon="3.26052">
        <ele>584</ele>
        <time>2021-06-11T18:26:58Z</time>
      </trkpt>
      <trkpt lat="45.61579" lon="3.26141">
        <ele>589</ele>
        <time>2021-06-11T18:27:09Z</time>
      </trkpt>
      <trkpt lat="45.61571" lon="3.26191">
        <ele>591</ele>
        <time>2021-06-11T18:27:16Z</time>
      </trkpt>
      <trkpt lat="45.61577" lon="3.26286">
        <ele>597</ele>
        <time>2021-06-11T18:27:27Z</time>
      </trkpt>
      <trkpt lat="45.61574" lon="3.26307">
        <ele>598</ele>
        <time>2021-06-11T18:27:30Z</time>
      </trkpt>
      <trkpt lat="45.61565" lon="3.2632">
        <ele>599</ele>
        <time>2021-06-11T18:27:32Z</time>
      </trkpt>
      <trkpt lat="45.61403" lon="3.26355">
        <ele>606</ele>
        <time>2021-06-11T18:28:02Z</time>
      </trkpt>
      <trkpt lat="45.61301" lon="3.26373">
        <ele>613</ele>
        <time>2021-06-11T18:28:20Z</time>
      </trkpt>
      <trkpt lat="45.61286" lon="3.26373">
        <ele>614</ele>
        <time>2021-06-11T18:28:23Z</time>
      </trkpt>
      <trkpt lat="45.61249" lon="3.26352">
        <ele>614</ele>
        <time>2021-06-11T18:28:30Z</time>
      </trkpt>
      <trkpt lat="45.61233" lon="3.26353">
        <ele>615</ele>
        <time>2021-06-11T18:28:32Z</time>
      </trkpt>
      <trkpt lat="45.61223" lon="3.26361">
        <ele>617</ele>
        <time>2021-06-11T18:28:35Z</time>
      </trkpt>
      <trkpt lat="45.61216" lon="3.26375">
        <ele>620</ele>
        <time>2021-06-11T18:28:37Z</time>
      </trkpt>
      <trkpt lat="45.61215" lon="3.26397">
        <ele>623</ele>
        <time>2021-06-11T18:28:39Z</time>
      </trkpt>
      <trkpt lat="45.6122" lon="3.26411">
        <ele>624</ele>
        <time>2021-06-11T18:28:41Z</time>
      </trkpt>
      <trkpt lat="45.61234" lon="3.26425">
        <ele>625</ele>
        <time>2021-06-11T18:28:44Z</time>
      </trkpt>
      <trkpt lat="45.61384" lon="3.2652">
        <ele>631</ele>
        <time>2021-06-11T18:29:14Z</time>
      </trkpt>
      <trkpt lat="45.6144" lon="3.26569">
        <ele>638</ele>
        <time>2021-06-11T18:29:25Z</time>
      </trkpt>
      <trkpt lat="45.61509" lon="3.26593">
        <ele>635</ele>
        <time>2021-06-11T18:29:38Z</time>
      </trkpt>
      <trkpt lat="45.61563" lon="3.26633">
        <ele>636</ele>
        <time>2021-06-11T18:29:49Z</time>
      </trkpt>
      <trkpt lat="45.61585" lon="3.26665">
        <ele>639</ele>
        <time>2021-06-11T18:29:54Z</time>
      </trkpt>
      <trkpt lat="45.61641" lon="3.26803">
        <ele>646</ele>
        <time>2021-06-11T18:30:14Z</time>
      </trkpt>
      <trkpt lat="45.61658" lon="3.2695">
        <ele>652</ele>
        <time>2021-06-11T18:30:33Z</time>
      </trkpt>
      <trkpt lat="45.61654" lon="3.27008">
        <ele>653</ele>
        <time>2021-06-11T18:30:40Z</time>
      </trkpt>
      <trkpt lat="45.61642" lon="3.27055">
        <ele>654</ele>
        <time>2021-06-11T18:30:46Z</time>
      </trkpt>
      <trkpt lat="45.61606" lon="3.27113">
        <ele>652</ele>
        <time>2021-06-11T18:30:56Z</time>
      </trkpt>
      <trkpt lat="45.61592" lon="3.27141">
        <ele>651</ele>
        <time>2021-06-11T18:31:00Z</time>
      </trkpt>
      <trkpt lat="45.61584" lon="3.27167">
        <ele>650</ele>
        <time>2021-06-11T18:31:04Z</time>
      </trkpt>
      <trkpt lat="45.6158" lon="3.27196">
        <ele>649</ele>
        <time>2021-06-11T18:31:07Z</time>
      </trkpt>
      <trkpt lat="45.61583" lon="3.27274">
        <ele>647</ele>
        <time>2021-06-11T18:31:17Z</time>
      </trkpt>
      <trkpt lat="45.61579" lon="3.27306">
        <ele>647</ele>
        <time>2021-06-11T18:31:21Z</time>
      </trkpt>
      <trkpt lat="45.61524" lon="3.27461">
        <ele>644</ele>
        <time>2021-06-11T18:31:43Z</time>
      </trkpt>
      <trkpt lat="45.61507" lon="3.27495">
        <ele>644</ele>
        <time>2021-06-11T18:31:48Z</time>
      </trkpt>
      <trkpt lat="45.61495" lon="3.27511">
        <ele>644</ele>
        <time>2021-06-11T18:31:51Z</time>
      </trkpt>
      <trkpt lat="45.61482" lon="3.27519">
        <ele>644</ele>
        <time>2021-06-11T18:31:53Z</time>
      </trkpt>
      <trkpt lat="45.61463" lon="3.2752">
        <ele>644</ele>
        <time>2021-06-11T18:31:57Z</time>
      </trkpt>
      <trkpt lat="45.61417" lon="3.27508">
        <ele>641</ele>
        <time>2021-06-11T18:32:05Z</time>
      </trkpt>
      <trkpt lat="45.61402" lon="3.27507">
        <ele>641</ele>
        <time>2021-06-11T18:32:08Z</time>
      </trkpt>
      <trkpt lat="45.61389" lon="3.27511">
        <ele>640</ele>
        <time>2021-06-11T18:32:10Z</time>
      </trkpt>
      <trkpt lat="45.61318" lon="3.27546">
        <ele>637</ele>
        <time>2021-06-11T18:32:23Z</time>
      </trkpt>
      <trkpt lat="45.61291" lon="3.27562">
        <ele>636</ele>
        <time>2021-06-11T18:32:29Z</time>
      </trkpt>
      <trkpt lat="45.61274" lon="3.27582">
        <ele>635</ele>
        <time>2021-06-11T18:32:33Z</time>
      </trkpt>
      <trkpt lat="45.61237" lon="3.2764">
        <ele>634</ele>
        <time>2021-06-11T18:32:42Z</time>
      </trkpt>
      <trkpt lat="45.61187" lon="3.277">
        <ele>632</ele>
        <time>2021-06-11T18:32:54Z</time>
      </trkpt>
      <trkpt lat="45.611" lon="3.27767">
        <ele>626</ele>
        <time>2021-06-11T18:33:12Z</time>
      </trkpt>
      <trkpt lat="45.6098" lon="3.27905">
        <ele>621</ele>
        <time>2021-06-11T18:33:39Z</time>
      </trkpt>
      <trkpt lat="45.60953" lon="3.27949">
        <ele>619</ele>
        <time>2021-06-11T18:33:46Z</time>
      </trkpt>
      <trkpt lat="45.60922" lon="3.28066">
        <ele>615</ele>
        <time>2021-06-11T18:34:02Z</time>
      </trkpt>
      <trkpt lat="45.60905" lon="3.28108">
        <ele>613</ele>
        <time>2021-06-11T18:34:08Z</time>
      </trkpt>
      <trkpt lat="45.60873" lon="3.28153">
        <ele>610</ele>
        <time>2021-06-11T18:34:16Z</time>
      </trkpt>
      <trkpt lat="45.60847" lon="3.282">
        <ele>609</ele>
        <time>2021-06-11T18:34:23Z</time>
      </trkpt>
      <trkpt lat="45.60814" lon="3.28282">
        <ele>607</ele>
        <time>2021-06-11T18:34:35Z</time>
      </trkpt>
      <trkpt lat="45.60791" lon="3.2835">
        <ele>606</ele>
        <time>2021-06-11T18:34:44Z</time>
      </trkpt>
      <trkpt lat="45.60741" lon="3.28387">
        <ele>605</ele>
        <time>2021-06-11T18:34:55Z</time>
      </trkpt>
      <trkpt lat="45.60716" lon="3.28393">
        <ele>604</ele>
        <time>2021-06-11T18:34:59Z</time>
      </trkpt>
      <trkpt lat="45.60686" lon="3.2839">
        <ele>602</ele>
        <time>2021-06-11T18:35:04Z</time>
      </trkpt>
      <trkpt lat="45.60631" lon="3.28415">
        <ele>602</ele>
        <time>2021-06-11T18:35:15Z</time>
      </trkpt>
      <trkpt lat="45.60595" lon="3.28413">
        <ele>600</ele>
        <time>2021-06-11T18:35:21Z</time>
      </trkpt>
      <trkpt lat="45.60541" lon="3.28382">
        <ele>595</ele>
        <time>2021-06-11T18:35:31Z</time>
      </trkpt>
      <trkpt lat="45.60519" lon="3.28377">
        <ele>594</ele>
        <time>2021-06-11T18:35:35Z</time>
      </trkpt>
      <trkpt lat="45.60457" lon="3.28379">
        <ele>591</ele>
        <time>2021-06-11T18:35:46Z</time>
      </trkpt>
      <trkpt lat="45.60417" lon="3.28393">
        <ele>590</ele>
        <time>2021-06-11T18:35:54Z</time>
      </trkpt>
      <trkpt lat="45.60347" lon="3.28444">
        <ele>587</ele>
        <time>2021-06-11T18:36:08Z</time>
      </trkpt>
      <trkpt lat="45.60294" lon="3.28521">
        <ele>587</ele>
        <time>2021-06-11T18:36:21Z</time>
      </trkpt>
      <trkpt lat="45.60241" lon="3.28895">
        <ele>578</ele>
        <time>2021-06-11T18:37:09Z</time>
      </trkpt>
      <trkpt lat="45.60231" lon="3.28928">
        <ele>577</ele>
        <time>2021-06-11T18:37:13Z</time>
      </trkpt>
      <trkpt lat="45.60181" lon="3.29034">
        <ele>572</ele>
        <time>2021-06-11T18:37:29Z</time>
      </trkpt>
      <trkpt lat="45.60167" lon="3.29097">
        <ele>568</ele>
        <time>2021-06-11T18:37:37Z</time>
      </trkpt>
      <trkpt lat="45.60165" lon="3.29138">
        <ele>566</ele>
        <time>2021-06-11T18:37:42Z</time>
      </trkpt>
      <trkpt lat="45.60168" lon="3.29173">
        <ele>565</ele>
        <time>2021-06-11T18:37:47Z</time>
      </trkpt>
      <trkpt lat="45.60173" lon="3.29206">
        <ele>564</ele>
        <time>2021-06-11T18:37:51Z</time>
      </trkpt>
      <trkpt lat="45.60174" lon="3.29226">
        <ele>564</ele>
        <time>2021-06-11T18:37:53Z</time>
      </trkpt>
      <trkpt lat="45.60172" lon="3.29252">
        <ele>563</ele>
        <time>2021-06-11T18:37:57Z</time>
      </trkpt>
      <trkpt lat="45.60151" lon="3.29338">
        <ele>559</ele>
        <time>2021-06-11T18:38:08Z</time>
      </trkpt>
      <trkpt lat="45.60147" lon="3.29453">
        <ele>557</ele>
        <time>2021-06-11T18:38:22Z</time>
      </trkpt>
      <trkpt lat="45.60141" lon="3.29496">
        <ele>555</ele>
        <time>2021-06-11T18:38:28Z</time>
      </trkpt>
      <trkpt lat="45.60115" lon="3.29553">
        <ele>552</ele>
        <time>2021-06-11T18:38:36Z</time>
      </trkpt>
      <trkpt lat="45.60087" lon="3.29603">
        <ele>551</ele>
        <time>2021-06-11T18:38:44Z</time>
      </trkpt>
      <trkpt lat="45.60072" lon="3.29612">
        <ele>550</ele>
        <time>2021-06-11T18:38:47Z</time>
      </trkpt>
      <trkpt lat="45.60014" lon="3.29596">
        <ele>547</ele>
        <time>2021-06-11T18:38:58Z</time>
      </trkpt>
      <trkpt lat="45.59996" lon="3.29593">
        <ele>546</ele>
        <time>2021-06-11T18:39:01Z</time>
      </trkpt>
      <trkpt lat="45.59983" lon="3.296">
        <ele>546</ele>
        <time>2021-06-11T18:39:03Z</time>
      </trkpt>
      <trkpt lat="45.59975" lon="3.29608">
        <ele>546</ele>
        <time>2021-06-11T18:39:05Z</time>
      </trkpt>
      <trkpt lat="45.59935" lon="3.29664">
        <ele>547</ele>
        <time>2021-06-11T18:39:15Z</time>
      </trkpt>
      <trkpt lat="45.59877" lon="3.29754">
        <ele>552</ele>
        <time>2021-06-11T18:39:30Z</time>
      </trkpt>
      <trkpt lat="45.59817" lon="3.29847">
        <ele>559</ele>
        <time>2021-06-11T18:39:46Z</time>
      </trkpt>
      <trkpt lat="45.59813" lon="3.29858">
        <ele>559</ele>
        <time>2021-06-11T18:39:48Z</time>
      </trkpt>
      <trkpt lat="45.59809" lon="3.29867">
        <ele>559</ele>
        <time>2021-06-11T18:39:49Z</time>
      </trkpt>
      <trkpt lat="45.59807" lon="3.29875">
        <ele>559</ele>
        <time>2021-06-11T18:39:50Z</time>
      </trkpt>
      <trkpt lat="45.5979" lon="3.29901">
        <ele>559</ele>
        <time>2021-06-11T18:39:54Z</time>
      </trkpt>
      <trkpt lat="45.59771" lon="3.2992">
        <ele>558</ele>
        <time>2021-06-11T18:39:59Z</time>
      </trkpt>
      <trkpt lat="45.59758" lon="3.29934">
        <ele>557</ele>
        <time>2021-06-11T18:40:01Z</time>
      </trkpt>
      <trkpt lat="45.59749" lon="3.29938">
        <ele>556</ele>
        <time>2021-06-11T18:40:03Z</time>
      </trkpt>
      <trkpt lat="45.5969" lon="3.29965">
        <ele>553</ele>
        <time>2021-06-11T18:40:14Z</time>
      </trkpt>
      <trkpt lat="45.5966" lon="3.29975">
        <ele>550</ele>
        <time>2021-06-11T18:40:20Z</time>
      </trkpt>
      <trkpt lat="45.5965" lon="3.29978">
        <ele>549</ele>
        <time>2021-06-11T18:40:21Z</time>
      </trkpt>
      <trkpt lat="45.59639" lon="3.29982">
        <ele>548</ele>
        <time>2021-06-11T18:40:23Z</time>
      </trkpt>
      <trkpt lat="45.59633" lon="3.29983">
        <ele>547</ele>
        <time>2021-06-11T18:40:25Z</time>
      </trkpt>
      <trkpt lat="45.59626" lon="3.29984">
        <ele>546</ele>
        <time>2021-06-11T18:40:26Z</time>
      </trkpt>
      <trkpt lat="45.59613" lon="3.29994">
        <ele>544</ele>
        <time>2021-06-11T18:40:28Z</time>
      </trkpt>
      <trkpt lat="45.59606" lon="3.30011">
        <ele>542</ele>
        <time>2021-06-11T18:40:31Z</time>
      </trkpt>
      <trkpt lat="45.59626" lon="3.30084">
        <ele>538</ele>
        <time>2021-06-11T18:40:41Z</time>
      </trkpt>
      <trkpt lat="45.59645" lon="3.30155">
        <ele>535</ele>
        <time>2021-06-11T18:40:50Z</time>
      </trkpt>
      <trkpt lat="45.59653" lon="3.30191">
        <ele>533</ele>
        <time>2021-06-11T18:40:55Z</time>
      </trkpt>
      <trkpt lat="45.59654" lon="3.3022">
        <ele>532</ele>
        <time>2021-06-11T18:40:58Z</time>
      </trkpt>
      <trkpt lat="45.59642" lon="3.3028">
        <ele>528</ele>
        <time>2021-06-11T18:41:06Z</time>
      </trkpt>
      <trkpt lat="45.59641" lon="3.30285">
        <ele>528</ele>
        <time>2021-06-11T18:41:07Z</time>
      </trkpt>
      <trkpt lat="45.59621" lon="3.30391">
        <ele>520</ele>
        <time>2021-06-11T18:41:21Z</time>
      </trkpt>
      <trkpt lat="45.59602" lon="3.30534">
        <ele>510</ele>
        <time>2021-06-11T18:41:39Z</time>
      </trkpt>
      <trkpt lat="45.59596" lon="3.3056">
        <ele>509</ele>
        <time>2021-06-11T18:41:42Z</time>
      </trkpt>
      <trkpt lat="45.59588" lon="3.30573">
        <ele>508</ele>
        <time>2021-06-11T18:41:44Z</time>
      </trkpt>
      <trkpt lat="45.59552" lon="3.30593">
        <ele>505</ele>
        <time>2021-06-11T18:41:51Z</time>
      </trkpt>
      <trkpt lat="45.59537" lon="3.30608">
        <ele>503</ele>
        <time>2021-06-11T18:41:54Z</time>
      </trkpt>
      <trkpt lat="45.5953" lon="3.30633">
        <ele>502</ele>
        <time>2021-06-11T18:41:58Z</time>
      </trkpt>
      <trkpt lat="45.59519" lon="3.30734">
        <ele>497</ele>
        <time>2021-06-11T18:42:10Z</time>
      </trkpt>
      <trkpt lat="45.59519" lon="3.30751">
        <ele>496</ele>
        <time>2021-06-11T18:42:13Z</time>
      </trkpt>
      <trkpt lat="45.59527" lon="3.30774">
        <ele>495</ele>
        <time>2021-06-11T18:42:16Z</time>
      </trkpt>
      <trkpt lat="45.59532" lon="3.3078">
        <ele>494</ele>
        <time>2021-06-11T18:42:17Z</time>
      </trkpt>
      <trkpt lat="45.59541" lon="3.30783">
        <ele>494</ele>
        <time>2021-06-11T18:42:19Z</time>
      </trkpt>
      <trkpt lat="45.59549" lon="3.30782">
        <ele>494</ele>
        <time>2021-06-11T18:42:20Z</time>
      </trkpt>
      <trkpt lat="45.59559" lon="3.30777">
        <ele>494</ele>
        <time>2021-06-11T18:42:22Z</time>
      </trkpt>
      <trkpt lat="45.5959" lon="3.30749">
        <ele>496</ele>
        <time>2021-06-11T18:42:28Z</time>
      </trkpt>
      <trkpt lat="45.59605" lon="3.30742">
        <ele>495</ele>
        <time>2021-06-11T18:42:31Z</time>
      </trkpt>
      <trkpt lat="45.59617" lon="3.3074">
        <ele>495</ele>
        <time>2021-06-11T18:42:33Z</time>
      </trkpt>
      <trkpt lat="45.5962" lon="3.3074">
        <ele>494</ele>
        <time>2021-06-11T18:42:34Z</time>
      </trkpt>
      <trkpt lat="45.5964" lon="3.30744">
        <ele>493</ele>
        <time>2021-06-11T18:42:37Z</time>
      </trkpt>
      <trkpt lat="45.5965" lon="3.30755">
        <ele>492</ele>
        <time>2021-06-11T18:42:40Z</time>
      </trkpt>
      <trkpt lat="45.59657" lon="3.30765">
        <ele>491</ele>
        <time>2021-06-11T18:42:41Z</time>
      </trkpt>
      <trkpt lat="45.59663" lon="3.30785">
        <ele>490</ele>
        <time>2021-06-11T18:42:44Z</time>
      </trkpt>
      <trkpt lat="45.59663" lon="3.30805">
        <ele>490</ele>
        <time>2021-06-11T18:42:47Z</time>
      </trkpt>
      <trkpt lat="45.59659" lon="3.30825">
        <ele>489</ele>
        <time>2021-06-11T18:42:49Z</time>
      </trkpt>
      <trkpt lat="45.59651" lon="3.30842">
        <ele>489</ele>
        <time>2021-06-11T18:42:52Z</time>
      </trkpt>
      <trkpt lat="45.59583" lon="3.30912">
        <ele>484</ele>
        <time>2021-06-11T18:43:07Z</time>
      </trkpt>
      <trkpt lat="45.59544" lon="3.30963">
        <ele>483</ele>
        <time>2021-06-11T18:43:16Z</time>
      </trkpt>
      <trkpt lat="45.59523" lon="3.30996">
        <ele>480</ele>
        <time>2021-06-11T18:43:22Z</time>
      </trkpt>
      <trkpt lat="45.59514" lon="3.31014">
        <ele>478</ele>
        <time>2021-06-11T18:43:24Z</time>
      </trkpt>
      <trkpt lat="45.59508" lon="3.31037">
        <ele>477</ele>
        <time>2021-06-11T18:43:27Z</time>
      </trkpt>
      <trkpt lat="45.59481" lon="3.31187">
        <ele>471</ele>
        <time>2021-06-11T18:43:47Z</time>
      </trkpt>
      <trkpt lat="45.59473" lon="3.31218">
        <ele>471</ele>
        <time>2021-06-11T18:43:51Z</time>
      </trkpt>
      <trkpt lat="45.59465" lon="3.31233">
        <ele>470</ele>
        <time>2021-06-11T18:43:53Z</time>
      </trkpt>
      <trkpt lat="45.59451" lon="3.31248">
        <ele>469</ele>
        <time>2021-06-11T18:43:56Z</time>
      </trkpt>
      <trkpt lat="45.59426" lon="3.31259">
        <ele>467</ele>
        <time>2021-06-11T18:44:01Z</time>
      </trkpt>
      <trkpt lat="45.59371" lon="3.31267">
        <ele>464</ele>
        <time>2021-06-11T18:44:11Z</time>
      </trkpt>
      <trkpt lat="45.59356" lon="3.31279">
        <ele>463</ele>
        <time>2021-06-11T18:44:14Z</time>
      </trkpt>
      <trkpt lat="45.59319" lon="3.3134">
        <ele>460</ele>
        <time>2021-06-11T18:44:24Z</time>
      </trkpt>
      <trkpt lat="45.59294" lon="3.31382">
        <ele>458</ele>
        <time>2021-06-11T18:44:31Z</time>
      </trkpt>
      <trkpt lat="45.59266" lon="3.31407">
        <ele>455</ele>
        <time>2021-06-11T18:44:37Z</time>
      </trkpt>
      <trkpt lat="45.5924" lon="3.31423">
        <ele>453</ele>
        <time>2021-06-11T18:44:42Z</time>
      </trkpt>
      <trkpt lat="45.59188" lon="3.31456">
        <ele>452</ele>
        <time>2021-06-11T18:44:52Z</time>
      </trkpt>
      <trkpt lat="45.59169" lon="3.31478">
        <ele>452</ele>
        <time>2021-06-11T18:44:56Z</time>
      </trkpt>
      <trkpt lat="45.59157" lon="3.31504">
        <ele>452</ele>
        <time>2021-06-11T18:45:00Z</time>
      </trkpt>
      <trkpt lat="45.5915" lon="3.31537">
        <ele>452</ele>
        <time>2021-06-11T18:45:04Z</time>
      </trkpt>
      <trkpt lat="45.59142" lon="3.31611">
        <ele>451</ele>
        <time>2021-06-11T18:45:14Z</time>
      </trkpt>
      <trkpt lat="45.59131" lon="3.3164">
        <ele>450</ele>
        <time>2021-06-11T18:45:18Z</time>
      </trkpt>
      <trkpt lat="45.59112" lon="3.31661">
        <ele>451</ele>
        <time>2021-06-11T18:45:22Z</time>
      </trkpt>
      <trkpt lat="45.5908" lon="3.31678">
        <ele>451</ele>
        <time>2021-06-11T18:45:28Z</time>
      </trkpt>
      <trkpt lat="45.59004" lon="3.31715">
        <ele>449</ele>
        <time>2021-06-11T18:45:42Z</time>
      </trkpt>
      <trkpt lat="45.58882" lon="3.31879">
        <ele>440</ele>
        <time>2021-06-11T18:46:12Z</time>
      </trkpt>
      <trkpt lat="45.5845" lon="3.32463">
        <ele>429</ele>
        <time>2021-06-11T18:47:58Z</time>
      </trkpt>
      <trkpt lat="45.58443" lon="3.32483">
        <ele>428</ele>
        <time>2021-06-11T18:48:01Z</time>
      </trkpt>
      <trkpt lat="45.58436" lon="3.32525">
        <ele>427</ele>
        <time>2021-06-11T18:48:06Z</time>
      </trkpt>
      <trkpt lat="45.58432" lon="3.32567">
        <ele>426</ele>
        <time>2021-06-11T18:48:11Z</time>
      </trkpt>
      <trkpt lat="45.58432" lon="3.32573">
        <ele>426</ele>
        <time>2021-06-11T18:48:12Z</time>
      </trkpt>
      <trkpt lat="45.58417" lon="3.3271">
        <ele>423</ele>
        <time>2021-06-11T18:48:30Z</time>
      </trkpt>
      <trkpt lat="45.58408" lon="3.32746">
        <ele>423</ele>
        <time>2021-06-11T18:48:34Z</time>
      </trkpt>
      <trkpt lat="45.58379" lon="3.32803">
        <ele>422</ele>
        <time>2021-06-11T18:48:43Z</time>
      </trkpt>
      <trkpt lat="45.58295" lon="3.32822">
        <ele>422</ele>
        <time>2021-06-11T18:48:58Z</time>
      </trkpt>
      <trkpt lat="45.58279" lon="3.32829">
        <ele>422</ele>
        <time>2021-06-11T18:49:01Z</time>
      </trkpt>
      <trkpt lat="45.58267" lon="3.32842">
        <ele>422</ele>
        <time>2021-06-11T18:49:04Z</time>
      </trkpt>
      <trkpt lat="45.5824" lon="3.32879">
        <ele>421</ele>
        <time>2021-06-11T18:49:10Z</time>
      </trkpt>
      <trkpt lat="45.58216" lon="3.32899">
        <ele>420</ele>
        <time>2021-06-11T18:49:15Z</time>
      </trkpt>
      <trkpt lat="45.58206" lon="3.32907">
        <ele>419</ele>
        <time>2021-06-11T18:49:17Z</time>
      </trkpt>
      <trkpt lat="45.58122" lon="3.32975">
        <ele>422</ele>
        <time>2021-06-11T18:49:35Z</time>
      </trkpt>
      <trkpt lat="45.581" lon="3.32976">
        <ele>423</ele>
        <time>2021-06-11T18:49:39Z</time>
      </trkpt>
      <trkpt lat="45.58069" lon="3.3294">
        <ele>420</ele>
        <time>2021-06-11T18:49:46Z</time>
      </trkpt>
      <trkpt lat="45.5803" lon="3.32916">
        <ele>416</ele>
        <time>2021-06-11T18:49:53Z</time>
      </trkpt>
      <trkpt lat="45.57951" lon="3.32885">
        <ele>416</ele>
        <time>2021-06-11T18:50:08Z</time>
      </trkpt>
      <trkpt lat="45.5788" lon="3.3292">
        <ele>413</ele>
        <time>2021-06-11T18:50:21Z</time>
      </trkpt>
      <trkpt lat="45.57863" lon="3.32915">
        <ele>412</ele>
        <time>2021-06-11T18:50:24Z</time>
      </trkpt>
      <trkpt lat="45.57818" lon="3.32873">
        <ele>412</ele>
        <time>2021-06-11T18:50:34Z</time>
      </trkpt>
      <trkpt lat="45.57785" lon="3.32864">
        <ele>410</ele>
        <time>2021-06-11T18:50:40Z</time>
      </trkpt>
      <trkpt lat="45.57766" lon="3.32872">
        <ele>409</ele>
        <time>2021-06-11T18:50:43Z</time>
      </trkpt>
      <trkpt lat="45.57729" lon="3.32954">
        <ele>407</ele>
        <time>2021-06-11T18:50:55Z</time>
      </trkpt>
      <trkpt lat="45.57717" lon="3.32971">
        <ele>407</ele>
        <time>2021-06-11T18:50:58Z</time>
      </trkpt>
      <trkpt lat="45.57695" lon="3.32983">
        <ele>405</ele>
        <time>2021-06-11T18:51:03Z</time>
      </trkpt>
      <trkpt lat="45.57662" lon="3.32981">
        <ele>402</ele>
        <time>2021-06-11T18:51:09Z</time>
      </trkpt>
      <trkpt lat="45.57654" lon="3.32979">
        <ele>403</ele>
        <time>2021-06-11T18:51:10Z</time>
      </trkpt>
      <trkpt lat="45.57635" lon="3.32975">
        <ele>406</ele>
        <time>2021-06-11T18:51:13Z</time>
      </trkpt>
      <trkpt lat="45.57619" lon="3.32977">
        <ele>409</ele>
        <time>2021-06-11T18:51:16Z</time>
      </trkpt>
      <trkpt lat="45.57603" lon="3.32993">
        <ele>412</ele>
        <time>2021-06-11T18:51:20Z</time>
      </trkpt>
      <trkpt lat="45.57582" lon="3.33069">
        <ele>411</ele>
        <time>2021-06-11T18:51:30Z</time>
      </trkpt>
      <trkpt lat="45.57552" lon="3.33124">
        <ele>415</ele>
        <time>2021-06-11T18:51:39Z</time>
      </trkpt>
      <trkpt lat="45.57535" lon="3.3316">
        <ele>416</ele>
        <time>2021-06-11T18:51:44Z</time>
      </trkpt>
      <trkpt lat="45.57535" lon="3.33198">
        <ele>413</ele>
        <time>2021-06-11T18:51:49Z</time>
      </trkpt>
      <trkpt lat="45.5754" lon="3.33239">
        <ele>408</ele>
        <time>2021-06-11T18:51:54Z</time>
      </trkpt>
      <trkpt lat="45.57539" lon="3.33265">
        <ele>406</ele>
        <time>2021-06-11T18:51:57Z</time>
      </trkpt>
      <trkpt lat="45.57531" lon="3.33305">
        <ele>406</ele>
        <time>2021-06-11T18:52:02Z</time>
      </trkpt>
      <trkpt lat="45.5753" lon="3.33343">
        <ele>405</ele>
        <time>2021-06-11T18:52:07Z</time>
      </trkpt>
      <trkpt lat="45.57535" lon="3.33374">
        <ele>404</ele>
        <time>2021-06-11T18:52:11Z</time>
      </trkpt>
      <trkpt lat="45.57549" lon="3.33438">
        <ele>403</ele>
        <time>2021-06-11T18:52:19Z</time>
      </trkpt>
      <trkpt lat="45.57616" lon="3.33716">
        <ele>407</ele>
        <time>2021-06-11T18:52:56Z</time>
      </trkpt>
      <trkpt lat="45.57619" lon="3.33756">
        <ele>409</ele>
        <time>2021-06-11T18:53:01Z</time>
      </trkpt>
      <trkpt lat="45.57582" lon="3.34169">
        <ele>418</ele>
        <time>2021-06-11T18:53:53Z</time>
      </trkpt>
      <trkpt lat="45.57573" lon="3.3422">
        <ele>419</ele>
        <time>2021-06-11T18:53:59Z</time>
      </trkpt>
      <trkpt lat="45.57561" lon="3.34243">
        <ele>420</ele>
        <time>2021-06-11T18:54:03Z</time>
      </trkpt>
      <trkpt lat="45.57218" lon="3.34706">
        <ele>431</ele>
        <time>2021-06-11T18:55:27Z</time>
      </trkpt>
      <trkpt lat="45.57175" lon="3.34757">
        <ele>434</ele>
        <time>2021-06-11T18:55:37Z</time>
      </trkpt>
      <trkpt lat="45.57138" lon="3.34776">
        <ele>437</ele>
        <time>2021-06-11T18:55:44Z</time>
      </trkpt>
      <trkpt lat="45.56895" lon="3.34867">
        <ele>452</ele>
        <time>2021-06-11T18:56:29Z</time>
      </trkpt>
      <trkpt lat="45.56866" lon="3.34884">
        <ele>453</ele>
        <time>2021-06-11T18:56:34Z</time>
      </trkpt>
      <trkpt lat="45.56787" lon="3.34958">
        <ele>458</ele>
        <time>2021-06-11T18:56:51Z</time>
      </trkpt>
      <trkpt lat="45.56505" lon="3.35231">
        <ele>472</ele>
        <time>2021-06-11T18:57:52Z</time>
      </trkpt>
      <trkpt lat="45.56462" lon="3.35271">
        <ele>475</ele>
        <time>2021-06-11T18:58:01Z</time>
      </trkpt>
      <trkpt lat="45.56216" lon="3.35459">
        <ele>480</ele>
        <time>2021-06-11T18:58:50Z</time>
      </trkpt>
      <trkpt lat="45.56093" lon="3.35549">
        <ele>479</ele>
        <time>2021-06-11T18:59:15Z</time>
      </trkpt>
      <trkpt lat="45.56064" lon="3.35575">
        <ele>477</ele>
        <time>2021-06-11T18:59:21Z</time>
      </trkpt>
      <trkpt lat="45.56057" lon="3.35588">
        <ele>477</ele>
        <time>2021-06-11T18:59:23Z</time>
      </trkpt>
      <trkpt lat="45.56045" lon="3.35646">
        <ele>476</ele>
        <time>2021-06-11T18:59:31Z</time>
      </trkpt>
      <trkpt lat="45.56037" lon="3.35702">
        <ele>474</ele>
        <time>2021-06-11T18:59:38Z</time>
      </trkpt>
      <trkpt lat="45.5603" lon="3.35738">
        <ele>472</ele>
        <time>2021-06-11T18:59:42Z</time>
      </trkpt>
      <trkpt lat="45.56009" lon="3.3579">
        <ele>469</ele>
        <time>2021-06-11T18:59:50Z</time>
      </trkpt>
      <trkpt lat="45.55977" lon="3.3585">
        <ele>467</ele>
        <time>2021-06-11T18:59:59Z</time>
      </trkpt>
      <trkpt lat="45.55955" lon="3.35874">
        <ele>467</ele>
        <time>2021-06-11T19:00:04Z</time>
      </trkpt>
      <trkpt lat="45.5592" lon="3.35903">
        <ele>466</ele>
        <time>2021-06-11T19:00:11Z</time>
      </trkpt>
      <trkpt lat="45.55879" lon="3.35955">
        <ele>465</ele>
        <time>2021-06-11T19:00:21Z</time>
      </trkpt>
      <trkpt lat="45.55858" lon="3.36003">
        <ele>463</ele>
        <time>2021-06-11T19:00:28Z</time>
      </trkpt>
      <trkpt lat="45.55847" lon="3.36041">
        <ele>461</ele>
        <time>2021-06-11T19:00:33Z</time>
      </trkpt>
      <trkpt lat="45.55845" lon="3.36077">
        <ele>460</ele>
        <time>2021-06-11T19:00:38Z</time>
      </trkpt>
      <trkpt lat="45.55849" lon="3.36125">
        <ele>459</ele>
        <time>2021-06-11T19:00:44Z</time>
      </trkpt>
      <trkpt lat="45.55845" lon="3.3617">
        <ele>458</ele>
        <time>2021-06-11T19:00:50Z</time>
      </trkpt>
      <trkpt lat="45.55825" lon="3.3624">
        <ele>455</ele>
        <time>2021-06-11T19:00:59Z</time>
      </trkpt>
      <trkpt lat="45.55808" lon="3.36279">
        <ele>454</ele>
        <time>2021-06-11T19:01:05Z</time>
      </trkpt>
      <trkpt lat="45.55785" lon="3.36307">
        <ele>453</ele>
        <time>2021-06-11T19:01:10Z</time>
      </trkpt>
      <trkpt lat="45.55746" lon="3.36336">
        <ele>452</ele>
        <time>2021-06-11T19:01:18Z</time>
      </trkpt>
      <trkpt lat="45.55666" lon="3.36392">
        <ele>449</ele>
        <time>2021-06-11T19:01:34Z</time>
      </trkpt>
      <trkpt lat="45.55596" lon="3.36431">
        <ele>448</ele>
        <time>2021-06-11T19:01:47Z</time>
      </trkpt>
      <trkpt lat="45.55561" lon="3.36455">
        <ele>448</ele>
        <time>2021-06-11T19:01:54Z</time>
      </trkpt>
      <trkpt lat="45.55475" lon="3.36546">
        <ele>447</ele>
        <time>2021-06-11T19:02:13Z</time>
      </trkpt>
      <trkpt lat="45.5547" lon="3.36548">
        <ele>447</ele>
        <time>2021-06-11T19:02:14Z</time>
      </trkpt>
      <trkpt lat="45.55442" lon="3.36557">
        <ele>446</ele>
        <time>2021-06-11T19:02:19Z</time>
      </trkpt>
      <trkpt lat="45.55407" lon="3.36562">
        <ele>446</ele>
        <time>2021-06-11T19:02:25Z</time>
      </trkpt>
      <trkpt lat="45.55393" lon="3.36564">
        <ele>446</ele>
        <time>2021-06-11T19:02:28Z</time>
      </trkpt>
      <trkpt lat="45.5536" lon="3.36555">
        <ele>448</ele>
        <time>2021-06-11T19:02:34Z</time>
      </trkpt>
      <trkpt lat="45.55317" lon="3.36552">
        <ele>450</ele>
        <time>2021-06-11T19:02:41Z</time>
      </trkpt>
      <trkpt lat="45.55312" lon="3.36551">
        <ele>450</ele>
        <time>2021-06-11T19:02:42Z</time>
      </trkpt>
      <trkpt lat="45.55281" lon="3.36547">
        <ele>451</ele>
        <time>2021-06-11T19:02:48Z</time>
      </trkpt>
      <trkpt lat="45.5522" lon="3.3655">
        <ele>455</ele>
        <time>2021-06-11T19:02:59Z</time>
      </trkpt>
      <trkpt lat="45.55207" lon="3.36558">
        <ele>456</ele>
        <time>2021-06-11T19:03:01Z</time>
      </trkpt>
      <trkpt lat="45.55195" lon="3.36572">
        <ele>457</ele>
        <time>2021-06-11T19:03:04Z</time>
      </trkpt>
      <trkpt lat="45.55174" lon="3.36626">
        <ele>457</ele>
        <time>2021-06-11T19:03:12Z</time>
      </trkpt>
      <trkpt lat="45.55096" lon="3.3683">
        <ele>451</ele>
        <time>2021-06-11T19:03:41Z</time>
      </trkpt>
      <trkpt lat="45.55088" lon="3.36849">
        <ele>451</ele>
        <time>2021-06-11T19:03:43Z</time>
      </trkpt>
      <trkpt lat="45.55075" lon="3.36876">
        <ele>450</ele>
        <time>2021-06-11T19:03:48Z</time>
      </trkpt>
      <trkpt lat="45.5504" lon="3.3706">
        <ele>448</ele>
        <time>2021-06-11T19:04:11Z</time>
      </trkpt>
      <trkpt lat="45.55044" lon="3.37082">
        <ele>448</ele>
        <time>2021-06-11T19:04:14Z</time>
      </trkpt>
      <trkpt lat="45.55061" lon="3.37117">
        <ele>450</ele>
        <time>2021-06-11T19:04:19Z</time>
      </trkpt>
      <trkpt lat="45.55098" lon="3.37209">
        <ele>455</ele>
        <time>2021-06-11T19:04:33Z</time>
      </trkpt>
      <trkpt lat="45.5511" lon="3.37244">
        <ele>456</ele>
        <time>2021-06-11T19:04:38Z</time>
      </trkpt>
      <trkpt lat="45.55118" lon="3.3726">
        <ele>456</ele>
        <time>2021-06-11T19:04:40Z</time>
      </trkpt>
      <trkpt lat="45.55119" lon="3.37264">
        <ele>456</ele>
        <time>2021-06-11T19:04:40Z</time>
      </trkpt>
      <trkpt lat="45.55131" lon="3.37315">
        <ele>458</ele>
        <time>2021-06-11T19:04:47Z</time>
      </trkpt>
      <trkpt lat="45.55144" lon="3.37367">
        <ele>460</ele>
        <time>2021-06-11T19:04:54Z</time>
      </trkpt>
      <trkpt lat="45.55148" lon="3.37385">
        <ele>460</ele>
        <time>2021-06-11T19:04:56Z</time>
      </trkpt>
      <trkpt lat="45.55153" lon="3.37403">
        <ele>461</ele>
        <time>2021-06-11T19:04:59Z</time>
      </trkpt>
      <trkpt lat="45.55176" lon="3.37491">
        <ele>463</ele>
        <time>2021-06-11T19:05:11Z</time>
      </trkpt>
      <trkpt lat="45.55193" lon="3.37559">
        <ele>463</ele>
        <time>2021-06-11T19:05:20Z</time>
      </trkpt>
      <trkpt lat="45.55199" lon="3.37581">
        <ele>463</ele>
        <time>2021-06-11T19:05:22Z</time>
      </trkpt>
      <trkpt lat="45.55226" lon="3.37689">
        <ele>467</ele>
        <time>2021-06-11T19:05:37Z</time>
      </trkpt>
      <trkpt lat="45.55225" lon="3.37714">
        <ele>467</ele>
        <time>2021-06-11T19:05:40Z</time>
      </trkpt>
      <trkpt lat="45.55196" lon="3.37932">
        <ele>468</ele>
        <time>2021-06-11T19:06:08Z</time>
      </trkpt>
      <trkpt lat="45.55195" lon="3.37935">
        <ele>468</ele>
        <time>2021-06-11T19:06:08Z</time>
      </trkpt>
      <trkpt lat="45.55187" lon="3.37993">
        <ele>469</ele>
        <time>2021-06-11T19:06:15Z</time>
      </trkpt>
      <trkpt lat="45.55152" lon="3.38022">
        <ele>466</ele>
        <time>2021-06-11T19:06:23Z</time>
      </trkpt>
      <trkpt lat="45.55125" lon="3.38049">
        <ele>463</ele>
        <time>2021-06-11T19:06:28Z</time>
      </trkpt>
      <trkpt lat="45.55119" lon="3.38064">
        <ele>463</ele>
        <time>2021-06-11T19:06:31Z</time>
      </trkpt>
      <trkpt lat="45.55118" lon="3.38092">
        <ele>463</ele>
        <time>2021-06-11T19:06:34Z</time>
      </trkpt>
      <trkpt lat="45.55127" lon="3.3811">
        <ele>462</ele>
        <time>2021-06-11T19:06:37Z</time>
      </trkpt>
      <trkpt lat="45.55152" lon="3.38141">
        <ele>463</ele>
        <time>2021-06-11T19:06:43Z</time>
      </trkpt>
      <trkpt lat="45.55167" lon="3.38174">
        <ele>462</ele>
        <time>2021-06-11T19:06:48Z</time>
      </trkpt>
      <trkpt lat="45.55184" lon="3.38221">
        <ele>464</ele>
        <time>2021-06-11T19:06:54Z</time>
      </trkpt>
      <trkpt lat="45.55186" lon="3.38235">
        <ele>464</ele>
        <time>2021-06-11T19:06:56Z</time>
      </trkpt>
      <trkpt lat="45.55185" lon="3.3824">
        <ele>463</ele>
        <time>2021-06-11T19:06:57Z</time>
      </trkpt>
      <trkpt lat="45.55185" lon="3.38245">
        <ele>463</ele>
        <time>2021-06-11T19:06:57Z</time>
      </trkpt>
      <trkpt lat="45.5518" lon="3.38258">
        <ele>462</ele>
        <time>2021-06-11T19:06:59Z</time>
      </trkpt>
      <trkpt lat="45.55178" lon="3.38262">
        <ele>461</ele>
        <time>2021-06-11T19:07:00Z</time>
      </trkpt>
      <trkpt lat="45.55175" lon="3.38266">
        <ele>461</ele>
        <time>2021-06-11T19:07:00Z</time>
      </trkpt>
      <trkpt lat="45.55165" lon="3.38279">
        <ele>459</ele>
        <time>2021-06-11T19:07:03Z</time>
      </trkpt>
      <trkpt lat="45.55161" lon="3.38286">
        <ele>459</ele>
        <time>2021-06-11T19:07:04Z</time>
      </trkpt>
      <trkpt lat="45.55158" lon="3.38294">
        <ele>459</ele>
        <time>2021-06-11T19:07:05Z</time>
      </trkpt>
      <trkpt lat="45.55157" lon="3.38302">
        <ele>459</ele>
        <time>2021-06-11T19:07:06Z</time>
      </trkpt>
      <trkpt lat="45.55155" lon="3.38324">
        <ele>458</ele>
        <time>2021-06-11T19:07:09Z</time>
      </trkpt>
      <trkpt lat="45.55149" lon="3.38392">
        <ele>459</ele>
        <time>2021-06-11T19:07:17Z</time>
      </trkpt>
      <trkpt lat="45.55138" lon="3.38425">
        <ele>461</ele>
        <time>2021-06-11T19:07:22Z</time>
      </trkpt>
      <trkpt lat="45.55129" lon="3.38439">
        <ele>462</ele>
        <time>2021-06-11T19:07:24Z</time>
      </trkpt>
      <trkpt lat="45.55116" lon="3.38459">
        <ele>463</ele>
        <time>2021-06-11T19:07:28Z</time>
      </trkpt>
      <trkpt lat="45.55102" lon="3.38488">
        <ele>465</ele>
        <time>2021-06-11T19:07:32Z</time>
      </trkpt>
      <trkpt lat="45.55095" lon="3.38502">
        <ele>466</ele>
        <time>2021-06-11T19:07:34Z</time>
      </trkpt>
      <trkpt lat="45.55074" lon="3.38563">
        <ele>474</ele>
        <time>2021-06-11T19:07:43Z</time>
      </trkpt>
      <trkpt lat="45.55047" lon="3.38636">
        <ele>478</ele>
        <time>2021-06-11T19:07:53Z</time>
      </trkpt>
      <trkpt lat="45.55008" lon="3.38742">
        <ele>475</ele>
        <time>2021-06-11T19:08:08Z</time>
      </trkpt>
      <trkpt lat="45.54945" lon="3.38922">
        <ele>486</ele>
        <time>2021-06-11T19:08:33Z</time>
      </trkpt>
      <trkpt lat="45.5492" lon="3.38977">
        <ele>486</ele>
        <time>2021-06-11T19:08:41Z</time>
      </trkpt>
      <trkpt lat="45.54909" lon="3.39002">
        <ele>487</ele>
        <time>2021-06-11T19:08:45Z</time>
      </trkpt>
      <trkpt lat="45.54872" lon="3.39065">
        <ele>490</ele>
        <time>2021-06-11T19:08:55Z</time>
      </trkpt>
      <trkpt lat="45.5484" lon="3.39087">
        <ele>486</ele>
        <time>2021-06-11T19:09:01Z</time>
      </trkpt>
      <trkpt lat="45.54745" lon="3.3915">
        <ele>490</ele>
        <time>2021-06-11T19:09:20Z</time>
      </trkpt>
      <trkpt lat="45.54681" lon="3.39177">
        <ele>490</ele>
        <time>2021-06-11T19:09:32Z</time>
      </trkpt>
      <trkpt lat="45.54624" lon="3.39179">
        <ele>489</ele>
        <time>2021-06-11T19:09:42Z</time>
      </trkpt>
      <trkpt lat="45.54594" lon="3.39202">
        <ele>493</ele>
        <time>2021-06-11T19:09:48Z</time>
      </trkpt>
      <trkpt lat="45.54559" lon="3.3922">
        <ele>498</ele>
        <time>2021-06-11T19:09:55Z</time>
      </trkpt>
      <trkpt lat="45.54507" lon="3.39216">
        <ele>501</ele>
        <time>2021-06-11T19:10:04Z</time>
      </trkpt>
      <trkpt lat="45.54385" lon="3.39224">
        <ele>503</ele>
        <time>2021-06-11T19:10:26Z</time>
      </trkpt>
      <trkpt lat="45.54261" lon="3.3925">
        <ele>506</ele>
        <time>2021-06-11T19:10:48Z</time>
      </trkpt>
      <trkpt lat="45.54207" lon="3.39261">
        <ele>509</ele>
        <time>2021-06-11T19:10:58Z</time>
      </trkpt>
      <trkpt lat="45.54106" lon="3.3928">
        <ele>516</ele>
        <time>2021-06-11T19:11:16Z</time>
      </trkpt>
      <trkpt lat="45.5396" lon="3.39182">
        <ele>513</ele>
        <time>2021-06-11T19:11:45Z</time>
      </trkpt>
      <trkpt lat="45.53875" lon="3.39129">
        <ele>518</ele>
        <time>2021-06-11T19:12:01Z</time>
      </trkpt>
      <trkpt lat="45.53833" lon="3.39122">
        <ele>520</ele>
        <time>2021-06-11T19:12:09Z</time>
      </trkpt>
      <trkpt lat="45.53813" lon="3.39144">
        <ele>520</ele>
        <time>2021-06-11T19:12:13Z</time>
      </trkpt>
      <trkpt lat="45.53778" lon="3.39241">
        <ele>520</ele>
        <time>2021-06-11T19:12:27Z</time>
      </trkpt>
      <trkpt lat="45.53754" lon="3.3929">
        <ele>518</ele>
        <time>2021-06-11T19:12:34Z</time>
      </trkpt>
      <trkpt lat="45.53718" lon="3.39339">
        <ele>521</ele>
        <time>2021-06-11T19:12:43Z</time>
      </trkpt>
      <trkpt lat="45.53653" lon="3.39476">
        <ele>523</ele>
        <time>2021-06-11T19:13:04Z</time>
      </trkpt>
      <trkpt lat="45.53673" lon="3.39573">
        <ele>520</ele>
        <time>2021-06-11T19:13:16Z</time>
      </trkpt>
      <trkpt lat="45.53671" lon="3.39596">
        <ele>519</ele>
        <time>2021-06-11T19:13:19Z</time>
      </trkpt>
      <trkpt lat="45.53666" lon="3.39621">
        <ele>517</ele>
        <time>2021-06-11T19:13:22Z</time>
      </trkpt>
      <trkpt lat="45.53655" lon="3.3965">
        <ele>519</ele>
        <time>2021-06-11T19:13:26Z</time>
      </trkpt>
      <trkpt lat="45.53645" lon="3.39678">
        <ele>523</ele>
        <time>2021-06-11T19:13:30Z</time>
      </trkpt>
      <trkpt lat="45.53626" lon="3.3972">
        <ele>527</ele>
        <time>2021-06-11T19:13:37Z</time>
      </trkpt>
      <trkpt lat="45.53602" lon="3.39759">
        <ele>525</ele>
        <time>2021-06-11T19:13:43Z</time>
      </trkpt>
      <trkpt lat="45.53592" lon="3.39782">
        <ele>524</ele>
        <time>2021-06-11T19:13:46Z</time>
      </trkpt>
      <trkpt lat="45.53579" lon="3.39855">
        <ele>530</ele>
        <time>2021-06-11T19:13:56Z</time>
      </trkpt>
      <trkpt lat="45.53568" lon="3.39891">
        <ele>537</ele>
        <time>2021-06-11T19:14:01Z</time>
      </trkpt>
      <trkpt lat="45.53547" lon="3.39945">
        <ele>544</ele>
        <time>2021-06-11T19:14:08Z</time>
      </trkpt>
      <trkpt lat="45.53527" lon="3.40052">
        <ele>545</ele>
        <time>2021-06-11T19:14:22Z</time>
      </trkpt>
      <trkpt lat="45.53483" lon="3.40137">
        <ele>547</ele>
        <time>2021-06-11T19:14:35Z</time>
      </trkpt>
      <trkpt lat="45.53474" lon="3.40176">
        <ele>548</ele>
        <time>2021-06-11T19:14:41Z</time>
      </trkpt>
      <trkpt lat="45.53489" lon="3.40245">
        <ele>551</ele>
        <time>2021-06-11T19:14:50Z</time>
      </trkpt>
      <trkpt lat="45.53489" lon="3.40264">
        <ele>553</ele>
        <time>2021-06-11T19:14:52Z</time>
      </trkpt>
      <trkpt lat="45.53478" lon="3.4029">
        <ele>556</ele>
        <time>2021-06-11T19:14:56Z</time>
      </trkpt>
      <trkpt lat="45.53459" lon="3.40303">
        <ele>556</ele>
        <time>2021-06-11T19:14:59Z</time>
      </trkpt>
      <trkpt lat="45.53383" lon="3.40274">
        <ele>550</ele>
        <time>2021-06-11T19:15:13Z</time>
      </trkpt>
      <trkpt lat="45.53363" lon="3.40281">
        <ele>553</ele>
        <time>2021-06-11T19:15:17Z</time>
      </trkpt>
      <trkpt lat="45.53347" lon="3.40296">
        <ele>555</ele>
        <time>2021-06-11T19:15:20Z</time>
      </trkpt>
      <trkpt lat="45.53343" lon="3.40323">
        <ele>555</ele>
        <time>2021-06-11T19:15:24Z</time>
      </trkpt>
      <trkpt lat="45.53355" lon="3.4038">
        <ele>558</ele>
        <time>2021-06-11T19:15:31Z</time>
      </trkpt>
      <trkpt lat="45.53353" lon="3.4041">
        <ele>560</ele>
        <time>2021-06-11T19:15:35Z</time>
      </trkpt>
      <trkpt lat="45.5334" lon="3.40434">
        <ele>559</ele>
        <time>2021-06-11T19:15:39Z</time>
      </trkpt>
      <trkpt lat="45.53303" lon="3.40473">
        <ele>565</ele>
        <time>2021-06-11T19:15:47Z</time>
      </trkpt>
      <trkpt lat="45.53286" lon="3.40511">
        <ele>566</ele>
        <time>2021-06-11T19:15:53Z</time>
      </trkpt>
      <trkpt lat="45.53266" lon="3.40572">
        <ele>564</ele>
        <time>2021-06-11T19:16:01Z</time>
      </trkpt>
      <trkpt lat="45.53268" lon="3.40602">
        <ele>565</ele>
        <time>2021-06-11T19:16:05Z</time>
      </trkpt>
      <trkpt lat="45.53282" lon="3.40642">
        <ele>567</ele>
        <time>2021-06-11T19:16:10Z</time>
      </trkpt>
      <trkpt lat="45.53306" lon="3.40685">
        <ele>565</ele>
        <time>2021-06-11T19:16:17Z</time>
      </trkpt>
      <trkpt lat="45.53322" lon="3.40703">
        <ele>561</ele>
        <time>2021-06-11T19:16:21Z</time>
      </trkpt>
      <trkpt lat="45.53341" lon="3.40715">
        <ele>558</ele>
        <time>2021-06-11T19:16:25Z</time>
      </trkpt>
      <trkpt lat="45.53393" lon="3.40726">
        <ele>560</ele>
        <time>2021-06-11T19:16:34Z</time>
      </trkpt>
      <trkpt lat="45.53485" lon="3.4072">
        <ele>567</ele>
        <time>2021-06-11T19:16:50Z</time>
      </trkpt>
      <trkpt lat="45.5351" lon="3.40753">
        <ele>563</ele>
        <time>2021-06-11T19:16:56Z</time>
      </trkpt>
      <trkpt lat="45.53516" lon="3.40782">
        <ele>563</ele>
        <time>2021-06-11T19:17:00Z</time>
      </trkpt>
      <trkpt lat="45.53521" lon="3.40822">
        <ele>561</ele>
        <time>2021-06-11T19:17:05Z</time>
      </trkpt>
      <trkpt lat="45.53514" lon="3.40903">
        <ele>566</ele>
        <time>2021-06-11T19:17:15Z</time>
      </trkpt>
      <trkpt lat="45.53511" lon="3.41004">
        <ele>574</ele>
        <time>2021-06-11T19:17:28Z</time>
      </trkpt>
      <trkpt lat="45.535" lon="3.41105">
        <ele>579</ele>
        <time>2021-06-11T19:17:41Z</time>
      </trkpt>
      <trkpt lat="45.53505" lon="3.41132">
        <ele>580</ele>
        <time>2021-06-11T19:17:44Z</time>
      </trkpt>
      <trkpt lat="45.53547" lon="3.41158">
        <ele>584</ele>
        <time>2021-06-11T19:17:52Z</time>
      </trkpt>
      <trkpt lat="45.53558" lon="3.41181">
        <ele>585</ele>
        <time>2021-06-11T19:17:56Z</time>
      </trkpt>
      <trkpt lat="45.5356" lon="3.41254">
        <ele>586</ele>
        <time>2021-06-11T19:18:05Z</time>
      </trkpt>
      <trkpt lat="45.53567" lon="3.41356">
        <ele>589</ele>
        <time>2021-06-11T19:18:18Z</time>
      </trkpt>
      <trkpt lat="45.53545" lon="3.41494">
        <ele>595</ele>
        <time>2021-06-11T19:18:35Z</time>
      </trkpt>
      <trkpt lat="45.53546" lon="3.41563">
        <ele>596</ele>
        <time>2021-06-11T19:18:44Z</time>
      </trkpt>
      <trkpt lat="45.53568" lon="3.41647">
        <ele>593</ele>
        <time>2021-06-11T19:18:55Z</time>
      </trkpt>
      <trkpt lat="45.53593" lon="3.4168">
        <ele>592</ele>
        <time>2021-06-11T19:19:01Z</time>
      </trkpt>
      <trkpt lat="45.53653" lon="3.41682">
        <ele>596</ele>
        <time>2021-06-11T19:19:12Z</time>
      </trkpt>
      <trkpt lat="45.5367" lon="3.41703">
        <ele>596</ele>
        <time>2021-06-11T19:19:16Z</time>
      </trkpt>
      <trkpt lat="45.53678" lon="3.41734">
        <ele>596</ele>
        <time>2021-06-11T19:19:20Z</time>
      </trkpt>
      <trkpt lat="45.53676" lon="3.41762">
        <ele>594</ele>
        <time>2021-06-11T19:19:23Z</time>
      </trkpt>
      <trkpt lat="45.53639" lon="3.41874">
        <ele>608</ele>
        <time>2021-06-11T19:19:39Z</time>
      </trkpt>
      <trkpt lat="45.53637" lon="3.41941">
        <ele>609</ele>
        <time>2021-06-11T19:19:47Z</time>
      </trkpt>
      <trkpt lat="45.53655" lon="3.41996">
        <ele>603</ele>
        <time>2021-06-11T19:19:55Z</time>
      </trkpt>
      <trkpt lat="45.53735" lon="3.421">
        <ele>605</ele>
        <time>2021-06-11T19:20:14Z</time>
      </trkpt>
      <trkpt lat="45.53795" lon="3.42151">
        <ele>605</ele>
        <time>2021-06-11T19:20:27Z</time>
      </trkpt>
      <trkpt lat="45.53855" lon="3.4216">
        <ele>609</ele>
        <time>2021-06-11T19:20:37Z</time>
      </trkpt>
      <trkpt lat="45.53883" lon="3.42173">
        <ele>615</ele>
        <time>2021-06-11T19:20:42Z</time>
      </trkpt>
      <trkpt lat="45.53901" lon="3.4221">
        <ele>616</ele>
        <time>2021-06-11T19:20:48Z</time>
      </trkpt>
      <trkpt lat="45.53896" lon="3.42268">
        <ele>615</ele>
        <time>2021-06-11T19:20:55Z</time>
      </trkpt>
      <trkpt lat="45.53831" lon="3.42444">
        <ele>615</ele>
        <time>2021-06-11T19:21:20Z</time>
      </trkpt>
      <trkpt lat="45.53822" lon="3.42483">
        <ele>618</ele>
        <time>2021-06-11T19:21:25Z</time>
      </trkpt>
      <trkpt lat="45.53826" lon="3.42513">
        <ele>619</ele>
        <time>2021-06-11T19:21:29Z</time>
      </trkpt>
      <trkpt lat="45.53843" lon="3.42524">
        <ele>620</ele>
        <time>2021-06-11T19:21:32Z</time>
      </trkpt>
      <trkpt lat="45.53896" lon="3.42511">
        <ele>625</ele>
        <time>2021-06-11T19:21:42Z</time>
      </trkpt>
      <trkpt lat="45.53912" lon="3.42524">
        <ele>627</ele>
        <time>2021-06-11T19:21:45Z</time>
      </trkpt>
      <trkpt lat="45.53923" lon="3.42559">
        <ele>626</ele>
        <time>2021-06-11T19:21:50Z</time>
      </trkpt>
      <trkpt lat="45.53956" lon="3.42645">
        <ele>637</ele>
        <time>2021-06-11T19:22:02Z</time>
      </trkpt>
      <trkpt lat="45.53957" lon="3.4268">
        <ele>640</ele>
        <time>2021-06-11T19:22:07Z</time>
      </trkpt>
      <trkpt lat="45.53947" lon="3.42733">
        <ele>643</ele>
        <time>2021-06-11T19:22:13Z</time>
      </trkpt>
      <trkpt lat="45.53888" lon="3.42883">
        <ele>650</ele>
        <time>2021-06-11T19:22:35Z</time>
      </trkpt>
      <trkpt lat="45.53857" lon="3.42908">
        <ele>647</ele>
        <time>2021-06-11T19:22:41Z</time>
      </trkpt>
      <trkpt lat="45.53842" lon="3.42931">
        <ele>644</ele>
        <time>2021-06-11T19:22:45Z</time>
      </trkpt>
      <trkpt lat="45.53835" lon="3.42958">
        <ele>642</ele>
        <time>2021-06-11T19:22:49Z</time>
      </trkpt>
      <trkpt lat="45.5384" lon="3.43011">
        <ele>645</ele>
        <time>2021-06-11T19:22:55Z</time>
      </trkpt>
      <trkpt lat="45.53835" lon="3.4303">
        <ele>647</ele>
        <time>2021-06-11T19:22:58Z</time>
      </trkpt>
      <trkpt lat="45.53818" lon="3.43042">
        <ele>648</ele>
        <time>2021-06-11T19:23:01Z</time>
      </trkpt>
      <trkpt lat="45.53806" lon="3.43047">
        <ele>648</ele>
        <time>2021-06-11T19:23:04Z</time>
      </trkpt>
      <trkpt lat="45.53818" lon="3.43042">
        <ele>648</ele>
        <time>2021-06-11T19:23:06Z</time>
      </trkpt>
      <trkpt lat="45.53793" lon="3.43029">
        <ele>645</ele>
        <time>2021-06-11T19:23:11Z</time>
      </trkpt>
      <trkpt lat="45.53763" lon="3.43021">
        <ele>643</ele>
        <time>2021-06-11T19:23:16Z</time>
      </trkpt>
      <trkpt lat="45.53739" lon="3.4303">
        <ele>646</ele>
        <time>2021-06-11T19:23:20Z</time>
      </trkpt>
      <trkpt lat="45.53725" lon="3.43049">
        <ele>648</ele>
        <time>2021-06-11T19:23:24Z</time>
      </trkpt>
      <trkpt lat="45.53732" lon="3.43125">
        <ele>649</ele>
        <time>2021-06-11T19:23:33Z</time>
      </trkpt>
      <trkpt lat="45.53728" lon="3.43155">
        <ele>653</ele>
        <time>2021-06-11T19:23:37Z</time>
      </trkpt>
      <trkpt lat="45.53712" lon="3.43171">
        <ele>653</ele>
        <time>2021-06-11T19:23:41Z</time>
      </trkpt>
      <trkpt lat="45.53671" lon="3.43186">
        <ele>650</ele>
        <time>2021-06-11T19:23:48Z</time>
      </trkpt>
      <trkpt lat="45.5362" lon="3.43211">
        <ele>655</ele>
        <time>2021-06-11T19:23:58Z</time>
      </trkpt>
      <trkpt lat="45.53618" lon="3.43204">
        <ele>655</ele>
        <time>2021-06-11T19:23:59Z</time>
      </trkpt>
      <trkpt lat="45.53613" lon="3.43196">
        <ele>655</ele>
        <time>2021-06-11T19:24:00Z</time>
      </trkpt>
      <trkpt lat="45.53603" lon="3.43184">
        <ele>656</ele>
        <time>2021-06-11T19:24:02Z</time>
      </trkpt>
      <trkpt lat="45.53597" lon="3.43184">
        <ele>657</ele>
        <time>2021-06-11T19:24:03Z</time>
      </trkpt>
      <trkpt lat="45.53591" lon="3.43187">
        <ele>657</ele>
        <time>2021-06-11T19:24:05Z</time>
      </trkpt>
      <trkpt lat="45.53582" lon="3.43198">
        <ele>657</ele>
        <time>2021-06-11T19:24:07Z</time>
      </trkpt>
      <trkpt lat="45.53566" lon="3.43221">
        <ele>658</ele>
        <time>2021-06-11T19:24:11Z</time>
      </trkpt>
      <trkpt lat="45.53527" lon="3.43247">
        <ele>662</ele>
        <time>2021-06-11T19:24:18Z</time>
      </trkpt>
      <trkpt lat="45.53462" lon="3.43299">
        <ele>671</ele>
        <time>2021-06-11T19:24:32Z</time>
      </trkpt>
      <trkpt lat="45.53417" lon="3.43365">
        <ele>668</ele>
        <time>2021-06-11T19:24:43Z</time>
      </trkpt>
      <trkpt lat="45.53407" lon="3.434">
        <ele>666</ele>
        <time>2021-06-11T19:24:48Z</time>
      </trkpt>
      <trkpt lat="45.53398" lon="3.43425">
        <ele>667</ele>
        <time>2021-06-11T19:24:51Z</time>
      </trkpt>
      <trkpt lat="45.53384" lon="3.43479">
        <ele>669</ele>
        <time>2021-06-11T19:24:58Z</time>
      </trkpt>
      <trkpt lat="45.5338" lon="3.43508">
        <ele>668</ele>
        <time>2021-06-11T19:25:02Z</time>
      </trkpt>
      <trkpt lat="45.53381" lon="3.43537">
        <ele>664</ele>
        <time>2021-06-11T19:25:06Z</time>
      </trkpt>
      <trkpt lat="45.5339" lon="3.4359">
        <ele>659</ele>
        <time>2021-06-11T19:25:13Z</time>
      </trkpt>
      <trkpt lat="45.53386" lon="3.43605">
        <ele>660</ele>
        <time>2021-06-11T19:25:15Z</time>
      </trkpt>
      <trkpt lat="45.53377" lon="3.43613">
        <ele>660</ele>
        <time>2021-06-11T19:25:16Z</time>
      </trkpt>
      <trkpt lat="45.53367" lon="3.43612">
        <ele>660</ele>
        <time>2021-06-11T19:25:18Z</time>
      </trkpt>
      <trkpt lat="45.53356" lon="3.43596">
        <ele>660</ele>
        <time>2021-06-11T19:25:21Z</time>
      </trkpt>
      <trkpt lat="45.53343" lon="3.43559">
        <ele>665</ele>
        <time>2021-06-11T19:25:26Z</time>
      </trkpt>
      <trkpt lat="45.53329" lon="3.43539">
        <ele>672</ele>
        <time>2021-06-11T19:25:30Z</time>
      </trkpt>
      <trkpt lat="45.53291" lon="3.43519">
        <ele>682</ele>
        <time>2021-06-11T19:25:37Z</time>
      </trkpt>
      <trkpt lat="45.53269" lon="3.43514">
        <ele>686</ele>
        <time>2021-06-11T19:25:41Z</time>
      </trkpt>
      <trkpt lat="45.53245" lon="3.43518">
        <ele>689</ele>
        <time>2021-06-11T19:25:45Z</time>
      </trkpt>
      <trkpt lat="45.53222" lon="3.43536">
        <ele>689</ele>
        <time>2021-06-11T19:25:50Z</time>
      </trkpt>
      <trkpt lat="45.53194" lon="3.43573">
        <ele>689</ele>
        <time>2021-06-11T19:25:57Z</time>
      </trkpt>
      <trkpt lat="45.5317" lon="3.43632">
        <ele>693</ele>
        <time>2021-06-11T19:26:05Z</time>
      </trkpt>
      <trkpt lat="45.53159" lon="3.43686">
        <ele>691</ele>
        <time>2021-06-11T19:26:12Z</time>
      </trkpt>
      <trkpt lat="45.5314" lon="3.43749">
        <ele>685</ele>
        <time>2021-06-11T19:26:21Z</time>
      </trkpt>
      <trkpt lat="45.53133" lon="3.43756">
        <ele>685</ele>
        <time>2021-06-11T19:26:22Z</time>
      </trkpt>
      <trkpt lat="45.53122" lon="3.43756">
        <ele>686</ele>
        <time>2021-06-11T19:26:24Z</time>
      </trkpt>
      <trkpt lat="45.53103" lon="3.43745">
        <ele>692</ele>
        <time>2021-06-11T19:26:28Z</time>
      </trkpt>
      <trkpt lat="45.53092" lon="3.4374">
        <ele>695</ele>
        <time>2021-06-11T19:26:30Z</time>
      </trkpt>
      <trkpt lat="45.53073" lon="3.43734">
        <ele>699</ele>
        <time>2021-06-11T19:26:33Z</time>
      </trkpt>
      <trkpt lat="45.53054" lon="3.43733">
        <ele>701</ele>
        <time>2021-06-11T19:26:37Z</time>
      </trkpt>
      <trkpt lat="45.53006" lon="3.43746">
        <ele>703</ele>
        <time>2021-06-11T19:26:45Z</time>
      </trkpt>
      <trkpt lat="45.52998" lon="3.43745">
        <ele>704</ele>
        <time>2021-06-11T19:26:47Z</time>
      </trkpt>
      <trkpt lat="45.52987" lon="3.43738">
        <ele>706</ele>
        <time>2021-06-11T19:26:49Z</time>
      </trkpt>
      <trkpt lat="45.52951" lon="3.43694">
        <ele>716</ele>
        <time>2021-06-11T19:26:57Z</time>
      </trkpt>
      <trkpt lat="45.52867" lon="3.43665">
        <ele>717</ele>
        <time>2021-06-11T19:27:13Z</time>
      </trkpt>
      <trkpt lat="45.5284" lon="3.43645">
        <ele>719</ele>
        <time>2021-06-11T19:27:18Z</time>
      </trkpt>
      <trkpt lat="45.52823" lon="3.43603">
        <ele>725</ele>
        <time>2021-06-11T19:27:24Z</time>
      </trkpt>
      <trkpt lat="45.52817" lon="3.43583">
        <ele>727</ele>
        <time>2021-06-11T19:27:27Z</time>
      </trkpt>
      <trkpt lat="45.52811" lon="3.43569">
        <ele>731</ele>
        <time>2021-06-11T19:27:29Z</time>
      </trkpt>
      <trkpt lat="45.528" lon="3.43562">
        <ele>733</ele>
        <time>2021-06-11T19:27:31Z</time>
      </trkpt>
      <trkpt lat="45.52791" lon="3.43564">
        <ele>734</ele>
        <time>2021-06-11T19:27:33Z</time>
      </trkpt>
      <trkpt lat="45.52787" lon="3.43571">
        <ele>733</ele>
        <time>2021-06-11T19:27:34Z</time>
      </trkpt>
      <trkpt lat="45.52785" lon="3.43579">
        <ele>732</ele>
        <time>2021-06-11T19:27:35Z</time>
      </trkpt>
      <trkpt lat="45.52786" lon="3.43605">
        <ele>731</ele>
        <time>2021-06-11T19:27:38Z</time>
      </trkpt>
      <trkpt lat="45.5279" lon="3.4363">
        <ele>728</ele>
        <time>2021-06-11T19:27:41Z</time>
      </trkpt>
      <trkpt lat="45.52789" lon="3.43644">
        <ele>728</ele>
        <time>2021-06-11T19:27:43Z</time>
      </trkpt>
      <trkpt lat="45.52783" lon="3.43659">
        <ele>728</ele>
        <time>2021-06-11T19:27:45Z</time>
      </trkpt>
      <trkpt lat="45.52741" lon="3.43689">
        <ele>737</ele>
        <time>2021-06-11T19:27:54Z</time>
      </trkpt>
      <trkpt lat="45.52704" lon="3.4372">
        <ele>741</ele>
        <time>2021-06-11T19:28:01Z</time>
      </trkpt>
      <trkpt lat="45.52688" lon="3.43729">
        <ele>742</ele>
        <time>2021-06-11T19:28:04Z</time>
      </trkpt>
      <trkpt lat="45.52657" lon="3.43738">
        <ele>743</ele>
        <time>2021-06-11T19:28:10Z</time>
      </trkpt>
      <trkpt lat="45.52631" lon="3.43754">
        <ele>745</ele>
        <time>2021-06-11T19:28:15Z</time>
      </trkpt>
      <trkpt lat="45.52609" lon="3.43763">
        <ele>748</ele>
        <time>2021-06-11T19:28:19Z</time>
      </trkpt>
      <trkpt lat="45.52586" lon="3.43779">
        <ele>750</ele>
        <time>2021-06-11T19:28:24Z</time>
      </trkpt>
      <trkpt lat="45.52566" lon="3.43788">
        <ele>752</ele>
        <time>2021-06-11T19:28:27Z</time>
      </trkpt>
      <trkpt lat="45.52543" lon="3.43793">
        <ele>754</ele>
        <time>2021-06-11T19:28:32Z</time>
      </trkpt>
      <trkpt lat="45.52527" lon="3.43808">
        <ele>755</ele>
        <time>2021-06-11T19:28:35Z</time>
      </trkpt>
      <trkpt lat="45.52508" lon="3.43839">
        <ele>755</ele>
        <time>2021-06-11T19:28:40Z</time>
      </trkpt>
      <trkpt lat="45.52501" lon="3.43847">
        <ele>755</ele>
        <time>2021-06-11T19:28:42Z</time>
      </trkpt>
      <trkpt lat="45.52493" lon="3.43855">
        <ele>756</ele>
        <time>2021-06-11T19:28:43Z</time>
      </trkpt>
      <trkpt lat="45.52477" lon="3.43859">
        <ele>757</ele>
        <time>2021-06-11T19:28:46Z</time>
      </trkpt>
      <trkpt lat="45.52406" lon="3.43849">
        <ele>761</ele>
        <time>2021-06-11T19:28:59Z</time>
      </trkpt>
      <trkpt lat="45.52336" lon="3.43834">
        <ele>762</ele>
        <time>2021-06-11T19:29:12Z</time>
      </trkpt>
      <trkpt lat="45.52323" lon="3.43834">
        <ele>763</ele>
        <time>2021-06-11T19:29:14Z</time>
      </trkpt>
      <trkpt lat="45.52311" lon="3.43838">
        <ele>765</ele>
        <time>2021-06-11T19:29:16Z</time>
      </trkpt>
      <trkpt lat="45.52304" lon="3.43849">
        <ele>765</ele>
        <time>2021-06-11T19:29:18Z</time>
      </trkpt>
      <trkpt lat="45.52282" lon="3.439">
        <ele>762</ele>
        <time>2021-06-11T19:29:25Z</time>
      </trkpt>
      <trkpt lat="45.52269" lon="3.43913">
        <ele>762</ele>
        <time>2021-06-11T19:29:28Z</time>
      </trkpt>
      <trkpt lat="45.52253" lon="3.43916">
        <ele>764</ele>
        <time>2021-06-11T19:29:31Z</time>
      </trkpt>
      <trkpt lat="45.52236" lon="3.43914">
        <ele>766</ele>
        <time>2021-06-11T19:29:34Z</time>
      </trkpt>
      <trkpt lat="45.52227" lon="3.43918">
        <ele>767</ele>
        <time>2021-06-11T19:29:36Z</time>
      </trkpt>
      <trkpt lat="45.52215" lon="3.43941">
        <ele>769</ele>
        <time>2021-06-11T19:29:39Z</time>
      </trkpt>
      <trkpt lat="45.52201" lon="3.43959">
        <ele>770</ele>
        <time>2021-06-11T19:29:43Z</time>
      </trkpt>
      <trkpt lat="45.52181" lon="3.43969">
        <ele>770</ele>
        <time>2021-06-11T19:29:47Z</time>
      </trkpt>
      <trkpt lat="45.52164" lon="3.43974">
        <ele>771</ele>
        <time>2021-06-11T19:29:50Z</time>
      </trkpt>
      <trkpt lat="45.52152" lon="3.43981">
        <ele>772</ele>
        <time>2021-06-11T19:29:52Z</time>
      </trkpt>
      <trkpt lat="45.52127" lon="3.4399">
        <ele>773</ele>
        <time>2021-06-11T19:29:57Z</time>
      </trkpt>
      <trkpt lat="45.52113" lon="3.43992">
        <ele>774</ele>
        <time>2021-06-11T19:29:59Z</time>
      </trkpt>
      <trkpt lat="45.52101" lon="3.44">
        <ele>774</ele>
        <time>2021-06-11T19:30:01Z</time>
      </trkpt>
      <trkpt lat="45.52093" lon="3.44014">
        <ele>774</ele>
        <time>2021-06-11T19:30:04Z</time>
      </trkpt>
      <trkpt lat="45.52063" lon="3.44136">
        <ele>775</ele>
        <time>2021-06-11T19:30:20Z</time>
      </trkpt>
      <trkpt lat="45.52055" lon="3.44163">
        <ele>777</ele>
        <time>2021-06-11T19:30:23Z</time>
      </trkpt>
      <trkpt lat="45.52025" lon="3.4422">
        <ele>781</ele>
        <time>2021-06-11T19:30:32Z</time>
      </trkpt>
      <trkpt lat="45.52014" lon="3.44249">
        <ele>782</ele>
        <time>2021-06-11T19:30:36Z</time>
      </trkpt>
      <trkpt lat="45.51979" lon="3.44398">
        <ele>791</ele>
        <time>2021-06-11T19:30:56Z</time>
      </trkpt>
      <trkpt lat="45.51968" lon="3.44435">
        <ele>792</ele>
        <time>2021-06-11T19:31:01Z</time>
      </trkpt>
      <trkpt lat="45.5194" lon="3.44477">
        <ele>793</ele>
        <time>2021-06-11T19:31:08Z</time>
      </trkpt>
      <trkpt lat="45.51939" lon="3.44479">
        <ele>793</ele>
        <time>2021-06-11T19:31:09Z</time>
      </trkpt>
      <trkpt lat="45.51923" lon="3.44508">
        <ele>793</ele>
        <time>2021-06-11T19:31:13Z</time>
      </trkpt>
      <trkpt lat="45.51909" lon="3.44544">
        <ele>792</ele>
        <time>2021-06-11T19:31:18Z</time>
      </trkpt>
      <trkpt lat="45.51905" lon="3.4455">
        <ele>792</ele>
        <time>2021-06-11T19:31:19Z</time>
      </trkpt>
      <trkpt lat="45.51902" lon="3.44554">
        <ele>792</ele>
        <time>2021-06-11T19:31:20Z</time>
      </trkpt>
      <trkpt lat="45.51893" lon="3.44555">
        <ele>792</ele>
        <time>2021-06-11T19:31:22Z</time>
      </trkpt>
      <trkpt lat="45.51878" lon="3.44552">
        <ele>792</ele>
        <time>2021-06-11T19:31:24Z</time>
      </trkpt>
      <trkpt lat="45.51855" lon="3.44551">
        <ele>792</ele>
        <time>2021-06-11T19:31:28Z</time>
      </trkpt>
      <trkpt lat="45.51801" lon="3.44582">
        <ele>793</ele>
        <time>2021-06-11T19:31:39Z</time>
      </trkpt>
      <trkpt lat="45.51788" lon="3.44593">
        <ele>793</ele>
        <time>2021-06-11T19:31:41Z</time>
      </trkpt>
      <trkpt lat="45.51764" lon="3.44623">
        <ele>793</ele>
        <time>2021-06-11T19:31:47Z</time>
      </trkpt>
      <trkpt lat="45.51684" lon="3.44688">
        <ele>796</ele>
        <time>2021-06-11T19:32:04Z</time>
      </trkpt>
      <trkpt lat="45.51656" lon="3.44706">
        <ele>798</ele>
        <time>2021-06-11T19:32:09Z</time>
      </trkpt>
      <trkpt lat="45.51607" lon="3.44732">
        <ele>802</ele>
        <time>2021-06-11T19:32:18Z</time>
      </trkpt>
      <trkpt lat="45.51587" lon="3.44749">
        <ele>803</ele>
        <time>2021-06-11T19:32:22Z</time>
      </trkpt>
      <trkpt lat="45.51555" lon="3.44784">
        <ele>804</ele>
        <time>2021-06-11T19:32:30Z</time>
      </trkpt>
      <trkpt lat="45.51488" lon="3.44865">
        <ele>807</ele>
        <time>2021-06-11T19:32:45Z</time>
      </trkpt>
      <trkpt lat="45.51434" lon="3.44913">
        <ele>810</ele>
        <time>2021-06-11T19:32:57Z</time>
      </trkpt>
      <trkpt lat="45.51383" lon="3.44958">
        <ele>812</ele>
        <time>2021-06-11T19:33:07Z</time>
      </trkpt>
      <trkpt lat="45.51381" lon="3.4496">
        <ele>812</ele>
        <time>2021-06-11T19:33:08Z</time>
      </trkpt>
      <trkpt lat="45.51389" lon="3.44927">
        <ele>811</ele>
        <time>2021-06-11T19:33:12Z</time>
      </trkpt>
      <trkpt lat="45.51429" lon="3.44821">
        <ele>812</ele>
        <time>2021-06-11T19:33:27Z</time>
      </trkpt>
      <trkpt lat="45.5145" lon="3.44776">
        <ele>811</ele>
        <time>2021-06-11T19:33:34Z</time>
      </trkpt>
      <trkpt lat="45.51484" lon="3.44721">
        <ele>811</ele>
        <time>2021-06-11T19:33:43Z</time>
      </trkpt>
      <trkpt lat="45.51545" lon="3.44636">
        <ele>809</ele>
        <time>2021-06-11T19:33:58Z</time>
      </trkpt>
      <trkpt lat="45.51557" lon="3.44614">
        <ele>809</ele>
        <time>2021-06-11T19:34:02Z</time>
      </trkpt>
      <trkpt lat="45.51582" lon="3.4455">
        <ele>808</ele>
        <time>2021-06-11T19:34:11Z</time>
      </trkpt>
      <trkpt lat="45.51609" lon="3.44501">
        <ele>806</ele>
        <time>2021-06-11T19:34:18Z</time>
      </trkpt>
      <trkpt lat="45.51624" lon="3.44467">
        <ele>805</ele>
        <time>2021-06-11T19:34:23Z</time>
      </trkpt>
      <trkpt lat="45.51638" lon="3.44416">
        <ele>804</ele>
        <time>2021-06-11T19:34:30Z</time>
      </trkpt>
      <trkpt lat="45.51649" lon="3.4437">
        <ele>803</ele>
        <time>2021-06-11T19:34:36Z</time>
      </trkpt>
      <trkpt lat="45.51654" lon="3.44333">
        <ele>803</ele>
        <time>2021-06-11T19:34:41Z</time>
      </trkpt>
      <trkpt lat="45.51656" lon="3.44221">
        <ele>804</ele>
        <time>2021-06-11T19:34:55Z</time>
      </trkpt>
      <trkpt lat="45.51658" lon="3.44146">
        <ele>808</ele>
        <time>2021-06-11T19:35:04Z</time>
      </trkpt>
      <trkpt lat="45.51661" lon="3.44102">
        <ele>811</ele>
        <time>2021-06-11T19:35:10Z</time>
      </trkpt>
      <trkpt lat="45.51682" lon="3.4392">
        <ele>826</ele>
        <time>2021-06-11T19:35:33Z</time>
      </trkpt>
      <trkpt lat="45.51697" lon="3.43862">
        <ele>829</ele>
        <time>2021-06-11T19:35:41Z</time>
      </trkpt>
      <trkpt lat="45.51713" lon="3.43825">
        <ele>831</ele>
        <time>2021-06-11T19:35:46Z</time>
      </trkpt>
      <trkpt lat="45.5173" lon="3.43791">
        <ele>834</ele>
        <time>2021-06-11T19:35:51Z</time>
      </trkpt>
      <trkpt lat="45.51773" lon="3.43749">
        <ele>836</ele>
        <time>2021-06-11T19:36:00Z</time>
      </trkpt>
      <trkpt lat="45.51781" lon="3.43735">
        <ele>837</ele>
        <time>2021-06-11T19:36:03Z</time>
      </trkpt>
      <trkpt lat="45.51785" lon="3.43718">
        <ele>837</ele>
        <time>2021-06-11T19:36:05Z</time>
      </trkpt>
      <trkpt lat="45.5178" lon="3.43691">
        <ele>839</ele>
        <time>2021-06-11T19:36:08Z</time>
      </trkpt>
      <trkpt lat="45.51763" lon="3.4365">
        <ele>842</ele>
        <time>2021-06-11T19:36:14Z</time>
      </trkpt>
      <trkpt lat="45.51754" lon="3.43617">
        <ele>843</ele>
        <time>2021-06-11T19:36:19Z</time>
      </trkpt>
      <trkpt lat="45.51748" lon="3.43582">
        <ele>843</ele>
        <time>2021-06-11T19:36:23Z</time>
      </trkpt>
      <trkpt lat="45.51746" lon="3.43541">
        <ele>843</ele>
        <time>2021-06-11T19:36:28Z</time>
      </trkpt>
      <trkpt lat="45.51748" lon="3.43487">
        <ele>841</ele>
        <time>2021-06-11T19:36:35Z</time>
      </trkpt>
      <trkpt lat="45.51748" lon="3.43477">
        <ele>841</ele>
        <time>2021-06-11T19:36:36Z</time>
      </trkpt>
      <trkpt lat="45.51738" lon="3.43308">
        <ele>833</ele>
        <time>2021-06-11T19:36:58Z</time>
      </trkpt>
      <trkpt lat="45.5174" lon="3.43237">
        <ele>831</ele>
        <time>2021-06-11T19:37:06Z</time>
      </trkpt>
      <trkpt lat="45.51744" lon="3.43189">
        <ele>827</ele>
        <time>2021-06-11T19:37:12Z</time>
      </trkpt>
      <trkpt lat="45.51751" lon="3.43121">
        <ele>821</ele>
        <time>2021-06-11T19:37:21Z</time>
      </trkpt>
      <trkpt lat="45.51766" lon="3.42955">
        <ele>811</ele>
        <time>2021-06-11T19:37:42Z</time>
      </trkpt>
      <trkpt lat="45.51772" lon="3.42911">
        <ele>811</ele>
        <time>2021-06-11T19:37:47Z</time>
      </trkpt>
      <trkpt lat="45.51781" lon="3.42855">
        <ele>811</ele>
        <time>2021-06-11T19:37:55Z</time>
      </trkpt>
      <trkpt lat="45.51784" lon="3.4281">
        <ele>813</ele>
        <time>2021-06-11T19:38:00Z</time>
      </trkpt>
      <trkpt lat="45.51783" lon="3.42751">
        <ele>816</ele>
        <time>2021-06-11T19:38:08Z</time>
      </trkpt>
      <trkpt lat="45.51786" lon="3.42677">
        <ele>817</ele>
        <time>2021-06-11T19:38:17Z</time>
      </trkpt>
      <trkpt lat="45.51796" lon="3.42578">
        <ele>815</ele>
        <time>2021-06-11T19:38:29Z</time>
      </trkpt>
      <trkpt lat="45.51799" lon="3.42483">
        <ele>814</ele>
        <time>2021-06-11T19:38:41Z</time>
      </trkpt>
      <trkpt lat="45.51799" lon="3.42372">
        <ele>813</ele>
        <time>2021-06-11T19:38:55Z</time>
      </trkpt>
      <trkpt lat="45.51798" lon="3.4231">
        <ele>811</ele>
        <time>2021-06-11T19:39:03Z</time>
      </trkpt>
      <trkpt lat="45.51791" lon="3.42241">
        <ele>808</ele>
        <time>2021-06-11T19:39:11Z</time>
      </trkpt>
      <trkpt lat="45.5178" lon="3.42163">
        <ele>808</ele>
        <time>2021-06-11T19:39:21Z</time>
      </trkpt>
      <trkpt lat="45.51773" lon="3.42142">
        <ele>808</ele>
        <time>2021-06-11T19:39:24Z</time>
      </trkpt>
      <trkpt lat="45.51756" lon="3.42109">
        <ele>807</ele>
        <time>2021-06-11T19:39:29Z</time>
      </trkpt>
      <trkpt lat="45.51725" lon="3.42052">
        <ele>808</ele>
        <time>2021-06-11T19:39:38Z</time>
      </trkpt>
      <trkpt lat="45.51688" lon="3.41998">
        <ele>810</ele>
        <time>2021-06-11T19:39:48Z</time>
      </trkpt>
      <trkpt lat="45.51665" lon="3.41974">
        <ele>811</ele>
        <time>2021-06-11T19:39:53Z</time>
      </trkpt>
      <trkpt lat="45.51578" lon="3.41913">
        <ele>809</ele>
        <time>2021-06-11T19:40:10Z</time>
      </trkpt>
      <trkpt lat="45.51466" lon="3.41852">
        <ele>809</ele>
        <time>2021-06-11T19:40:31Z</time>
      </trkpt>
      <trkpt lat="45.51446" lon="3.41839">
        <ele>810</ele>
        <time>2021-06-11T19:40:35Z</time>
      </trkpt>
      <trkpt lat="45.51429" lon="3.41821">
        <ele>811</ele>
        <time>2021-06-11T19:40:39Z</time>
      </trkpt>
      <trkpt lat="45.51368" lon="3.41747">
        <ele>810</ele>
        <time>2021-06-11T19:40:53Z</time>
      </trkpt>
      <trkpt lat="45.513" lon="3.41684">
        <ele>808</ele>
        <time>2021-06-11T19:41:08Z</time>
      </trkpt>
      <trkpt lat="45.51256" lon="3.4164">
        <ele>807</ele>
        <time>2021-06-11T19:41:17Z</time>
      </trkpt>
      <trkpt lat="45.51187" lon="3.41563">
        <ele>804</ele>
        <time>2021-06-11T19:41:33Z</time>
      </trkpt>
      <trkpt lat="45.51173" lon="3.4154">
        <ele>802</ele>
        <time>2021-06-11T19:41:37Z</time>
      </trkpt>
      <trkpt lat="45.51069" lon="3.41346">
        <ele>796</ele>
        <time>2021-06-11T19:42:07Z</time>
      </trkpt>
      <trkpt lat="45.51057" lon="3.41324">
        <ele>795</ele>
        <time>2021-06-11T19:42:11Z</time>
      </trkpt>
      <trkpt lat="45.51039" lon="3.41314">
        <ele>795</ele>
        <time>2021-06-11T19:42:14Z</time>
      </trkpt>
      <trkpt lat="45.50987" lon="3.41298">
        <ele>792</ele>
        <time>2021-06-11T19:42:24Z</time>
      </trkpt>
      <trkpt lat="45.50892" lon="3.4127">
        <ele>789</ele>
        <time>2021-06-11T19:42:41Z</time>
      </trkpt>
      <trkpt lat="45.50875" lon="3.41267">
        <ele>788</ele>
        <time>2021-06-11T19:42:44Z</time>
      </trkpt>
      <trkpt lat="45.50853" lon="3.41268">
        <ele>788</ele>
        <time>2021-06-11T19:42:48Z</time>
      </trkpt>
      <trkpt lat="45.50718" lon="3.4128">
        <ele>790</ele>
        <time>2021-06-11T19:43:12Z</time>
      </trkpt>
      <trkpt lat="45.50651" lon="3.41275">
        <ele>792</ele>
        <time>2021-06-11T19:43:24Z</time>
      </trkpt>
      <trkpt lat="45.5063" lon="3.41271">
        <ele>792</ele>
        <time>2021-06-11T19:43:28Z</time>
      </trkpt>
      <trkpt lat="45.50619" lon="3.41266">
        <ele>793</ele>
        <time>2021-06-11T19:43:30Z</time>
      </trkpt>
      <trkpt lat="45.50601" lon="3.41283">
        <ele>792</ele>
        <time>2021-06-11T19:43:33Z</time>
      </trkpt>
      <trkpt lat="45.50583" lon="3.41299">
        <ele>791</ele>
        <time>2021-06-11T19:43:37Z</time>
      </trkpt>
      <trkpt lat="45.50549" lon="3.41324">
        <ele>791</ele>
        <time>2021-06-11T19:43:44Z</time>
      </trkpt>
      <trkpt lat="45.50521" lon="3.41365">
        <ele>790</ele>
        <time>2021-06-11T19:43:51Z</time>
      </trkpt>
      <trkpt lat="45.50517" lon="3.41376">
        <ele>789</ele>
        <time>2021-06-11T19:43:53Z</time>
      </trkpt>
      <trkpt lat="45.50518" lon="3.41387">
        <ele>788</ele>
        <time>2021-06-11T19:43:54Z</time>
      </trkpt>
      <trkpt lat="45.5053" lon="3.4143">
        <ele>785</ele>
        <time>2021-06-11T19:44:00Z</time>
      </trkpt>
      <trkpt lat="45.5054" lon="3.41476">
        <ele>782</ele>
        <time>2021-06-11T19:44:06Z</time>
      </trkpt>
      <trkpt lat="45.5055" lon="3.4149">
        <ele>780</ele>
        <time>2021-06-11T19:44:08Z</time>
      </trkpt>
      <trkpt lat="45.50559" lon="3.41497">
        <ele>779</ele>
        <time>2021-06-11T19:44:10Z</time>
      </trkpt>
      <trkpt lat="45.50569" lon="3.41497">
        <ele>779</ele>
        <time>2021-06-11T19:44:12Z</time>
      </trkpt>
      <trkpt lat="45.50591" lon="3.41492">
        <ele>778</ele>
        <time>2021-06-11T19:44:16Z</time>
      </trkpt>
      <trkpt lat="45.50603" lon="3.41499">
        <ele>777</ele>
        <time>2021-06-11T19:44:18Z</time>
      </trkpt>
      <trkpt lat="45.50613" lon="3.41514">
        <ele>775</ele>
        <time>2021-06-11T19:44:21Z</time>
      </trkpt>
      <trkpt lat="45.5062" lon="3.41532">
        <ele>774</ele>
        <time>2021-06-11T19:44:23Z</time>
      </trkpt>
      <trkpt lat="45.50623" lon="3.41554">
        <ele>773</ele>
        <time>2021-06-11T19:44:26Z</time>
      </trkpt>
      <trkpt lat="45.50619" lon="3.41601">
        <ele>771</ele>
        <time>2021-06-11T19:44:32Z</time>
      </trkpt>
      <trkpt lat="45.50619" lon="3.41613">
        <ele>771</ele>
        <time>2021-06-11T19:44:34Z</time>
      </trkpt>
      <trkpt lat="45.5063" lon="3.41646">
        <ele>770</ele>
        <time>2021-06-11T19:44:38Z</time>
      </trkpt>
      <trkpt lat="45.50636" lon="3.41669">
        <ele>770</ele>
        <time>2021-06-11T19:44:41Z</time>
      </trkpt>
      <trkpt lat="45.50635" lon="3.41685">
        <ele>770</ele>
        <time>2021-06-11T19:44:43Z</time>
      </trkpt>
      <trkpt lat="45.5063" lon="3.41704">
        <ele>770</ele>
        <time>2021-06-11T19:44:46Z</time>
      </trkpt>
      <trkpt lat="45.50622" lon="3.41724">
        <ele>769</ele>
        <time>2021-06-11T19:44:49Z</time>
      </trkpt>
      <trkpt lat="45.50616" lon="3.41733">
        <ele>768</ele>
        <time>2021-06-11T19:44:50Z</time>
      </trkpt>
      <trkpt lat="45.50607" lon="3.41745">
        <ele>767</ele>
        <time>2021-06-11T19:44:52Z</time>
      </trkpt>
      <trkpt lat="45.50586" lon="3.41777">
        <ele>766</ele>
        <time>2021-06-11T19:44:58Z</time>
      </trkpt>
      <trkpt lat="45.50571" lon="3.41812">
        <ele>765</ele>
        <time>2021-06-11T19:45:03Z</time>
      </trkpt>
      <trkpt lat="45.50558" lon="3.41856">
        <ele>764</ele>
        <time>2021-06-11T19:45:09Z</time>
      </trkpt>
      <trkpt lat="45.5053" lon="3.41922">
        <ele>762</ele>
        <time>2021-06-11T19:45:19Z</time>
      </trkpt>
      <trkpt lat="45.50522" lon="3.41952">
        <ele>762</ele>
        <time>2021-06-11T19:45:23Z</time>
      </trkpt>
      <trkpt lat="45.50519" lon="3.41978">
        <ele>762</ele>
        <time>2021-06-11T19:45:26Z</time>
      </trkpt>
      <trkpt lat="45.50519" lon="3.42">
        <ele>763</ele>
        <time>2021-06-11T19:45:29Z</time>
      </trkpt>
      <trkpt lat="45.50527" lon="3.42035">
        <ele>762</ele>
        <time>2021-06-11T19:45:33Z</time>
      </trkpt>
      <trkpt lat="45.50547" lon="3.42102">
        <ele>760</ele>
        <time>2021-06-11T19:45:42Z</time>
      </trkpt>
      <trkpt lat="45.50554" lon="3.42118">
        <ele>759</ele>
        <time>2021-06-11T19:45:45Z</time>
      </trkpt>
      <trkpt lat="45.50579" lon="3.42161">
        <ele>755</ele>
        <time>2021-06-11T19:45:52Z</time>
      </trkpt>
      <trkpt lat="45.50589" lon="3.42182">
        <ele>754</ele>
        <time>2021-06-11T19:45:55Z</time>
      </trkpt>
      <trkpt lat="45.50595" lon="3.42201">
        <ele>753</ele>
        <time>2021-06-11T19:45:57Z</time>
      </trkpt>
      <trkpt lat="45.50616" lon="3.4229">
        <ele>751</ele>
        <time>2021-06-11T19:46:09Z</time>
      </trkpt>
      <trkpt lat="45.50641" lon="3.42369">
        <ele>751</ele>
        <time>2021-06-11T19:46:20Z</time>
      </trkpt>
      <trkpt lat="45.50643" lon="3.42388">
        <ele>751</ele>
        <time>2021-06-11T19:46:22Z</time>
      </trkpt>
      <trkpt lat="45.50642" lon="3.42407">
        <ele>750</ele>
        <time>2021-06-11T19:46:25Z</time>
      </trkpt>
      <trkpt lat="45.50636" lon="3.42424">
        <ele>750</ele>
        <time>2021-06-11T19:46:27Z</time>
      </trkpt>
      <trkpt lat="45.50625" lon="3.42439">
        <ele>751</ele>
        <time>2021-06-11T19:46:30Z</time>
      </trkpt>
      <trkpt lat="45.50617" lon="3.42444">
        <ele>751</ele>
        <time>2021-06-11T19:46:31Z</time>
      </trkpt>
      <trkpt lat="45.50612" lon="3.42447">
        <ele>751</ele>
        <time>2021-06-11T19:46:32Z</time>
      </trkpt>
      <trkpt lat="45.50604" lon="3.42449">
        <ele>751</ele>
        <time>2021-06-11T19:46:34Z</time>
      </trkpt>
      <trkpt lat="45.5059" lon="3.42442">
        <ele>752</ele>
        <time>2021-06-11T19:46:36Z</time>
      </trkpt>
      <trkpt lat="45.50559" lon="3.42409">
        <ele>752</ele>
        <time>2021-06-11T19:46:43Z</time>
      </trkpt>
      <trkpt lat="45.50545" lon="3.42397">
        <ele>752</ele>
        <time>2021-06-11T19:46:46Z</time>
      </trkpt>
      <trkpt lat="45.50535" lon="3.42395">
        <ele>752</ele>
        <time>2021-06-11T19:46:48Z</time>
      </trkpt>
      <trkpt lat="45.50514" lon="3.42402">
        <ele>753</ele>
        <time>2021-06-11T19:46:52Z</time>
      </trkpt>
      <trkpt lat="45.50492" lon="3.4242">
        <ele>754</ele>
        <time>2021-06-11T19:46:56Z</time>
      </trkpt>
      <trkpt lat="45.50476" lon="3.42427">
        <ele>754</ele>
        <time>2021-06-11T19:46:59Z</time>
      </trkpt>
      <trkpt lat="45.50418" lon="3.42435">
        <ele>753</ele>
        <time>2021-06-11T19:47:10Z</time>
      </trkpt>
      <trkpt lat="45.50405" lon="3.42442">
        <ele>753</ele>
        <time>2021-06-11T19:47:12Z</time>
      </trkpt>
      <trkpt lat="45.50383" lon="3.42459">
        <ele>753</ele>
        <time>2021-06-11T19:47:16Z</time>
      </trkpt>
      <trkpt lat="45.50367" lon="3.42472">
        <ele>753</ele>
        <time>2021-06-11T19:47:20Z</time>
      </trkpt>
      <trkpt lat="45.50344" lon="3.42501">
        <ele>754</ele>
        <time>2021-06-11T19:47:25Z</time>
      </trkpt>
      <trkpt lat="45.50322" lon="3.42545">
        <ele>754</ele>
        <time>2021-06-11T19:47:32Z</time>
      </trkpt>
      <trkpt lat="45.50307" lon="3.42599">
        <ele>756</ele>
        <time>2021-06-11T19:47:39Z</time>
      </trkpt>
      <trkpt lat="45.50299" lon="3.42617">
        <ele>757</ele>
        <time>2021-06-11T19:47:42Z</time>
      </trkpt>
      <trkpt lat="45.50289" lon="3.42633">
        <ele>758</ele>
        <time>2021-06-11T19:47:45Z</time>
      </trkpt>
      <trkpt lat="45.50259" lon="3.42673">
        <ele>760</ele>
        <time>2021-06-11T19:47:52Z</time>
      </trkpt>
      <trkpt lat="45.50244" lon="3.42695">
        <ele>760</ele>
        <time>2021-06-11T19:47:56Z</time>
      </trkpt>
      <trkpt lat="45.50235" lon="3.42713">
        <ele>759</ele>
        <time>2021-06-11T19:47:58Z</time>
      </trkpt>
      <trkpt lat="45.50214" lon="3.42761">
        <ele>758</ele>
        <time>2021-06-11T19:48:05Z</time>
      </trkpt>
      <trkpt lat="45.50205" lon="3.42775">
        <ele>758</ele>
        <time>2021-06-11T19:48:08Z</time>
      </trkpt>
      <trkpt lat="45.50172" lon="3.428">
        <ele>756</ele>
        <time>2021-06-11T19:48:15Z</time>
      </trkpt>
      <trkpt lat="45.50134" lon="3.42835">
        <ele>751</ele>
        <time>2021-06-11T19:48:23Z</time>
      </trkpt>
      <trkpt lat="45.50127" lon="3.42847">
        <ele>750</ele>
        <time>2021-06-11T19:48:24Z</time>
      </trkpt>
      <trkpt lat="45.50118" lon="3.42874">
        <ele>749</ele>
        <time>2021-06-11T19:48:28Z</time>
      </trkpt>
      <trkpt lat="45.50097" lon="3.42911">
        <ele>747</ele>
        <time>2021-06-11T19:48:34Z</time>
      </trkpt>
      <trkpt lat="45.50091" lon="3.42927">
        <ele>746</ele>
        <time>2021-06-11T19:48:36Z</time>
      </trkpt>
      <trkpt lat="45.50089" lon="3.42945">
        <ele>744</ele>
        <time>2021-06-11T19:48:39Z</time>
      </trkpt>
      <trkpt lat="45.501" lon="3.43013">
        <ele>742</ele>
        <time>2021-06-11T19:48:47Z</time>
      </trkpt>
      <trkpt lat="45.50103" lon="3.43042">
        <ele>741</ele>
        <time>2021-06-11T19:48:51Z</time>
      </trkpt>
      <trkpt lat="45.50103" lon="3.4308">
        <ele>738</ele>
        <time>2021-06-11T19:48:56Z</time>
      </trkpt>
      <trkpt lat="45.50108" lon="3.43118">
        <ele>737</ele>
        <time>2021-06-11T19:49:01Z</time>
      </trkpt>
      <trkpt lat="45.50113" lon="3.43149">
        <ele>736</ele>
        <time>2021-06-11T19:49:05Z</time>
      </trkpt>
      <trkpt lat="45.50121" lon="3.43175">
        <ele>736</ele>
        <time>2021-06-11T19:49:08Z</time>
      </trkpt>
      <trkpt lat="45.50135" lon="3.43203">
        <ele>738</ele>
        <time>2021-06-11T19:49:12Z</time>
      </trkpt>
      <trkpt lat="45.50144" lon="3.43234">
        <ele>739</ele>
        <time>2021-06-11T19:49:17Z</time>
      </trkpt>
      <trkpt lat="45.50147" lon="3.4326">
        <ele>739</ele>
        <time>2021-06-11T19:49:20Z</time>
      </trkpt>
      <trkpt lat="45.50162" lon="3.43303">
        <ele>741</ele>
        <time>2021-06-11T19:49:26Z</time>
      </trkpt>
      <trkpt lat="45.50163" lon="3.43316">
        <ele>741</ele>
        <time>2021-06-11T19:49:28Z</time>
      </trkpt>
      <trkpt lat="45.50158" lon="3.43329">
        <ele>741</ele>
        <time>2021-06-11T19:49:29Z</time>
      </trkpt>
      <trkpt lat="45.50149" lon="3.43334">
        <ele>742</ele>
        <time>2021-06-11T19:49:31Z</time>
      </trkpt>
      <trkpt lat="45.50137" lon="3.43333">
        <ele>742</ele>
        <time>2021-06-11T19:49:33Z</time>
      </trkpt>
      <trkpt lat="45.5012" lon="3.43329">
        <ele>742</ele>
        <time>2021-06-11T19:49:36Z</time>
      </trkpt>
      <trkpt lat="45.50108" lon="3.43312">
        <ele>741</ele>
        <time>2021-06-11T19:49:39Z</time>
      </trkpt>
      <trkpt lat="45.50098" lon="3.43281">
        <ele>738</ele>
        <time>2021-06-11T19:49:44Z</time>
      </trkpt>
      <trkpt lat="45.50088" lon="3.4326">
        <ele>735</ele>
        <time>2021-06-11T19:49:47Z</time>
      </trkpt>
      <trkpt lat="45.50074" lon="3.43243">
        <ele>736</ele>
        <time>2021-06-11T19:49:50Z</time>
      </trkpt>
      <trkpt lat="45.50056" lon="3.4323">
        <ele>738</ele>
        <time>2021-06-11T19:49:54Z</time>
      </trkpt>
      <trkpt lat="45.50002" lon="3.432">
        <ele>743</ele>
        <time>2021-06-11T19:50:04Z</time>
      </trkpt>
      <trkpt lat="45.49987" lon="3.43183">
        <ele>744</ele>
        <time>2021-06-11T19:50:07Z</time>
      </trkpt>
      <trkpt lat="45.4998" lon="3.43168">
        <ele>743</ele>
        <time>2021-06-11T19:50:10Z</time>
      </trkpt>
      <trkpt lat="45.49977" lon="3.43141">
        <ele>743</ele>
        <time>2021-06-11T19:50:13Z</time>
      </trkpt>
      <trkpt lat="45.49979" lon="3.43086">
        <ele>739</ele>
        <time>2021-06-11T19:50:20Z</time>
      </trkpt>
      <trkpt lat="45.49972" lon="3.4306">
        <ele>739</ele>
        <time>2021-06-11T19:50:23Z</time>
      </trkpt>
      <trkpt lat="45.49955" lon="3.4304">
        <ele>741</ele>
        <time>2021-06-11T19:50:27Z</time>
      </trkpt>
      <trkpt lat="45.49934" lon="3.43026">
        <ele>745</ele>
        <time>2021-06-11T19:50:31Z</time>
      </trkpt>
      <trkpt lat="45.49863" lon="3.43022">
        <ele>757</ele>
        <time>2021-06-11T19:50:44Z</time>
      </trkpt>
      <trkpt lat="45.49842" lon="3.43015">
        <ele>760</ele>
        <time>2021-06-11T19:50:48Z</time>
      </trkpt>
      <trkpt lat="45.49812" lon="3.42986">
        <ele>764</ele>
        <time>2021-06-11T19:50:54Z</time>
      </trkpt>
      <trkpt lat="45.49799" lon="3.42982">
        <ele>765</ele>
        <time>2021-06-11T19:50:57Z</time>
      </trkpt>
      <trkpt lat="45.4979" lon="3.42988">
        <ele>766</ele>
        <time>2021-06-11T19:50:58Z</time>
      </trkpt>
      <trkpt lat="45.49782" lon="3.43005">
        <ele>767</ele>
        <time>2021-06-11T19:51:01Z</time>
      </trkpt>
      <trkpt lat="45.49772" lon="3.43087">
        <ele>770</ele>
        <time>2021-06-11T19:51:11Z</time>
      </trkpt>
      <trkpt lat="45.49764" lon="3.43127">
        <ele>771</ele>
        <time>2021-06-11T19:51:17Z</time>
      </trkpt>
      <trkpt lat="45.49748" lon="3.43173">
        <ele>772</ele>
        <time>2021-06-11T19:51:23Z</time>
      </trkpt>
      <trkpt lat="45.49732" lon="3.43204">
        <ele>771</ele>
        <time>2021-06-11T19:51:28Z</time>
      </trkpt>
      <trkpt lat="45.49713" lon="3.43227">
        <ele>770</ele>
        <time>2021-06-11T19:51:32Z</time>
      </trkpt>
      <trkpt lat="45.49694" lon="3.43245">
        <ele>769</ele>
        <time>2021-06-11T19:51:36Z</time>
      </trkpt>
      <trkpt lat="45.49678" lon="3.43253">
        <ele>769</ele>
        <time>2021-06-11T19:51:39Z</time>
      </trkpt>
      <trkpt lat="45.49665" lon="3.43255">
        <ele>769</ele>
        <time>2021-06-11T19:51:42Z</time>
      </trkpt>
      <trkpt lat="45.4965" lon="3.43253">
        <ele>767</ele>
        <time>2021-06-11T19:51:44Z</time>
      </trkpt>
      <trkpt lat="45.49633" lon="3.43242">
        <ele>766</ele>
        <time>2021-06-11T19:51:48Z</time>
      </trkpt>
      <trkpt lat="45.49619" lon="3.43239">
        <ele>765</ele>
        <time>2021-06-11T19:51:50Z</time>
      </trkpt>
      <trkpt lat="45.49607" lon="3.43243">
        <ele>764</ele>
        <time>2021-06-11T19:51:52Z</time>
      </trkpt>
      <trkpt lat="45.49596" lon="3.43254">
        <ele>762</ele>
        <time>2021-06-11T19:51:55Z</time>
      </trkpt>
      <trkpt lat="45.49578" lon="3.43287">
        <ele>760</ele>
        <time>2021-06-11T19:52:00Z</time>
      </trkpt>
      <trkpt lat="45.49455" lon="3.43414">
        <ele>756</ele>
        <time>2021-06-11T19:52:27Z</time>
      </trkpt>
      <trkpt lat="45.49441" lon="3.43431">
        <ele>756</ele>
        <time>2021-06-11T19:52:30Z</time>
      </trkpt>
      <trkpt lat="45.49397" lon="3.43508">
        <ele>759</ele>
        <time>2021-06-11T19:52:43Z</time>
      </trkpt>
      <trkpt lat="45.49388" lon="3.43529">
        <ele>759</ele>
        <time>2021-06-11T19:52:46Z</time>
      </trkpt>
      <trkpt lat="45.49382" lon="3.43553">
        <ele>759</ele>
        <time>2021-06-11T19:52:49Z</time>
      </trkpt>
      <trkpt lat="45.49379" lon="3.43575">
        <ele>760</ele>
        <time>2021-06-11T19:52:52Z</time>
      </trkpt>
      <trkpt lat="45.49381" lon="3.43632">
        <ele>761</ele>
        <time>2021-06-11T19:52:59Z</time>
      </trkpt>
      <trkpt lat="45.49381" lon="3.43652">
        <ele>761</ele>
        <time>2021-06-11T19:53:01Z</time>
      </trkpt>
      <trkpt lat="45.49374" lon="3.43733">
        <ele>759</ele>
        <time>2021-06-11T19:53:11Z</time>
      </trkpt>
      <trkpt lat="45.4937" lon="3.43758">
        <ele>758</ele>
        <time>2021-06-11T19:53:15Z</time>
      </trkpt>
      <trkpt lat="45.49347" lon="3.43832">
        <ele>756</ele>
        <time>2021-06-11T19:53:25Z</time>
      </trkpt>
      <trkpt lat="45.49337" lon="3.43851">
        <ele>756</ele>
        <time>2021-06-11T19:53:28Z</time>
      </trkpt>
      <trkpt lat="45.49306" lon="3.43892">
        <ele>753</ele>
        <time>2021-06-11T19:53:35Z</time>
      </trkpt>
      <trkpt lat="45.49289" lon="3.4392">
        <ele>752</ele>
        <time>2021-06-11T19:53:40Z</time>
      </trkpt>
      <trkpt lat="45.49205" lon="3.4409">
        <ele>754</ele>
        <time>2021-06-11T19:54:06Z</time>
      </trkpt>
      <trkpt lat="45.49195" lon="3.44103">
        <ele>753</ele>
        <time>2021-06-11T19:54:08Z</time>
      </trkpt>
      <trkpt lat="45.49184" lon="3.44111">
        <ele>753</ele>
        <time>2021-06-11T19:54:10Z</time>
      </trkpt>
      <trkpt lat="45.4914" lon="3.44105">
        <ele>757</ele>
        <time>2021-06-11T19:54:18Z</time>
      </trkpt>
      <trkpt lat="45.49129" lon="3.44105">
        <ele>758</ele>
        <time>2021-06-11T19:54:20Z</time>
      </trkpt>
      <trkpt lat="45.49118" lon="3.44111">
        <ele>759</ele>
        <time>2021-06-11T19:54:22Z</time>
      </trkpt>
      <trkpt lat="45.4911" lon="3.4412">
        <ele>759</ele>
        <time>2021-06-11T19:54:24Z</time>
      </trkpt>
      <trkpt lat="45.49056" lon="3.44188">
        <ele>757</ele>
        <time>2021-06-11T19:54:37Z</time>
      </trkpt>
      <trkpt lat="45.49016" lon="3.44223">
        <ele>758</ele>
        <time>2021-06-11T19:54:45Z</time>
      </trkpt>
      <trkpt lat="45.49004" lon="3.44229">
        <ele>758</ele>
        <time>2021-06-11T19:54:47Z</time>
      </trkpt>
      <trkpt lat="45.48987" lon="3.44233">
        <ele>759</ele>
        <time>2021-06-11T19:54:51Z</time>
      </trkpt>
      <trkpt lat="45.48967" lon="3.44235">
        <ele>760</ele>
        <time>2021-06-11T19:54:54Z</time>
      </trkpt>
      <trkpt lat="45.48943" lon="3.4423">
        <ele>762</ele>
        <time>2021-06-11T19:54:58Z</time>
      </trkpt>
      <trkpt lat="45.48865" lon="3.44184">
        <ele>769</ele>
        <time>2021-06-11T19:55:13Z</time>
      </trkpt>
      <trkpt lat="45.48845" lon="3.44175">
        <ele>770</ele>
        <time>2021-06-11T19:55:17Z</time>
      </trkpt>
      <trkpt lat="45.48713" lon="3.44133">
        <ele>780</ele>
        <time>2021-06-11T19:55:41Z</time>
      </trkpt>
      <trkpt lat="45.48697" lon="3.44126">
        <ele>781</ele>
        <time>2021-06-11T19:55:44Z</time>
      </trkpt>
      <trkpt lat="45.48666" lon="3.44106">
        <ele>784</ele>
        <time>2021-06-11T19:55:50Z</time>
      </trkpt>
      <trkpt lat="45.4863" lon="3.44078">
        <ele>786</ele>
        <time>2021-06-11T19:55:58Z</time>
      </trkpt>
      <trkpt lat="45.48614" lon="3.44075">
        <ele>787</ele>
        <time>2021-06-11T19:56:00Z</time>
      </trkpt>
      <trkpt lat="45.48603" lon="3.44077">
        <ele>787</ele>
        <time>2021-06-11T19:56:02Z</time>
      </trkpt>
      <trkpt lat="45.48584" lon="3.44092">
        <ele>788</ele>
        <time>2021-06-11T19:56:06Z</time>
      </trkpt>
      <trkpt lat="45.48483" lon="3.44189">
        <ele>796</ele>
        <time>2021-06-11T19:56:28Z</time>
      </trkpt>
      <trkpt lat="45.48473" lon="3.44206">
        <ele>798</ele>
        <time>2021-06-11T19:56:31Z</time>
      </trkpt>
      <trkpt lat="45.4847" lon="3.44223">
        <ele>798</ele>
        <time>2021-06-11T19:56:33Z</time>
      </trkpt>
      <trkpt lat="45.48465" lon="3.44325">
        <ele>801</ele>
        <time>2021-06-11T19:56:46Z</time>
      </trkpt>
      <trkpt lat="45.48461" lon="3.44344">
        <ele>802</ele>
        <time>2021-06-11T19:56:48Z</time>
      </trkpt>
      <trkpt lat="45.48452" lon="3.44362">
        <ele>803</ele>
        <time>2021-06-11T19:56:51Z</time>
      </trkpt>
      <trkpt lat="45.48351" lon="3.44497">
        <ele>813</ele>
        <time>2021-06-11T19:57:16Z</time>
      </trkpt>
      <trkpt lat="45.48323" lon="3.44529">
        <ele>814</ele>
        <time>2021-06-11T19:57:22Z</time>
      </trkpt>
      <trkpt lat="45.48302" lon="3.44548">
        <ele>814</ele>
        <time>2021-06-11T19:57:26Z</time>
      </trkpt>
      <trkpt lat="45.48218" lon="3.44608">
        <ele>816</ele>
        <time>2021-06-11T19:57:43Z</time>
      </trkpt>
      <trkpt lat="45.48189" lon="3.44634">
        <ele>816</ele>
        <time>2021-06-11T19:57:49Z</time>
      </trkpt>
      <trkpt lat="45.48108" lon="3.44718">
        <ele>815</ele>
        <time>2021-06-11T19:58:07Z</time>
      </trkpt>
      <trkpt lat="45.48085" lon="3.44748">
        <ele>813</ele>
        <time>2021-06-11T19:58:13Z</time>
      </trkpt>
      <trkpt lat="45.48054" lon="3.44797">
        <ele>809</ele>
        <time>2021-06-11T19:58:21Z</time>
      </trkpt>
      <trkpt lat="45.48048" lon="3.44811">
        <ele>807</ele>
        <time>2021-06-11T19:58:23Z</time>
      </trkpt>
      <trkpt lat="45.48043" lon="3.4483">
        <ele>806</ele>
        <time>2021-06-11T19:58:25Z</time>
      </trkpt>
      <trkpt lat="45.4804" lon="3.44922">
        <ele>805</ele>
        <time>2021-06-11T19:58:37Z</time>
      </trkpt>
      <trkpt lat="45.48036" lon="3.44946">
        <ele>805</ele>
        <time>2021-06-11T19:58:40Z</time>
      </trkpt>
      <trkpt lat="45.48027" lon="3.44962">
        <ele>805</ele>
        <time>2021-06-11T19:58:42Z</time>
      </trkpt>
      <trkpt lat="45.48015" lon="3.44973">
        <ele>805</ele>
        <time>2021-06-11T19:58:45Z</time>
      </trkpt>
      <trkpt lat="45.48002" lon="3.44976">
        <ele>804</ele>
        <time>2021-06-11T19:58:47Z</time>
      </trkpt>
      <trkpt lat="45.47909" lon="3.44945">
        <ele>805</ele>
        <time>2021-06-11T19:59:04Z</time>
      </trkpt>
      <trkpt lat="45.47897" lon="3.44946">
        <ele>807</ele>
        <time>2021-06-11T19:59:06Z</time>
      </trkpt>
      <trkpt lat="45.47886" lon="3.44951">
        <ele>808</ele>
        <time>2021-06-11T19:59:09Z</time>
      </trkpt>
      <trkpt lat="45.47875" lon="3.44967">
        <ele>811</ele>
        <time>2021-06-11T19:59:11Z</time>
      </trkpt>
      <trkpt lat="45.47845" lon="3.45024">
        <ele>815</ele>
        <time>2021-06-11T19:59:20Z</time>
      </trkpt>
      <trkpt lat="45.47829" lon="3.45047">
        <ele>815</ele>
        <time>2021-06-11T19:59:24Z</time>
      </trkpt>
      <trkpt lat="45.47808" lon="3.45068">
        <ele>816</ele>
        <time>2021-06-11T19:59:29Z</time>
      </trkpt>
      <trkpt lat="45.47785" lon="3.45085">
        <ele>816</ele>
        <time>2021-06-11T19:59:33Z</time>
      </trkpt>
      <trkpt lat="45.4774" lon="3.45108">
        <ele>817</ele>
        <time>2021-06-11T19:59:42Z</time>
      </trkpt>
      <trkpt lat="45.47726" lon="3.45121">
        <ele>818</ele>
        <time>2021-06-11T19:59:45Z</time>
      </trkpt>
      <trkpt lat="45.47714" lon="3.4514">
        <ele>818</ele>
        <time>2021-06-11T19:59:48Z</time>
      </trkpt>
      <trkpt lat="45.4767" lon="3.45228">
        <ele>820</ele>
        <time>2021-06-11T20:00:02Z</time>
      </trkpt>
      <trkpt lat="45.47844" lon="3.45272">
        <ele>823</ele>
        <time>2021-06-11T20:00:33Z</time>
      </trkpt>
      <trkpt lat="45.47867" lon="3.45282">
        <ele>823</ele>
        <time>2021-06-11T20:00:37Z</time>
      </trkpt>
      <trkpt lat="45.47882" lon="3.45298">
        <ele>824</ele>
        <time>2021-06-11T20:00:41Z</time>
      </trkpt>
      <trkpt lat="45.47923" lon="3.45353">
        <ele>826</ele>
        <time>2021-06-11T20:00:51Z</time>
      </trkpt>
      <trkpt lat="45.47958" lon="3.45386">
        <ele>826</ele>
        <time>2021-06-11T20:00:58Z</time>
      </trkpt>
      <trkpt lat="45.48004" lon="3.45437">
        <ele>827</ele>
        <time>2021-06-11T20:01:08Z</time>
      </trkpt>
      <trkpt lat="45.48011" lon="3.45452">
        <ele>828</ele>
        <time>2021-06-11T20:01:11Z</time>
      </trkpt>
      <trkpt lat="45.48029" lon="3.45511">
        <ele>832</ele>
        <time>2021-06-11T20:01:19Z</time>
      </trkpt>
      <trkpt lat="45.48041" lon="3.45576">
        <ele>838</ele>
        <time>2021-06-11T20:01:27Z</time>
      </trkpt>
      <trkpt lat="45.48056" lon="3.45623">
        <ele>836</ele>
        <time>2021-06-11T20:01:34Z</time>
      </trkpt>
      <trkpt lat="45.48075" lon="3.45654">
        <ele>833</ele>
        <time>2021-06-11T20:01:39Z</time>
      </trkpt>
      <trkpt lat="45.48098" lon="3.45677">
        <ele>832</ele>
        <time>2021-06-11T20:01:44Z</time>
      </trkpt>
      <trkpt lat="45.48154" lon="3.4572">
        <ele>836</ele>
        <time>2021-06-11T20:01:55Z</time>
      </trkpt>
      <trkpt lat="45.48171" lon="3.45747">
        <ele>837</ele>
        <time>2021-06-11T20:02:00Z</time>
      </trkpt>
      <trkpt lat="45.48187" lon="3.45783">
        <ele>839</ele>
        <time>2021-06-11T20:02:05Z</time>
      </trkpt>
      <trkpt lat="45.482" lon="3.45827">
        <ele>840</ele>
        <time>2021-06-11T20:02:11Z</time>
      </trkpt>
      <trkpt lat="45.48211" lon="3.45855">
        <ele>842</ele>
        <time>2021-06-11T20:02:15Z</time>
      </trkpt>
      <trkpt lat="45.48221" lon="3.4587">
        <ele>842</ele>
        <time>2021-06-11T20:02:17Z</time>
      </trkpt>
      <trkpt lat="45.48234" lon="3.45883">
        <ele>843</ele>
        <time>2021-06-11T20:02:20Z</time>
      </trkpt>
      <trkpt lat="45.4828" lon="3.45906">
        <ele>842</ele>
        <time>2021-06-11T20:02:29Z</time>
      </trkpt>
      <trkpt lat="45.48301" lon="3.45919">
        <ele>841</ele>
        <time>2021-06-11T20:02:33Z</time>
      </trkpt>
      <trkpt lat="45.48322" lon="3.45938">
        <ele>841</ele>
        <time>2021-06-11T20:02:37Z</time>
      </trkpt>
      <trkpt lat="45.48369" lon="3.45989">
        <ele>840</ele>
        <time>2021-06-11T20:02:48Z</time>
      </trkpt>
      <trkpt lat="45.48388" lon="3.46004">
        <ele>840</ele>
        <time>2021-06-11T20:02:52Z</time>
      </trkpt>
      <trkpt lat="45.48415" lon="3.46013">
        <ele>840</ele>
        <time>2021-06-11T20:02:57Z</time>
      </trkpt>
      <trkpt lat="45.48493" lon="3.4603">
        <ele>833</ele>
        <time>2021-06-11T20:03:11Z</time>
      </trkpt>
      <trkpt lat="45.48568" lon="3.46065">
        <ele>832</ele>
        <time>2021-06-11T20:03:25Z</time>
      </trkpt>
      <trkpt lat="45.48595" lon="3.4607">
        <ele>833</ele>
        <time>2021-06-11T20:03:30Z</time>
      </trkpt>
      <trkpt lat="45.48648" lon="3.46064">
        <ele>836</ele>
        <time>2021-06-11T20:03:39Z</time>
      </trkpt>
      <trkpt lat="45.48694" lon="3.46068">
        <ele>838</ele>
        <time>2021-06-11T20:03:47Z</time>
      </trkpt>
      <trkpt lat="45.48786" lon="3.46079">
        <ele>842</ele>
        <time>2021-06-11T20:04:04Z</time>
      </trkpt>
      <trkpt lat="45.48841" lon="3.46095">
        <ele>844</ele>
        <time>2021-06-11T20:04:14Z</time>
      </trkpt>
      <trkpt lat="45.48895" lon="3.46114">
        <ele>848</ele>
        <time>2021-06-11T20:04:24Z</time>
      </trkpt>
      <trkpt lat="45.48913" lon="3.46118">
        <ele>849</ele>
        <time>2021-06-11T20:04:27Z</time>
      </trkpt>
      <trkpt lat="45.48934" lon="3.46116">
        <ele>850</ele>
        <time>2021-06-11T20:04:31Z</time>
      </trkpt>
      <trkpt lat="45.48985" lon="3.461">
        <ele>852</ele>
        <time>2021-06-11T20:04:40Z</time>
      </trkpt>
      <trkpt lat="45.49006" lon="3.46098">
        <ele>852</ele>
        <time>2021-06-11T20:04:44Z</time>
      </trkpt>
      <trkpt lat="45.49027" lon="3.46105">
        <ele>850</ele>
        <time>2021-06-11T20:04:47Z</time>
      </trkpt>
      <trkpt lat="45.49065" lon="3.46128">
        <ele>846</ele>
        <time>2021-06-11T20:04:55Z</time>
      </trkpt>
      <trkpt lat="45.49087" lon="3.46154">
        <ele>843</ele>
        <time>2021-06-11T20:05:00Z</time>
      </trkpt>
      <trkpt lat="45.49105" lon="3.46191">
        <ele>842</ele>
        <time>2021-06-11T20:05:06Z</time>
      </trkpt>
      <trkpt lat="45.49116" lon="3.4621">
        <ele>842</ele>
        <time>2021-06-11T20:05:09Z</time>
      </trkpt>
      <trkpt lat="45.49135" lon="3.46232">
        <ele>841</ele>
        <time>2021-06-11T20:05:13Z</time>
      </trkpt>
      <trkpt lat="45.49144" lon="3.46252">
        <ele>842</ele>
        <time>2021-06-11T20:05:16Z</time>
      </trkpt>
      <trkpt lat="45.49153" lon="3.46281">
        <ele>844</ele>
        <time>2021-06-11T20:05:20Z</time>
      </trkpt>
      <trkpt lat="45.49163" lon="3.46308">
        <ele>846</ele>
        <time>2021-06-11T20:05:24Z</time>
      </trkpt>
      <trkpt lat="45.49173" lon="3.4632">
        <ele>847</ele>
        <time>2021-06-11T20:05:26Z</time>
      </trkpt>
      <trkpt lat="45.49189" lon="3.46329">
        <ele>846</ele>
        <time>2021-06-11T20:05:29Z</time>
      </trkpt>
      <trkpt lat="45.49266" lon="3.4636">
        <ele>843</ele>
        <time>2021-06-11T20:05:43Z</time>
      </trkpt>
      <trkpt lat="45.49281" lon="3.46378">
        <ele>844</ele>
        <time>2021-06-11T20:05:47Z</time>
      </trkpt>
      <trkpt lat="45.49294" lon="3.46387">
        <ele>844</ele>
        <time>2021-06-11T20:05:49Z</time>
      </trkpt>
      <trkpt lat="45.49312" lon="3.46394">
        <ele>844</ele>
        <time>2021-06-11T20:05:53Z</time>
      </trkpt>
      <trkpt lat="45.49341" lon="3.4641">
        <ele>843</ele>
        <time>2021-06-11T20:05:58Z</time>
      </trkpt>
      <trkpt lat="45.49402" lon="3.46506">
        <ele>835</ele>
        <time>2021-06-11T20:06:14Z</time>
      </trkpt>
      <trkpt lat="45.49425" lon="3.46552">
        <ele>829</ele>
        <time>2021-06-11T20:06:21Z</time>
      </trkpt>
      <trkpt lat="45.49449" lon="3.46578">
        <ele>828</ele>
        <time>2021-06-11T20:06:27Z</time>
      </trkpt>
      <trkpt lat="45.49464" lon="3.46586">
        <ele>830</ele>
        <time>2021-06-11T20:06:30Z</time>
      </trkpt>
      <trkpt lat="45.4949" lon="3.46619">
        <ele>827</ele>
        <time>2021-06-11T20:06:36Z</time>
      </trkpt>
      <trkpt lat="45.49526" lon="3.46655">
        <ele>821</ele>
        <time>2021-06-11T20:06:44Z</time>
      </trkpt>
      <trkpt lat="45.49563" lon="3.46679">
        <ele>819</ele>
        <time>2021-06-11T20:06:51Z</time>
      </trkpt>
      <trkpt lat="45.49599" lon="3.46696">
        <ele>814</ele>
        <time>2021-06-11T20:06:58Z</time>
      </trkpt>
      <trkpt lat="45.49615" lon="3.46697">
        <ele>812</ele>
        <time>2021-06-11T20:07:00Z</time>
      </trkpt>
      <trkpt lat="45.49644" lon="3.46683">
        <ele>810</ele>
        <time>2021-06-11T20:07:06Z</time>
      </trkpt>
      <trkpt lat="45.49668" lon="3.46659">
        <ele>811</ele>
        <time>2021-06-11T20:07:11Z</time>
      </trkpt>
      <trkpt lat="45.49693" lon="3.46625">
        <ele>811</ele>
        <time>2021-06-11T20:07:17Z</time>
      </trkpt>
      <trkpt lat="45.49743" lon="3.46573">
        <ele>807</ele>
        <time>2021-06-11T20:07:28Z</time>
      </trkpt>
      <trkpt lat="45.49765" lon="3.46534">
        <ele>809</ele>
        <time>2021-06-11T20:07:35Z</time>
      </trkpt>
      <trkpt lat="45.49775" lon="3.46527">
        <ele>810</ele>
        <time>2021-06-11T20:07:37Z</time>
      </trkpt>
      <trkpt lat="45.49784" lon="3.46527">
        <ele>810</ele>
        <time>2021-06-11T20:07:38Z</time>
      </trkpt>
      <trkpt lat="45.49792" lon="3.46536">
        <ele>808</ele>
        <time>2021-06-11T20:07:40Z</time>
      </trkpt>
      <trkpt lat="45.49801" lon="3.46549">
        <ele>807</ele>
        <time>2021-06-11T20:07:42Z</time>
      </trkpt>
      <trkpt lat="45.49807" lon="3.46565">
        <ele>804</ele>
        <time>2021-06-11T20:07:44Z</time>
      </trkpt>
      <trkpt lat="45.49821" lon="3.46589">
        <ele>801</ele>
        <time>2021-06-11T20:07:48Z</time>
      </trkpt>
      <trkpt lat="45.49837" lon="3.46609">
        <ele>797</ele>
        <time>2021-06-11T20:07:52Z</time>
      </trkpt>
      <trkpt lat="45.4986" lon="3.46632">
        <ele>794</ele>
        <time>2021-06-11T20:07:57Z</time>
      </trkpt>
      <trkpt lat="45.49877" lon="3.46647">
        <ele>792</ele>
        <time>2021-06-11T20:08:01Z</time>
      </trkpt>
      <trkpt lat="45.49887" lon="3.4666">
        <ele>791</ele>
        <time>2021-06-11T20:08:03Z</time>
      </trkpt>
      <trkpt lat="45.49907" lon="3.4671">
        <ele>787</ele>
        <time>2021-06-11T20:08:10Z</time>
      </trkpt>
      <trkpt lat="45.49917" lon="3.4672">
        <ele>786</ele>
        <time>2021-06-11T20:08:12Z</time>
      </trkpt>
      <trkpt lat="45.49933" lon="3.46727">
        <ele>785</ele>
        <time>2021-06-11T20:08:15Z</time>
      </trkpt>
      <trkpt lat="45.4995" lon="3.4673">
        <ele>784</ele>
        <time>2021-06-11T20:08:18Z</time>
      </trkpt>
      <trkpt lat="45.49975" lon="3.46725">
        <ele>784</ele>
        <time>2021-06-11T20:08:23Z</time>
      </trkpt>
      <trkpt lat="45.50026" lon="3.46706">
        <ele>783</ele>
        <time>2021-06-11T20:08:32Z</time>
      </trkpt>
      <trkpt lat="45.5004" lon="3.46704">
        <ele>782</ele>
        <time>2021-06-11T20:08:35Z</time>
      </trkpt>
      <trkpt lat="45.50065" lon="3.46718">
        <ele>778</ele>
        <time>2021-06-11T20:08:40Z</time>
      </trkpt>
      <trkpt lat="45.50131" lon="3.4676">
        <ele>769</ele>
        <time>2021-06-11T20:08:52Z</time>
      </trkpt>
      <trkpt lat="45.50146" lon="3.46765">
        <ele>768</ele>
        <time>2021-06-11T20:08:55Z</time>
      </trkpt>
      <trkpt lat="45.50179" lon="3.46756">
        <ele>768</ele>
        <time>2021-06-11T20:09:01Z</time>
      </trkpt>
      <trkpt lat="45.50192" lon="3.46756">
        <ele>767</ele>
        <time>2021-06-11T20:09:04Z</time>
      </trkpt>
      <trkpt lat="45.50201" lon="3.46763">
        <ele>766</ele>
        <time>2021-06-11T20:09:05Z</time>
      </trkpt>
      <trkpt lat="45.50206" lon="3.46775">
        <ele>764</ele>
        <time>2021-06-11T20:09:07Z</time>
      </trkpt>
      <trkpt lat="45.50206" lon="3.4679">
        <ele>763</ele>
        <time>2021-06-11T20:09:09Z</time>
      </trkpt>
      <trkpt lat="45.50203" lon="3.46804">
        <ele>762</ele>
        <time>2021-06-11T20:09:11Z</time>
      </trkpt>
      <trkpt lat="45.50196" lon="3.46817">
        <ele>761</ele>
        <time>2021-06-11T20:09:13Z</time>
      </trkpt>
      <trkpt lat="45.50121" lon="3.46893">
        <ele>755</ele>
        <time>2021-06-11T20:09:29Z</time>
      </trkpt>
      <trkpt lat="45.50061" lon="3.46937">
        <ele>754</ele>
        <time>2021-06-11T20:09:41Z</time>
      </trkpt>
      <trkpt lat="45.50056" lon="3.46952">
        <ele>754</ele>
        <time>2021-06-11T20:09:43Z</time>
      </trkpt>
      <trkpt lat="45.50055" lon="3.46966">
        <ele>755</ele>
        <time>2021-06-11T20:09:45Z</time>
      </trkpt>
      <trkpt lat="45.50059" lon="3.46981">
        <ele>754</ele>
        <time>2021-06-11T20:09:47Z</time>
      </trkpt>
      <trkpt lat="45.50065" lon="3.46989">
        <ele>753</ele>
        <time>2021-06-11T20:09:48Z</time>
      </trkpt>
      <trkpt lat="45.50073" lon="3.46993">
        <ele>752</ele>
        <time>2021-06-11T20:09:50Z</time>
      </trkpt>
      <trkpt lat="45.5009" lon="3.46992">
        <ele>750</ele>
        <time>2021-06-11T20:09:53Z</time>
      </trkpt>
      <trkpt lat="45.50128" lon="3.46978">
        <ele>749</ele>
        <time>2021-06-11T20:10:00Z</time>
      </trkpt>
      <trkpt lat="45.5014" lon="3.46977">
        <ele>748</ele>
        <time>2021-06-11T20:10:02Z</time>
      </trkpt>
      <trkpt lat="45.50165" lon="3.46982">
        <ele>747</ele>
        <time>2021-06-11T20:10:07Z</time>
      </trkpt>
      <trkpt lat="45.50276" lon="3.47019">
        <ele>746</ele>
        <time>2021-06-11T20:10:27Z</time>
      </trkpt>
      <trkpt lat="45.50288" lon="3.47025">
        <ele>747</ele>
        <time>2021-06-11T20:10:29Z</time>
      </trkpt>
      <trkpt lat="45.50309" lon="3.47039">
        <ele>748</ele>
        <time>2021-06-11T20:10:33Z</time>
      </trkpt>
      <trkpt lat="45.50344" lon="3.4707">
        <ele>752</ele>
        <time>2021-06-11T20:10:41Z</time>
      </trkpt>
      <trkpt lat="45.50355" lon="3.47073">
        <ele>753</ele>
        <time>2021-06-11T20:10:43Z</time>
      </trkpt>
      <trkpt lat="45.50366" lon="3.47073">
        <ele>753</ele>
        <time>2021-06-11T20:10:45Z</time>
      </trkpt>
      <trkpt lat="45.50678" lon="3.46993">
        <ele>778</ele>
        <time>2021-06-11T20:11:41Z</time>
      </trkpt>
      <trkpt lat="45.50698" lon="3.46981">
        <ele>778</ele>
        <time>2021-06-11T20:11:45Z</time>
      </trkpt>
      <trkpt lat="45.50747" lon="3.46944">
        <ele>777</ele>
        <time>2021-06-11T20:11:55Z</time>
      </trkpt>
      <trkpt lat="45.50764" lon="3.46935">
        <ele>777</ele>
        <time>2021-06-11T20:11:58Z</time>
      </trkpt>
      <trkpt lat="45.50782" lon="3.46931">
        <ele>778</ele>
        <time>2021-06-11T20:12:01Z</time>
      </trkpt>
      <trkpt lat="45.50825" lon="3.46935">
        <ele>780</ele>
        <time>2021-06-11T20:12:09Z</time>
      </trkpt>
      <trkpt lat="45.50943" lon="3.46953">
        <ele>784</ele>
        <time>2021-06-11T20:12:30Z</time>
      </trkpt>
      <trkpt lat="45.50976" lon="3.46949">
        <ele>784</ele>
        <time>2021-06-11T20:12:36Z</time>
      </trkpt>
      <trkpt lat="45.51013" lon="3.46949">
        <ele>784</ele>
        <time>2021-06-11T20:12:42Z</time>
      </trkpt>
      <trkpt lat="45.51027" lon="3.46956">
        <ele>784</ele>
        <time>2021-06-11T20:12:45Z</time>
      </trkpt>
      <trkpt lat="45.51034" lon="3.46968">
        <ele>785</ele>
        <time>2021-06-11T20:12:47Z</time>
      </trkpt>
      <trkpt lat="45.51036" lon="3.46996">
        <ele>786</ele>
        <time>2021-06-11T20:12:51Z</time>
      </trkpt>
      <trkpt lat="45.51028" lon="3.4706">
        <ele>784</ele>
        <time>2021-06-11T20:12:59Z</time>
      </trkpt>
      <trkpt lat="45.51026" lon="3.47146">
        <ele>779</ele>
        <time>2021-06-11T20:13:09Z</time>
      </trkpt>
      <trkpt lat="45.51029" lon="3.47172">
        <ele>777</ele>
        <time>2021-06-11T20:13:13Z</time>
      </trkpt>
      <trkpt lat="45.51046" lon="3.47188">
        <ele>776</ele>
        <time>2021-06-11T20:13:16Z</time>
      </trkpt>
      <trkpt lat="45.51057" lon="3.47204">
        <ele>776</ele>
        <time>2021-06-11T20:13:19Z</time>
      </trkpt>
      <trkpt lat="45.51089" lon="3.47275">
        <ele>775</ele>
        <time>2021-06-11T20:13:30Z</time>
      </trkpt>
      <trkpt lat="45.51098" lon="3.47288">
        <ele>775</ele>
        <time>2021-06-11T20:13:32Z</time>
      </trkpt>
      <trkpt lat="45.51111" lon="3.47294">
        <ele>775</ele>
        <time>2021-06-11T20:13:34Z</time>
      </trkpt>
      <trkpt lat="45.51126" lon="3.47293">
        <ele>776</ele>
        <time>2021-06-11T20:13:37Z</time>
      </trkpt>
      <trkpt lat="45.51165" lon="3.4724">
        <ele>770</ele>
        <time>2021-06-11T20:13:47Z</time>
      </trkpt>
      <trkpt lat="45.51253" lon="3.47161">
        <ele>770</ele>
        <time>2021-06-11T20:14:05Z</time>
      </trkpt>
      <trkpt lat="45.51355" lon="3.47083">
        <ele>767</ele>
        <time>2021-06-11T20:14:26Z</time>
      </trkpt>
      <trkpt lat="45.51392" lon="3.4705">
        <ele>768</ele>
        <time>2021-06-11T20:14:33Z</time>
      </trkpt>
      <trkpt lat="45.51434" lon="3.47019">
        <ele>768</ele>
        <time>2021-06-11T20:14:42Z</time>
      </trkpt>
      <trkpt lat="45.51466" lon="3.47004">
        <ele>769</ele>
        <time>2021-06-11T20:14:48Z</time>
      </trkpt>
      <trkpt lat="45.51518" lon="3.46983">
        <ele>770</ele>
        <time>2021-06-11T20:14:57Z</time>
      </trkpt>
      <trkpt lat="45.51582" lon="3.4696">
        <ele>772</ele>
        <time>2021-06-11T20:15:09Z</time>
      </trkpt>
      <trkpt lat="45.51624" lon="3.46951">
        <ele>772</ele>
        <time>2021-06-11T20:15:17Z</time>
      </trkpt>
      <trkpt lat="45.51663" lon="3.46957">
        <ele>773</ele>
        <time>2021-06-11T20:15:24Z</time>
      </trkpt>
      <trkpt lat="45.51708" lon="3.4698">
        <ele>772</ele>
        <time>2021-06-11T20:15:32Z</time>
      </trkpt>
      <trkpt lat="45.51762" lon="3.47029">
        <ele>772</ele>
        <time>2021-06-11T20:15:44Z</time>
      </trkpt>
      <trkpt lat="45.51825" lon="3.47078">
        <ele>773</ele>
        <time>2021-06-11T20:15:56Z</time>
      </trkpt>
      <trkpt lat="45.52047" lon="3.47298">
        <ele>792</ele>
        <time>2021-06-11T20:16:44Z</time>
      </trkpt>
      <trkpt lat="45.52069" lon="3.47371">
        <ele>795</ele>
        <time>2021-06-11T20:16:54Z</time>
      </trkpt>
      <trkpt lat="45.5208" lon="3.47426">
        <ele>794</ele>
        <time>2021-06-11T20:17:02Z</time>
      </trkpt>
      <trkpt lat="45.52098" lon="3.47561">
        <ele>788</ele>
        <time>2021-06-11T20:17:19Z</time>
      </trkpt>
      <trkpt lat="45.52105" lon="3.47587">
        <ele>786</ele>
        <time>2021-06-11T20:17:22Z</time>
      </trkpt>
      <trkpt lat="45.5212" lon="3.47615">
        <ele>786</ele>
        <time>2021-06-11T20:17:27Z</time>
      </trkpt>
      <trkpt lat="45.52183" lon="3.47687">
        <ele>788</ele>
        <time>2021-06-11T20:17:41Z</time>
      </trkpt>
      <trkpt lat="45.52199" lon="3.47698">
        <ele>790</ele>
        <time>2021-06-11T20:17:44Z</time>
      </trkpt>
      <trkpt lat="45.5223" lon="3.47702">
        <ele>793</ele>
        <time>2021-06-11T20:17:50Z</time>
      </trkpt>
      <trkpt lat="45.52289" lon="3.47698">
        <ele>796</ele>
        <time>2021-06-11T20:18:00Z</time>
      </trkpt>
      <trkpt lat="45.52365" lon="3.47709">
        <ele>802</ele>
        <time>2021-06-11T20:18:14Z</time>
      </trkpt>
      <trkpt lat="45.52474" lon="3.47745">
        <ele>811</ele>
        <time>2021-06-11T20:18:34Z</time>
      </trkpt>
      <trkpt lat="45.52489" lon="3.47779">
        <ele>811</ele>
        <time>2021-06-11T20:18:39Z</time>
      </trkpt>
      <trkpt lat="45.52414" lon="3.4801">
        <ele>819</ele>
        <time>2021-06-11T20:19:10Z</time>
      </trkpt>
      <trkpt lat="45.52429" lon="3.48031">
        <ele>820</ele>
        <time>2021-06-11T20:19:14Z</time>
      </trkpt>
      <trkpt lat="45.52454" lon="3.48037">
        <ele>822</ele>
        <time>2021-06-11T20:19:19Z</time>
      </trkpt>
      <trkpt lat="45.52473" lon="3.48031">
        <ele>823</ele>
        <time>2021-06-11T20:19:22Z</time>
      </trkpt>
      <trkpt lat="45.52499" lon="3.4802">
        <ele>823</ele>
        <time>2021-06-11T20:19:27Z</time>
      </trkpt>
      <trkpt lat="45.52561" lon="3.48037">
        <ele>827</ele>
        <time>2021-06-11T20:19:38Z</time>
      </trkpt>
      <trkpt lat="45.52619" lon="3.48093">
        <ele>833</ele>
        <time>2021-06-11T20:19:51Z</time>
      </trkpt>
      <trkpt lat="45.52671" lon="3.48166">
        <ele>832</ele>
        <time>2021-06-11T20:20:04Z</time>
      </trkpt>
      <trkpt lat="45.52695" lon="3.4819">
        <ele>833</ele>
        <time>2021-06-11T20:20:09Z</time>
      </trkpt>
      <trkpt lat="45.52726" lon="3.48212">
        <ele>834</ele>
        <time>2021-06-11T20:20:15Z</time>
      </trkpt>
      <trkpt lat="45.52781" lon="3.48246">
        <ele>836</ele>
        <time>2021-06-11T20:20:26Z</time>
      </trkpt>
      <trkpt lat="45.52875" lon="3.483">
        <ele>842</ele>
        <time>2021-06-11T20:20:44Z</time>
      </trkpt>
      <trkpt lat="45.52922" lon="3.48337">
        <ele>844</ele>
        <time>2021-06-11T20:20:53Z</time>
      </trkpt>
      <trkpt lat="45.53013" lon="3.48433">
        <ele>851</ele>
        <time>2021-06-11T20:21:13Z</time>
      </trkpt>
      <trkpt lat="45.53051" lon="3.4848">
        <ele>853</ele>
        <time>2021-06-11T20:21:22Z</time>
      </trkpt>
      <trkpt lat="45.53084" lon="3.4853">
        <ele>855</ele>
        <time>2021-06-11T20:21:31Z</time>
      </trkpt>
      <trkpt lat="45.53121" lon="3.48581">
        <ele>857</ele>
        <time>2021-06-11T20:21:40Z</time>
      </trkpt>
      <trkpt lat="45.53171" lon="3.48624">
        <ele>858</ele>
        <time>2021-06-11T20:21:50Z</time>
      </trkpt>
      <trkpt lat="45.53218" lon="3.48671">
        <ele>861</ele>
        <time>2021-06-11T20:22:01Z</time>
      </trkpt>
      <trkpt lat="45.53276" lon="3.48739">
        <ele>863</ele>
        <time>2021-06-11T20:22:14Z</time>
      </trkpt>
      <trkpt lat="45.53348" lon="3.48801">
        <ele>861</ele>
        <time>2021-06-11T20:22:29Z</time>
      </trkpt>
      <trkpt lat="45.53373" lon="3.48817">
        <ele>861</ele>
        <time>2021-06-11T20:22:34Z</time>
      </trkpt>
      <trkpt lat="45.53407" lon="3.48827">
        <ele>861</ele>
        <time>2021-06-11T20:22:40Z</time>
      </trkpt>
      <trkpt lat="45.53448" lon="3.48827">
        <ele>864</ele>
        <time>2021-06-11T20:22:47Z</time>
      </trkpt>
      <trkpt lat="45.5348" lon="3.4884">
        <ele>868</ele>
        <time>2021-06-11T20:22:53Z</time>
      </trkpt>
      <trkpt lat="45.53551" lon="3.489">
        <ele>874</ele>
        <time>2021-06-11T20:23:08Z</time>
      </trkpt>
      <trkpt lat="45.5358" lon="3.48935">
        <ele>872</ele>
        <time>2021-06-11T20:23:15Z</time>
      </trkpt>
      <trkpt lat="45.53597" lon="3.49009">
        <ele>868</ele>
        <time>2021-06-11T20:23:24Z</time>
      </trkpt>
      <trkpt lat="45.53614" lon="3.49121">
        <ele>862</ele>
        <time>2021-06-11T20:23:39Z</time>
      </trkpt>
      <trkpt lat="45.53625" lon="3.49213">
        <ele>860</ele>
        <time>2021-06-11T20:23:50Z</time>
      </trkpt>
      <trkpt lat="45.53709" lon="3.49333">
        <ele>856</ele>
        <time>2021-06-11T20:24:11Z</time>
      </trkpt>
      <trkpt lat="45.53754" lon="3.49383">
        <ele>849</ele>
        <time>2021-06-11T20:24:21Z</time>
      </trkpt>
      <trkpt lat="45.5379" lon="3.49406">
        <ele>845</ele>
        <time>2021-06-11T20:24:28Z</time>
      </trkpt>
      <trkpt lat="45.53825" lon="3.49446">
        <ele>838</ele>
        <time>2021-06-11T20:24:36Z</time>
      </trkpt>
      <trkpt lat="45.53856" lon="3.49522">
        <ele>830</ele>
        <time>2021-06-11T20:24:47Z</time>
      </trkpt>
      <trkpt lat="45.53881" lon="3.49596">
        <ele>827</ele>
        <time>2021-06-11T20:24:58Z</time>
      </trkpt>
      <trkpt lat="45.53921" lon="3.4963">
        <ele>823</ele>
        <time>2021-06-11T20:25:06Z</time>
      </trkpt>
      <trkpt lat="45.53961" lon="3.49615">
        <ele>823</ele>
        <time>2021-06-11T20:25:13Z</time>
      </trkpt>
      <trkpt lat="45.53989" lon="3.49626">
        <ele>822</ele>
        <time>2021-06-11T20:25:18Z</time>
      </trkpt>
      <trkpt lat="45.54023" lon="3.49679">
        <ele>818</ele>
        <time>2021-06-11T20:25:27Z</time>
      </trkpt>
      <trkpt lat="45.54031" lon="3.49762">
        <ele>807</ele>
        <time>2021-06-11T20:25:38Z</time>
      </trkpt>
      <trkpt lat="45.54046" lon="3.498">
        <ele>801</ele>
        <time>2021-06-11T20:25:43Z</time>
      </trkpt>
      <trkpt lat="45.54085" lon="3.49806">
        <ele>800</ele>
        <time>2021-06-11T20:25:50Z</time>
      </trkpt>
      <trkpt lat="45.54163" lon="3.49775">
        <ele>803</ele>
        <time>2021-06-11T20:26:05Z</time>
      </trkpt>
      <trkpt lat="45.54209" lon="3.49753">
        <ele>795</ele>
        <time>2021-06-11T20:26:13Z</time>
      </trkpt>
      <trkpt lat="45.54225" lon="3.49696">
        <ele>795</ele>
        <time>2021-06-11T20:26:21Z</time>
      </trkpt>
      <trkpt lat="45.54224" lon="3.49651">
        <ele>797</ele>
        <time>2021-06-11T20:26:27Z</time>
      </trkpt>
      <trkpt lat="45.54237" lon="3.49615">
        <ele>793</ele>
        <time>2021-06-11T20:26:32Z</time>
      </trkpt>
      <trkpt lat="45.54252" lon="3.49603">
        <ele>789</ele>
        <time>2021-06-11T20:26:35Z</time>
      </trkpt>
      <trkpt lat="45.54309" lon="3.49637">
        <ele>784</ele>
        <time>2021-06-11T20:26:46Z</time>
      </trkpt>
      <trkpt lat="45.54336" lon="3.49648">
        <ele>781</ele>
        <time>2021-06-11T20:26:51Z</time>
      </trkpt>
      <trkpt lat="45.54434" lon="3.49618">
        <ele>777</ele>
        <time>2021-06-11T20:27:09Z</time>
      </trkpt>
      <trkpt lat="45.54478" lon="3.49542">
        <ele>776</ele>
        <time>2021-06-11T20:27:21Z</time>
      </trkpt>
      <trkpt lat="45.54562" lon="3.4946">
        <ele>769</ele>
        <time>2021-06-11T20:27:39Z</time>
      </trkpt>
      <trkpt lat="45.54613" lon="3.49399">
        <ele>767</ele>
        <time>2021-06-11T20:27:51Z</time>
      </trkpt>
      <trkpt lat="45.54635" lon="3.49366">
        <ele>767</ele>
        <time>2021-06-11T20:27:56Z</time>
      </trkpt>
      <trkpt lat="45.54653" lon="3.49362">
        <ele>766</ele>
        <time>2021-06-11T20:28:00Z</time>
      </trkpt>
      <trkpt lat="45.54679" lon="3.49374">
        <ele>765</ele>
        <time>2021-06-11T20:28:05Z</time>
      </trkpt>
      <trkpt lat="45.54689" lon="3.49387">
        <ele>764</ele>
        <time>2021-06-11T20:28:07Z</time>
      </trkpt>
      <trkpt lat="45.54702" lon="3.4941">
        <ele>764</ele>
        <time>2021-06-11T20:28:11Z</time>
      </trkpt>
      <trkpt lat="45.54843" lon="3.49666">
        <ele>775</ele>
        <time>2021-06-11T20:28:51Z</time>
      </trkpt>
      <trkpt lat="45.54891" lon="3.49749">
        <ele>781</ele>
        <time>2021-06-11T20:29:05Z</time>
      </trkpt>
      <trkpt lat="45.54899" lon="3.49785">
        <ele>784</ele>
        <time>2021-06-11T20:29:09Z</time>
      </trkpt>
      <trkpt lat="45.549" lon="3.49828">
        <ele>787</ele>
        <time>2021-06-11T20:29:15Z</time>
      </trkpt>
      <trkpt lat="45.54911" lon="3.49871">
        <ele>790</ele>
        <time>2021-06-11T20:29:20Z</time>
      </trkpt>
      <trkpt lat="45.54935" lon="3.49948">
        <ele>793</ele>
        <time>2021-06-11T20:29:31Z</time>
      </trkpt>
      <trkpt lat="45.54951" lon="3.49966">
        <ele>794</ele>
        <time>2021-06-11T20:29:34Z</time>
      </trkpt>
      <trkpt lat="45.54967" lon="3.49977">
        <ele>795</ele>
        <time>2021-06-11T20:29:38Z</time>
      </trkpt>
      <trkpt lat="45.54985" lon="3.49982">
        <ele>796</ele>
        <time>2021-06-11T20:29:41Z</time>
      </trkpt>
      <trkpt lat="45.55012" lon="3.49975">
        <ele>797</ele>
        <time>2021-06-11T20:29:46Z</time>
      </trkpt>
      <trkpt lat="45.55044" lon="3.49955">
        <ele>799</ele>
        <time>2021-06-11T20:29:52Z</time>
      </trkpt>
      <trkpt lat="45.55052" lon="3.49953">
        <ele>800</ele>
        <time>2021-06-11T20:29:53Z</time>
      </trkpt>
      <trkpt lat="45.5505" lon="3.50006">
        <ele>801</ele>
        <time>2021-06-11T20:30:00Z</time>
      </trkpt>
      <trkpt lat="45.55025" lon="3.50151">
        <ele>801</ele>
        <time>2021-06-11T20:30:19Z</time>
      </trkpt>
      <trkpt lat="45.55026" lon="3.50198">
        <ele>800</ele>
        <time>2021-06-11T20:30:25Z</time>
      </trkpt>
      <trkpt lat="45.55046" lon="3.50263">
        <ele>801</ele>
        <time>2021-06-11T20:30:33Z</time>
      </trkpt>
      <trkpt lat="45.55055" lon="3.50279">
        <ele>801</ele>
        <time>2021-06-11T20:30:36Z</time>
      </trkpt>
      <trkpt lat="45.5507" lon="3.50292">
        <ele>802</ele>
        <time>2021-06-11T20:30:39Z</time>
      </trkpt>
      <trkpt lat="45.55089" lon="3.50297">
        <ele>804</ele>
        <time>2021-06-11T20:30:42Z</time>
      </trkpt>
      <trkpt lat="45.55104" lon="3.50304">
        <ele>804</ele>
        <time>2021-06-11T20:30:45Z</time>
      </trkpt>
      <trkpt lat="45.55115" lon="3.50317">
        <ele>804</ele>
        <time>2021-06-11T20:30:48Z</time>
      </trkpt>
      <trkpt lat="45.55118" lon="3.50339">
        <ele>803</ele>
        <time>2021-06-11T20:30:51Z</time>
      </trkpt>
      <trkpt lat="45.55115" lon="3.50354">
        <ele>803</ele>
        <time>2021-06-11T20:30:53Z</time>
      </trkpt>
      <trkpt lat="45.55087" lon="3.50407">
        <ele>799</ele>
        <time>2021-06-11T20:31:01Z</time>
      </trkpt>
      <trkpt lat="45.55085" lon="3.5043">
        <ele>798</ele>
        <time>2021-06-11T20:31:04Z</time>
      </trkpt>
      <trkpt lat="45.55089" lon="3.50474">
        <ele>799</ele>
        <time>2021-06-11T20:31:09Z</time>
      </trkpt>
      <trkpt lat="45.55086" lon="3.50493">
        <ele>799</ele>
        <time>2021-06-11T20:31:12Z</time>
      </trkpt>
      <trkpt lat="45.55083" lon="3.50506">
        <ele>799</ele>
        <time>2021-06-11T20:31:13Z</time>
      </trkpt>
      <trkpt lat="45.55075" lon="3.50522">
        <ele>799</ele>
        <time>2021-06-11T20:31:16Z</time>
      </trkpt>
      <trkpt lat="45.55066" lon="3.50552">
        <ele>801</ele>
        <time>2021-06-11T20:31:20Z</time>
      </trkpt>
      <trkpt lat="45.55071" lon="3.50613">
        <ele>803</ele>
        <time>2021-06-11T20:31:28Z</time>
      </trkpt>
      <trkpt lat="45.55065" lon="3.50669">
        <ele>806</ele>
        <time>2021-06-11T20:31:35Z</time>
      </trkpt>
      <trkpt lat="45.55064" lon="3.50717">
        <ele>807</ele>
        <time>2021-06-11T20:31:41Z</time>
      </trkpt>
      <trkpt lat="45.55058" lon="3.50733">
        <ele>807</ele>
        <time>2021-06-11T20:31:43Z</time>
      </trkpt>
      <trkpt lat="45.55011" lon="3.50813">
        <ele>812</ele>
        <time>2021-06-11T20:31:56Z</time>
      </trkpt>
      <trkpt lat="45.54971" lon="3.50843">
        <ele>810</ele>
        <time>2021-06-11T20:32:04Z</time>
      </trkpt>
      <trkpt lat="45.5493" lon="3.50912">
        <ele>809</ele>
        <time>2021-06-11T20:32:15Z</time>
      </trkpt>
      <trkpt lat="45.54914" lon="3.51019">
        <ele>811</ele>
        <time>2021-06-11T20:32:29Z</time>
      </trkpt>
      <trkpt lat="45.54906" lon="3.51045">
        <ele>811</ele>
        <time>2021-06-11T20:32:32Z</time>
      </trkpt>
      <trkpt lat="45.54899" lon="3.51059">
        <ele>811</ele>
        <time>2021-06-11T20:32:35Z</time>
      </trkpt>
      <trkpt lat="45.5488" lon="3.51083">
        <ele>810</ele>
        <time>2021-06-11T20:32:39Z</time>
      </trkpt>
      <trkpt lat="45.54872" lon="3.51099">
        <ele>810</ele>
        <time>2021-06-11T20:32:41Z</time>
      </trkpt>
      <trkpt lat="45.54861" lon="3.51154">
        <ele>812</ele>
        <time>2021-06-11T20:32:49Z</time>
      </trkpt>
      <trkpt lat="45.5484" lon="3.51204">
        <ele>811</ele>
        <time>2021-06-11T20:32:56Z</time>
      </trkpt>
      <trkpt lat="45.54835" lon="3.51221">
        <ele>811</ele>
        <time>2021-06-11T20:32:58Z</time>
      </trkpt>
      <trkpt lat="45.54837" lon="3.51242">
        <ele>812</ele>
        <time>2021-06-11T20:33:01Z</time>
      </trkpt>
      <trkpt lat="45.54875" lon="3.51357">
        <ele>820</ele>
        <time>2021-06-11T20:33:17Z</time>
      </trkpt>
      <trkpt lat="45.54881" lon="3.51381">
        <ele>822</ele>
        <time>2021-06-11T20:33:20Z</time>
      </trkpt>
      <trkpt lat="45.54879" lon="3.5141">
        <ele>823</ele>
        <time>2021-06-11T20:33:23Z</time>
      </trkpt>
      <trkpt lat="45.54869" lon="3.51427">
        <ele>824</ele>
        <time>2021-06-11T20:33:26Z</time>
      </trkpt>
      <trkpt lat="45.54851" lon="3.51434">
        <ele>823</ele>
        <time>2021-06-11T20:33:30Z</time>
      </trkpt>
      <trkpt lat="45.54823" lon="3.51433">
        <ele>822</ele>
        <time>2021-06-11T20:33:35Z</time>
      </trkpt>
      <trkpt lat="45.54792" lon="3.51471">
        <ele>823</ele>
        <time>2021-06-11T20:33:42Z</time>
      </trkpt>
      <trkpt lat="45.54764" lon="3.51544">
        <ele>827</ele>
        <time>2021-06-11T20:33:52Z</time>
      </trkpt>
      <trkpt lat="45.54755" lon="3.51564">
        <ele>827</ele>
        <time>2021-06-11T20:33:55Z</time>
      </trkpt>
      <trkpt lat="45.54694" lon="3.51714">
        <ele>831</ele>
        <time>2021-06-11T20:34:17Z</time>
      </trkpt>
      <trkpt lat="45.5467" lon="3.51788">
        <ele>832</ele>
        <time>2021-06-11T20:34:27Z</time>
      </trkpt>
      <trkpt lat="45.54664" lon="3.51817">
        <ele>832</ele>
        <time>2021-06-11T20:34:31Z</time>
      </trkpt>
      <trkpt lat="45.54664" lon="3.51871">
        <ele>833</ele>
        <time>2021-06-11T20:34:37Z</time>
      </trkpt>
      <trkpt lat="45.54666" lon="3.51898">
        <ele>834</ele>
        <time>2021-06-11T20:34:41Z</time>
      </trkpt>
      <trkpt lat="45.54669" lon="3.51918">
        <ele>834</ele>
        <time>2021-06-11T20:34:43Z</time>
      </trkpt>
      <trkpt lat="45.54677" lon="3.51936">
        <ele>835</ele>
        <time>2021-06-11T20:34:46Z</time>
      </trkpt>
      <trkpt lat="45.54685" lon="3.51951">
        <ele>835</ele>
        <time>2021-06-11T20:34:48Z</time>
      </trkpt>
      <trkpt lat="45.54696" lon="3.51963">
        <ele>835</ele>
        <time>2021-06-11T20:34:51Z</time>
      </trkpt>
      <trkpt lat="45.54721" lon="3.51984">
        <ele>837</ele>
        <time>2021-06-11T20:34:56Z</time>
      </trkpt>
      <trkpt lat="45.54755" lon="3.52002">
        <ele>838</ele>
        <time>2021-06-11T20:35:02Z</time>
      </trkpt>
      <trkpt lat="45.54763" lon="3.52004">
        <ele>839</ele>
        <time>2021-06-11T20:35:04Z</time>
      </trkpt>
      <trkpt lat="45.54794" lon="3.52007">
        <ele>842</ele>
        <time>2021-06-11T20:35:09Z</time>
      </trkpt>
      <trkpt lat="45.54808" lon="3.52013">
        <ele>843</ele>
        <time>2021-06-11T20:35:12Z</time>
      </trkpt>
      <trkpt lat="45.54814" lon="3.52019">
        <ele>843</ele>
        <time>2021-06-11T20:35:13Z</time>
      </trkpt>
      <trkpt lat="45.54818" lon="3.52029">
        <ele>843</ele>
        <time>2021-06-11T20:35:15Z</time>
      </trkpt>
      <trkpt lat="45.5482" lon="3.52049">
        <ele>842</ele>
        <time>2021-06-11T20:35:17Z</time>
      </trkpt>
      <trkpt lat="45.54818" lon="3.52086">
        <ele>839</ele>
        <time>2021-06-11T20:35:22Z</time>
      </trkpt>
      <trkpt lat="45.54822" lon="3.52115">
        <ele>838</ele>
        <time>2021-06-11T20:35:26Z</time>
      </trkpt>
      <trkpt lat="45.54828" lon="3.5213">
        <ele>837</ele>
        <time>2021-06-11T20:35:28Z</time>
      </trkpt>
      <trkpt lat="45.54842" lon="3.52156">
        <ele>835</ele>
        <time>2021-06-11T20:35:32Z</time>
      </trkpt>
      <trkpt lat="45.54845" lon="3.52167">
        <ele>835</ele>
        <time>2021-06-11T20:35:33Z</time>
      </trkpt>
      <trkpt lat="45.54844" lon="3.52184">
        <ele>836</ele>
        <time>2021-06-11T20:35:35Z</time>
      </trkpt>
      <trkpt lat="45.54843" lon="3.52192">
        <ele>837</ele>
        <time>2021-06-11T20:35:36Z</time>
      </trkpt>
      <trkpt lat="45.54837" lon="3.52202">
        <ele>838</ele>
        <time>2021-06-11T20:35:38Z</time>
      </trkpt>
      <trkpt lat="45.54833" lon="3.52208">
        <ele>838</ele>
        <time>2021-06-11T20:35:39Z</time>
      </trkpt>
      <trkpt lat="45.54827" lon="3.52217">
        <ele>840</ele>
        <time>2021-06-11T20:35:41Z</time>
      </trkpt>
      <trkpt lat="45.54813" lon="3.52228">
        <ele>842</ele>
        <time>2021-06-11T20:35:43Z</time>
      </trkpt>
      <trkpt lat="45.548" lon="3.5223">
        <ele>844</ele>
        <time>2021-06-11T20:35:46Z</time>
      </trkpt>
      <trkpt lat="45.54793" lon="3.52227">
        <ele>844</ele>
        <time>2021-06-11T20:35:47Z</time>
      </trkpt>
      <trkpt lat="45.54772" lon="3.52198">
        <ele>842</ele>
        <time>2021-06-11T20:35:52Z</time>
      </trkpt>
      <trkpt lat="45.54749" lon="3.52175">
        <ele>839</ele>
        <time>2021-06-11T20:35:57Z</time>
      </trkpt>
      <trkpt lat="45.5473" lon="3.52167">
        <ele>839</ele>
        <time>2021-06-11T20:36:01Z</time>
      </trkpt>
      <trkpt lat="45.5471" lon="3.52163">
        <ele>841</ele>
        <time>2021-06-11T20:36:04Z</time>
      </trkpt>
      <trkpt lat="45.54662" lon="3.52158">
        <ele>843</ele>
        <time>2021-06-11T20:36:13Z</time>
      </trkpt>
      <trkpt lat="45.5465" lon="3.52158">
        <ele>843</ele>
        <time>2021-06-11T20:36:15Z</time>
      </trkpt>
      <trkpt lat="45.54635" lon="3.52162">
        <ele>843</ele>
        <time>2021-06-11T20:36:18Z</time>
      </trkpt>
      <trkpt lat="45.54623" lon="3.5217">
        <ele>843</ele>
        <time>2021-06-11T20:36:20Z</time>
      </trkpt>
      <trkpt lat="45.54615" lon="3.5218">
        <ele>844</ele>
        <time>2021-06-11T20:36:22Z</time>
      </trkpt>
      <trkpt lat="45.54609" lon="3.52192">
        <ele>846</ele>
        <time>2021-06-11T20:36:24Z</time>
      </trkpt>
      <trkpt lat="45.54603" lon="3.52211">
        <ele>848</ele>
        <time>2021-06-11T20:36:27Z</time>
      </trkpt>
      <trkpt lat="45.54592" lon="3.52277">
        <ele>855</ele>
        <time>2021-06-11T20:36:35Z</time>
      </trkpt>
      <trkpt lat="45.5458" lon="3.52322">
        <ele>858</ele>
        <time>2021-06-11T20:36:41Z</time>
      </trkpt>
      <trkpt lat="45.54559" lon="3.52375">
        <ele>860</ele>
        <time>2021-06-11T20:36:49Z</time>
      </trkpt>
      <trkpt lat="45.54531" lon="3.5243">
        <ele>861</ele>
        <time>2021-06-11T20:36:57Z</time>
      </trkpt>
      <trkpt lat="45.54525" lon="3.52446">
        <ele>861</ele>
        <time>2021-06-11T20:36:59Z</time>
      </trkpt>
      <trkpt lat="45.5452" lon="3.52481">
        <ele>862</ele>
        <time>2021-06-11T20:37:04Z</time>
      </trkpt>
      <trkpt lat="45.54517" lon="3.52526">
        <ele>863</ele>
        <time>2021-06-11T20:37:09Z</time>
      </trkpt>
      <trkpt lat="45.54519" lon="3.52561">
        <ele>865</ele>
        <time>2021-06-11T20:37:14Z</time>
      </trkpt>
      <trkpt lat="45.54518" lon="3.52581">
        <ele>866</ele>
        <time>2021-06-11T20:37:16Z</time>
      </trkpt>
      <trkpt lat="45.54514" lon="3.52596">
        <ele>867</ele>
        <time>2021-06-11T20:37:18Z</time>
      </trkpt>
      <trkpt lat="45.54499" lon="3.52612">
        <ele>867</ele>
        <time>2021-06-11T20:37:22Z</time>
      </trkpt>
      <trkpt lat="45.54492" lon="3.52615">
        <ele>867</ele>
        <time>2021-06-11T20:37:23Z</time>
      </trkpt>
      <trkpt lat="45.54453" lon="3.52617">
        <ele>865</ele>
        <time>2021-06-11T20:37:30Z</time>
      </trkpt>
      <trkpt lat="45.54439" lon="3.52622">
        <ele>864</ele>
        <time>2021-06-11T20:37:32Z</time>
      </trkpt>
      <trkpt lat="45.54424" lon="3.52633">
        <ele>864</ele>
        <time>2021-06-11T20:37:35Z</time>
      </trkpt>
      <trkpt lat="45.54414" lon="3.52645">
        <ele>865</ele>
        <time>2021-06-11T20:37:38Z</time>
      </trkpt>
      <trkpt lat="45.5436" lon="3.52767">
        <ele>876</ele>
        <time>2021-06-11T20:37:56Z</time>
      </trkpt>
      <trkpt lat="45.54347" lon="3.5281">
        <ele>878</ele>
        <time>2021-06-11T20:38:02Z</time>
      </trkpt>
      <trkpt lat="45.54327" lon="3.52889">
        <ele>882</ele>
        <time>2021-06-11T20:38:12Z</time>
      </trkpt>
      <trkpt lat="45.54316" lon="3.52919">
        <ele>883</ele>
        <time>2021-06-11T20:38:16Z</time>
      </trkpt>
      <trkpt lat="45.54312" lon="3.52934">
        <ele>883</ele>
        <time>2021-06-11T20:38:18Z</time>
      </trkpt>
      <trkpt lat="45.5431" lon="3.52949">
        <ele>884</ele>
        <time>2021-06-11T20:38:20Z</time>
      </trkpt>
      <trkpt lat="45.54311" lon="3.52962">
        <ele>885</ele>
        <time>2021-06-11T20:38:22Z</time>
      </trkpt>
      <trkpt lat="45.54316" lon="3.52977">
        <ele>886</ele>
        <time>2021-06-11T20:38:24Z</time>
      </trkpt>
      <trkpt lat="45.54321" lon="3.52987">
        <ele>887</ele>
        <time>2021-06-11T20:38:25Z</time>
      </trkpt>
      <trkpt lat="45.54327" lon="3.52996">
        <ele>888</ele>
        <time>2021-06-11T20:38:27Z</time>
      </trkpt>
      <trkpt lat="45.54341" lon="3.53009">
        <ele>889</ele>
        <time>2021-06-11T20:38:30Z</time>
      </trkpt>
      <trkpt lat="45.54344" lon="3.53012">
        <ele>889</ele>
        <time>2021-06-11T20:38:31Z</time>
      </trkpt>
      <trkpt lat="45.54357" lon="3.53024">
        <ele>890</ele>
        <time>2021-06-11T20:38:33Z</time>
      </trkpt>
      <trkpt lat="45.54363" lon="3.53031">
        <ele>890</ele>
        <time>2021-06-11T20:38:35Z</time>
      </trkpt>
      <trkpt lat="45.54366" lon="3.53035">
        <ele>890</ele>
        <time>2021-06-11T20:38:35Z</time>
      </trkpt>
      <trkpt lat="45.54376" lon="3.53053">
        <ele>890</ele>
        <time>2021-06-11T20:38:38Z</time>
      </trkpt>
      <trkpt lat="45.54381" lon="3.53065">
        <ele>890</ele>
        <time>2021-06-11T20:38:40Z</time>
      </trkpt>
      <trkpt lat="45.54395" lon="3.53097">
        <ele>890</ele>
        <time>2021-06-11T20:38:45Z</time>
      </trkpt>
      <trkpt lat="45.544" lon="3.53108">
        <ele>890</ele>
        <time>2021-06-11T20:38:46Z</time>
      </trkpt>
      <trkpt lat="45.54404" lon="3.53119">
        <ele>890</ele>
        <time>2021-06-11T20:38:48Z</time>
      </trkpt>
      <trkpt lat="45.54417" lon="3.53162">
        <ele>890</ele>
        <time>2021-06-11T20:38:54Z</time>
      </trkpt>
      <trkpt lat="45.5442" lon="3.53177">
        <ele>890</ele>
        <time>2021-06-11T20:38:56Z</time>
      </trkpt>
      <trkpt lat="45.54426" lon="3.53234">
        <ele>892</ele>
        <time>2021-06-11T20:39:03Z</time>
      </trkpt>
      <trkpt lat="45.54428" lon="3.53253">
        <ele>892</ele>
        <time>2021-06-11T20:39:05Z</time>
      </trkpt>
      <trkpt lat="45.54431" lon="3.53266">
        <ele>892</ele>
        <time>2021-06-11T20:39:07Z</time>
      </trkpt>
      <trkpt lat="45.54461" lon="3.53323">
        <ele>893</ele>
        <time>2021-06-11T20:39:16Z</time>
      </trkpt>
      <trkpt lat="45.54473" lon="3.53349">
        <ele>893</ele>
        <time>2021-06-11T20:39:20Z</time>
      </trkpt>
      <trkpt lat="45.5449" lon="3.53416">
        <ele>894</ele>
        <time>2021-06-11T20:39:29Z</time>
      </trkpt>
      <trkpt lat="45.54531" lon="3.53537">
        <ele>898</ele>
        <time>2021-06-11T20:39:45Z</time>
      </trkpt>
      <trkpt lat="45.5454" lon="3.53549">
        <ele>899</ele>
        <time>2021-06-11T20:39:48Z</time>
      </trkpt>
      <trkpt lat="45.54564" lon="3.53565">
        <ele>900</ele>
        <time>2021-06-11T20:39:52Z</time>
      </trkpt>
      <trkpt lat="45.54637" lon="3.53576">
        <ele>903</ele>
        <time>2021-06-11T20:40:05Z</time>
      </trkpt>
      <trkpt lat="45.5465" lon="3.53583">
        <ele>904</ele>
        <time>2021-06-11T20:40:08Z</time>
      </trkpt>
      <trkpt lat="45.5466" lon="3.53592">
        <ele>905</ele>
        <time>2021-06-11T20:40:10Z</time>
      </trkpt>
      <trkpt lat="45.54665" lon="3.53598">
        <ele>905</ele>
        <time>2021-06-11T20:40:11Z</time>
      </trkpt>
      <trkpt lat="45.54672" lon="3.53606">
        <ele>906</ele>
        <time>2021-06-11T20:40:13Z</time>
      </trkpt>
      <trkpt lat="45.54687" lon="3.53636">
        <ele>907</ele>
        <time>2021-06-11T20:40:17Z</time>
      </trkpt>
      <trkpt lat="45.54695" lon="3.53667">
        <ele>908</ele>
        <time>2021-06-11T20:40:21Z</time>
      </trkpt>
      <trkpt lat="45.54695" lon="3.53683">
        <ele>909</ele>
        <time>2021-06-11T20:40:23Z</time>
      </trkpt>
      <trkpt lat="45.54686" lon="3.53714">
        <ele>909</ele>
        <time>2021-06-11T20:40:28Z</time>
      </trkpt>
      <trkpt lat="45.54641" lon="3.53783">
        <ele>912</ele>
        <time>2021-06-11T20:40:39Z</time>
      </trkpt>
      <trkpt lat="45.5463" lon="3.53797">
        <ele>913</ele>
        <time>2021-06-11T20:40:42Z</time>
      </trkpt>
      <trkpt lat="45.54611" lon="3.5382">
        <ele>914</ele>
        <time>2021-06-11T20:40:46Z</time>
      </trkpt>
      <trkpt lat="45.54593" lon="3.53827">
        <ele>915</ele>
        <time>2021-06-11T20:40:50Z</time>
      </trkpt>
      <trkpt lat="45.54515" lon="3.53839">
        <ele>919</ele>
        <time>2021-06-11T20:41:04Z</time>
      </trkpt>
      <trkpt lat="45.54461" lon="3.53863">
        <ele>921</ele>
        <time>2021-06-11T20:41:14Z</time>
      </trkpt>
      <trkpt lat="45.544" lon="3.53909">
        <ele>926</ele>
        <time>2021-06-11T20:41:26Z</time>
      </trkpt>
      <trkpt lat="45.54367" lon="3.53955">
        <ele>927</ele>
        <time>2021-06-11T20:41:34Z</time>
      </trkpt>
      <trkpt lat="45.54348" lon="3.54002">
        <ele>929</ele>
        <time>2021-06-11T20:41:41Z</time>
      </trkpt>
      <trkpt lat="45.54346" lon="3.54014">
        <ele>929</ele>
        <time>2021-06-11T20:41:42Z</time>
      </trkpt>
      <trkpt lat="45.54348" lon="3.54037">
        <ele>930</ele>
        <time>2021-06-11T20:41:45Z</time>
      </trkpt>
      <trkpt lat="45.54369" lon="3.54071">
        <ele>932</ele>
        <time>2021-06-11T20:41:51Z</time>
      </trkpt>
      <trkpt lat="45.54388" lon="3.54106">
        <ele>934</ele>
        <time>2021-06-11T20:41:56Z</time>
      </trkpt>
      <trkpt lat="45.544" lon="3.54139">
        <ele>934</ele>
        <time>2021-06-11T20:42:01Z</time>
      </trkpt>
      <trkpt lat="45.54407" lon="3.54184">
        <ele>936</ele>
        <time>2021-06-11T20:42:07Z</time>
      </trkpt>
      <trkpt lat="45.54407" lon="3.54209">
        <ele>937</ele>
        <time>2021-06-11T20:42:10Z</time>
      </trkpt>
      <trkpt lat="45.54406" lon="3.54222">
        <ele>937</ele>
        <time>2021-06-11T20:42:12Z</time>
      </trkpt>
      <trkpt lat="45.54396" lon="3.54259">
        <ele>939</ele>
        <time>2021-06-11T20:42:17Z</time>
      </trkpt>
      <trkpt lat="45.54378" lon="3.543">
        <ele>942</ele>
        <time>2021-06-11T20:42:23Z</time>
      </trkpt>
      <trkpt lat="45.54355" lon="3.54338">
        <ele>945</ele>
        <time>2021-06-11T20:42:29Z</time>
      </trkpt>
      <trkpt lat="45.54312" lon="3.54388">
        <ele>948</ele>
        <time>2021-06-11T20:42:39Z</time>
      </trkpt>
      <trkpt lat="45.54289" lon="3.54426">
        <ele>951</ele>
        <time>2021-06-11T20:42:45Z</time>
      </trkpt>
      <trkpt lat="45.54271" lon="3.54461">
        <ele>955</ele>
        <time>2021-06-11T20:42:50Z</time>
      </trkpt>
      <trkpt lat="45.54261" lon="3.54495">
        <ele>958</ele>
        <time>2021-06-11T20:42:55Z</time>
      </trkpt>
      <trkpt lat="45.5426" lon="3.54513">
        <ele>959</ele>
        <time>2021-06-11T20:42:57Z</time>
      </trkpt>
      <trkpt lat="45.54263" lon="3.5454">
        <ele>960</ele>
        <time>2021-06-11T20:43:01Z</time>
      </trkpt>
      <trkpt lat="45.54285" lon="3.5458">
        <ele>962</ele>
        <time>2021-06-11T20:43:07Z</time>
      </trkpt>
      <trkpt lat="45.5431" lon="3.54635">
        <ele>966</ele>
        <time>2021-06-11T20:43:15Z</time>
      </trkpt>
      <trkpt lat="45.54318" lon="3.54674">
        <ele>969</ele>
        <time>2021-06-11T20:43:20Z</time>
      </trkpt>
      <trkpt lat="45.54317" lon="3.54714">
        <ele>971</ele>
        <time>2021-06-11T20:43:25Z</time>
      </trkpt>
      <trkpt lat="45.54311" lon="3.54752">
        <ele>972</ele>
        <time>2021-06-11T20:43:30Z</time>
      </trkpt>
      <trkpt lat="45.5429" lon="3.54798">
        <ele>973</ele>
        <time>2021-06-11T20:43:37Z</time>
      </trkpt>
      <trkpt lat="45.54287" lon="3.54824">
        <ele>974</ele>
        <time>2021-06-11T20:43:40Z</time>
      </trkpt>
      <trkpt lat="45.54288" lon="3.5489">
        <ele>976</ele>
        <time>2021-06-11T20:43:48Z</time>
      </trkpt>
      <trkpt lat="45.54286" lon="3.54906">
        <ele>976</ele>
        <time>2021-06-11T20:43:50Z</time>
      </trkpt>
      <trkpt lat="45.5428" lon="3.54923">
        <ele>976</ele>
        <time>2021-06-11T20:43:53Z</time>
      </trkpt>
      <trkpt lat="45.54271" lon="3.54933">
        <ele>976</ele>
        <time>2021-06-11T20:43:55Z</time>
      </trkpt>
      <trkpt lat="45.54225" lon="3.54961">
        <ele>978</ele>
        <time>2021-06-11T20:44:04Z</time>
      </trkpt>
      <trkpt lat="45.54211" lon="3.54984">
        <ele>982</ele>
        <time>2021-06-11T20:44:08Z</time>
      </trkpt>
      <trkpt lat="45.54208" lon="3.55011">
        <ele>986</ele>
        <time>2021-06-11T20:44:11Z</time>
      </trkpt>
      <trkpt lat="45.54215" lon="3.55038">
        <ele>990</ele>
        <time>2021-06-11T20:44:15Z</time>
      </trkpt>
      <trkpt lat="45.54228" lon="3.5505">
        <ele>991</ele>
        <time>2021-06-11T20:44:17Z</time>
      </trkpt>
      <trkpt lat="45.54242" lon="3.55059">
        <ele>992</ele>
        <time>2021-06-11T20:44:20Z</time>
      </trkpt>
      <trkpt lat="45.54261" lon="3.55061">
        <ele>992</ele>
        <time>2021-06-11T20:44:23Z</time>
      </trkpt>
      <trkpt lat="45.54503" lon="3.54904">
        <ele>1001</ele>
        <time>2021-06-11T20:45:11Z</time>
      </trkpt>
      <trkpt lat="45.54561" lon="3.54901">
        <ele>1006</ele>
        <time>2021-06-11T20:45:21Z</time>
      </trkpt>
      <trkpt lat="45.54563" lon="3.5491">
        <ele>1007</ele>
        <time>2021-06-11T20:45:22Z</time>
      </trkpt>
      <trkpt lat="45.54572" lon="3.54927">
        <ele>1009</ele>
        <time>2021-06-11T20:45:25Z</time>
      </trkpt>
      <trkpt lat="45.54577" lon="3.54945">
        <ele>1011</ele>
        <time>2021-06-11T20:45:27Z</time>
      </trkpt>
      <trkpt lat="45.54574" lon="3.54965">
        <ele>1012</ele>
        <time>2021-06-11T20:45:30Z</time>
      </trkpt>
      <trkpt lat="45.54543" lon="3.55081">
        <ele>1018</ele>
        <time>2021-06-11T20:45:45Z</time>
      </trkpt>
      <trkpt lat="45.54517" lon="3.55202">
        <ele>1032</ele>
        <time>2021-06-11T20:46:01Z</time>
      </trkpt>
      <trkpt lat="45.54507" lon="3.55229">
        <ele>1035</ele>
        <time>2021-06-11T20:46:05Z</time>
      </trkpt>
      <trkpt lat="45.54486" lon="3.5525">
        <ele>1037</ele>
        <time>2021-06-11T20:46:09Z</time>
      </trkpt>
      <trkpt lat="45.54473" lon="3.55273">
        <ele>1038</ele>
        <time>2021-06-11T20:46:13Z</time>
      </trkpt>
      <trkpt lat="45.5446" lon="3.55302">
        <ele>1041</ele>
        <time>2021-06-11T20:46:17Z</time>
      </trkpt>
      <trkpt lat="45.5443" lon="3.55325">
        <ele>1042</ele>
        <time>2021-06-11T20:46:23Z</time>
      </trkpt>
      <trkpt lat="45.54412" lon="3.55342">
        <ele>1043</ele>
        <time>2021-06-11T20:46:27Z</time>
      </trkpt>
      <trkpt lat="45.54351" lon="3.55413">
        <ele>1053</ele>
        <time>2021-06-11T20:46:41Z</time>
      </trkpt>
      <trkpt lat="45.54244" lon="3.55502">
        <ele>1053</ele>
        <time>2021-06-11T20:47:03Z</time>
      </trkpt>
      <trkpt lat="45.54213" lon="3.55531">
        <ele>1058</ele>
        <time>2021-06-11T20:47:10Z</time>
      </trkpt>
      <trkpt lat="45.54165" lon="3.55564">
        <ele>1062</ele>
        <time>2021-06-11T20:47:19Z</time>
      </trkpt>
      <trkpt lat="45.54159" lon="3.55581">
        <ele>1065</ele>
        <time>2021-06-11T20:47:22Z</time>
      </trkpt>
      <trkpt lat="45.54143" lon="3.55619">
        <ele>1067</ele>
        <time>2021-06-11T20:47:27Z</time>
      </trkpt>
      <trkpt lat="45.5411" lon="3.55645">
        <ele>1067</ele>
        <time>2021-06-11T20:47:34Z</time>
      </trkpt>
      <trkpt lat="45.54106" lon="3.55656">
        <ele>1068</ele>
        <time>2021-06-11T20:47:36Z</time>
      </trkpt>
      <trkpt lat="45.54105" lon="3.55668">
        <ele>1069</ele>
        <time>2021-06-11T20:47:37Z</time>
      </trkpt>
      <trkpt lat="45.54108" lon="3.55706">
        <ele>1072</ele>
        <time>2021-06-11T20:47:42Z</time>
      </trkpt>
      <trkpt lat="45.54106" lon="3.55742">
        <ele>1074</ele>
        <time>2021-06-11T20:47:46Z</time>
      </trkpt>
      <trkpt lat="45.5409" lon="3.55934">
        <ele>1075</ele>
        <time>2021-06-11T20:48:10Z</time>
      </trkpt>
      <trkpt lat="45.54096" lon="3.55976">
        <ele>1075</ele>
        <time>2021-06-11T20:48:16Z</time>
      </trkpt>
      <trkpt lat="45.54121" lon="3.56099">
        <ele>1078</ele>
        <time>2021-06-11T20:48:32Z</time>
      </trkpt>
      <trkpt lat="45.54148" lon="3.56221">
        <ele>1080</ele>
        <time>2021-06-11T20:48:48Z</time>
      </trkpt>
      <trkpt lat="45.54149" lon="3.56246">
        <ele>1079</ele>
        <time>2021-06-11T20:48:51Z</time>
      </trkpt>
      <trkpt lat="45.54139" lon="3.56293">
        <ele>1079</ele>
        <time>2021-06-11T20:48:57Z</time>
      </trkpt>
      <trkpt lat="45.54123" lon="3.56341">
        <ele>1080</ele>
        <time>2021-06-11T20:49:04Z</time>
      </trkpt>
      <trkpt lat="45.54101" lon="3.56388">
        <ele>1081</ele>
        <time>2021-06-11T20:49:11Z</time>
      </trkpt>
      <trkpt lat="45.54073" lon="3.56415">
        <ele>1082</ele>
        <time>2021-06-11T20:49:17Z</time>
      </trkpt>
      <trkpt lat="45.54022" lon="3.56444">
        <ele>1085</ele>
        <time>2021-06-11T20:49:26Z</time>
      </trkpt>
      <trkpt lat="45.5386" lon="3.56516">
        <ele>1089</ele>
        <time>2021-06-11T20:49:57Z</time>
      </trkpt>
      <trkpt lat="45.53824" lon="3.56517">
        <ele>1089</ele>
        <time>2021-06-11T20:50:03Z</time>
      </trkpt>
      <trkpt lat="45.5374" lon="3.56511">
        <ele>1090</ele>
        <time>2021-06-11T20:50:18Z</time>
      </trkpt>
      <trkpt lat="45.53695" lon="3.56509">
        <ele>1089</ele>
        <time>2021-06-11T20:50:26Z</time>
      </trkpt>
      <trkpt lat="45.53679" lon="3.56515">
        <ele>1089</ele>
        <time>2021-06-11T20:50:29Z</time>
      </trkpt>
      <trkpt lat="45.5363" lon="3.56548">
        <ele>1087</ele>
        <time>2021-06-11T20:50:39Z</time>
      </trkpt>
      <trkpt lat="45.53577" lon="3.56589">
        <ele>1085</ele>
        <time>2021-06-11T20:50:49Z</time>
      </trkpt>
      <trkpt lat="45.53529" lon="3.56621">
        <ele>1083</ele>
        <time>2021-06-11T20:50:59Z</time>
      </trkpt>
      <trkpt lat="45.53469" lon="3.56657">
        <ele>1081</ele>
        <time>2021-06-11T20:51:10Z</time>
      </trkpt>
      <trkpt lat="45.53402" lon="3.5671">
        <ele>1084</ele>
        <time>2021-06-11T20:51:24Z</time>
      </trkpt>
      <trkpt lat="45.53347" lon="3.56747">
        <ele>1086</ele>
        <time>2021-06-11T20:51:35Z</time>
      </trkpt>
      <trkpt lat="45.53277" lon="3.56776">
        <ele>1089</ele>
        <time>2021-06-11T20:51:48Z</time>
      </trkpt>
      <trkpt lat="45.53097" lon="3.56841">
        <ele>1088</ele>
        <time>2021-06-11T20:52:21Z</time>
      </trkpt>
      <trkpt lat="45.53042" lon="3.56865">
        <ele>1087</ele>
        <time>2021-06-11T20:52:31Z</time>
      </trkpt>
      <trkpt lat="45.52993" lon="3.56889">
        <ele>1085</ele>
        <time>2021-06-11T20:52:40Z</time>
      </trkpt>
      <trkpt lat="45.52947" lon="3.56915">
        <ele>1083</ele>
        <time>2021-06-11T20:52:49Z</time>
      </trkpt>
      <trkpt lat="45.52887" lon="3.5694">
        <ele>1079</ele>
        <time>2021-06-11T20:53:00Z</time>
      </trkpt>
      <trkpt lat="45.52873" lon="3.56948">
        <ele>1078</ele>
        <time>2021-06-11T20:53:03Z</time>
      </trkpt>
      <trkpt lat="45.52845" lon="3.56972">
        <ele>1076</ele>
        <time>2021-06-11T20:53:09Z</time>
      </trkpt>
      <trkpt lat="45.52821" lon="3.56998">
        <ele>1072</ele>
        <time>2021-06-11T20:53:14Z</time>
      </trkpt>
      <trkpt lat="45.52801" lon="3.57024">
        <ele>1071</ele>
        <time>2021-06-11T20:53:19Z</time>
      </trkpt>
      <trkpt lat="45.52782" lon="3.57036">
        <ele>1070</ele>
        <time>2021-06-11T20:53:22Z</time>
      </trkpt>
      <trkpt lat="45.52746" lon="3.57048">
        <ele>1069</ele>
        <time>2021-06-11T20:53:29Z</time>
      </trkpt>
      <trkpt lat="45.52683" lon="3.57083">
        <ele>1065</ele>
        <time>2021-06-11T20:53:41Z</time>
      </trkpt>
      <trkpt lat="45.52671" lon="3.57083">
        <ele>1065</ele>
        <time>2021-06-11T20:53:43Z</time>
      </trkpt>
      <trkpt lat="45.52651" lon="3.57075">
        <ele>1067</ele>
        <time>2021-06-11T20:53:47Z</time>
      </trkpt>
      <trkpt lat="45.52634" lon="3.57058">
        <ele>1070</ele>
        <time>2021-06-11T20:53:51Z</time>
      </trkpt>
      <trkpt lat="45.52604" lon="3.57032">
        <ele>1075</ele>
        <time>2021-06-11T20:53:57Z</time>
      </trkpt>
      <trkpt lat="45.52591" lon="3.57033">
        <ele>1076</ele>
        <time>2021-06-11T20:53:59Z</time>
      </trkpt>
      <trkpt lat="45.52584" lon="3.57038">
        <ele>1075</ele>
        <time>2021-06-11T20:54:01Z</time>
      </trkpt>
      <trkpt lat="45.52525" lon="3.57121">
        <ele>1067</ele>
        <time>2021-06-11T20:54:15Z</time>
      </trkpt>
      <trkpt lat="45.52467" lon="3.57155">
        <ele>1068</ele>
        <time>2021-06-11T20:54:26Z</time>
      </trkpt>
      <trkpt lat="45.52269" lon="3.57344">
        <ele>1066</ele>
        <time>2021-06-11T20:55:09Z</time>
      </trkpt>
      <trkpt lat="45.5225" lon="3.57356">
        <ele>1067</ele>
        <time>2021-06-11T20:55:12Z</time>
      </trkpt>
      <trkpt lat="45.52211" lon="3.57366">
        <ele>1064</ele>
        <time>2021-06-11T20:55:20Z</time>
      </trkpt>
      <trkpt lat="45.52155" lon="3.57376">
        <ele>1061</ele>
        <time>2021-06-11T20:55:30Z</time>
      </trkpt>
      <trkpt lat="45.52114" lon="3.57398">
        <ele>1058</ele>
        <time>2021-06-11T20:55:37Z</time>
      </trkpt>
      <trkpt lat="45.51961" lon="3.57535">
        <ele>1048</ele>
        <time>2021-06-11T20:56:10Z</time>
      </trkpt>
      <trkpt lat="45.5195" lon="3.57534">
        <ele>1048</ele>
        <time>2021-06-11T20:56:11Z</time>
      </trkpt>
      <trkpt lat="45.51929" lon="3.57604">
        <ele>1047</ele>
        <time>2021-06-11T20:56:21Z</time>
      </trkpt>
      <trkpt lat="45.51927" lon="3.57624">
        <ele>1047</ele>
        <time>2021-06-11T20:56:23Z</time>
      </trkpt>
      <trkpt lat="45.51928" lon="3.57777">
        <ele>1045</ele>
        <time>2021-06-11T20:56:43Z</time>
      </trkpt>
      <trkpt lat="45.51946" lon="3.57872">
        <ele>1042</ele>
        <time>2021-06-11T20:56:55Z</time>
      </trkpt>
      <trkpt lat="45.51956" lon="3.57971">
        <ele>1036</ele>
        <time>2021-06-11T20:57:07Z</time>
      </trkpt>
      <trkpt lat="45.51971" lon="3.58051">
        <ele>1033</ele>
        <time>2021-06-11T20:57:18Z</time>
      </trkpt>
      <trkpt lat="45.51981" lon="3.58088">
        <ele>1033</ele>
        <time>2021-06-11T20:57:23Z</time>
      </trkpt>
      <trkpt lat="45.51993" lon="3.58125">
        <ele>1032</ele>
        <time>2021-06-11T20:57:28Z</time>
      </trkpt>
      <trkpt lat="45.52049" lon="3.58193">
        <ele>1025</ele>
        <time>2021-06-11T20:57:41Z</time>
      </trkpt>
      <trkpt lat="45.52059" lon="3.58221">
        <ele>1023</ele>
        <time>2021-06-11T20:57:45Z</time>
      </trkpt>
      <trkpt lat="45.52059" lon="3.58248">
        <ele>1022</ele>
        <time>2021-06-11T20:57:48Z</time>
      </trkpt>
      <trkpt lat="45.52048" lon="3.58268">
        <ele>1021</ele>
        <time>2021-06-11T20:57:51Z</time>
      </trkpt>
      <trkpt lat="45.52017" lon="3.58308">
        <ele>1021</ele>
        <time>2021-06-11T20:57:59Z</time>
      </trkpt>
      <trkpt lat="45.52002" lon="3.58337">
        <ele>1020</ele>
        <time>2021-06-11T20:58:03Z</time>
      </trkpt>
      <trkpt lat="45.51969" lon="3.58417">
        <ele>1016</ele>
        <time>2021-06-11T20:58:15Z</time>
      </trkpt>
      <trkpt lat="45.51935" lon="3.58488">
        <ele>1014</ele>
        <time>2021-06-11T20:58:25Z</time>
      </trkpt>
      <trkpt lat="45.51894" lon="3.58593">
        <ele>1012</ele>
        <time>2021-06-11T20:58:40Z</time>
      </trkpt>
      <trkpt lat="45.51829" lon="3.58701">
        <ele>1011</ele>
        <time>2021-06-11T20:58:58Z</time>
      </trkpt>
      <trkpt lat="45.51824" lon="3.5872">
        <ele>1011</ele>
        <time>2021-06-11T20:59:01Z</time>
      </trkpt>
      <trkpt lat="45.51824" lon="3.58741">
        <ele>1012</ele>
        <time>2021-06-11T20:59:03Z</time>
      </trkpt>
      <trkpt lat="45.51832" lon="3.58778">
        <ele>1013</ele>
        <time>2021-06-11T20:59:08Z</time>
      </trkpt>
      <trkpt lat="45.51835" lon="3.5878">
        <ele>1013</ele>
        <time>2021-06-11T20:59:09Z</time>
      </trkpt>
      <trkpt lat="45.51878" lon="3.58788">
        <ele>1011</ele>
        <time>2021-06-11T20:59:16Z</time>
      </trkpt>
      <trkpt lat="45.51901" lon="3.58796">
        <ele>1010</ele>
        <time>2021-06-11T20:59:21Z</time>
      </trkpt>
      <trkpt lat="45.51921" lon="3.58814">
        <ele>1008</ele>
        <time>2021-06-11T20:59:25Z</time>
      </trkpt>
      <trkpt lat="45.51949" lon="3.58849">
        <ele>1005</ele>
        <time>2021-06-11T20:59:31Z</time>
      </trkpt>
      <trkpt lat="45.51964" lon="3.58856">
        <ele>1003</ele>
        <time>2021-06-11T20:59:34Z</time>
      </trkpt>
      <trkpt lat="45.51988" lon="3.58855">
        <ele>1001</ele>
        <time>2021-06-11T20:59:39Z</time>
      </trkpt>
      <trkpt lat="45.52009" lon="3.58848">
        <ele>1000</ele>
        <time>2021-06-11T20:59:42Z</time>
      </trkpt>
      <trkpt lat="45.52029" lon="3.58837">
        <ele>1000</ele>
        <time>2021-06-11T20:59:46Z</time>
      </trkpt>
      <trkpt lat="45.52083" lon="3.58786">
        <ele>998</ele>
        <time>2021-06-11T20:59:58Z</time>
      </trkpt>
      <trkpt lat="45.52131" lon="3.58772">
        <ele>995</ele>
        <time>2021-06-11T21:00:06Z</time>
      </trkpt>
      <trkpt lat="45.52174" lon="3.5877">
        <ele>992</ele>
        <time>2021-06-11T21:00:14Z</time>
      </trkpt>
      <trkpt lat="45.522" lon="3.58754">
        <ele>991</ele>
        <time>2021-06-11T21:00:19Z</time>
      </trkpt>
      <trkpt lat="45.52251" lon="3.58709">
        <ele>991</ele>
        <time>2021-06-11T21:00:30Z</time>
      </trkpt>
      <trkpt lat="45.52275" lon="3.58695">
        <ele>989</ele>
        <time>2021-06-11T21:00:34Z</time>
      </trkpt>
      <trkpt lat="45.5235" lon="3.58666">
        <ele>982</ele>
        <time>2021-06-11T21:00:48Z</time>
      </trkpt>
      <trkpt lat="45.52374" lon="3.5866">
        <ele>981</ele>
        <time>2021-06-11T21:00:53Z</time>
      </trkpt>
      <trkpt lat="45.52472" lon="3.58686">
        <ele>983</ele>
        <time>2021-06-11T21:01:10Z</time>
      </trkpt>
      <trkpt lat="45.52505" lon="3.58688">
        <ele>985</ele>
        <time>2021-06-11T21:01:16Z</time>
      </trkpt>
      <trkpt lat="45.52631" lon="3.5868">
        <ele>988</ele>
        <time>2021-06-11T21:01:39Z</time>
      </trkpt>
      <trkpt lat="45.52661" lon="3.58681">
        <ele>988</ele>
        <time>2021-06-11T21:01:44Z</time>
      </trkpt>
      <trkpt lat="45.52696" lon="3.58688">
        <ele>990</ele>
        <time>2021-06-11T21:01:50Z</time>
      </trkpt>
      <trkpt lat="45.52901" lon="3.58742">
        <ele>997</ele>
        <time>2021-06-11T21:02:27Z</time>
      </trkpt>
      <trkpt lat="45.52926" lon="3.58743">
        <ele>997</ele>
        <time>2021-06-11T21:02:32Z</time>
      </trkpt>
      <trkpt lat="45.52964" lon="3.58733">
        <ele>998</ele>
        <time>2021-06-11T21:02:39Z</time>
      </trkpt>
      <trkpt lat="45.52971" lon="3.58739">
        <ele>998</ele>
        <time>2021-06-11T21:02:40Z</time>
      </trkpt>
      <trkpt lat="45.52999" lon="3.58732">
        <ele>999</ele>
        <time>2021-06-11T21:02:45Z</time>
      </trkpt>
      <trkpt lat="45.53087" lon="3.58676">
        <ele>1000</ele>
        <time>2021-06-11T21:03:02Z</time>
      </trkpt>
      <trkpt lat="45.53146" lon="3.58632">
        <ele>998</ele>
        <time>2021-06-11T21:03:14Z</time>
      </trkpt>
      <trkpt lat="45.53179" lon="3.58625">
        <ele>996</ele>
        <time>2021-06-11T21:03:20Z</time>
      </trkpt>
      <trkpt lat="45.53209" lon="3.58633">
        <ele>994</ele>
        <time>2021-06-11T21:03:26Z</time>
      </trkpt>
      <trkpt lat="45.53285" lon="3.58683">
        <ele>986</ele>
        <time>2021-06-11T21:03:40Z</time>
      </trkpt>
      <trkpt lat="45.53403" lon="3.58764">
        <ele>976</ele>
        <time>2021-06-11T21:04:04Z</time>
      </trkpt>
      <trkpt lat="45.53607" lon="3.58911">
        <ele>1001</ele>
        <time>2021-06-11T21:04:44Z</time>
      </trkpt>
      <trkpt lat="45.53688" lon="3.58963">
        <ele>1008</ele>
        <time>2021-06-11T21:05:00Z</time>
      </trkpt>
      <trkpt lat="45.53742" lon="3.58988">
        <ele>1011</ele>
        <time>2021-06-11T21:05:10Z</time>
      </trkpt>
      <trkpt lat="45.53806" lon="3.59013">
        <ele>1012</ele>
        <time>2021-06-11T21:05:22Z</time>
      </trkpt>
      <trkpt lat="45.53977" lon="3.59123">
        <ele>1014</ele>
        <time>2021-06-11T21:05:55Z</time>
      </trkpt>
      <trkpt lat="45.5401" lon="3.59159">
        <ele>1012</ele>
        <time>2021-06-11T21:06:03Z</time>
      </trkpt>
      <trkpt lat="45.54078" lon="3.59289">
        <ele>1018</ele>
        <time>2021-06-11T21:06:23Z</time>
      </trkpt>
      <trkpt lat="45.54093" lon="3.59349">
        <ele>1021</ele>
        <time>2021-06-11T21:06:31Z</time>
      </trkpt>
      <trkpt lat="45.54092" lon="3.59444">
        <ele>1025</ele>
        <time>2021-06-11T21:06:43Z</time>
      </trkpt>
      <trkpt lat="45.54096" lon="3.59667">
        <ele>1035</ele>
        <time>2021-06-11T21:07:11Z</time>
      </trkpt>
      <trkpt lat="45.54129" lon="3.59835">
        <ele>1049</ele>
        <time>2021-06-11T21:07:32Z</time>
      </trkpt>
      <trkpt lat="45.54147" lon="3.60004">
        <ele>1054</ele>
        <time>2021-06-11T21:07:54Z</time>
      </trkpt>
      <trkpt lat="45.54206" lon="3.60206">
        <ele>1062</ele>
        <time>2021-06-11T21:08:21Z</time>
      </trkpt>
      <trkpt lat="45.54248" lon="3.60346">
        <ele>1068</ele>
        <time>2021-06-11T21:08:40Z</time>
      </trkpt>
      <trkpt lat="45.54297" lon="3.60489">
        <ele>1067</ele>
        <time>2021-06-11T21:09:00Z</time>
      </trkpt>
      <trkpt lat="45.54305" lon="3.6052">
        <ele>1066</ele>
        <time>2021-06-11T21:09:04Z</time>
      </trkpt>
      <trkpt lat="45.54308" lon="3.60525">
        <ele>1066</ele>
        <time>2021-06-11T21:09:05Z</time>
      </trkpt>
      <trkpt lat="45.54302" lon="3.6055">
        <ele>1064</ele>
        <time>2021-06-11T21:09:08Z</time>
      </trkpt>
      <trkpt lat="45.5429" lon="3.60632">
        <ele>1060</ele>
        <time>2021-06-11T21:09:18Z</time>
      </trkpt>
      <trkpt lat="45.54272" lon="3.60775">
        <ele>1058</ele>
        <time>2021-06-11T21:09:37Z</time>
      </trkpt>
      <trkpt lat="45.54209" lon="3.61">
        <ele>1058</ele>
        <time>2021-06-11T21:10:07Z</time>
      </trkpt>
      <trkpt lat="45.54213" lon="3.61136">
        <ele>1055</ele>
        <time>2021-06-11T21:10:24Z</time>
      </trkpt>
      <trkpt lat="45.54214" lon="3.61259">
        <ele>1057</ele>
        <time>2021-06-11T21:10:39Z</time>
      </trkpt>
      <trkpt lat="45.54218" lon="3.61363">
        <ele>1057</ele>
        <time>2021-06-11T21:10:52Z</time>
      </trkpt>
      <trkpt lat="45.54216" lon="3.61399">
        <ele>1058</ele>
        <time>2021-06-11T21:10:57Z</time>
      </trkpt>
      <trkpt lat="45.54272" lon="3.61435">
        <ele>1057</ele>
        <time>2021-06-11T21:11:07Z</time>
      </trkpt>
      <trkpt lat="45.543" lon="3.61441">
        <ele>1056</ele>
        <time>2021-06-11T21:11:13Z</time>
      </trkpt>
      <trkpt lat="45.54332" lon="3.61432">
        <ele>1054</ele>
        <time>2021-06-11T21:11:18Z</time>
      </trkpt>
      <trkpt lat="45.5438" lon="3.6141">
        <ele>1056</ele>
        <time>2021-06-11T21:11:27Z</time>
      </trkpt>
      <trkpt lat="45.54423" lon="3.61377">
        <ele>1054</ele>
        <time>2021-06-11T21:11:36Z</time>
      </trkpt>
      <trkpt lat="45.54464" lon="3.6134">
        <ele>1050</ele>
        <time>2021-06-11T21:11:45Z</time>
      </trkpt>
      <trkpt lat="45.54502" lon="3.61323">
        <ele>1050</ele>
        <time>2021-06-11T21:11:52Z</time>
      </trkpt>
      <trkpt lat="45.54548" lon="3.61313">
        <ele>1046</ele>
        <time>2021-06-11T21:12:00Z</time>
      </trkpt>
      <trkpt lat="45.54607" lon="3.61328">
        <ele>1044</ele>
        <time>2021-06-11T21:12:11Z</time>
      </trkpt>
      <trkpt lat="45.547" lon="3.61386">
        <ele>1044</ele>
        <time>2021-06-11T21:12:29Z</time>
      </trkpt>
      <trkpt lat="45.54781" lon="3.61442">
        <ele>1039</ele>
        <time>2021-06-11T21:12:45Z</time>
      </trkpt>
      <trkpt lat="45.54808" lon="3.61473">
        <ele>1038</ele>
        <time>2021-06-11T21:12:51Z</time>
      </trkpt>
      <trkpt lat="45.54826" lon="3.61504">
        <ele>1038</ele>
        <time>2021-06-11T21:12:56Z</time>
      </trkpt>
      <trkpt lat="45.54922" lon="3.61726">
        <ele>1020</ele>
        <time>2021-06-11T21:13:28Z</time>
      </trkpt>
      <trkpt lat="45.54942" lon="3.61744">
        <ele>1020</ele>
        <time>2021-06-11T21:13:33Z</time>
      </trkpt>
      <trkpt lat="45.54966" lon="3.61752">
        <ele>1020</ele>
        <time>2021-06-11T21:13:37Z</time>
      </trkpt>
      <trkpt lat="45.55003" lon="3.61754">
        <ele>1018</ele>
        <time>2021-06-11T21:13:44Z</time>
      </trkpt>
      <trkpt lat="45.55488" lon="3.61708">
        <ele>1009</ele>
        <time>2021-06-11T21:15:10Z</time>
      </trkpt>
      <trkpt lat="45.55606" lon="3.61698">
        <ele>1010</ele>
        <time>2021-06-11T21:15:31Z</time>
      </trkpt>
      <trkpt lat="45.55663" lon="3.61721">
        <ele>1009</ele>
        <time>2021-06-11T21:15:42Z</time>
      </trkpt>
      <trkpt lat="45.55735" lon="3.61776">
        <ele>1007</ele>
        <time>2021-06-11T21:15:56Z</time>
      </trkpt>
      <trkpt lat="45.55788" lon="3.61813">
        <ele>1005</ele>
        <time>2021-06-11T21:16:07Z</time>
      </trkpt>
      <trkpt lat="45.55856" lon="3.6186">
        <ele>1002</ele>
        <time>2021-06-11T21:16:20Z</time>
      </trkpt>
      <trkpt lat="45.55913" lon="3.61917">
        <ele>998</ele>
        <time>2021-06-11T21:16:32Z</time>
      </trkpt>
      <trkpt lat="45.55938" lon="3.61955">
        <ele>998</ele>
        <time>2021-06-11T21:16:39Z</time>
      </trkpt>
      <trkpt lat="45.55947" lon="3.61993">
        <ele>1000</ele>
        <time>2021-06-11T21:16:44Z</time>
      </trkpt>
      <trkpt lat="45.56026" lon="3.62229">
        <ele>1001</ele>
        <time>2021-06-11T21:17:17Z</time>
      </trkpt>
      <trkpt lat="45.56118" lon="3.62413">
        <ele>998</ele>
        <time>2021-06-11T21:17:45Z</time>
      </trkpt>
      <trkpt lat="45.56162" lon="3.62635">
        <ele>996</ele>
        <time>2021-06-11T21:18:13Z</time>
      </trkpt>
      <trkpt lat="45.56207" lon="3.62786">
        <ele>994</ele>
        <time>2021-06-11T21:18:34Z</time>
      </trkpt>
      <trkpt lat="45.56248" lon="3.62931">
        <ele>986</ele>
        <time>2021-06-11T21:18:53Z</time>
      </trkpt>
      <trkpt lat="45.56314" lon="3.63066">
        <ele>976</ele>
        <time>2021-06-11T21:19:14Z</time>
      </trkpt>
      <trkpt lat="45.56347" lon="3.63131">
        <ele>970</ele>
        <time>2021-06-11T21:19:24Z</time>
      </trkpt>
      <trkpt lat="45.56373" lon="3.63207">
        <ele>971</ele>
        <time>2021-06-11T21:19:34Z</time>
      </trkpt>
      <trkpt lat="45.56397" lon="3.63297">
        <ele>972</ele>
        <time>2021-06-11T21:19:46Z</time>
      </trkpt>
      <trkpt lat="45.56408" lon="3.63326">
        <ele>973</ele>
        <time>2021-06-11T21:19:51Z</time>
      </trkpt>
      <trkpt lat="45.56419" lon="3.63347">
        <ele>973</ele>
        <time>2021-06-11T21:19:54Z</time>
      </trkpt>
      <trkpt lat="45.56427" lon="3.63358">
        <ele>974</ele>
        <time>2021-06-11T21:19:56Z</time>
      </trkpt>
      <trkpt lat="45.56474" lon="3.63405">
        <ele>978</ele>
        <time>2021-06-11T21:20:06Z</time>
      </trkpt>
      <trkpt lat="45.56587" lon="3.63501">
        <ele>975</ele>
        <time>2021-06-11T21:20:29Z</time>
      </trkpt>
      <trkpt lat="45.56646" lon="3.63524">
        <ele>973</ele>
        <time>2021-06-11T21:20:40Z</time>
      </trkpt>
      <trkpt lat="45.56695" lon="3.63547">
        <ele>971</ele>
        <time>2021-06-11T21:20:49Z</time>
      </trkpt>
      <trkpt lat="45.56733" lon="3.63578">
        <ele>971</ele>
        <time>2021-06-11T21:20:57Z</time>
      </trkpt>
      <trkpt lat="45.56759" lon="3.63606">
        <ele>973</ele>
        <time>2021-06-11T21:21:03Z</time>
      </trkpt>
      <trkpt lat="45.56776" lon="3.63636">
        <ele>974</ele>
        <time>2021-06-11T21:21:08Z</time>
      </trkpt>
      <trkpt lat="45.56778" lon="3.63635">
        <ele>974</ele>
        <time>2021-06-11T21:21:08Z</time>
      </trkpt>
      <trkpt lat="45.56782" lon="3.63633">
        <ele>975</ele>
        <time>2021-06-11T21:21:09Z</time>
      </trkpt>
      <trkpt lat="45.56785" lon="3.63618">
        <ele>974</ele>
        <time>2021-06-11T21:21:11Z</time>
      </trkpt>
      <trkpt lat="45.56792" lon="3.6359">
        <ele>974</ele>
        <time>2021-06-11T21:21:15Z</time>
      </trkpt>
      <trkpt lat="45.568" lon="3.63569">
        <ele>973</ele>
        <time>2021-06-11T21:21:18Z</time>
      </trkpt>
      <trkpt lat="45.56817" lon="3.63536">
        <ele>971</ele>
        <time>2021-06-11T21:21:23Z</time>
      </trkpt>
      <trkpt lat="45.569" lon="3.63397">
        <ele>959</ele>
        <time>2021-06-11T21:21:45Z</time>
      </trkpt>
      <trkpt lat="45.56912" lon="3.63376">
        <ele>956</ele>
        <time>2021-06-11T21:21:49Z</time>
      </trkpt>
      <trkpt lat="45.56926" lon="3.63341">
        <ele>953</ele>
        <time>2021-06-11T21:21:54Z</time>
      </trkpt>
      <trkpt lat="45.56933" lon="3.63318">
        <ele>952</ele>
        <time>2021-06-11T21:21:57Z</time>
      </trkpt>
      <trkpt lat="45.56935" lon="3.63281">
        <ele>950</ele>
        <time>2021-06-11T21:22:02Z</time>
      </trkpt>
      <trkpt lat="45.56931" lon="3.6325">
        <ele>949</ele>
        <time>2021-06-11T21:22:06Z</time>
      </trkpt>
      <trkpt lat="45.56919" lon="3.63212">
        <ele>949</ele>
        <time>2021-06-11T21:22:11Z</time>
      </trkpt>
      <trkpt lat="45.56917" lon="3.63192">
        <ele>949</ele>
        <time>2021-06-11T21:22:13Z</time>
      </trkpt>
      <trkpt lat="45.56918" lon="3.6317">
        <ele>949</ele>
        <time>2021-06-11T21:22:16Z</time>
      </trkpt>
      <trkpt lat="45.56927" lon="3.63148">
        <ele>947</ele>
        <time>2021-06-11T21:22:19Z</time>
      </trkpt>
      <trkpt lat="45.5694" lon="3.63122">
        <ele>944</ele>
        <time>2021-06-11T21:22:23Z</time>
      </trkpt>
      <trkpt lat="45.56955" lon="3.63097">
        <ele>941</ele>
        <time>2021-06-11T21:22:27Z</time>
      </trkpt>
      <trkpt lat="45.56968" lon="3.6308">
        <ele>940</ele>
        <time>2021-06-11T21:22:30Z</time>
      </trkpt>
      <trkpt lat="45.5699" lon="3.63059">
        <ele>938</ele>
        <time>2021-06-11T21:22:35Z</time>
      </trkpt>
      <trkpt lat="45.57025" lon="3.63034">
        <ele>934</ele>
        <time>2021-06-11T21:22:42Z</time>
      </trkpt>
      <trkpt lat="45.57045" lon="3.63027">
        <ele>932</ele>
        <time>2021-06-11T21:22:46Z</time>
      </trkpt>
      <trkpt lat="45.57108" lon="3.63016">
        <ele>928</ele>
        <time>2021-06-11T21:22:57Z</time>
      </trkpt>
      <trkpt lat="45.57198" lon="3.63019">
        <ele>927</ele>
        <time>2021-06-11T21:23:13Z</time>
      </trkpt>
      <trkpt lat="45.57294" lon="3.63025">
        <ele>920</ele>
        <time>2021-06-11T21:23:30Z</time>
      </trkpt>
      <trkpt lat="45.57365" lon="3.63024">
        <ele>911</ele>
        <time>2021-06-11T21:23:43Z</time>
      </trkpt>
      <trkpt lat="45.57435" lon="3.63036">
        <ele>905</ele>
        <time>2021-06-11T21:23:55Z</time>
      </trkpt>
      <trkpt lat="45.57488" lon="3.63039">
        <ele>902</ele>
        <time>2021-06-11T21:24:05Z</time>
      </trkpt>
      <trkpt lat="45.57523" lon="3.63033">
        <ele>901</ele>
        <time>2021-06-11T21:24:11Z</time>
      </trkpt>
      <trkpt lat="45.57548" lon="3.63017">
        <ele>899</ele>
        <time>2021-06-11T21:24:16Z</time>
      </trkpt>
      <trkpt lat="45.57574" lon="3.62996">
        <ele>897</ele>
        <time>2021-06-11T21:24:21Z</time>
      </trkpt>
      <trkpt lat="45.57608" lon="3.62958">
        <ele>894</ele>
        <time>2021-06-11T21:24:29Z</time>
      </trkpt>
      <trkpt lat="45.57647" lon="3.62901">
        <ele>888</ele>
        <time>2021-06-11T21:24:39Z</time>
      </trkpt>
      <trkpt lat="45.57698" lon="3.62838">
        <ele>883</ele>
        <time>2021-06-11T21:24:51Z</time>
      </trkpt>
      <trkpt lat="45.57732" lon="3.62804">
        <ele>878</ele>
        <time>2021-06-11T21:24:58Z</time>
      </trkpt>
      <trkpt lat="45.57786" lon="3.62764">
        <ele>874</ele>
        <time>2021-06-11T21:25:09Z</time>
      </trkpt>
      <trkpt lat="45.57793" lon="3.62761">
        <ele>874</ele>
        <time>2021-06-11T21:25:10Z</time>
      </trkpt>
      <trkpt lat="45.57832" lon="3.62736">
        <ele>871</ele>
        <time>2021-06-11T21:25:18Z</time>
      </trkpt>
      <trkpt lat="45.57856" lon="3.62716">
        <ele>869</ele>
        <time>2021-06-11T21:25:23Z</time>
      </trkpt>
      <trkpt lat="45.57865" lon="3.62707">
        <ele>868</ele>
        <time>2021-06-11T21:25:25Z</time>
      </trkpt>
      <trkpt lat="45.57908" lon="3.62671">
        <ele>865</ele>
        <time>2021-06-11T21:25:34Z</time>
      </trkpt>
      <trkpt lat="45.57924" lon="3.62662">
        <ele>864</ele>
        <time>2021-06-11T21:25:37Z</time>
      </trkpt>
      <trkpt lat="45.57977" lon="3.62649">
        <ele>859</ele>
        <time>2021-06-11T21:25:46Z</time>
      </trkpt>
      <trkpt lat="45.57994" lon="3.62648">
        <ele>858</ele>
        <time>2021-06-11T21:25:49Z</time>
      </trkpt>
      <trkpt lat="45.58009" lon="3.62651">
        <ele>858</ele>
        <time>2021-06-11T21:25:52Z</time>
      </trkpt>
      <trkpt lat="45.58021" lon="3.62656">
        <ele>858</ele>
        <time>2021-06-11T21:25:54Z</time>
      </trkpt>
      <trkpt lat="45.58041" lon="3.6267">
        <ele>858</ele>
        <time>2021-06-11T21:25:58Z</time>
      </trkpt>
      <trkpt lat="45.58085" lon="3.62713">
        <ele>856</ele>
        <time>2021-06-11T21:26:08Z</time>
      </trkpt>
      <trkpt lat="45.58112" lon="3.62726">
        <ele>856</ele>
        <time>2021-06-11T21:26:13Z</time>
      </trkpt>
      <trkpt lat="45.58139" lon="3.62724">
        <ele>856</ele>
        <time>2021-06-11T21:26:18Z</time>
      </trkpt>
      <trkpt lat="45.58168" lon="3.62708">
        <ele>853</ele>
        <time>2021-06-11T21:26:23Z</time>
      </trkpt>
      <trkpt lat="45.5819" lon="3.62688">
        <ele>850</ele>
        <time>2021-06-11T21:26:28Z</time>
      </trkpt>
      <trkpt lat="45.5824" lon="3.62627">
        <ele>839</ele>
        <time>2021-06-11T21:26:39Z</time>
      </trkpt>
      <trkpt lat="45.58262" lon="3.6261">
        <ele>836</ele>
        <time>2021-06-11T21:26:44Z</time>
      </trkpt>
      <trkpt lat="45.58274" lon="3.62604">
        <ele>835</ele>
        <time>2021-06-11T21:26:46Z</time>
      </trkpt>
      <trkpt lat="45.58287" lon="3.62601">
        <ele>835</ele>
        <time>2021-06-11T21:26:48Z</time>
      </trkpt>
      <trkpt lat="45.58363" lon="3.62601">
        <ele>829</ele>
        <time>2021-06-11T21:27:02Z</time>
      </trkpt>
      <trkpt lat="45.58387" lon="3.62603">
        <ele>826</ele>
        <time>2021-06-11T21:27:06Z</time>
      </trkpt>
      <trkpt lat="45.58404" lon="3.62611">
        <ele>824</ele>
        <time>2021-06-11T21:27:09Z</time>
      </trkpt>
      <trkpt lat="45.58473" lon="3.62658">
        <ele>823</ele>
        <time>2021-06-11T21:27:23Z</time>
      </trkpt>
      <trkpt lat="45.58488" lon="3.62665">
        <ele>822</ele>
        <time>2021-06-11T21:27:26Z</time>
      </trkpt>
      <trkpt lat="45.58503" lon="3.62665">
        <ele>820</ele>
        <time>2021-06-11T21:27:29Z</time>
      </trkpt>
      <trkpt lat="45.58518" lon="3.62653">
        <ele>817</ele>
        <time>2021-06-11T21:27:32Z</time>
      </trkpt>
      <trkpt lat="45.58526" lon="3.62636">
        <ele>814</ele>
        <time>2021-06-11T21:27:34Z</time>
      </trkpt>
      <trkpt lat="45.58529" lon="3.6262">
        <ele>812</ele>
        <time>2021-06-11T21:27:36Z</time>
      </trkpt>
      <trkpt lat="45.58527" lon="3.62603">
        <ele>810</ele>
        <time>2021-06-11T21:27:38Z</time>
      </trkpt>
      <trkpt lat="45.58523" lon="3.62587">
        <ele>808</ele>
        <time>2021-06-11T21:27:40Z</time>
      </trkpt>
      <trkpt lat="45.58509" lon="3.62571">
        <ele>807</ele>
        <time>2021-06-11T21:27:44Z</time>
      </trkpt>
      <trkpt lat="45.58465" lon="3.62538">
        <ele>809</ele>
        <time>2021-06-11T21:27:53Z</time>
      </trkpt>
      <trkpt lat="45.58449" lon="3.62523">
        <ele>809</ele>
        <time>2021-06-11T21:27:56Z</time>
      </trkpt>
      <trkpt lat="45.58378" lon="3.62433">
        <ele>810</ele>
        <time>2021-06-11T21:28:13Z</time>
      </trkpt>
      <trkpt lat="45.58348" lon="3.62398">
        <ele>808</ele>
        <time>2021-06-11T21:28:20Z</time>
      </trkpt>
      <trkpt lat="45.58334" lon="3.62371">
        <ele>804</ele>
        <time>2021-06-11T21:28:24Z</time>
      </trkpt>
      <trkpt lat="45.58323" lon="3.6233">
        <ele>796</ele>
        <time>2021-06-11T21:28:29Z</time>
      </trkpt>
      <trkpt lat="45.58317" lon="3.62294">
        <ele>793</ele>
        <time>2021-06-11T21:28:34Z</time>
      </trkpt>
      <trkpt lat="45.58314" lon="3.62273">
        <ele>791</ele>
        <time>2021-06-11T21:28:37Z</time>
      </trkpt>
      <trkpt lat="45.58307" lon="3.62252">
        <ele>789</ele>
        <time>2021-06-11T21:28:40Z</time>
      </trkpt>
      <trkpt lat="45.58293" lon="3.62221">
        <ele>788</ele>
        <time>2021-06-11T21:28:44Z</time>
      </trkpt>
      <trkpt lat="45.58286" lon="3.62211">
        <ele>788</ele>
        <time>2021-06-11T21:28:46Z</time>
      </trkpt>
      <trkpt lat="45.58304" lon="3.62194">
        <ele>788</ele>
        <time>2021-06-11T21:28:50Z</time>
      </trkpt>
      <trkpt lat="45.58318" lon="3.62188">
        <ele>788</ele>
        <time>2021-06-11T21:28:52Z</time>
      </trkpt>
      <trkpt lat="45.58335" lon="3.62185">
        <ele>789</ele>
        <time>2021-06-11T21:28:55Z</time>
      </trkpt>
      <trkpt lat="45.58372" lon="3.62198">
        <ele>791</ele>
        <time>2021-06-11T21:29:02Z</time>
      </trkpt>
      <trkpt lat="45.58436" lon="3.62227">
        <ele>793</ele>
        <time>2021-06-11T21:29:14Z</time>
      </trkpt>
      <trkpt lat="45.5847" lon="3.62287">
        <ele>793</ele>
        <time>2021-06-11T21:29:24Z</time>
      </trkpt>
      <trkpt lat="45.5851" lon="3.62329">
        <ele>793</ele>
        <time>2021-06-11T21:29:33Z</time>
      </trkpt>
      <trkpt lat="45.58536" lon="3.62342">
        <ele>792</ele>
        <time>2021-06-11T21:29:37Z</time>
      </trkpt>
      <trkpt lat="45.58559" lon="3.62342">
        <ele>792</ele>
        <time>2021-06-11T21:29:42Z</time>
      </trkpt>
      <trkpt lat="45.58586" lon="3.6233">
        <ele>791</ele>
        <time>2021-06-11T21:29:47Z</time>
      </trkpt>
      <trkpt lat="45.58664" lon="3.62254">
        <ele>783</ele>
        <time>2021-06-11T21:30:03Z</time>
      </trkpt>
      <trkpt lat="45.58689" lon="3.62246">
        <ele>782</ele>
        <time>2021-06-11T21:30:08Z</time>
      </trkpt>
      <trkpt lat="45.58771" lon="3.62229">
        <ele>779</ele>
        <time>2021-06-11T21:30:23Z</time>
      </trkpt>
      <trkpt lat="45.588" lon="3.62215">
        <ele>780</ele>
        <time>2021-06-11T21:30:28Z</time>
      </trkpt>
      <trkpt lat="45.58808" lon="3.62215">
        <ele>779</ele>
        <time>2021-06-11T21:30:30Z</time>
      </trkpt>
      <trkpt lat="45.58816" lon="3.62218">
        <ele>779</ele>
        <time>2021-06-11T21:30:31Z</time>
      </trkpt>
      <trkpt lat="45.58825" lon="3.62227">
        <ele>778</ele>
        <time>2021-06-11T21:30:33Z</time>
      </trkpt>
      <trkpt lat="45.58855" lon="3.62269">
        <ele>775</ele>
        <time>2021-06-11T21:30:40Z</time>
      </trkpt>
      <trkpt lat="45.58868" lon="3.62277">
        <ele>775</ele>
        <time>2021-06-11T21:30:43Z</time>
      </trkpt>
      <trkpt lat="45.58887" lon="3.62281">
        <ele>775</ele>
        <time>2021-06-11T21:30:46Z</time>
      </trkpt>
      <trkpt lat="45.58975" lon="3.62287">
        <ele>776</ele>
        <time>2021-06-11T21:31:02Z</time>
      </trkpt>
      <trkpt lat="45.58999" lon="3.62291">
        <ele>776</ele>
        <time>2021-06-11T21:31:06Z</time>
      </trkpt>
      <trkpt lat="45.5902" lon="3.62289">
        <ele>776</ele>
        <time>2021-06-11T21:31:10Z</time>
      </trkpt>
      <trkpt lat="45.59034" lon="3.62284">
        <ele>776</ele>
        <time>2021-06-11T21:31:13Z</time>
      </trkpt>
      <trkpt lat="45.59094" lon="3.62245">
        <ele>776</ele>
        <time>2021-06-11T21:31:24Z</time>
      </trkpt>
      <trkpt lat="45.59106" lon="3.6224">
        <ele>776</ele>
        <time>2021-06-11T21:31:27Z</time>
      </trkpt>
      <trkpt lat="45.59117" lon="3.62241">
        <ele>775</ele>
        <time>2021-06-11T21:31:29Z</time>
      </trkpt>
      <trkpt lat="45.59135" lon="3.62249">
        <ele>775</ele>
        <time>2021-06-11T21:31:32Z</time>
      </trkpt>
      <trkpt lat="45.59207" lon="3.62298">
        <ele>776</ele>
        <time>2021-06-11T21:31:46Z</time>
      </trkpt>
      <trkpt lat="45.59227" lon="3.62308">
        <ele>777</ele>
        <time>2021-06-11T21:31:50Z</time>
      </trkpt>
      <trkpt lat="45.59297" lon="3.62298">
        <ele>782</ele>
        <time>2021-06-11T21:32:02Z</time>
      </trkpt>
      <trkpt lat="45.59315" lon="3.62303">
        <ele>783</ele>
        <time>2021-06-11T21:32:06Z</time>
      </trkpt>
      <trkpt lat="45.59331" lon="3.62316">
        <ele>784</ele>
        <time>2021-06-11T21:32:09Z</time>
      </trkpt>
      <trkpt lat="45.5937" lon="3.62366">
        <ele>785</ele>
        <time>2021-06-11T21:32:18Z</time>
      </trkpt>
      <trkpt lat="45.59383" lon="3.62377">
        <ele>786</ele>
        <time>2021-06-11T21:32:21Z</time>
      </trkpt>
      <trkpt lat="45.59432" lon="3.62394">
        <ele>791</ele>
        <time>2021-06-11T21:32:30Z</time>
      </trkpt>
      <trkpt lat="45.59449" lon="3.62406">
        <ele>792</ele>
        <time>2021-06-11T21:32:33Z</time>
      </trkpt>
      <trkpt lat="45.59482" lon="3.62455">
        <ele>793</ele>
        <time>2021-06-11T21:32:42Z</time>
      </trkpt>
      <trkpt lat="45.59515" lon="3.62479">
        <ele>796</ele>
        <time>2021-06-11T21:32:48Z</time>
      </trkpt>
      <trkpt lat="45.59529" lon="3.62493">
        <ele>796</ele>
        <time>2021-06-11T21:32:51Z</time>
      </trkpt>
      <trkpt lat="45.59585" lon="3.62602">
        <ele>798</ele>
        <time>2021-06-11T21:33:08Z</time>
      </trkpt>
      <trkpt lat="45.59605" lon="3.62637">
        <ele>798</ele>
        <time>2021-06-11T21:33:14Z</time>
      </trkpt>
      <trkpt lat="45.5964" lon="3.62664">
        <ele>799</ele>
        <time>2021-06-11T21:33:21Z</time>
      </trkpt>
      <trkpt lat="45.59737" lon="3.62734">
        <ele>801</ele>
        <time>2021-06-11T21:33:40Z</time>
      </trkpt>
      <trkpt lat="45.59836" lon="3.62789">
        <ele>800</ele>
        <time>2021-06-11T21:33:59Z</time>
      </trkpt>
      <trkpt lat="45.59862" lon="3.62793">
        <ele>800</ele>
        <time>2021-06-11T21:34:04Z</time>
      </trkpt>
      <trkpt lat="45.59917" lon="3.62741">
        <ele>801</ele>
        <time>2021-06-11T21:34:16Z</time>
      </trkpt>
      <trkpt lat="45.59938" lon="3.62728">
        <ele>801</ele>
        <time>2021-06-11T21:34:20Z</time>
      </trkpt>
      <trkpt lat="45.60041" lon="3.62693">
        <ele>801</ele>
        <time>2021-06-11T21:34:38Z</time>
      </trkpt>
      <trkpt lat="45.60116" lon="3.62693">
        <ele>803</ele>
        <time>2021-06-11T21:34:52Z</time>
      </trkpt>
      <trkpt lat="45.60175" lon="3.62696">
        <ele>806</ele>
        <time>2021-06-11T21:35:02Z</time>
      </trkpt>
      <trkpt lat="45.60207" lon="3.62708">
        <ele>808</ele>
        <time>2021-06-11T21:35:08Z</time>
      </trkpt>
      <trkpt lat="45.60236" lon="3.62713">
        <ele>810</ele>
        <time>2021-06-11T21:35:13Z</time>
      </trkpt>
      <trkpt lat="45.60267" lon="3.62711">
        <ele>813</ele>
        <time>2021-06-11T21:35:19Z</time>
      </trkpt>
      <trkpt lat="45.60293" lon="3.62713">
        <ele>814</ele>
        <time>2021-06-11T21:35:24Z</time>
      </trkpt>
      <trkpt lat="45.60368" lon="3.62725">
        <ele>813</ele>
        <time>2021-06-11T21:35:37Z</time>
      </trkpt>
      <trkpt lat="45.6038" lon="3.62723">
        <ele>813</ele>
        <time>2021-06-11T21:35:39Z</time>
      </trkpt>
      <trkpt lat="45.60395" lon="3.62715">
        <ele>814</ele>
        <time>2021-06-11T21:35:42Z</time>
      </trkpt>
      <trkpt lat="45.6041" lon="3.62702">
        <ele>815</ele>
        <time>2021-06-11T21:35:45Z</time>
      </trkpt>
      <trkpt lat="45.60437" lon="3.62669">
        <ele>816</ele>
        <time>2021-06-11T21:35:51Z</time>
      </trkpt>
      <trkpt lat="45.60444" lon="3.62654">
        <ele>815</ele>
        <time>2021-06-11T21:35:54Z</time>
      </trkpt>
      <trkpt lat="45.60466" lon="3.62573">
        <ele>813</ele>
        <time>2021-06-11T21:36:04Z</time>
      </trkpt>
      <trkpt lat="45.60471" lon="3.62561">
        <ele>813</ele>
        <time>2021-06-11T21:36:06Z</time>
      </trkpt>
      <trkpt lat="45.605" lon="3.6252">
        <ele>809</ele>
        <time>2021-06-11T21:36:13Z</time>
      </trkpt>
      <trkpt lat="45.60504" lon="3.62512">
        <ele>809</ele>
        <time>2021-06-11T21:36:15Z</time>
      </trkpt>
      <trkpt lat="45.60508" lon="3.625">
        <ele>809</ele>
        <time>2021-06-11T21:36:16Z</time>
      </trkpt>
      <trkpt lat="45.60521" lon="3.62433">
        <ele>811</ele>
        <time>2021-06-11T21:36:25Z</time>
      </trkpt>
      <trkpt lat="45.60527" lon="3.62413">
        <ele>811</ele>
        <time>2021-06-11T21:36:28Z</time>
      </trkpt>
      <trkpt lat="45.60551" lon="3.62385">
        <ele>811</ele>
        <time>2021-06-11T21:36:33Z</time>
      </trkpt>
      <trkpt lat="45.60561" lon="3.62377">
        <ele>810</ele>
        <time>2021-06-11T21:36:35Z</time>
      </trkpt>
      <trkpt lat="45.6057" lon="3.62363">
        <ele>810</ele>
        <time>2021-06-11T21:36:38Z</time>
      </trkpt>
      <trkpt lat="45.60571" lon="3.62354">
        <ele>810</ele>
        <time>2021-06-11T21:36:39Z</time>
      </trkpt>
      <trkpt lat="45.60571" lon="3.62342">
        <ele>811</ele>
        <time>2021-06-11T21:36:40Z</time>
      </trkpt>
      <trkpt lat="45.60565" lon="3.62312">
        <ele>815</ele>
        <time>2021-06-11T21:36:44Z</time>
      </trkpt>
      <trkpt lat="45.60566" lon="3.62295">
        <ele>817</ele>
        <time>2021-06-11T21:36:46Z</time>
      </trkpt>
      <trkpt lat="45.60572" lon="3.62279">
        <ele>819</ele>
        <time>2021-06-11T21:36:49Z</time>
      </trkpt>
      <trkpt lat="45.60578" lon="3.62273">
        <ele>820</ele>
        <time>2021-06-11T21:36:50Z</time>
      </trkpt>
      <trkpt lat="45.60624" lon="3.62242">
        <ele>820</ele>
        <time>2021-06-11T21:36:59Z</time>
      </trkpt>
      <trkpt lat="45.60633" lon="3.62241">
        <ele>819</ele>
        <time>2021-06-11T21:37:00Z</time>
      </trkpt>
      <trkpt lat="45.60661" lon="3.62247">
        <ele>815</ele>
        <time>2021-06-11T21:37:06Z</time>
      </trkpt>
      <trkpt lat="45.60668" lon="3.62244">
        <ele>814</ele>
        <time>2021-06-11T21:37:07Z</time>
      </trkpt>
      <trkpt lat="45.60676" lon="3.62236">
        <ele>814</ele>
        <time>2021-06-11T21:37:09Z</time>
      </trkpt>
      <trkpt lat="45.60679" lon="3.62227">
        <ele>815</ele>
        <time>2021-06-11T21:37:10Z</time>
      </trkpt>
      <trkpt lat="45.60697" lon="3.62148">
        <ele>817</ele>
        <time>2021-06-11T21:37:20Z</time>
      </trkpt>
      <trkpt lat="45.60703" lon="3.62132">
        <ele>818</ele>
        <time>2021-06-11T21:37:22Z</time>
      </trkpt>
      <trkpt lat="45.60714" lon="3.62126">
        <ele>817</ele>
        <time>2021-06-11T21:37:24Z</time>
      </trkpt>
      <trkpt lat="45.60726" lon="3.62125">
        <ele>816</ele>
        <time>2021-06-11T21:37:27Z</time>
      </trkpt>
      <trkpt lat="45.60735" lon="3.62131">
        <ele>815</ele>
        <time>2021-06-11T21:37:28Z</time>
      </trkpt>
      <trkpt lat="45.6074" lon="3.6214">
        <ele>814</ele>
        <time>2021-06-11T21:37:30Z</time>
      </trkpt>
      <trkpt lat="45.60742" lon="3.62149">
        <ele>814</ele>
        <time>2021-06-11T21:37:31Z</time>
      </trkpt>
      <trkpt lat="45.60752" lon="3.62259">
        <ele>811</ele>
        <time>2021-06-11T21:37:45Z</time>
      </trkpt>
      <trkpt lat="45.60755" lon="3.6227">
        <ele>811</ele>
        <time>2021-06-11T21:37:46Z</time>
      </trkpt>
      <trkpt lat="45.60762" lon="3.62279">
        <ele>811</ele>
        <time>2021-06-11T21:37:48Z</time>
      </trkpt>
      <trkpt lat="45.60793" lon="3.62297">
        <ele>814</ele>
        <time>2021-06-11T21:37:54Z</time>
      </trkpt>
      <trkpt lat="45.60801" lon="3.62309">
        <ele>815</ele>
        <time>2021-06-11T21:37:56Z</time>
      </trkpt>
      <trkpt lat="45.60803" lon="3.62318">
        <ele>815</ele>
        <time>2021-06-11T21:37:57Z</time>
      </trkpt>
      <trkpt lat="45.60804" lon="3.62358">
        <ele>813</ele>
        <time>2021-06-11T21:38:02Z</time>
      </trkpt>
      <trkpt lat="45.60807" lon="3.62374">
        <ele>812</ele>
        <time>2021-06-11T21:38:04Z</time>
      </trkpt>
      <trkpt lat="45.60817" lon="3.62388">
        <ele>812</ele>
        <time>2021-06-11T21:38:07Z</time>
      </trkpt>
      <trkpt lat="45.60826" lon="3.62394">
        <ele>813</ele>
        <time>2021-06-11T21:38:08Z</time>
      </trkpt>
      <trkpt lat="45.60893" lon="3.62408">
        <ele>818</ele>
        <time>2021-06-11T21:38:21Z</time>
      </trkpt>
      <trkpt lat="45.60945" lon="3.62416">
        <ele>823</ele>
        <time>2021-06-11T21:38:30Z</time>
      </trkpt>
      <trkpt lat="45.60958" lon="3.62422">
        <ele>824</ele>
        <time>2021-06-11T21:38:32Z</time>
      </trkpt>
      <trkpt lat="45.60966" lon="3.6243">
        <ele>824</ele>
        <time>2021-06-11T21:38:34Z</time>
      </trkpt>
      <trkpt lat="45.60995" lon="3.62468">
        <ele>824</ele>
        <time>2021-06-11T21:38:41Z</time>
      </trkpt>
      <trkpt lat="45.61007" lon="3.62477">
        <ele>824</ele>
        <time>2021-06-11T21:38:43Z</time>
      </trkpt>
      <trkpt lat="45.6102" lon="3.62485">
        <ele>824</ele>
        <time>2021-06-11T21:38:46Z</time>
      </trkpt>
      <trkpt lat="45.61052" lon="3.62493">
        <ele>825</ele>
        <time>2021-06-11T21:38:52Z</time>
      </trkpt>
      <trkpt lat="45.61077" lon="3.62493">
        <ele>826</ele>
        <time>2021-06-11T21:38:56Z</time>
      </trkpt>
      <trkpt lat="45.61106" lon="3.62482">
        <ele>827</ele>
        <time>2021-06-11T21:39:01Z</time>
      </trkpt>
      <trkpt lat="45.61121" lon="3.62473">
        <ele>828</ele>
        <time>2021-06-11T21:39:04Z</time>
      </trkpt>
      <trkpt lat="45.61136" lon="3.62451">
        <ele>829</ele>
        <time>2021-06-11T21:39:08Z</time>
      </trkpt>
      <trkpt lat="45.61141" lon="3.62437">
        <ele>829</ele>
        <time>2021-06-11T21:39:10Z</time>
      </trkpt>
      <trkpt lat="45.61145" lon="3.62414">
        <ele>830</ele>
        <time>2021-06-11T21:39:13Z</time>
      </trkpt>
      <trkpt lat="45.61133" lon="3.6232">
        <ele>828</ele>
        <time>2021-06-11T21:39:25Z</time>
      </trkpt>
      <trkpt lat="45.61137" lon="3.62286">
        <ele>829</ele>
        <time>2021-06-11T21:39:29Z</time>
      </trkpt>
      <trkpt lat="45.61141" lon="3.62275">
        <ele>829</ele>
        <time>2021-06-11T21:39:31Z</time>
      </trkpt>
      <trkpt lat="45.61149" lon="3.62265">
        <ele>829</ele>
        <time>2021-06-11T21:39:33Z</time>
      </trkpt>
      <trkpt lat="45.61162" lon="3.62261">
        <ele>828</ele>
        <time>2021-06-11T21:39:35Z</time>
      </trkpt>
      <trkpt lat="45.61168" lon="3.62261">
        <ele>828</ele>
        <time>2021-06-11T21:39:36Z</time>
      </trkpt>
      <trkpt lat="45.61176" lon="3.62265">
        <ele>828</ele>
        <time>2021-06-11T21:39:38Z</time>
      </trkpt>
      <trkpt lat="45.61193" lon="3.62281">
        <ele>829</ele>
        <time>2021-06-11T21:39:41Z</time>
      </trkpt>
      <trkpt lat="45.61235" lon="3.62335">
        <ele>833</ele>
        <time>2021-06-11T21:39:51Z</time>
      </trkpt>
      <trkpt lat="45.61245" lon="3.62354">
        <ele>836</ele>
        <time>2021-06-11T21:39:54Z</time>
      </trkpt>
      <trkpt lat="45.6125" lon="3.62368">
        <ele>838</ele>
        <time>2021-06-11T21:39:56Z</time>
      </trkpt>
      <trkpt lat="45.6125" lon="3.62379">
        <ele>839</ele>
        <time>2021-06-11T21:39:58Z</time>
      </trkpt>
      <trkpt lat="45.61248" lon="3.62401">
        <ele>842</ele>
        <time>2021-06-11T21:40:00Z</time>
      </trkpt>
      <trkpt lat="45.61236" lon="3.62456">
        <ele>842</ele>
        <time>2021-06-11T21:40:08Z</time>
      </trkpt>
      <trkpt lat="45.61227" lon="3.62566">
        <ele>842</ele>
        <time>2021-06-11T21:40:21Z</time>
      </trkpt>
      <trkpt lat="45.61205" lon="3.62658">
        <ele>845</ele>
        <time>2021-06-11T21:40:33Z</time>
      </trkpt>
      <trkpt lat="45.61201" lon="3.62692">
        <ele>846</ele>
        <time>2021-06-11T21:40:38Z</time>
      </trkpt>
      <trkpt lat="45.61202" lon="3.62782">
        <ele>851</ele>
        <time>2021-06-11T21:40:49Z</time>
      </trkpt>
      <trkpt lat="45.61211" lon="3.62899">
        <ele>854</ele>
        <time>2021-06-11T21:41:04Z</time>
      </trkpt>
      <trkpt lat="45.61214" lon="3.62914">
        <ele>854</ele>
        <time>2021-06-11T21:41:06Z</time>
      </trkpt>
      <trkpt lat="45.61222" lon="3.62932">
        <ele>853</ele>
        <time>2021-06-11T21:41:08Z</time>
      </trkpt>
      <trkpt lat="45.61229" lon="3.62944">
        <ele>853</ele>
        <time>2021-06-11T21:41:10Z</time>
      </trkpt>
      <trkpt lat="45.61245" lon="3.62958">
        <ele>854</ele>
        <time>2021-06-11T21:41:13Z</time>
      </trkpt>
      <trkpt lat="45.6129" lon="3.62988">
        <ele>858</ele>
        <time>2021-06-11T21:41:22Z</time>
      </trkpt>
      <trkpt lat="45.61314" lon="3.63001">
        <ele>861</ele>
        <time>2021-06-11T21:41:27Z</time>
      </trkpt>
      <trkpt lat="45.61352" lon="3.63007">
        <ele>865</ele>
        <time>2021-06-11T21:41:34Z</time>
      </trkpt>
      <trkpt lat="45.6138" lon="3.63023">
        <ele>864</ele>
        <time>2021-06-11T21:41:39Z</time>
      </trkpt>
      <trkpt lat="45.6141" lon="3.63021">
        <ele>867</ele>
        <time>2021-06-11T21:41:44Z</time>
      </trkpt>
      <trkpt lat="45.61434" lon="3.63024">
        <ele>868</ele>
        <time>2021-06-11T21:41:49Z</time>
      </trkpt>
      <trkpt lat="45.61443" lon="3.63028">
        <ele>868</ele>
        <time>2021-06-11T21:41:50Z</time>
      </trkpt>
      <trkpt lat="45.61471" lon="3.63047">
        <ele>867</ele>
        <time>2021-06-11T21:41:56Z</time>
      </trkpt>
      <trkpt lat="45.616" lon="3.6306">
        <ele>872</ele>
        <time>2021-06-11T21:42:19Z</time>
      </trkpt>
      <trkpt lat="45.61611" lon="3.63056">
        <ele>872</ele>
        <time>2021-06-11T21:42:21Z</time>
      </trkpt>
      <trkpt lat="45.61631" lon="3.63037">
        <ele>874</ele>
        <time>2021-06-11T21:42:25Z</time>
      </trkpt>
      <trkpt lat="45.61652" lon="3.63003">
        <ele>878</ele>
        <time>2021-06-11T21:42:31Z</time>
      </trkpt>
      <trkpt lat="45.61656" lon="3.62995">
        <ele>879</ele>
        <time>2021-06-11T21:42:32Z</time>
      </trkpt>
      <trkpt lat="45.61667" lon="3.62954">
        <ele>882</ele>
        <time>2021-06-11T21:42:37Z</time>
      </trkpt>
      <trkpt lat="45.61673" lon="3.62904">
        <ele>883</ele>
        <time>2021-06-11T21:42:44Z</time>
      </trkpt>
      <trkpt lat="45.61678" lon="3.62885">
        <ele>882</ele>
        <time>2021-06-11T21:42:46Z</time>
      </trkpt>
      <trkpt lat="45.61686" lon="3.62874">
        <ele>880</ele>
        <time>2021-06-11T21:42:48Z</time>
      </trkpt>
      <trkpt lat="45.61719" lon="3.62856">
        <ele>873</ele>
        <time>2021-06-11T21:42:55Z</time>
      </trkpt>
      <trkpt lat="45.61739" lon="3.62832">
        <ele>870</ele>
        <time>2021-06-11T21:42:59Z</time>
      </trkpt>
      <trkpt lat="45.61756" lon="3.62787">
        <ele>868</ele>
        <time>2021-06-11T21:43:06Z</time>
      </trkpt>
      <trkpt lat="45.61758" lon="3.62728">
        <ele>872</ele>
        <time>2021-06-11T21:43:13Z</time>
      </trkpt>
      <trkpt lat="45.61771" lon="3.62693">
        <ele>874</ele>
        <time>2021-06-11T21:43:18Z</time>
      </trkpt>
      <trkpt lat="45.61786" lon="3.6268">
        <ele>874</ele>
        <time>2021-06-11T21:43:21Z</time>
      </trkpt>
      <trkpt lat="45.61814" lon="3.62671">
        <ele>871</ele>
        <time>2021-06-11T21:43:26Z</time>
      </trkpt>
      <trkpt lat="45.61847" lon="3.62678">
        <ele>866</ele>
        <time>2021-06-11T21:43:32Z</time>
      </trkpt>
      <trkpt lat="45.61897" lon="3.62697">
        <ele>860</ele>
        <time>2021-06-11T21:43:41Z</time>
      </trkpt>
      <trkpt lat="45.61935" lon="3.62691">
        <ele>859</ele>
        <time>2021-06-11T21:43:48Z</time>
      </trkpt>
      <trkpt lat="45.61975" lon="3.62678">
        <ele>858</ele>
        <time>2021-06-11T21:43:55Z</time>
      </trkpt>
      <trkpt lat="45.62011" lon="3.62659">
        <ele>856</ele>
        <time>2021-06-11T21:44:02Z</time>
      </trkpt>
      <trkpt lat="45.62041" lon="3.6262">
        <ele>852</ele>
        <time>2021-06-11T21:44:09Z</time>
      </trkpt>
      <trkpt lat="45.62066" lon="3.62563">
        <ele>851</ele>
        <time>2021-06-11T21:44:18Z</time>
      </trkpt>
      <trkpt lat="45.62079" lon="3.62522">
        <ele>850</ele>
        <time>2021-06-11T21:44:23Z</time>
      </trkpt>
      <trkpt lat="45.62079" lon="3.62475">
        <ele>852</ele>
        <time>2021-06-11T21:44:29Z</time>
      </trkpt>
      <trkpt lat="45.62084" lon="3.62457">
        <ele>852</ele>
        <time>2021-06-11T21:44:32Z</time>
      </trkpt>
      <trkpt lat="45.62092" lon="3.62447">
        <ele>852</ele>
        <time>2021-06-11T21:44:34Z</time>
      </trkpt>
      <trkpt lat="45.62138" lon="3.62429">
        <ele>845</ele>
        <time>2021-06-11T21:44:42Z</time>
      </trkpt>
      <trkpt lat="45.62161" lon="3.624">
        <ele>843</ele>
        <time>2021-06-11T21:44:47Z</time>
      </trkpt>
      <trkpt lat="45.62184" lon="3.62364">
        <ele>839</ele>
        <time>2021-06-11T21:44:54Z</time>
      </trkpt>
      <trkpt lat="45.62196" lon="3.62334">
        <ele>838</ele>
        <time>2021-06-11T21:44:58Z</time>
      </trkpt>
      <trkpt lat="45.62208" lon="3.62274">
        <ele>838</ele>
        <time>2021-06-11T21:45:06Z</time>
      </trkpt>
      <trkpt lat="45.6222" lon="3.62258">
        <ele>837</ele>
        <time>2021-06-11T21:45:09Z</time>
      </trkpt>
      <trkpt lat="45.62228" lon="3.62254">
        <ele>836</ele>
        <time>2021-06-11T21:45:10Z</time>
      </trkpt>
      <trkpt lat="45.62239" lon="3.62254">
        <ele>834</ele>
        <time>2021-06-11T21:45:12Z</time>
      </trkpt>
      <trkpt lat="45.62246" lon="3.62257">
        <ele>833</ele>
        <time>2021-06-11T21:45:13Z</time>
      </trkpt>
      <trkpt lat="45.62256" lon="3.6227">
        <ele>831</ele>
        <time>2021-06-11T21:45:16Z</time>
      </trkpt>
      <trkpt lat="45.62266" lon="3.62288">
        <ele>829</ele>
        <time>2021-06-11T21:45:19Z</time>
      </trkpt>
      <trkpt lat="45.62277" lon="3.62297">
        <ele>827</ele>
        <time>2021-06-11T21:45:21Z</time>
      </trkpt>
      <trkpt lat="45.62289" lon="3.62303">
        <ele>826</ele>
        <time>2021-06-11T21:45:23Z</time>
      </trkpt>
      <trkpt lat="45.62322" lon="3.62307">
        <ele>825</ele>
        <time>2021-06-11T21:45:29Z</time>
      </trkpt>
      <trkpt lat="45.62335" lon="3.6231">
        <ele>824</ele>
        <time>2021-06-11T21:45:31Z</time>
      </trkpt>
      <trkpt lat="45.62339" lon="3.62313">
        <ele>825</ele>
        <time>2021-06-11T21:45:32Z</time>
      </trkpt>
      <trkpt lat="45.62346" lon="3.62323">
        <ele>825</ele>
        <time>2021-06-11T21:45:34Z</time>
      </trkpt>
      <trkpt lat="45.6235" lon="3.62333">
        <ele>824</ele>
        <time>2021-06-11T21:45:35Z</time>
      </trkpt>
      <trkpt lat="45.62356" lon="3.62382">
        <ele>820</ele>
        <time>2021-06-11T21:45:41Z</time>
      </trkpt>
      <trkpt lat="45.6236" lon="3.62393">
        <ele>819</ele>
        <time>2021-06-11T21:45:43Z</time>
      </trkpt>
      <trkpt lat="45.62386" lon="3.62443">
        <ele>819</ele>
        <time>2021-06-11T21:45:51Z</time>
      </trkpt>
      <trkpt lat="45.62388" lon="3.62452">
        <ele>819</ele>
        <time>2021-06-11T21:45:52Z</time>
      </trkpt>
      <trkpt lat="45.62389" lon="3.6246">
        <ele>818</ele>
        <time>2021-06-11T21:45:53Z</time>
      </trkpt>
      <trkpt lat="45.62388" lon="3.62473">
        <ele>818</ele>
        <time>2021-06-11T21:45:55Z</time>
      </trkpt>
      <trkpt lat="45.62382" lon="3.625">
        <ele>815</ele>
        <time>2021-06-11T21:45:58Z</time>
      </trkpt>
      <trkpt lat="45.6238" lon="3.62516">
        <ele>814</ele>
        <time>2021-06-11T21:46:00Z</time>
      </trkpt>
      <trkpt lat="45.6238" lon="3.62524">
        <ele>813</ele>
        <time>2021-06-11T21:46:01Z</time>
      </trkpt>
      <trkpt lat="45.62382" lon="3.62531">
        <ele>813</ele>
        <time>2021-06-11T21:46:02Z</time>
      </trkpt>
      <trkpt lat="45.62405" lon="3.62563">
        <ele>814</ele>
        <time>2021-06-11T21:46:08Z</time>
      </trkpt>
      <trkpt lat="45.6242" lon="3.62579">
        <ele>815</ele>
        <time>2021-06-11T21:46:11Z</time>
      </trkpt>
      <trkpt lat="45.6245" lon="3.62598">
        <ele>819</ele>
        <time>2021-06-11T21:46:17Z</time>
      </trkpt>
      <trkpt lat="45.62463" lon="3.6261">
        <ele>820</ele>
        <time>2021-06-11T21:46:20Z</time>
      </trkpt>
      <trkpt lat="45.62474" lon="3.62629">
        <ele>819</ele>
        <time>2021-06-11T21:46:23Z</time>
      </trkpt>
      <trkpt lat="45.6249" lon="3.62664">
        <ele>817</ele>
        <time>2021-06-11T21:46:28Z</time>
      </trkpt>
      <trkpt lat="45.62503" lon="3.62682">
        <ele>816</ele>
        <time>2021-06-11T21:46:31Z</time>
      </trkpt>
      <trkpt lat="45.62519" lon="3.62699">
        <ele>814</ele>
        <time>2021-06-11T21:46:35Z</time>
      </trkpt>
      <trkpt lat="45.62531" lon="3.6271">
        <ele>813</ele>
        <time>2021-06-11T21:46:37Z</time>
      </trkpt>
      <trkpt lat="45.62543" lon="3.62715">
        <ele>812</ele>
        <time>2021-06-11T21:46:40Z</time>
      </trkpt>
      <trkpt lat="45.62573" lon="3.62721">
        <ele>813</ele>
        <time>2021-06-11T21:46:45Z</time>
      </trkpt>
      <trkpt lat="45.62605" lon="3.62734">
        <ele>810</ele>
        <time>2021-06-11T21:46:51Z</time>
      </trkpt>
      <trkpt lat="45.62622" lon="3.62748">
        <ele>806</ele>
        <time>2021-06-11T21:46:54Z</time>
      </trkpt>
      <trkpt lat="45.62628" lon="3.62759">
        <ele>805</ele>
        <time>2021-06-11T21:46:56Z</time>
      </trkpt>
      <trkpt lat="45.6263" lon="3.62771">
        <ele>803</ele>
        <time>2021-06-11T21:46:58Z</time>
      </trkpt>
      <trkpt lat="45.62628" lon="3.62843">
        <ele>796</ele>
        <time>2021-06-11T21:47:07Z</time>
      </trkpt>
      <trkpt lat="45.62633" lon="3.62862">
        <ele>794</ele>
        <time>2021-06-11T21:47:09Z</time>
      </trkpt>
      <trkpt lat="45.62639" lon="3.6287">
        <ele>793</ele>
        <time>2021-06-11T21:47:11Z</time>
      </trkpt>
      <trkpt lat="45.62651" lon="3.62879">
        <ele>792</ele>
        <time>2021-06-11T21:47:13Z</time>
      </trkpt>
      <trkpt lat="45.62663" lon="3.62885">
        <ele>791</ele>
        <time>2021-06-11T21:47:15Z</time>
      </trkpt>
      <trkpt lat="45.62677" lon="3.62885">
        <ele>790</ele>
        <time>2021-06-11T21:47:18Z</time>
      </trkpt>
      <trkpt lat="45.6271" lon="3.62875">
        <ele>790</ele>
        <time>2021-06-11T21:47:24Z</time>
      </trkpt>
      <trkpt lat="45.62723" lon="3.62877">
        <ele>789</ele>
        <time>2021-06-11T21:47:26Z</time>
      </trkpt>
      <trkpt lat="45.62781" lon="3.629">
        <ele>783</ele>
        <time>2021-06-11T21:47:37Z</time>
      </trkpt>
      <trkpt lat="45.62792" lon="3.62902">
        <ele>783</ele>
        <time>2021-06-11T21:47:39Z</time>
      </trkpt>
      <trkpt lat="45.62811" lon="3.62896">
        <ele>783</ele>
        <time>2021-06-11T21:47:42Z</time>
      </trkpt>
      <trkpt lat="45.62845" lon="3.62878">
        <ele>784</ele>
        <time>2021-06-11T21:47:49Z</time>
      </trkpt>
      <trkpt lat="45.62855" lon="3.62877">
        <ele>784</ele>
        <time>2021-06-11T21:47:50Z</time>
      </trkpt>
      <trkpt lat="45.62863" lon="3.6288">
        <ele>784</ele>
        <time>2021-06-11T21:47:52Z</time>
      </trkpt>
      <trkpt lat="45.6292" lon="3.62942">
        <ele>776</ele>
        <time>2021-06-11T21:48:05Z</time>
      </trkpt>
      <trkpt lat="45.62925" lon="3.62945">
        <ele>776</ele>
        <time>2021-06-11T21:48:06Z</time>
      </trkpt>
      <trkpt lat="45.62951" lon="3.62954">
        <ele>779</ele>
        <time>2021-06-11T21:48:10Z</time>
      </trkpt>
      <trkpt lat="45.62963" lon="3.62964">
        <ele>780</ele>
        <time>2021-06-11T21:48:13Z</time>
      </trkpt>
      <trkpt lat="45.62968" lon="3.62975">
        <ele>780</ele>
        <time>2021-06-11T21:48:14Z</time>
      </trkpt>
      <trkpt lat="45.6297" lon="3.62987">
        <ele>779</ele>
        <time>2021-06-11T21:48:16Z</time>
      </trkpt>
      <trkpt lat="45.62963" lon="3.63086">
        <ele>774</ele>
        <time>2021-06-11T21:48:28Z</time>
      </trkpt>
      <trkpt lat="45.62966" lon="3.63117">
        <ele>771</ele>
        <time>2021-06-11T21:48:32Z</time>
      </trkpt>
      <trkpt lat="45.6297" lon="3.63134">
        <ele>770</ele>
        <time>2021-06-11T21:48:34Z</time>
      </trkpt>
      <trkpt lat="45.62976" lon="3.63149">
        <ele>770</ele>
        <time>2021-06-11T21:48:37Z</time>
      </trkpt>
      <trkpt lat="45.62988" lon="3.63166">
        <ele>769</ele>
        <time>2021-06-11T21:48:40Z</time>
      </trkpt>
      <trkpt lat="45.63038" lon="3.63224">
        <ele>765</ele>
        <time>2021-06-11T21:48:51Z</time>
      </trkpt>
      <trkpt lat="45.63047" lon="3.63239">
        <ele>763</ele>
        <time>2021-06-11T21:48:54Z</time>
      </trkpt>
      <trkpt lat="45.63078" lon="3.63317">
        <ele>757</ele>
        <time>2021-06-11T21:49:05Z</time>
      </trkpt>
      <trkpt lat="45.631" lon="3.63349">
        <ele>754</ele>
        <time>2021-06-11T21:49:10Z</time>
      </trkpt>
      <trkpt lat="45.63175" lon="3.63424">
        <ele>747</ele>
        <time>2021-06-11T21:49:27Z</time>
      </trkpt>
      <trkpt lat="45.63189" lon="3.63441">
        <ele>746</ele>
        <time>2021-06-11T21:49:30Z</time>
      </trkpt>
      <trkpt lat="45.63214" lon="3.6351">
        <ele>742</ele>
        <time>2021-06-11T21:49:40Z</time>
      </trkpt>
      <trkpt lat="45.63245" lon="3.6355">
        <ele>741</ele>
        <time>2021-06-11T21:49:47Z</time>
      </trkpt>
      <trkpt lat="45.63266" lon="3.63571">
        <ele>741</ele>
        <time>2021-06-11T21:49:52Z</time>
      </trkpt>
      <trkpt lat="45.63369" lon="3.63646">
        <ele>738</ele>
        <time>2021-06-11T21:50:12Z</time>
      </trkpt>
      <trkpt lat="45.63397" lon="3.63656">
        <ele>735</ele>
        <time>2021-06-11T21:50:17Z</time>
      </trkpt>
      <trkpt lat="45.63421" lon="3.63659">
        <ele>734</ele>
        <time>2021-06-11T21:50:21Z</time>
      </trkpt>
      <trkpt lat="45.63434" lon="3.63665">
        <ele>734</ele>
        <time>2021-06-11T21:50:24Z</time>
      </trkpt>
      <trkpt lat="45.63444" lon="3.6368">
        <ele>733</ele>
        <time>2021-06-11T21:50:26Z</time>
      </trkpt>
      <trkpt lat="45.63449" lon="3.63698">
        <ele>732</ele>
        <time>2021-06-11T21:50:29Z</time>
      </trkpt>
      <trkpt lat="45.63456" lon="3.63752">
        <ele>729</ele>
        <time>2021-06-11T21:50:36Z</time>
      </trkpt>
      <trkpt lat="45.63455" lon="3.63752">
        <ele>729</ele>
        <time>2021-06-11T21:50:36Z</time>
      </trkpt>
    </trkseg>
  </trk>
</gpx>